<?xml version="1.0" encoding="UTF-8" standalone="no" ?>
<gpx xmlns="http://www.topografix.com/GPX/1/1" xmlns:xsi="http://www.w3.org/2001/XMLSchema-instance" xsi:schemaLocation="http://www.topografix.com/GPX/1/1 http://www.topografix.com/GPX/1/1/gpx.xsd" version="1.1" creator="VisuGPX - https://www.visugpx.com">
  <metadata>
    <name>Chambon Lavalette</name>
    <desc><![CDATA[Combinaison de parcours ffc VTT du haut lignon pour faire une boucle depuis le Chambon sur lignon jusqu'au lac de Lavalette. Combinaison des parcours 2,13 et 11]]></desc>
  </metadata>
  <trk>
    <name><![CDATA[2021-08-12_101105]]></name>
    <extensions>
      <line xmlns="http://www.topografix.com/GPX/gpx_style/0/2">
        <width>4</width>
      </line>
    </extensions>
    <trkseg>
      <trkpt lat="45.05925" lon="4.30433">
        <ele>941.4</ele>
        <time>2021-08-12T08:11:06.000Z</time>
      </trkpt>
      <trkpt lat="45.05925" lon="4.30433">
        <ele>941.4</ele>
        <time>2021-08-12T08:11:07.000Z</time>
      </trkpt>
      <trkpt lat="45.05915" lon="4.30434">
        <ele>939.2</ele>
        <time>2021-08-12T08:11:19.000Z</time>
      </trkpt>
      <trkpt lat="45.05915" lon="4.30449">
        <ele>940.2</ele>
        <time>2021-08-12T08:11:23.000Z</time>
      </trkpt>
      <trkpt lat="45.05915" lon="4.30449">
        <ele>940.2</ele>
        <time>2021-08-12T08:11:23.000Z</time>
      </trkpt>
      <trkpt lat="45.05916" lon="4.30462">
        <ele>941.1</ele>
        <time>2021-08-12T08:11:26.000Z</time>
      </trkpt>
      <trkpt lat="45.05913" lon="4.30474">
        <ele>941.9</ele>
        <time>2021-08-12T08:11:30.000Z</time>
      </trkpt>
      <trkpt lat="45.05912" lon="4.30488">
        <ele>942.6</ele>
        <time>2021-08-12T08:11:33.000Z</time>
      </trkpt>
      <trkpt lat="45.05917" lon="4.30501">
        <ele>944.2</ele>
        <time>2021-08-12T08:11:36.000Z</time>
      </trkpt>
      <trkpt lat="45.0593" lon="4.30502">
        <ele>947.9</ele>
        <time>2021-08-12T08:11:38.000Z</time>
      </trkpt>
      <trkpt lat="45.0594" lon="4.30502">
        <ele>951</ele>
        <time>2021-08-12T08:11:40.000Z</time>
      </trkpt>
      <trkpt lat="45.05953" lon="4.30509">
        <ele>955.2</ele>
        <time>2021-08-12T08:11:42.000Z</time>
      </trkpt>
      <trkpt lat="45.05962" lon="4.30523">
        <ele>958.8</ele>
        <time>2021-08-12T08:11:44.000Z</time>
      </trkpt>
      <trkpt lat="45.05969" lon="4.30533">
        <ele>961.4</ele>
        <time>2021-08-12T08:11:46.000Z</time>
      </trkpt>
      <trkpt lat="45.05981" lon="4.30531">
        <ele>964.6</ele>
        <time>2021-08-12T08:11:49.000Z</time>
      </trkpt>
      <trkpt lat="45.05992" lon="4.30525">
        <ele>967.1</ele>
        <time>2021-08-12T08:11:52.000Z</time>
      </trkpt>
      <trkpt lat="45.06" lon="4.30516">
        <ele>968.8</ele>
        <time>2021-08-12T08:11:55.000Z</time>
      </trkpt>
      <trkpt lat="45.06004" lon="4.30504">
        <ele>969.1</ele>
        <time>2021-08-12T08:11:58.000Z</time>
      </trkpt>
      <trkpt lat="45.06011" lon="4.30492">
        <ele>969.5</ele>
        <time>2021-08-12T08:12:02.000Z</time>
      </trkpt>
      <trkpt lat="45.06015" lon="4.30477">
        <ele>969.1</ele>
        <time>2021-08-12T08:12:06.000Z</time>
      </trkpt>
      <trkpt lat="45.0602" lon="4.30465">
        <ele>969.3</ele>
        <time>2021-08-12T08:12:10.000Z</time>
      </trkpt>
      <trkpt lat="45.06025" lon="4.30454">
        <ele>969.3</ele>
        <time>2021-08-12T08:12:14.000Z</time>
      </trkpt>
      <trkpt lat="45.06028" lon="4.30442">
        <ele>969</ele>
        <time>2021-08-12T08:12:18.000Z</time>
      </trkpt>
      <trkpt lat="45.06029" lon="4.30426">
        <ele>968</ele>
        <time>2021-08-12T08:12:23.000Z</time>
      </trkpt>
      <trkpt lat="45.06029" lon="4.30411">
        <ele>967.2</ele>
        <time>2021-08-12T08:12:29.000Z</time>
      </trkpt>
      <trkpt lat="45.06026" lon="4.30399">
        <ele>966.3</ele>
        <time>2021-08-12T08:12:33.000Z</time>
      </trkpt>
      <trkpt lat="45.06024" lon="4.30384">
        <ele>965.7</ele>
        <time>2021-08-12T08:12:38.000Z</time>
      </trkpt>
      <trkpt lat="45.06023" lon="4.30371">
        <ele>965.2</ele>
        <time>2021-08-12T08:12:42.000Z</time>
      </trkpt>
      <trkpt lat="45.06032" lon="4.30372">
        <ele>966.9</ele>
        <time>2021-08-12T08:12:49.000Z</time>
      </trkpt>
      <trkpt lat="45.06041" lon="4.30381">
        <ele>968.8</ele>
        <time>2021-08-12T08:12:54.000Z</time>
      </trkpt>
      <trkpt lat="45.06049" lon="4.3039">
        <ele>970.6</ele>
        <time>2021-08-12T08:12:59.000Z</time>
      </trkpt>
      <trkpt lat="45.06056" lon="4.30402">
        <ele>972.4</ele>
        <time>2021-08-12T08:13:04.000Z</time>
      </trkpt>
      <trkpt lat="45.06061" lon="4.30413">
        <ele>974</ele>
        <time>2021-08-12T08:13:09.000Z</time>
      </trkpt>
      <trkpt lat="45.0606" lon="4.30426">
        <ele>974.6</ele>
        <time>2021-08-12T08:13:15.000Z</time>
      </trkpt>
      <trkpt lat="45.06063" lon="4.3044">
        <ele>976.4</ele>
        <time>2021-08-12T08:13:21.000Z</time>
      </trkpt>
      <trkpt lat="45.06066" lon="4.30453">
        <ele>977.8</ele>
        <time>2021-08-12T08:13:27.000Z</time>
      </trkpt>
      <trkpt lat="45.06065" lon="4.30465">
        <ele>978.7</ele>
        <time>2021-08-12T08:13:32.000Z</time>
      </trkpt>
      <trkpt lat="45.06067" lon="4.30478">
        <ele>980</ele>
        <time>2021-08-12T08:13:36.000Z</time>
      </trkpt>
      <trkpt lat="45.06068" lon="4.30493">
        <ele>981.2</ele>
        <time>2021-08-12T08:13:41.000Z</time>
      </trkpt>
      <trkpt lat="45.06065" lon="4.30506">
        <ele>981.5</ele>
        <time>2021-08-12T08:13:47.000Z</time>
      </trkpt>
      <trkpt lat="45.0606" lon="4.30519">
        <ele>981.1</ele>
        <time>2021-08-12T08:13:53.000Z</time>
      </trkpt>
      <trkpt lat="45.0606" lon="4.30534">
        <ele>981.6</ele>
        <time>2021-08-12T08:14:02.000Z</time>
      </trkpt>
      <trkpt lat="45.06055" lon="4.30548">
        <ele>981.1</ele>
        <time>2021-08-12T08:14:06.000Z</time>
      </trkpt>
      <trkpt lat="45.06053" lon="4.30563">
        <ele>981.3</ele>
        <time>2021-08-12T08:14:11.000Z</time>
      </trkpt>
      <trkpt lat="45.0605" lon="4.30578">
        <ele>981.4</ele>
        <time>2021-08-12T08:14:15.000Z</time>
      </trkpt>
      <trkpt lat="45.06046" lon="4.30592">
        <ele>981.4</ele>
        <time>2021-08-12T08:14:19.000Z</time>
      </trkpt>
      <trkpt lat="45.0605" lon="4.30604">
        <ele>982.8</ele>
        <time>2021-08-12T08:14:23.000Z</time>
      </trkpt>
      <trkpt lat="45.06051" lon="4.30617">
        <ele>983.9</ele>
        <time>2021-08-12T08:14:28.000Z</time>
      </trkpt>
      <trkpt lat="45.06055" lon="4.30633">
        <ele>985.6</ele>
        <time>2021-08-12T08:14:33.000Z</time>
      </trkpt>
      <trkpt lat="45.0606" lon="4.30648">
        <ele>987.7</ele>
        <time>2021-08-12T08:14:38.000Z</time>
      </trkpt>
      <trkpt lat="45.06069" lon="4.30643">
        <ele>989.3</ele>
        <time>2021-08-12T08:14:43.000Z</time>
      </trkpt>
      <trkpt lat="45.06076" lon="4.30634">
        <ele>990.1</ele>
        <time>2021-08-12T08:14:48.000Z</time>
      </trkpt>
      <trkpt lat="45.06086" lon="4.30632">
        <ele>991.7</ele>
        <time>2021-08-12T08:14:54.000Z</time>
      </trkpt>
      <trkpt lat="45.06095" lon="4.30635">
        <ele>992.6</ele>
        <time>2021-08-12T08:15:01.000Z</time>
      </trkpt>
      <trkpt lat="45.06104" lon="4.30637">
        <ele>993.6</ele>
        <time>2021-08-12T08:15:06.000Z</time>
      </trkpt>
      <trkpt lat="45.06113" lon="4.30638">
        <ele>994.4</ele>
        <time>2021-08-12T08:15:11.000Z</time>
      </trkpt>
      <trkpt lat="45.06124" lon="4.30634">
        <ele>995</ele>
        <time>2021-08-12T08:15:18.000Z</time>
      </trkpt>
      <trkpt lat="45.06128" lon="4.3062">
        <ele>994.8</ele>
        <time>2021-08-12T08:15:22.000Z</time>
      </trkpt>
      <trkpt lat="45.06132" lon="4.30604">
        <ele>994.6</ele>
        <time>2021-08-12T08:15:26.000Z</time>
      </trkpt>
      <trkpt lat="45.06135" lon="4.30591">
        <ele>994.4</ele>
        <time>2021-08-12T08:15:29.000Z</time>
      </trkpt>
      <trkpt lat="45.06138" lon="4.30578">
        <ele>994.5</ele>
        <time>2021-08-12T08:15:32.000Z</time>
      </trkpt>
      <trkpt lat="45.06142" lon="4.30565">
        <ele>994.8</ele>
        <time>2021-08-12T08:15:35.000Z</time>
      </trkpt>
      <trkpt lat="45.06146" lon="4.30553">
        <ele>995.3</ele>
        <time>2021-08-12T08:15:38.000Z</time>
      </trkpt>
      <trkpt lat="45.06151" lon="4.30539">
        <ele>995.8</ele>
        <time>2021-08-12T08:15:42.000Z</time>
      </trkpt>
      <trkpt lat="45.06157" lon="4.30526">
        <ele>996.6</ele>
        <time>2021-08-12T08:15:46.000Z</time>
      </trkpt>
      <trkpt lat="45.06166" lon="4.30522">
        <ele>997.9</ele>
        <time>2021-08-12T08:15:51.000Z</time>
      </trkpt>
      <trkpt lat="45.06176" lon="4.30521">
        <ele>999.2</ele>
        <time>2021-08-12T08:15:56.000Z</time>
      </trkpt>
      <trkpt lat="45.06187" lon="4.30517">
        <ele>1000.6</ele>
        <time>2021-08-12T08:16:02.000Z</time>
      </trkpt>
      <trkpt lat="45.06191" lon="4.305">
        <ele>1001.9</ele>
        <time>2021-08-12T08:16:05.000Z</time>
      </trkpt>
      <trkpt lat="45.0619" lon="4.30483">
        <ele>1001.8</ele>
        <time>2021-08-12T08:16:07.000Z</time>
      </trkpt>
      <trkpt lat="45.06191" lon="4.30465">
        <ele>1002</ele>
        <time>2021-08-12T08:16:09.000Z</time>
      </trkpt>
      <trkpt lat="45.06192" lon="4.30447">
        <ele>1002.4</ele>
        <time>2021-08-12T08:16:11.000Z</time>
      </trkpt>
      <trkpt lat="45.06203" lon="4.30447">
        <ele>1004.2</ele>
        <time>2021-08-12T08:16:15.000Z</time>
      </trkpt>
      <trkpt lat="45.06209" lon="4.30457">
        <ele>1005.1</ele>
        <time>2021-08-12T08:16:20.000Z</time>
      </trkpt>
      <trkpt lat="45.06215" lon="4.30466">
        <ele>1006.1</ele>
        <time>2021-08-12T08:16:25.000Z</time>
      </trkpt>
      <trkpt lat="45.06225" lon="4.30468">
        <ele>1007.6</ele>
        <time>2021-08-12T08:16:30.000Z</time>
      </trkpt>
      <trkpt lat="45.06235" lon="4.30464">
        <ele>1009.3</ele>
        <time>2021-08-12T08:16:37.000Z</time>
      </trkpt>
      <trkpt lat="45.06243" lon="4.30455">
        <ele>1010.9</ele>
        <time>2021-08-12T08:16:42.000Z</time>
      </trkpt>
      <trkpt lat="45.0625" lon="4.30447">
        <ele>1012.3</ele>
        <time>2021-08-12T08:16:46.000Z</time>
      </trkpt>
      <trkpt lat="45.06255" lon="4.30436">
        <ele>1012.4</ele>
        <time>2021-08-12T08:16:49.000Z</time>
      </trkpt>
      <trkpt lat="45.0626" lon="4.30424">
        <ele>1012.8</ele>
        <time>2021-08-12T08:16:53.000Z</time>
      </trkpt>
      <trkpt lat="45.06267" lon="4.30414">
        <ele>1012.7</ele>
        <time>2021-08-12T08:16:57.000Z</time>
      </trkpt>
      <trkpt lat="45.06276" lon="4.30404">
        <ele>1012.2</ele>
        <time>2021-08-12T08:17:01.000Z</time>
      </trkpt>
      <trkpt lat="45.06282" lon="4.30391">
        <ele>1011.5</ele>
        <time>2021-08-12T08:17:04.000Z</time>
      </trkpt>
      <trkpt lat="45.06289" lon="4.30377">
        <ele>1011</ele>
        <time>2021-08-12T08:17:07.000Z</time>
      </trkpt>
      <trkpt lat="45.06296" lon="4.30366">
        <ele>1010.7</ele>
        <time>2021-08-12T08:17:10.000Z</time>
      </trkpt>
      <trkpt lat="45.06303" lon="4.30356">
        <ele>1010.6</ele>
        <time>2021-08-12T08:17:12.000Z</time>
      </trkpt>
      <trkpt lat="45.0631" lon="4.30347">
        <ele>1010.7</ele>
        <time>2021-08-12T08:17:14.000Z</time>
      </trkpt>
      <trkpt lat="45.06318" lon="4.30336">
        <ele>1011</ele>
        <time>2021-08-12T08:17:16.000Z</time>
      </trkpt>
      <trkpt lat="45.06323" lon="4.30322">
        <ele>1009.2</ele>
        <time>2021-08-12T08:17:18.000Z</time>
      </trkpt>
      <trkpt lat="45.06328" lon="4.30309">
        <ele>1007.2</ele>
        <time>2021-08-12T08:17:20.000Z</time>
      </trkpt>
      <trkpt lat="45.06333" lon="4.30296">
        <ele>1005.2</ele>
        <time>2021-08-12T08:17:22.000Z</time>
      </trkpt>
      <trkpt lat="45.06338" lon="4.3028">
        <ele>1001.4</ele>
        <time>2021-08-12T08:17:24.000Z</time>
      </trkpt>
      <trkpt lat="45.06342" lon="4.30268">
        <ele>998.4</ele>
        <time>2021-08-12T08:17:26.000Z</time>
      </trkpt>
      <trkpt lat="45.06351" lon="4.30261">
        <ele>995.4</ele>
        <time>2021-08-12T08:17:31.000Z</time>
      </trkpt>
      <trkpt lat="45.06362" lon="4.30254">
        <ele>991.9</ele>
        <time>2021-08-12T08:17:35.000Z</time>
      </trkpt>
      <trkpt lat="45.0637" lon="4.30247">
        <ele>989.4</ele>
        <time>2021-08-12T08:17:37.000Z</time>
      </trkpt>
      <trkpt lat="45.06381" lon="4.30249">
        <ele>987.7</ele>
        <time>2021-08-12T08:17:40.000Z</time>
      </trkpt>
      <trkpt lat="45.06393" lon="4.30252">
        <ele>985.7</ele>
        <time>2021-08-12T08:17:43.000Z</time>
      </trkpt>
      <trkpt lat="45.06402" lon="4.30253">
        <ele>984.2</ele>
        <time>2021-08-12T08:17:45.000Z</time>
      </trkpt>
      <trkpt lat="45.06412" lon="4.30253">
        <ele>982.1</ele>
        <time>2021-08-12T08:17:47.000Z</time>
      </trkpt>
      <trkpt lat="45.06425" lon="4.30253">
        <ele>982.1</ele>
        <time>2021-08-12T08:17:50.000Z</time>
      </trkpt>
      <trkpt lat="45.06438" lon="4.30256">
        <ele>983.5</ele>
        <time>2021-08-12T08:17:53.000Z</time>
      </trkpt>
      <trkpt lat="45.06447" lon="4.30259">
        <ele>984.5</ele>
        <time>2021-08-12T08:17:55.000Z</time>
      </trkpt>
      <trkpt lat="45.06456" lon="4.30265">
        <ele>985.4</ele>
        <time>2021-08-12T08:17:57.000Z</time>
      </trkpt>
      <trkpt lat="45.06464" lon="4.30271">
        <ele>986.2</ele>
        <time>2021-08-12T08:17:59.000Z</time>
      </trkpt>
      <trkpt lat="45.06473" lon="4.3028">
        <ele>986.8</ele>
        <time>2021-08-12T08:18:02.000Z</time>
      </trkpt>
      <trkpt lat="45.06481" lon="4.30292">
        <ele>987.2</ele>
        <time>2021-08-12T08:18:05.000Z</time>
      </trkpt>
      <trkpt lat="45.06485" lon="4.30305">
        <ele>987.1</ele>
        <time>2021-08-12T08:18:09.000Z</time>
      </trkpt>
      <trkpt lat="45.06489" lon="4.30321">
        <ele>986.9</ele>
        <time>2021-08-12T08:18:13.000Z</time>
      </trkpt>
      <trkpt lat="45.06488" lon="4.30337">
        <ele>986.8</ele>
        <time>2021-08-12T08:18:17.000Z</time>
      </trkpt>
      <trkpt lat="45.06483" lon="4.30352">
        <ele>987.7</ele>
        <time>2021-08-12T08:18:22.000Z</time>
      </trkpt>
      <trkpt lat="45.06477" lon="4.30364">
        <ele>988.4</ele>
        <time>2021-08-12T08:18:25.000Z</time>
      </trkpt>
      <trkpt lat="45.06468" lon="4.30375">
        <ele>989.2</ele>
        <time>2021-08-12T08:18:28.000Z</time>
      </trkpt>
      <trkpt lat="45.06461" lon="4.30385">
        <ele>989.7</ele>
        <time>2021-08-12T08:18:30.000Z</time>
      </trkpt>
      <trkpt lat="45.06454" lon="4.30395">
        <ele>990.1</ele>
        <time>2021-08-12T08:18:32.000Z</time>
      </trkpt>
      <trkpt lat="45.06445" lon="4.30407">
        <ele>990.5</ele>
        <time>2021-08-12T08:18:36.000Z</time>
      </trkpt>
      <trkpt lat="45.06439" lon="4.30417">
        <ele>990.7</ele>
        <time>2021-08-12T08:18:39.000Z</time>
      </trkpt>
      <trkpt lat="45.0643" lon="4.30431">
        <ele>991.7</ele>
        <time>2021-08-12T08:18:42.000Z</time>
      </trkpt>
      <trkpt lat="45.0642" lon="4.30441">
        <ele>992.4</ele>
        <time>2021-08-12T08:18:45.000Z</time>
      </trkpt>
      <trkpt lat="45.06411" lon="4.30452">
        <ele>994.1</ele>
        <time>2021-08-12T08:18:48.000Z</time>
      </trkpt>
      <trkpt lat="45.06409" lon="4.30464">
        <ele>995.1</ele>
        <time>2021-08-12T08:18:50.000Z</time>
      </trkpt>
      <trkpt lat="45.06415" lon="4.3048">
        <ele>995.1</ele>
        <time>2021-08-12T08:18:52.000Z</time>
      </trkpt>
      <trkpt lat="45.06424" lon="4.30488">
        <ele>995.3</ele>
        <time>2021-08-12T08:18:54.000Z</time>
      </trkpt>
      <trkpt lat="45.06437" lon="4.3049">
        <ele>995.6</ele>
        <time>2021-08-12T08:18:57.000Z</time>
      </trkpt>
      <trkpt lat="45.06449" lon="4.3049">
        <ele>995.7</ele>
        <time>2021-08-12T08:19:00.000Z</time>
      </trkpt>
      <trkpt lat="45.06461" lon="4.30494">
        <ele>996.1</ele>
        <time>2021-08-12T08:19:03.000Z</time>
      </trkpt>
      <trkpt lat="45.06473" lon="4.30497">
        <ele>996.4</ele>
        <time>2021-08-12T08:19:06.000Z</time>
      </trkpt>
      <trkpt lat="45.06484" lon="4.30497">
        <ele>996.6</ele>
        <time>2021-08-12T08:19:09.000Z</time>
      </trkpt>
      <trkpt lat="45.06494" lon="4.30499">
        <ele>996.8</ele>
        <time>2021-08-12T08:19:12.000Z</time>
      </trkpt>
      <trkpt lat="45.06506" lon="4.30499">
        <ele>997.3</ele>
        <time>2021-08-12T08:19:15.000Z</time>
      </trkpt>
      <trkpt lat="45.06516" lon="4.30499">
        <ele>998</ele>
        <time>2021-08-12T08:19:18.000Z</time>
      </trkpt>
      <trkpt lat="45.06529" lon="4.305">
        <ele>999</ele>
        <time>2021-08-12T08:19:21.000Z</time>
      </trkpt>
      <trkpt lat="45.06539" lon="4.305">
        <ele>999.8</ele>
        <time>2021-08-12T08:19:24.000Z</time>
      </trkpt>
      <trkpt lat="45.06551" lon="4.30502">
        <ele>1000.7</ele>
        <time>2021-08-12T08:19:28.000Z</time>
      </trkpt>
      <trkpt lat="45.06562" lon="4.30503">
        <ele>1001.4</ele>
        <time>2021-08-12T08:19:32.000Z</time>
      </trkpt>
      <trkpt lat="45.06572" lon="4.30504">
        <ele>1002.1</ele>
        <time>2021-08-12T08:19:35.000Z</time>
      </trkpt>
      <trkpt lat="45.06582" lon="4.30508">
        <ele>1002.5</ele>
        <time>2021-08-12T08:19:39.000Z</time>
      </trkpt>
      <trkpt lat="45.06592" lon="4.30507">
        <ele>1003.5</ele>
        <time>2021-08-12T08:19:43.000Z</time>
      </trkpt>
      <trkpt lat="45.06603" lon="4.30507">
        <ele>1004.6</ele>
        <time>2021-08-12T08:19:47.000Z</time>
      </trkpt>
      <trkpt lat="45.06613" lon="4.30508">
        <ele>1005.6</ele>
        <time>2021-08-12T08:19:51.000Z</time>
      </trkpt>
      <trkpt lat="45.06625" lon="4.30511">
        <ele>1006.5</ele>
        <time>2021-08-12T08:19:55.000Z</time>
      </trkpt>
      <trkpt lat="45.06634" lon="4.30513">
        <ele>1007.2</ele>
        <time>2021-08-12T08:19:58.000Z</time>
      </trkpt>
      <trkpt lat="45.06643" lon="4.30516">
        <ele>1007.7</ele>
        <time>2021-08-12T08:20:01.000Z</time>
      </trkpt>
      <trkpt lat="45.06653" lon="4.30522">
        <ele>1008</ele>
        <time>2021-08-12T08:20:05.000Z</time>
      </trkpt>
      <trkpt lat="45.06663" lon="4.30529">
        <ele>1007.9</ele>
        <time>2021-08-12T08:20:09.000Z</time>
      </trkpt>
      <trkpt lat="45.06672" lon="4.30534">
        <ele>1007.4</ele>
        <time>2021-08-12T08:20:12.000Z</time>
      </trkpt>
      <trkpt lat="45.06682" lon="4.30538">
        <ele>1006.7</ele>
        <time>2021-08-12T08:20:16.000Z</time>
      </trkpt>
      <trkpt lat="45.06692" lon="4.30544">
        <ele>1005.9</ele>
        <time>2021-08-12T08:20:20.000Z</time>
      </trkpt>
      <trkpt lat="45.06703" lon="4.3055">
        <ele>1005</ele>
        <time>2021-08-12T08:20:24.000Z</time>
      </trkpt>
      <trkpt lat="45.06712" lon="4.30555">
        <ele>1004.4</ele>
        <time>2021-08-12T08:20:28.000Z</time>
      </trkpt>
      <trkpt lat="45.06723" lon="4.3056">
        <ele>1003.8</ele>
        <time>2021-08-12T08:20:32.000Z</time>
      </trkpt>
      <trkpt lat="45.06735" lon="4.30564">
        <ele>1003.4</ele>
        <time>2021-08-12T08:20:36.000Z</time>
      </trkpt>
      <trkpt lat="45.06744" lon="4.30565">
        <ele>1003.3</ele>
        <time>2021-08-12T08:20:39.000Z</time>
      </trkpt>
      <trkpt lat="45.06755" lon="4.30568">
        <ele>1003.3</ele>
        <time>2021-08-12T08:20:42.000Z</time>
      </trkpt>
      <trkpt lat="45.06764" lon="4.30568">
        <ele>1003.7</ele>
        <time>2021-08-12T08:20:45.000Z</time>
      </trkpt>
      <trkpt lat="45.06777" lon="4.30566">
        <ele>1004.3</ele>
        <time>2021-08-12T08:20:48.000Z</time>
      </trkpt>
      <trkpt lat="45.06789" lon="4.3056">
        <ele>1004.8</ele>
        <time>2021-08-12T08:20:51.000Z</time>
      </trkpt>
      <trkpt lat="45.06801" lon="4.30553">
        <ele>1005.2</ele>
        <time>2021-08-12T08:20:54.000Z</time>
      </trkpt>
      <trkpt lat="45.0681" lon="4.30549">
        <ele>1005.4</ele>
        <time>2021-08-12T08:20:56.000Z</time>
      </trkpt>
      <trkpt lat="45.06823" lon="4.30556">
        <ele>1005.7</ele>
        <time>2021-08-12T08:20:59.000Z</time>
      </trkpt>
      <trkpt lat="45.06828" lon="4.30571">
        <ele>1006.3</ele>
        <time>2021-08-12T08:21:02.000Z</time>
      </trkpt>
      <trkpt lat="45.0683" lon="4.30584">
        <ele>1006.8</ele>
        <time>2021-08-12T08:21:06.000Z</time>
      </trkpt>
      <trkpt lat="45.06839" lon="4.30577">
        <ele>1006.7</ele>
        <time>2021-08-12T08:21:11.000Z</time>
      </trkpt>
      <trkpt lat="45.06848" lon="4.30584">
        <ele>1007</ele>
        <time>2021-08-12T08:21:15.000Z</time>
      </trkpt>
      <trkpt lat="45.06858" lon="4.30591">
        <ele>1007.9</ele>
        <time>2021-08-12T08:21:19.000Z</time>
      </trkpt>
      <trkpt lat="45.06866" lon="4.30598">
        <ele>1008.8</ele>
        <time>2021-08-12T08:21:23.000Z</time>
      </trkpt>
      <trkpt lat="45.06873" lon="4.30606">
        <ele>1009.8</ele>
        <time>2021-08-12T08:21:26.000Z</time>
      </trkpt>
      <trkpt lat="45.06883" lon="4.30616">
        <ele>1011.2</ele>
        <time>2021-08-12T08:21:29.000Z</time>
      </trkpt>
      <trkpt lat="45.06892" lon="4.30627">
        <ele>1012.7</ele>
        <time>2021-08-12T08:21:33.000Z</time>
      </trkpt>
      <trkpt lat="45.06899" lon="4.3064">
        <ele>1014.6</ele>
        <time>2021-08-12T08:21:37.000Z</time>
      </trkpt>
      <trkpt lat="45.06906" lon="4.3065">
        <ele>1016.3</ele>
        <time>2021-08-12T08:21:42.000Z</time>
      </trkpt>
      <trkpt lat="45.06913" lon="4.3066">
        <ele>1017.9</ele>
        <time>2021-08-12T08:21:48.000Z</time>
      </trkpt>
      <trkpt lat="45.06919" lon="4.30672">
        <ele>1019.3</ele>
        <time>2021-08-12T08:21:52.000Z</time>
      </trkpt>
      <trkpt lat="45.06925" lon="4.30683">
        <ele>1019.9</ele>
        <time>2021-08-12T08:21:57.000Z</time>
      </trkpt>
      <trkpt lat="45.06928" lon="4.30698">
        <ele>1021</ele>
        <time>2021-08-12T08:22:03.000Z</time>
      </trkpt>
      <trkpt lat="45.06933" lon="4.30708">
        <ele>1021.6</ele>
        <time>2021-08-12T08:22:08.000Z</time>
      </trkpt>
      <trkpt lat="45.06941" lon="4.30718">
        <ele>1022.2</ele>
        <time>2021-08-12T08:22:14.000Z</time>
      </trkpt>
      <trkpt lat="45.06946" lon="4.3073">
        <ele>1023</ele>
        <time>2021-08-12T08:22:19.000Z</time>
      </trkpt>
      <trkpt lat="45.06951" lon="4.3074">
        <ele>1023.8</ele>
        <time>2021-08-12T08:22:23.000Z</time>
      </trkpt>
      <trkpt lat="45.06958" lon="4.30751">
        <ele>1024.5</ele>
        <time>2021-08-12T08:22:29.000Z</time>
      </trkpt>
      <trkpt lat="45.06965" lon="4.30763">
        <ele>1025</ele>
        <time>2021-08-12T08:22:35.000Z</time>
      </trkpt>
      <trkpt lat="45.06973" lon="4.30771">
        <ele>1025.3</ele>
        <time>2021-08-12T08:22:39.000Z</time>
      </trkpt>
      <trkpt lat="45.06982" lon="4.30777">
        <ele>1025.6</ele>
        <time>2021-08-12T08:22:43.000Z</time>
      </trkpt>
      <trkpt lat="45.06989" lon="4.30787">
        <ele>1026.3</ele>
        <time>2021-08-12T08:22:48.000Z</time>
      </trkpt>
      <trkpt lat="45.06996" lon="4.30796">
        <ele>1027</ele>
        <time>2021-08-12T08:22:52.000Z</time>
      </trkpt>
      <trkpt lat="45.07003" lon="4.30806">
        <ele>1028</ele>
        <time>2021-08-12T08:22:56.000Z</time>
      </trkpt>
      <trkpt lat="45.07011" lon="4.30816">
        <ele>1028.7</ele>
        <time>2021-08-12T08:23:00.000Z</time>
      </trkpt>
      <trkpt lat="45.0702" lon="4.30826">
        <ele>1029.5</ele>
        <time>2021-08-12T08:23:04.000Z</time>
      </trkpt>
      <trkpt lat="45.07027" lon="4.30834">
        <ele>1030</ele>
        <time>2021-08-12T08:23:08.000Z</time>
      </trkpt>
      <trkpt lat="45.07034" lon="4.30846">
        <ele>1030.8</ele>
        <time>2021-08-12T08:23:13.000Z</time>
      </trkpt>
      <trkpt lat="45.07042" lon="4.30856">
        <ele>1031.5</ele>
        <time>2021-08-12T08:23:18.000Z</time>
      </trkpt>
      <trkpt lat="45.07048" lon="4.30866">
        <ele>1032.2</ele>
        <time>2021-08-12T08:23:22.000Z</time>
      </trkpt>
      <trkpt lat="45.07055" lon="4.30876">
        <ele>1033</ele>
        <time>2021-08-12T08:23:26.000Z</time>
      </trkpt>
      <trkpt lat="45.07062" lon="4.30885">
        <ele>1033.9</ele>
        <time>2021-08-12T08:23:30.000Z</time>
      </trkpt>
      <trkpt lat="45.07071" lon="4.30894">
        <ele>1034.6</ele>
        <time>2021-08-12T08:23:34.000Z</time>
      </trkpt>
      <trkpt lat="45.07078" lon="4.30904">
        <ele>1035.6</ele>
        <time>2021-08-12T08:23:37.000Z</time>
      </trkpt>
      <trkpt lat="45.07084" lon="4.30915">
        <ele>1036.9</ele>
        <time>2021-08-12T08:23:41.000Z</time>
      </trkpt>
      <trkpt lat="45.07089" lon="4.30927">
        <ele>1038</ele>
        <time>2021-08-12T08:23:45.000Z</time>
      </trkpt>
      <trkpt lat="45.07096" lon="4.30938">
        <ele>1039.3</ele>
        <time>2021-08-12T08:23:49.000Z</time>
      </trkpt>
      <trkpt lat="45.07102" lon="4.30952">
        <ele>1040.7</ele>
        <time>2021-08-12T08:23:54.000Z</time>
      </trkpt>
      <trkpt lat="45.07108" lon="4.30967">
        <ele>1042.2</ele>
        <time>2021-08-12T08:23:58.000Z</time>
      </trkpt>
      <trkpt lat="45.07116" lon="4.3098">
        <ele>1043.7</ele>
        <time>2021-08-12T08:24:04.000Z</time>
      </trkpt>
      <trkpt lat="45.07122" lon="4.30989">
        <ele>1044.8</ele>
        <time>2021-08-12T08:24:08.000Z</time>
      </trkpt>
      <trkpt lat="45.0713" lon="4.30997">
        <ele>1045.9</ele>
        <time>2021-08-12T08:24:11.000Z</time>
      </trkpt>
      <trkpt lat="45.07138" lon="4.31005">
        <ele>1047.2</ele>
        <time>2021-08-12T08:24:14.000Z</time>
      </trkpt>
      <trkpt lat="45.07146" lon="4.31009">
        <ele>1048.1</ele>
        <time>2021-08-12T08:24:18.000Z</time>
      </trkpt>
      <trkpt lat="45.07156" lon="4.31009">
        <ele>1048.4</ele>
        <time>2021-08-12T08:24:23.000Z</time>
      </trkpt>
      <trkpt lat="45.07166" lon="4.31008">
        <ele>1048.9</ele>
        <time>2021-08-12T08:24:27.000Z</time>
      </trkpt>
      <trkpt lat="45.07177" lon="4.31007">
        <ele>1049</ele>
        <time>2021-08-12T08:24:31.000Z</time>
      </trkpt>
      <trkpt lat="45.07188" lon="4.31005">
        <ele>1048.9</ele>
        <time>2021-08-12T08:24:36.000Z</time>
      </trkpt>
      <trkpt lat="45.072" lon="4.31003">
        <ele>1049</ele>
        <time>2021-08-12T08:24:39.000Z</time>
      </trkpt>
      <trkpt lat="45.07212" lon="4.31003">
        <ele>1049.3</ele>
        <time>2021-08-12T08:24:42.000Z</time>
      </trkpt>
      <trkpt lat="45.07225" lon="4.31004">
        <ele>1049.6</ele>
        <time>2021-08-12T08:24:45.000Z</time>
      </trkpt>
      <trkpt lat="45.07236" lon="4.31004">
        <ele>1049.9</ele>
        <time>2021-08-12T08:24:47.000Z</time>
      </trkpt>
      <trkpt lat="45.07246" lon="4.31002">
        <ele>1050</ele>
        <time>2021-08-12T08:24:49.000Z</time>
      </trkpt>
      <trkpt lat="45.07257" lon="4.31001">
        <ele>1049.4</ele>
        <time>2021-08-12T08:24:51.000Z</time>
      </trkpt>
      <trkpt lat="45.07267" lon="4.30996">
        <ele>1048.3</ele>
        <time>2021-08-12T08:24:53.000Z</time>
      </trkpt>
      <trkpt lat="45.0728" lon="4.30993">
        <ele>1047.1</ele>
        <time>2021-08-12T08:24:56.000Z</time>
      </trkpt>
      <trkpt lat="45.07289" lon="4.30991">
        <ele>1046.3</ele>
        <time>2021-08-12T08:24:58.000Z</time>
      </trkpt>
      <trkpt lat="45.07299" lon="4.3099">
        <ele>1045.4</ele>
        <time>2021-08-12T08:25:00.000Z</time>
      </trkpt>
      <trkpt lat="45.07309" lon="4.30992">
        <ele>1044.7</ele>
        <time>2021-08-12T08:25:02.000Z</time>
      </trkpt>
      <trkpt lat="45.07318" lon="4.30992">
        <ele>1043.9</ele>
        <time>2021-08-12T08:25:04.000Z</time>
      </trkpt>
      <trkpt lat="45.0733" lon="4.30994">
        <ele>1043.1</ele>
        <time>2021-08-12T08:25:06.000Z</time>
      </trkpt>
      <trkpt lat="45.07341" lon="4.31">
        <ele>1043</ele>
        <time>2021-08-12T08:25:08.000Z</time>
      </trkpt>
      <trkpt lat="45.0735" lon="4.31003">
        <ele>1043.1</ele>
        <time>2021-08-12T08:25:09.000Z</time>
      </trkpt>
      <trkpt lat="45.07363" lon="4.31008">
        <ele>1043.3</ele>
        <time>2021-08-12T08:25:11.000Z</time>
      </trkpt>
      <trkpt lat="45.07379" lon="4.31008">
        <ele>1043.2</ele>
        <time>2021-08-12T08:25:13.000Z</time>
      </trkpt>
      <trkpt lat="45.07391" lon="4.31011">
        <ele>1043.1</ele>
        <time>2021-08-12T08:25:15.000Z</time>
      </trkpt>
      <trkpt lat="45.07404" lon="4.31011">
        <ele>1043</ele>
        <time>2021-08-12T08:25:17.000Z</time>
      </trkpt>
      <trkpt lat="45.07417" lon="4.31011">
        <ele>1042.8</ele>
        <time>2021-08-12T08:25:19.000Z</time>
      </trkpt>
      <trkpt lat="45.07427" lon="4.31014">
        <ele>1041.7</ele>
        <time>2021-08-12T08:25:21.000Z</time>
      </trkpt>
      <trkpt lat="45.07439" lon="4.31011">
        <ele>1040.5</ele>
        <time>2021-08-12T08:25:23.000Z</time>
      </trkpt>
      <trkpt lat="45.07455" lon="4.31003">
        <ele>1039.2</ele>
        <time>2021-08-12T08:25:25.000Z</time>
      </trkpt>
      <trkpt lat="45.07472" lon="4.30999">
        <ele>1037.6</ele>
        <time>2021-08-12T08:25:27.000Z</time>
      </trkpt>
      <trkpt lat="45.07488" lon="4.30996">
        <ele>1036</ele>
        <time>2021-08-12T08:25:29.000Z</time>
      </trkpt>
      <trkpt lat="45.07501" lon="4.30991">
        <ele>1034.7</ele>
        <time>2021-08-12T08:25:31.000Z</time>
      </trkpt>
      <trkpt lat="45.07515" lon="4.30988">
        <ele>1032.4</ele>
        <time>2021-08-12T08:25:33.000Z</time>
      </trkpt>
      <trkpt lat="45.07527" lon="4.30982">
        <ele>1030.3</ele>
        <time>2021-08-12T08:25:35.000Z</time>
      </trkpt>
      <trkpt lat="45.07537" lon="4.30975">
        <ele>1028.9</ele>
        <time>2021-08-12T08:25:37.000Z</time>
      </trkpt>
      <trkpt lat="45.07548" lon="4.30972">
        <ele>1027.2</ele>
        <time>2021-08-12T08:25:39.000Z</time>
      </trkpt>
      <trkpt lat="45.07561" lon="4.30968">
        <ele>1025.4</ele>
        <time>2021-08-12T08:25:41.000Z</time>
      </trkpt>
      <trkpt lat="45.07573" lon="4.30962">
        <ele>1023.8</ele>
        <time>2021-08-12T08:25:43.000Z</time>
      </trkpt>
      <trkpt lat="45.07583" lon="4.30957">
        <ele>1022.7</ele>
        <time>2021-08-12T08:25:45.000Z</time>
      </trkpt>
      <trkpt lat="45.07596" lon="4.3095">
        <ele>1021.8</ele>
        <time>2021-08-12T08:25:47.000Z</time>
      </trkpt>
      <trkpt lat="45.07613" lon="4.30945">
        <ele>1020.4</ele>
        <time>2021-08-12T08:25:49.000Z</time>
      </trkpt>
      <trkpt lat="45.07628" lon="4.30938">
        <ele>1019.1</ele>
        <time>2021-08-12T08:25:51.000Z</time>
      </trkpt>
      <trkpt lat="45.07638" lon="4.30932">
        <ele>1018.1</ele>
        <time>2021-08-12T08:25:53.000Z</time>
      </trkpt>
      <trkpt lat="45.07647" lon="4.30927">
        <ele>1017.3</ele>
        <time>2021-08-12T08:25:55.000Z</time>
      </trkpt>
      <trkpt lat="45.0766" lon="4.30923">
        <ele>1015.8</ele>
        <time>2021-08-12T08:25:57.000Z</time>
      </trkpt>
      <trkpt lat="45.07673" lon="4.30919">
        <ele>1014.1</ele>
        <time>2021-08-12T08:25:59.000Z</time>
      </trkpt>
      <trkpt lat="45.07687" lon="4.3091">
        <ele>1012.4</ele>
        <time>2021-08-12T08:26:01.000Z</time>
      </trkpt>
      <trkpt lat="45.077" lon="4.30898">
        <ele>1011</ele>
        <time>2021-08-12T08:26:03.000Z</time>
      </trkpt>
      <trkpt lat="45.07713" lon="4.30881">
        <ele>1009.9</ele>
        <time>2021-08-12T08:26:05.000Z</time>
      </trkpt>
      <trkpt lat="45.0772" lon="4.30872">
        <ele>1009.4</ele>
        <time>2021-08-12T08:26:06.000Z</time>
      </trkpt>
      <trkpt lat="45.07727" lon="4.30864">
        <ele>1008.9</ele>
        <time>2021-08-12T08:26:07.000Z</time>
      </trkpt>
      <trkpt lat="45.0774" lon="4.30852">
        <ele>1008.1</ele>
        <time>2021-08-12T08:26:09.000Z</time>
      </trkpt>
      <trkpt lat="45.07752" lon="4.3084">
        <ele>1007.7</ele>
        <time>2021-08-12T08:26:11.000Z</time>
      </trkpt>
      <trkpt lat="45.07764" lon="4.3083">
        <ele>1008.3</ele>
        <time>2021-08-12T08:26:13.000Z</time>
      </trkpt>
      <trkpt lat="45.07775" lon="4.30819">
        <ele>1008.9</ele>
        <time>2021-08-12T08:26:15.000Z</time>
      </trkpt>
      <trkpt lat="45.07785" lon="4.3081">
        <ele>1009.5</ele>
        <time>2021-08-12T08:26:17.000Z</time>
      </trkpt>
      <trkpt lat="45.07794" lon="4.30802">
        <ele>1010.1</ele>
        <time>2021-08-12T08:26:19.000Z</time>
      </trkpt>
      <trkpt lat="45.078" lon="4.30791">
        <ele>1010.9</ele>
        <time>2021-08-12T08:26:21.000Z</time>
      </trkpt>
      <trkpt lat="45.0781" lon="4.3078">
        <ele>1011.9</ele>
        <time>2021-08-12T08:26:23.000Z</time>
      </trkpt>
      <trkpt lat="45.07824" lon="4.30769">
        <ele>1013.2</ele>
        <time>2021-08-12T08:26:25.000Z</time>
      </trkpt>
      <trkpt lat="45.07836" lon="4.30757">
        <ele>1013.9</ele>
        <time>2021-08-12T08:26:27.000Z</time>
      </trkpt>
      <trkpt lat="45.07846" lon="4.30745">
        <ele>1012.2</ele>
        <time>2021-08-12T08:26:29.000Z</time>
      </trkpt>
      <trkpt lat="45.07856" lon="4.30737">
        <ele>1010.2</ele>
        <time>2021-08-12T08:26:31.000Z</time>
      </trkpt>
      <trkpt lat="45.07867" lon="4.30728">
        <ele>1008</ele>
        <time>2021-08-12T08:26:33.000Z</time>
      </trkpt>
      <trkpt lat="45.07879" lon="4.30719">
        <ele>1005.7</ele>
        <time>2021-08-12T08:26:35.000Z</time>
      </trkpt>
      <trkpt lat="45.0789" lon="4.30709">
        <ele>1003.8</ele>
        <time>2021-08-12T08:26:37.000Z</time>
      </trkpt>
      <trkpt lat="45.07903" lon="4.30698">
        <ele>1001.8</ele>
        <time>2021-08-12T08:26:39.000Z</time>
      </trkpt>
      <trkpt lat="45.07916" lon="4.30688">
        <ele>999.8</ele>
        <time>2021-08-12T08:26:41.000Z</time>
      </trkpt>
      <trkpt lat="45.07929" lon="4.30678">
        <ele>999.1</ele>
        <time>2021-08-12T08:26:43.000Z</time>
      </trkpt>
      <trkpt lat="45.0794" lon="4.30668">
        <ele>998.6</ele>
        <time>2021-08-12T08:26:45.000Z</time>
      </trkpt>
      <trkpt lat="45.0795" lon="4.30655">
        <ele>997.8</ele>
        <time>2021-08-12T08:26:47.000Z</time>
      </trkpt>
      <trkpt lat="45.07963" lon="4.30639">
        <ele>996.9</ele>
        <time>2021-08-12T08:26:49.000Z</time>
      </trkpt>
      <trkpt lat="45.07975" lon="4.30622">
        <ele>996.2</ele>
        <time>2021-08-12T08:26:51.000Z</time>
      </trkpt>
      <trkpt lat="45.07981" lon="4.30613">
        <ele>995.8</ele>
        <time>2021-08-12T08:26:52.000Z</time>
      </trkpt>
      <trkpt lat="45.0799" lon="4.30605">
        <ele>995.4</ele>
        <time>2021-08-12T08:26:53.000Z</time>
      </trkpt>
      <trkpt lat="45.07997" lon="4.30597">
        <ele>995.1</ele>
        <time>2021-08-12T08:26:54.000Z</time>
      </trkpt>
      <trkpt lat="45.08004" lon="4.30589">
        <ele>995</ele>
        <time>2021-08-12T08:26:55.000Z</time>
      </trkpt>
      <trkpt lat="45.08018" lon="4.30575">
        <ele>995.1</ele>
        <time>2021-08-12T08:26:57.000Z</time>
      </trkpt>
      <trkpt lat="45.08031" lon="4.30565">
        <ele>995.2</ele>
        <time>2021-08-12T08:26:59.000Z</time>
      </trkpt>
      <trkpt lat="45.08046" lon="4.30557">
        <ele>995.3</ele>
        <time>2021-08-12T08:27:01.000Z</time>
      </trkpt>
      <trkpt lat="45.08059" lon="4.30551">
        <ele>995.4</ele>
        <time>2021-08-12T08:27:03.000Z</time>
      </trkpt>
      <trkpt lat="45.08073" lon="4.30544">
        <ele>995.5</ele>
        <time>2021-08-12T08:27:05.000Z</time>
      </trkpt>
      <trkpt lat="45.08087" lon="4.30537">
        <ele>995.7</ele>
        <time>2021-08-12T08:27:07.000Z</time>
      </trkpt>
      <trkpt lat="45.081" lon="4.30532">
        <ele>996.2</ele>
        <time>2021-08-12T08:27:09.000Z</time>
      </trkpt>
      <trkpt lat="45.08113" lon="4.30524">
        <ele>997.1</ele>
        <time>2021-08-12T08:27:11.000Z</time>
      </trkpt>
      <trkpt lat="45.08127" lon="4.30518">
        <ele>998.1</ele>
        <time>2021-08-12T08:27:13.000Z</time>
      </trkpt>
      <trkpt lat="45.0814" lon="4.30509">
        <ele>999.4</ele>
        <time>2021-08-12T08:27:15.000Z</time>
      </trkpt>
      <trkpt lat="45.08153" lon="4.30498">
        <ele>1001.1</ele>
        <time>2021-08-12T08:27:17.000Z</time>
      </trkpt>
      <trkpt lat="45.08166" lon="4.30487">
        <ele>1002.2</ele>
        <time>2021-08-12T08:27:19.000Z</time>
      </trkpt>
      <trkpt lat="45.08178" lon="4.30475">
        <ele>1003.6</ele>
        <time>2021-08-12T08:27:21.000Z</time>
      </trkpt>
      <trkpt lat="45.0819" lon="4.30463">
        <ele>1005</ele>
        <time>2021-08-12T08:27:23.000Z</time>
      </trkpt>
      <trkpt lat="45.082" lon="4.30448">
        <ele>1006.3</ele>
        <time>2021-08-12T08:27:25.000Z</time>
      </trkpt>
      <trkpt lat="45.08207" lon="4.30433">
        <ele>1007.4</ele>
        <time>2021-08-12T08:27:27.000Z</time>
      </trkpt>
      <trkpt lat="45.08212" lon="4.30417">
        <ele>1008.3</ele>
        <time>2021-08-12T08:27:29.000Z</time>
      </trkpt>
      <trkpt lat="45.08215" lon="4.304">
        <ele>1008.2</ele>
        <time>2021-08-12T08:27:31.000Z</time>
      </trkpt>
      <trkpt lat="45.08217" lon="4.30384">
        <ele>1007.9</ele>
        <time>2021-08-12T08:27:33.000Z</time>
      </trkpt>
      <trkpt lat="45.08223" lon="4.30393">
        <ele>1008.9</ele>
        <time>2021-08-12T08:27:43.000Z</time>
      </trkpt>
      <trkpt lat="45.08231" lon="4.30385">
        <ele>1009.5</ele>
        <time>2021-08-12T08:27:47.000Z</time>
      </trkpt>
      <trkpt lat="45.08238" lon="4.30377">
        <ele>1010.1</ele>
        <time>2021-08-12T08:27:50.000Z</time>
      </trkpt>
      <trkpt lat="45.08246" lon="4.30367">
        <ele>1010.9</ele>
        <time>2021-08-12T08:27:54.000Z</time>
      </trkpt>
      <trkpt lat="45.08255" lon="4.30358">
        <ele>1011</ele>
        <time>2021-08-12T08:27:58.000Z</time>
      </trkpt>
      <trkpt lat="45.08265" lon="4.30352">
        <ele>1010.4</ele>
        <time>2021-08-12T08:28:02.000Z</time>
      </trkpt>
      <trkpt lat="45.08274" lon="4.30348">
        <ele>1009.8</ele>
        <time>2021-08-12T08:28:06.000Z</time>
      </trkpt>
      <trkpt lat="45.08283" lon="4.30345">
        <ele>1009.3</ele>
        <time>2021-08-12T08:28:09.000Z</time>
      </trkpt>
      <trkpt lat="45.08294" lon="4.30342">
        <ele>1008.8</ele>
        <time>2021-08-12T08:28:13.000Z</time>
      </trkpt>
      <trkpt lat="45.08306" lon="4.3034">
        <ele>1008.2</ele>
        <time>2021-08-12T08:28:17.000Z</time>
      </trkpt>
      <trkpt lat="45.08316" lon="4.30339">
        <ele>1007.7</ele>
        <time>2021-08-12T08:28:21.000Z</time>
      </trkpt>
      <trkpt lat="45.08326" lon="4.30338">
        <ele>1007.3</ele>
        <time>2021-08-12T08:28:25.000Z</time>
      </trkpt>
      <trkpt lat="45.08336" lon="4.30339">
        <ele>1006.6</ele>
        <time>2021-08-12T08:28:29.000Z</time>
      </trkpt>
      <trkpt lat="45.08345" lon="4.30338">
        <ele>1006.1</ele>
        <time>2021-08-12T08:28:33.000Z</time>
      </trkpt>
      <trkpt lat="45.08357" lon="4.3034">
        <ele>1005.2</ele>
        <time>2021-08-12T08:28:37.000Z</time>
      </trkpt>
      <trkpt lat="45.08369" lon="4.30343">
        <ele>1004.1</ele>
        <time>2021-08-12T08:28:40.000Z</time>
      </trkpt>
      <trkpt lat="45.08381" lon="4.30344">
        <ele>1003.1</ele>
        <time>2021-08-12T08:28:43.000Z</time>
      </trkpt>
      <trkpt lat="45.08393" lon="4.30341">
        <ele>1002.6</ele>
        <time>2021-08-12T08:28:46.000Z</time>
      </trkpt>
      <trkpt lat="45.08406" lon="4.30337">
        <ele>1002.3</ele>
        <time>2021-08-12T08:28:49.000Z</time>
      </trkpt>
      <trkpt lat="45.08416" lon="4.30334">
        <ele>1002</ele>
        <time>2021-08-12T08:28:51.000Z</time>
      </trkpt>
      <trkpt lat="45.08426" lon="4.3033">
        <ele>1002.1</ele>
        <time>2021-08-12T08:28:53.000Z</time>
      </trkpt>
      <trkpt lat="45.08435" lon="4.30322">
        <ele>1002.7</ele>
        <time>2021-08-12T08:28:55.000Z</time>
      </trkpt>
      <trkpt lat="45.08444" lon="4.30309">
        <ele>1004.3</ele>
        <time>2021-08-12T08:28:58.000Z</time>
      </trkpt>
      <trkpt lat="45.08451" lon="4.30296">
        <ele>1006.1</ele>
        <time>2021-08-12T08:29:01.000Z</time>
      </trkpt>
      <trkpt lat="45.08457" lon="4.30284">
        <ele>1007.9</ele>
        <time>2021-08-12T08:29:05.000Z</time>
      </trkpt>
      <trkpt lat="45.08456" lon="4.30271">
        <ele>1009.8</ele>
        <time>2021-08-12T08:29:09.000Z</time>
      </trkpt>
      <trkpt lat="45.08449" lon="4.30258">
        <ele>1011.3</ele>
        <time>2021-08-12T08:29:13.000Z</time>
      </trkpt>
      <trkpt lat="45.08445" lon="4.30245">
        <ele>1012.5</ele>
        <time>2021-08-12T08:29:18.000Z</time>
      </trkpt>
      <trkpt lat="45.08442" lon="4.3023">
        <ele>1013.8</ele>
        <time>2021-08-12T08:29:24.000Z</time>
      </trkpt>
      <trkpt lat="45.08442" lon="4.30217">
        <ele>1015</ele>
        <time>2021-08-12T08:29:29.000Z</time>
      </trkpt>
      <trkpt lat="45.08446" lon="4.30203">
        <ele>1016.4</ele>
        <time>2021-08-12T08:29:34.000Z</time>
      </trkpt>
      <trkpt lat="45.08444" lon="4.3019">
        <ele>1017.6</ele>
        <time>2021-08-12T08:29:41.000Z</time>
      </trkpt>
      <trkpt lat="45.0845" lon="4.3018">
        <ele>1018.8</ele>
        <time>2021-08-12T08:29:46.000Z</time>
      </trkpt>
      <trkpt lat="45.08455" lon="4.30168">
        <ele>1020.2</ele>
        <time>2021-08-12T08:29:51.000Z</time>
      </trkpt>
      <trkpt lat="45.08451" lon="4.30155">
        <ele>1020.3</ele>
        <time>2021-08-12T08:29:56.000Z</time>
      </trkpt>
      <trkpt lat="45.08451" lon="4.30142">
        <ele>1020.6</ele>
        <time>2021-08-12T08:30:02.000Z</time>
      </trkpt>
      <trkpt lat="45.08457" lon="4.30131">
        <ele>1021.1</ele>
        <time>2021-08-12T08:30:06.000Z</time>
      </trkpt>
      <trkpt lat="45.08455" lon="4.30112">
        <ele>1021.4</ele>
        <time>2021-08-12T08:30:09.000Z</time>
      </trkpt>
      <trkpt lat="45.08455" lon="4.30098">
        <ele>1021.7</ele>
        <time>2021-08-12T08:30:14.000Z</time>
      </trkpt>
      <trkpt lat="45.0846" lon="4.30084">
        <ele>1022</ele>
        <time>2021-08-12T08:30:17.000Z</time>
      </trkpt>
      <trkpt lat="45.08464" lon="4.30069">
        <ele>1021.5</ele>
        <time>2021-08-12T08:30:22.000Z</time>
      </trkpt>
      <trkpt lat="45.08473" lon="4.30059">
        <ele>1021</ele>
        <time>2021-08-12T08:30:27.000Z</time>
      </trkpt>
      <trkpt lat="45.08482" lon="4.30053">
        <ele>1020.6</ele>
        <time>2021-08-12T08:30:30.000Z</time>
      </trkpt>
      <trkpt lat="45.08489" lon="4.30044">
        <ele>1019.9</ele>
        <time>2021-08-12T08:30:33.000Z</time>
      </trkpt>
      <trkpt lat="45.08495" lon="4.30033">
        <ele>1019.1</ele>
        <time>2021-08-12T08:30:36.000Z</time>
      </trkpt>
      <trkpt lat="45.08504" lon="4.30026">
        <ele>1017.9</ele>
        <time>2021-08-12T08:30:39.000Z</time>
      </trkpt>
      <trkpt lat="45.08514" lon="4.3002">
        <ele>1016.1</ele>
        <time>2021-08-12T08:30:42.000Z</time>
      </trkpt>
      <trkpt lat="45.08527" lon="4.30016">
        <ele>1014</ele>
        <time>2021-08-12T08:30:45.000Z</time>
      </trkpt>
      <trkpt lat="45.08535" lon="4.30008">
        <ele>1012.1</ele>
        <time>2021-08-12T08:30:48.000Z</time>
      </trkpt>
      <trkpt lat="45.08542" lon="4.29996">
        <ele>1010.1</ele>
        <time>2021-08-12T08:30:51.000Z</time>
      </trkpt>
      <trkpt lat="45.0855" lon="4.29985">
        <ele>1007.9</ele>
        <time>2021-08-12T08:30:54.000Z</time>
      </trkpt>
      <trkpt lat="45.08554" lon="4.2997">
        <ele>1006.1</ele>
        <time>2021-08-12T08:30:57.000Z</time>
      </trkpt>
      <trkpt lat="45.08557" lon="4.29958">
        <ele>1004.4</ele>
        <time>2021-08-12T08:30:59.000Z</time>
      </trkpt>
      <trkpt lat="45.08559" lon="4.29944">
        <ele>1003</ele>
        <time>2021-08-12T08:31:01.000Z</time>
      </trkpt>
      <trkpt lat="45.08562" lon="4.29927">
        <ele>1000.9</ele>
        <time>2021-08-12T08:31:04.000Z</time>
      </trkpt>
      <trkpt lat="45.08567" lon="4.29914">
        <ele>999.2</ele>
        <time>2021-08-12T08:31:07.000Z</time>
      </trkpt>
      <trkpt lat="45.08567" lon="4.29895">
        <ele>998.7</ele>
        <time>2021-08-12T08:31:10.000Z</time>
      </trkpt>
      <trkpt lat="45.08563" lon="4.29875">
        <ele>998.9</ele>
        <time>2021-08-12T08:31:12.000Z</time>
      </trkpt>
      <trkpt lat="45.08557" lon="4.29859">
        <ele>999.5</ele>
        <time>2021-08-12T08:31:14.000Z</time>
      </trkpt>
      <trkpt lat="45.08552" lon="4.29846">
        <ele>1000.3</ele>
        <time>2021-08-12T08:31:16.000Z</time>
      </trkpt>
      <trkpt lat="45.08548" lon="4.29831">
        <ele>1000.8</ele>
        <time>2021-08-12T08:31:19.000Z</time>
      </trkpt>
      <trkpt lat="45.08545" lon="4.29814">
        <ele>1001.4</ele>
        <time>2021-08-12T08:31:22.000Z</time>
      </trkpt>
      <trkpt lat="45.08541" lon="4.29802">
        <ele>1002.2</ele>
        <time>2021-08-12T08:31:24.000Z</time>
      </trkpt>
      <trkpt lat="45.08535" lon="4.29788">
        <ele>1003</ele>
        <time>2021-08-12T08:31:26.000Z</time>
      </trkpt>
      <trkpt lat="45.08531" lon="4.29775">
        <ele>1003.6</ele>
        <time>2021-08-12T08:31:28.000Z</time>
      </trkpt>
      <trkpt lat="45.08525" lon="4.29762">
        <ele>1004.6</ele>
        <time>2021-08-12T08:31:31.000Z</time>
      </trkpt>
      <trkpt lat="45.08523" lon="4.29748">
        <ele>1004.8</ele>
        <time>2021-08-12T08:31:33.000Z</time>
      </trkpt>
      <trkpt lat="45.08526" lon="4.29732">
        <ele>1004.6</ele>
        <time>2021-08-12T08:31:35.000Z</time>
      </trkpt>
      <trkpt lat="45.08529" lon="4.29719">
        <ele>1004.4</ele>
        <time>2021-08-12T08:31:37.000Z</time>
      </trkpt>
      <trkpt lat="45.08526" lon="4.29707">
        <ele>1005</ele>
        <time>2021-08-12T08:31:39.000Z</time>
      </trkpt>
      <trkpt lat="45.08523" lon="4.29694">
        <ele>1005.7</ele>
        <time>2021-08-12T08:31:41.000Z</time>
      </trkpt>
      <trkpt lat="45.08514" lon="4.29686">
        <ele>1007.2</ele>
        <time>2021-08-12T08:31:43.000Z</time>
      </trkpt>
      <trkpt lat="45.08505" lon="4.29683">
        <ele>1008.9</ele>
        <time>2021-08-12T08:31:45.000Z</time>
      </trkpt>
      <trkpt lat="45.08496" lon="4.29678">
        <ele>1009.7</ele>
        <time>2021-08-12T08:31:47.000Z</time>
      </trkpt>
      <trkpt lat="45.08495" lon="4.29677">
        <ele>1009.6</ele>
        <time>2021-08-12T08:31:55.000Z</time>
      </trkpt>
      <trkpt lat="45.08495" lon="4.29677">
        <ele>1009.7</ele>
        <time>2021-08-12T08:31:56.000Z</time>
      </trkpt>
      <trkpt lat="45.08485" lon="4.29673">
        <ele>1009.5</ele>
        <time>2021-08-12T08:32:04.000Z</time>
      </trkpt>
      <trkpt lat="45.08477" lon="4.29669">
        <ele>1009.4</ele>
        <time>2021-08-12T08:32:07.000Z</time>
      </trkpt>
      <trkpt lat="45.08467" lon="4.2966">
        <ele>1009.1</ele>
        <time>2021-08-12T08:32:10.000Z</time>
      </trkpt>
      <trkpt lat="45.0846" lon="4.29647">
        <ele>1008.6</ele>
        <time>2021-08-12T08:32:13.000Z</time>
      </trkpt>
      <trkpt lat="45.08452" lon="4.29634">
        <ele>1007.9</ele>
        <time>2021-08-12T08:32:16.000Z</time>
      </trkpt>
      <trkpt lat="45.08444" lon="4.29619">
        <ele>1007.1</ele>
        <time>2021-08-12T08:32:19.000Z</time>
      </trkpt>
      <trkpt lat="45.08438" lon="4.29609">
        <ele>1006.5</ele>
        <time>2021-08-12T08:32:21.000Z</time>
      </trkpt>
      <trkpt lat="45.08428" lon="4.29603">
        <ele>1005.6</ele>
        <time>2021-08-12T08:32:24.000Z</time>
      </trkpt>
      <trkpt lat="45.08417" lon="4.29607">
        <ele>1005.1</ele>
        <time>2021-08-12T08:32:27.000Z</time>
      </trkpt>
      <trkpt lat="45.08412" lon="4.29593">
        <ele>1003.5</ele>
        <time>2021-08-12T08:32:30.000Z</time>
      </trkpt>
      <trkpt lat="45.08416" lon="4.29574">
        <ele>1002.6</ele>
        <time>2021-08-12T08:32:33.000Z</time>
      </trkpt>
      <trkpt lat="45.08417" lon="4.29559">
        <ele>1001.1</ele>
        <time>2021-08-12T08:32:35.000Z</time>
      </trkpt>
      <trkpt lat="45.08419" lon="4.29543">
        <ele>999.4</ele>
        <time>2021-08-12T08:32:37.000Z</time>
      </trkpt>
      <trkpt lat="45.0842" lon="4.29528">
        <ele>997.6</ele>
        <time>2021-08-12T08:32:39.000Z</time>
      </trkpt>
      <trkpt lat="45.08422" lon="4.29512">
        <ele>996.1</ele>
        <time>2021-08-12T08:32:41.000Z</time>
      </trkpt>
      <trkpt lat="45.08423" lon="4.29498">
        <ele>994.5</ele>
        <time>2021-08-12T08:32:43.000Z</time>
      </trkpt>
      <trkpt lat="45.08426" lon="4.29483">
        <ele>992.9</ele>
        <time>2021-08-12T08:32:45.000Z</time>
      </trkpt>
      <trkpt lat="45.0843" lon="4.29463">
        <ele>991.1</ele>
        <time>2021-08-12T08:32:47.000Z</time>
      </trkpt>
      <trkpt lat="45.08433" lon="4.29445">
        <ele>988.8</ele>
        <time>2021-08-12T08:32:49.000Z</time>
      </trkpt>
      <trkpt lat="45.08433" lon="4.29431">
        <ele>986.9</ele>
        <time>2021-08-12T08:32:51.000Z</time>
      </trkpt>
      <trkpt lat="45.08431" lon="4.29412">
        <ele>984.1</ele>
        <time>2021-08-12T08:32:53.000Z</time>
      </trkpt>
      <trkpt lat="45.08422" lon="4.29396">
        <ele>980.8</ele>
        <time>2021-08-12T08:32:55.000Z</time>
      </trkpt>
      <trkpt lat="45.08412" lon="4.2938">
        <ele>978.2</ele>
        <time>2021-08-12T08:32:57.000Z</time>
      </trkpt>
      <trkpt lat="45.08402" lon="4.29364">
        <ele>976.1</ele>
        <time>2021-08-12T08:32:59.000Z</time>
      </trkpt>
      <trkpt lat="45.08394" lon="4.29356">
        <ele>975.5</ele>
        <time>2021-08-12T08:33:01.000Z</time>
      </trkpt>
      <trkpt lat="45.08385" lon="4.29357">
        <ele>976.5</ele>
        <time>2021-08-12T08:33:05.000Z</time>
      </trkpt>
      <trkpt lat="45.08375" lon="4.29358">
        <ele>977.4</ele>
        <time>2021-08-12T08:33:09.000Z</time>
      </trkpt>
      <trkpt lat="45.08365" lon="4.29356">
        <ele>977.8</ele>
        <time>2021-08-12T08:33:14.000Z</time>
      </trkpt>
      <trkpt lat="45.08355" lon="4.29355">
        <ele>978.7</ele>
        <time>2021-08-12T08:33:20.000Z</time>
      </trkpt>
      <trkpt lat="45.08345" lon="4.29358">
        <ele>979.8</ele>
        <time>2021-08-12T08:33:26.000Z</time>
      </trkpt>
      <trkpt lat="45.08336" lon="4.29361">
        <ele>980.8</ele>
        <time>2021-08-12T08:33:31.000Z</time>
      </trkpt>
      <trkpt lat="45.08326" lon="4.29363">
        <ele>982.1</ele>
        <time>2021-08-12T08:33:38.000Z</time>
      </trkpt>
      <trkpt lat="45.08317" lon="4.29364">
        <ele>983.6</ele>
        <time>2021-08-12T08:33:43.000Z</time>
      </trkpt>
      <trkpt lat="45.08308" lon="4.29365">
        <ele>985.1</ele>
        <time>2021-08-12T08:33:48.000Z</time>
      </trkpt>
      <trkpt lat="45.08298" lon="4.29366">
        <ele>986.6</ele>
        <time>2021-08-12T08:33:53.000Z</time>
      </trkpt>
      <trkpt lat="45.08287" lon="4.29364">
        <ele>987.8</ele>
        <time>2021-08-12T08:33:56.000Z</time>
      </trkpt>
      <trkpt lat="45.08276" lon="4.29365">
        <ele>989.7</ele>
        <time>2021-08-12T08:33:59.000Z</time>
      </trkpt>
      <trkpt lat="45.08267" lon="4.29368">
        <ele>991.4</ele>
        <time>2021-08-12T08:34:01.000Z</time>
      </trkpt>
      <trkpt lat="45.08255" lon="4.29377">
        <ele>993.9</ele>
        <time>2021-08-12T08:34:04.000Z</time>
      </trkpt>
      <trkpt lat="45.08246" lon="4.29381">
        <ele>995</ele>
        <time>2021-08-12T08:34:06.000Z</time>
      </trkpt>
      <trkpt lat="45.08237" lon="4.29388">
        <ele>995.5</ele>
        <time>2021-08-12T08:34:08.000Z</time>
      </trkpt>
      <trkpt lat="45.0823" lon="4.29397">
        <ele>996.1</ele>
        <time>2021-08-12T08:34:11.000Z</time>
      </trkpt>
      <trkpt lat="45.08222" lon="4.29403">
        <ele>996.5</ele>
        <time>2021-08-12T08:34:13.000Z</time>
      </trkpt>
      <trkpt lat="45.08211" lon="4.29414">
        <ele>997.2</ele>
        <time>2021-08-12T08:34:16.000Z</time>
      </trkpt>
      <trkpt lat="45.08201" lon="4.29421">
        <ele>997.2</ele>
        <time>2021-08-12T08:34:18.000Z</time>
      </trkpt>
      <trkpt lat="45.0819" lon="4.29426">
        <ele>996.9</ele>
        <time>2021-08-12T08:34:20.000Z</time>
      </trkpt>
      <trkpt lat="45.08181" lon="4.29435">
        <ele>996.5</ele>
        <time>2021-08-12T08:34:23.000Z</time>
      </trkpt>
      <trkpt lat="45.08169" lon="4.29436">
        <ele>996.1</ele>
        <time>2021-08-12T08:34:26.000Z</time>
      </trkpt>
      <trkpt lat="45.08159" lon="4.29441">
        <ele>995.2</ele>
        <time>2021-08-12T08:34:28.000Z</time>
      </trkpt>
      <trkpt lat="45.08149" lon="4.29444">
        <ele>994.2</ele>
        <time>2021-08-12T08:34:30.000Z</time>
      </trkpt>
      <trkpt lat="45.08138" lon="4.29446">
        <ele>993</ele>
        <time>2021-08-12T08:34:33.000Z</time>
      </trkpt>
      <trkpt lat="45.08125" lon="4.29448">
        <ele>991.8</ele>
        <time>2021-08-12T08:34:36.000Z</time>
      </trkpt>
      <trkpt lat="45.08114" lon="4.2945">
        <ele>990.7</ele>
        <time>2021-08-12T08:34:39.000Z</time>
      </trkpt>
      <trkpt lat="45.08102" lon="4.29452">
        <ele>989.6</ele>
        <time>2021-08-12T08:34:42.000Z</time>
      </trkpt>
      <trkpt lat="45.08091" lon="4.29453">
        <ele>988.5</ele>
        <time>2021-08-12T08:34:45.000Z</time>
      </trkpt>
      <trkpt lat="45.08079" lon="4.29454">
        <ele>987.5</ele>
        <time>2021-08-12T08:34:48.000Z</time>
      </trkpt>
      <trkpt lat="45.08067" lon="4.29455">
        <ele>986.9</ele>
        <time>2021-08-12T08:34:51.000Z</time>
      </trkpt>
      <trkpt lat="45.08055" lon="4.29456">
        <ele>986.3</ele>
        <time>2021-08-12T08:34:54.000Z</time>
      </trkpt>
      <trkpt lat="45.08043" lon="4.29458">
        <ele>985.7</ele>
        <time>2021-08-12T08:34:57.000Z</time>
      </trkpt>
      <trkpt lat="45.08033" lon="4.29459">
        <ele>985.3</ele>
        <time>2021-08-12T08:34:59.000Z</time>
      </trkpt>
      <trkpt lat="45.08024" lon="4.29458">
        <ele>984.8</ele>
        <time>2021-08-12T08:35:01.000Z</time>
      </trkpt>
      <trkpt lat="45.08012" lon="4.29455">
        <ele>983.9</ele>
        <time>2021-08-12T08:35:04.000Z</time>
      </trkpt>
      <trkpt lat="45.08002" lon="4.29451">
        <ele>983.2</ele>
        <time>2021-08-12T08:35:07.000Z</time>
      </trkpt>
      <trkpt lat="45.08004" lon="4.29437">
        <ele>982.5</ele>
        <time>2021-08-12T08:35:11.000Z</time>
      </trkpt>
      <trkpt lat="45.08007" lon="4.29424">
        <ele>981.8</ele>
        <time>2021-08-12T08:35:15.000Z</time>
      </trkpt>
      <trkpt lat="45.08012" lon="4.29411">
        <ele>980.9</ele>
        <time>2021-08-12T08:35:19.000Z</time>
      </trkpt>
      <trkpt lat="45.08009" lon="4.29398">
        <ele>979.3</ele>
        <time>2021-08-12T08:35:26.000Z</time>
      </trkpt>
      <trkpt lat="45.07999" lon="4.29398">
        <ele>978.8</ele>
        <time>2021-08-12T08:35:30.000Z</time>
      </trkpt>
      <trkpt lat="45.07995" lon="4.29382">
        <ele>977</ele>
        <time>2021-08-12T08:35:35.000Z</time>
      </trkpt>
      <trkpt lat="45.08" lon="4.29365">
        <ele>975.4</ele>
        <time>2021-08-12T08:35:38.000Z</time>
      </trkpt>
      <trkpt lat="45.08004" lon="4.29352">
        <ele>974</ele>
        <time>2021-08-12T08:35:44.000Z</time>
      </trkpt>
      <trkpt lat="45.08002" lon="4.29339">
        <ele>972.5</ele>
        <time>2021-08-12T08:35:47.000Z</time>
      </trkpt>
      <trkpt lat="45.08001" lon="4.29326">
        <ele>970.8</ele>
        <time>2021-08-12T08:35:52.000Z</time>
      </trkpt>
      <trkpt lat="45.08" lon="4.29313">
        <ele>968.7</ele>
        <time>2021-08-12T08:36:01.000Z</time>
      </trkpt>
      <trkpt lat="45.07999" lon="4.29299">
        <ele>966.6</ele>
        <time>2021-08-12T08:36:06.000Z</time>
      </trkpt>
      <trkpt lat="45.07994" lon="4.29284">
        <ele>964.6</ele>
        <time>2021-08-12T08:36:10.000Z</time>
      </trkpt>
      <trkpt lat="45.07988" lon="4.2927">
        <ele>962.8</ele>
        <time>2021-08-12T08:36:13.000Z</time>
      </trkpt>
      <trkpt lat="45.07982" lon="4.2926">
        <ele>961.8</ele>
        <time>2021-08-12T08:36:16.000Z</time>
      </trkpt>
      <trkpt lat="45.07976" lon="4.29249">
        <ele>960.6</ele>
        <time>2021-08-12T08:36:19.000Z</time>
      </trkpt>
      <trkpt lat="45.07968" lon="4.29241">
        <ele>959.1</ele>
        <time>2021-08-12T08:36:21.000Z</time>
      </trkpt>
      <trkpt lat="45.07961" lon="4.29234">
        <ele>957.7</ele>
        <time>2021-08-12T08:36:23.000Z</time>
      </trkpt>
      <trkpt lat="45.0795" lon="4.29226">
        <ele>956.9</ele>
        <time>2021-08-12T08:36:27.000Z</time>
      </trkpt>
      <trkpt lat="45.07939" lon="4.29221">
        <ele>957</ele>
        <time>2021-08-12T08:36:30.000Z</time>
      </trkpt>
      <trkpt lat="45.07923" lon="4.29221">
        <ele>959.3</ele>
        <time>2021-08-12T08:36:32.000Z</time>
      </trkpt>
      <trkpt lat="45.07911" lon="4.29218">
        <ele>959.1</ele>
        <time>2021-08-12T08:36:34.000Z</time>
      </trkpt>
      <trkpt lat="45.07903" lon="4.2921">
        <ele>957.2</ele>
        <time>2021-08-12T08:36:35.000Z</time>
      </trkpt>
      <trkpt lat="45.07892" lon="4.29205">
        <ele>955.8</ele>
        <time>2021-08-12T08:36:37.000Z</time>
      </trkpt>
      <trkpt lat="45.07881" lon="4.29194">
        <ele>953.7</ele>
        <time>2021-08-12T08:36:39.000Z</time>
      </trkpt>
      <trkpt lat="45.07873" lon="4.29178">
        <ele>951.3</ele>
        <time>2021-08-12T08:36:41.000Z</time>
      </trkpt>
      <trkpt lat="45.07875" lon="4.29162">
        <ele>947.8</ele>
        <time>2021-08-12T08:36:45.000Z</time>
      </trkpt>
      <trkpt lat="45.07882" lon="4.29152">
        <ele>944.1</ele>
        <time>2021-08-12T08:36:49.000Z</time>
      </trkpt>
      <trkpt lat="45.07891" lon="4.29152">
        <ele>943.7</ele>
        <time>2021-08-12T08:36:55.000Z</time>
      </trkpt>
      <trkpt lat="45.07902" lon="4.29152">
        <ele>943.4</ele>
        <time>2021-08-12T08:36:58.000Z</time>
      </trkpt>
      <trkpt lat="45.07903" lon="4.29138">
        <ele>937.9</ele>
        <time>2021-08-12T08:37:05.000Z</time>
      </trkpt>
      <trkpt lat="45.079" lon="4.29123">
        <ele>932.9</ele>
        <time>2021-08-12T08:37:09.000Z</time>
      </trkpt>
      <trkpt lat="45.07901" lon="4.29109">
        <ele>927.5</ele>
        <time>2021-08-12T08:37:14.000Z</time>
      </trkpt>
      <trkpt lat="45.07893" lon="4.29096">
        <ele>923.6</ele>
        <time>2021-08-12T08:37:18.000Z</time>
      </trkpt>
      <trkpt lat="45.07883" lon="4.29092">
        <ele>923.5</ele>
        <time>2021-08-12T08:37:21.000Z</time>
      </trkpt>
      <trkpt lat="45.07869" lon="4.29078">
        <ele>921.7</ele>
        <time>2021-08-12T08:37:24.000Z</time>
      </trkpt>
      <trkpt lat="45.07859" lon="4.29075">
        <ele>922.1</ele>
        <time>2021-08-12T08:37:27.000Z</time>
      </trkpt>
      <trkpt lat="45.07849" lon="4.29079">
        <ele>924.4</ele>
        <time>2021-08-12T08:37:30.000Z</time>
      </trkpt>
      <trkpt lat="45.0784" lon="4.29089">
        <ele>928.5</ele>
        <time>2021-08-12T08:37:33.000Z</time>
      </trkpt>
      <trkpt lat="45.07834" lon="4.29104">
        <ele>933.1</ele>
        <time>2021-08-12T08:37:36.000Z</time>
      </trkpt>
      <trkpt lat="45.07829" lon="4.29118">
        <ele>936.8</ele>
        <time>2021-08-12T08:37:39.000Z</time>
      </trkpt>
      <trkpt lat="45.07823" lon="4.29129">
        <ele>938.3</ele>
        <time>2021-08-12T08:37:42.000Z</time>
      </trkpt>
      <trkpt lat="45.07815" lon="4.2912">
        <ele>935.5</ele>
        <time>2021-08-12T08:37:49.000Z</time>
      </trkpt>
      <trkpt lat="45.07813" lon="4.29135">
        <ele>938.9</ele>
        <time>2021-08-12T08:37:54.000Z</time>
      </trkpt>
      <trkpt lat="45.07811" lon="4.29151">
        <ele>942.2</ele>
        <time>2021-08-12T08:37:56.000Z</time>
      </trkpt>
      <trkpt lat="45.07802" lon="4.29161">
        <ele>942.5</ele>
        <time>2021-08-12T08:37:58.000Z</time>
      </trkpt>
      <trkpt lat="45.0779" lon="4.29164">
        <ele>940.9</ele>
        <time>2021-08-12T08:38:01.000Z</time>
      </trkpt>
      <trkpt lat="45.0778" lon="4.29162">
        <ele>938.8</ele>
        <time>2021-08-12T08:38:04.000Z</time>
      </trkpt>
      <trkpt lat="45.07768" lon="4.29157">
        <ele>935.8</ele>
        <time>2021-08-12T08:38:08.000Z</time>
      </trkpt>
      <trkpt lat="45.07762" lon="4.29147">
        <ele>933.3</ele>
        <time>2021-08-12T08:38:10.000Z</time>
      </trkpt>
      <trkpt lat="45.07761" lon="4.29135">
        <ele>931.3</ele>
        <time>2021-08-12T08:38:14.000Z</time>
      </trkpt>
      <trkpt lat="45.07758" lon="4.29122">
        <ele>929</ele>
        <time>2021-08-12T08:38:19.000Z</time>
      </trkpt>
      <trkpt lat="45.07755" lon="4.29108">
        <ele>926.8</ele>
        <time>2021-08-12T08:38:27.000Z</time>
      </trkpt>
      <trkpt lat="45.07748" lon="4.29097">
        <ele>924.7</ele>
        <time>2021-08-12T08:38:31.000Z</time>
      </trkpt>
      <trkpt lat="45.0774" lon="4.29086">
        <ele>923.5</ele>
        <time>2021-08-12T08:38:34.000Z</time>
      </trkpt>
      <trkpt lat="45.07734" lon="4.29075">
        <ele>922.1</ele>
        <time>2021-08-12T08:38:38.000Z</time>
      </trkpt>
      <trkpt lat="45.0773" lon="4.2906">
        <ele>920.4</ele>
        <time>2021-08-12T08:38:42.000Z</time>
      </trkpt>
      <trkpt lat="45.07722" lon="4.2905">
        <ele>919.4</ele>
        <time>2021-08-12T08:38:48.000Z</time>
      </trkpt>
      <trkpt lat="45.07714" lon="4.29042">
        <ele>918.7</ele>
        <time>2021-08-12T08:38:52.000Z</time>
      </trkpt>
      <trkpt lat="45.07715" lon="4.29029">
        <ele>917.1</ele>
        <time>2021-08-12T08:38:59.000Z</time>
      </trkpt>
      <trkpt lat="45.07709" lon="4.29017">
        <ele>916</ele>
        <time>2021-08-12T08:39:04.000Z</time>
      </trkpt>
      <trkpt lat="45.07706" lon="4.29004">
        <ele>914.4</ele>
        <time>2021-08-12T08:39:11.000Z</time>
      </trkpt>
      <trkpt lat="45.07702" lon="4.28988">
        <ele>913.6</ele>
        <time>2021-08-12T08:39:16.000Z</time>
      </trkpt>
      <trkpt lat="45.077" lon="4.28974">
        <ele>912.9</ele>
        <time>2021-08-12T08:39:18.000Z</time>
      </trkpt>
      <trkpt lat="45.07697" lon="4.2896">
        <ele>912.3</ele>
        <time>2021-08-12T08:39:20.000Z</time>
      </trkpt>
      <trkpt lat="45.07691" lon="4.28945">
        <ele>912</ele>
        <time>2021-08-12T08:39:22.000Z</time>
      </trkpt>
      <trkpt lat="45.07687" lon="4.2893">
        <ele>911.6</ele>
        <time>2021-08-12T08:39:24.000Z</time>
      </trkpt>
      <trkpt lat="45.07684" lon="4.28915">
        <ele>911.4</ele>
        <time>2021-08-12T08:39:26.000Z</time>
      </trkpt>
      <trkpt lat="45.07681" lon="4.28899">
        <ele>911.3</ele>
        <time>2021-08-12T08:39:28.000Z</time>
      </trkpt>
      <trkpt lat="45.07674" lon="4.28887">
        <ele>911.8</ele>
        <time>2021-08-12T08:39:30.000Z</time>
      </trkpt>
      <trkpt lat="45.07669" lon="4.28876">
        <ele>912.2</ele>
        <time>2021-08-12T08:39:32.000Z</time>
      </trkpt>
      <trkpt lat="45.07662" lon="4.2886">
        <ele>912.9</ele>
        <time>2021-08-12T08:39:35.000Z</time>
      </trkpt>
      <trkpt lat="45.07659" lon="4.28845">
        <ele>912.9</ele>
        <time>2021-08-12T08:39:37.000Z</time>
      </trkpt>
      <trkpt lat="45.07654" lon="4.28832">
        <ele>913</ele>
        <time>2021-08-12T08:39:39.000Z</time>
      </trkpt>
      <trkpt lat="45.07651" lon="4.28813">
        <ele>911.7</ele>
        <time>2021-08-12T08:39:42.000Z</time>
      </trkpt>
      <trkpt lat="45.07642" lon="4.28804">
        <ele>912.6</ele>
        <time>2021-08-12T08:39:45.000Z</time>
      </trkpt>
      <trkpt lat="45.07631" lon="4.28801">
        <ele>914.8</ele>
        <time>2021-08-12T08:39:47.000Z</time>
      </trkpt>
      <trkpt lat="45.07622" lon="4.28803">
        <ele>916.8</ele>
        <time>2021-08-12T08:39:49.000Z</time>
      </trkpt>
      <trkpt lat="45.07613" lon="4.28808">
        <ele>918.7</ele>
        <time>2021-08-12T08:39:52.000Z</time>
      </trkpt>
      <trkpt lat="45.07607" lon="4.28793">
        <ele>919</ele>
        <time>2021-08-12T08:39:56.000Z</time>
      </trkpt>
      <trkpt lat="45.076" lon="4.28781">
        <ele>919.7</ele>
        <time>2021-08-12T08:39:58.000Z</time>
      </trkpt>
      <trkpt lat="45.0759" lon="4.2877">
        <ele>921.5</ele>
        <time>2021-08-12T08:40:00.000Z</time>
      </trkpt>
      <trkpt lat="45.07583" lon="4.28754">
        <ele>922.1</ele>
        <time>2021-08-12T08:40:02.000Z</time>
      </trkpt>
      <trkpt lat="45.07583" lon="4.28733">
        <ele>920.9</ele>
        <time>2021-08-12T08:40:04.000Z</time>
      </trkpt>
      <trkpt lat="45.07596" lon="4.28717">
        <ele>917.1</ele>
        <time>2021-08-12T08:40:06.000Z</time>
      </trkpt>
      <trkpt lat="45.07602" lon="4.28697">
        <ele>914.3</ele>
        <time>2021-08-12T08:40:08.000Z</time>
      </trkpt>
      <trkpt lat="45.07597" lon="4.28676">
        <ele>914.1</ele>
        <time>2021-08-12T08:40:10.000Z</time>
      </trkpt>
      <trkpt lat="45.07593" lon="4.28664">
        <ele>914</ele>
        <time>2021-08-12T08:40:11.000Z</time>
      </trkpt>
      <trkpt lat="45.07581" lon="4.28651">
        <ele>914.1</ele>
        <time>2021-08-12T08:40:13.000Z</time>
      </trkpt>
      <trkpt lat="45.07572" lon="4.28633">
        <ele>910.6</ele>
        <time>2021-08-12T08:40:15.000Z</time>
      </trkpt>
      <trkpt lat="45.07566" lon="4.28613">
        <ele>907.4</ele>
        <time>2021-08-12T08:40:17.000Z</time>
      </trkpt>
      <trkpt lat="45.07563" lon="4.2859">
        <ele>904.6</ele>
        <time>2021-08-12T08:40:19.000Z</time>
      </trkpt>
      <trkpt lat="45.07557" lon="4.28574">
        <ele>903.2</ele>
        <time>2021-08-12T08:40:21.000Z</time>
      </trkpt>
      <trkpt lat="45.07548" lon="4.28569">
        <ele>903.1</ele>
        <time>2021-08-12T08:40:23.000Z</time>
      </trkpt>
      <trkpt lat="45.07532" lon="4.28576">
        <ele>904.3</ele>
        <time>2021-08-12T08:40:25.000Z</time>
      </trkpt>
      <trkpt lat="45.0752" lon="4.28577">
        <ele>904.9</ele>
        <time>2021-08-12T08:40:27.000Z</time>
      </trkpt>
      <trkpt lat="45.07506" lon="4.28578">
        <ele>905.5</ele>
        <time>2021-08-12T08:40:29.000Z</time>
      </trkpt>
      <trkpt lat="45.07498" lon="4.28564">
        <ele>905</ele>
        <time>2021-08-12T08:40:31.000Z</time>
      </trkpt>
      <trkpt lat="45.07489" lon="4.28556">
        <ele>904</ele>
        <time>2021-08-12T08:40:33.000Z</time>
      </trkpt>
      <trkpt lat="45.0748" lon="4.2855">
        <ele>903.3</ele>
        <time>2021-08-12T08:40:35.000Z</time>
      </trkpt>
      <trkpt lat="45.07469" lon="4.28538">
        <ele>902.4</ele>
        <time>2021-08-12T08:40:38.000Z</time>
      </trkpt>
      <trkpt lat="45.07462" lon="4.2853">
        <ele>902</ele>
        <time>2021-08-12T08:40:40.000Z</time>
      </trkpt>
      <trkpt lat="45.0746" lon="4.28517">
        <ele>901.8</ele>
        <time>2021-08-12T08:40:42.000Z</time>
      </trkpt>
      <trkpt lat="45.07468" lon="4.28507">
        <ele>901.7</ele>
        <time>2021-08-12T08:40:44.000Z</time>
      </trkpt>
      <trkpt lat="45.07474" lon="4.28497">
        <ele>901.5</ele>
        <time>2021-08-12T08:40:46.000Z</time>
      </trkpt>
      <trkpt lat="45.07483" lon="4.28484">
        <ele>901.1</ele>
        <time>2021-08-12T08:40:49.000Z</time>
      </trkpt>
      <trkpt lat="45.07494" lon="4.28477">
        <ele>900.6</ele>
        <time>2021-08-12T08:40:52.000Z</time>
      </trkpt>
      <trkpt lat="45.07505" lon="4.2847">
        <ele>899.9</ele>
        <time>2021-08-12T08:40:55.000Z</time>
      </trkpt>
      <trkpt lat="45.07514" lon="4.28464">
        <ele>899.2</ele>
        <time>2021-08-12T08:40:57.000Z</time>
      </trkpt>
      <trkpt lat="45.07522" lon="4.28455">
        <ele>898.5</ele>
        <time>2021-08-12T08:40:59.000Z</time>
      </trkpt>
      <trkpt lat="45.07531" lon="4.28439">
        <ele>897.9</ele>
        <time>2021-08-12T08:41:01.000Z</time>
      </trkpt>
      <trkpt lat="45.07539" lon="4.28421">
        <ele>897.5</ele>
        <time>2021-08-12T08:41:03.000Z</time>
      </trkpt>
      <trkpt lat="45.07553" lon="4.28406">
        <ele>897.4</ele>
        <time>2021-08-12T08:41:05.000Z</time>
      </trkpt>
      <trkpt lat="45.0756" lon="4.28398">
        <ele>897.4</ele>
        <time>2021-08-12T08:41:06.000Z</time>
      </trkpt>
      <trkpt lat="45.07574" lon="4.28385">
        <ele>897.5</ele>
        <time>2021-08-12T08:41:08.000Z</time>
      </trkpt>
      <trkpt lat="45.07588" lon="4.28375">
        <ele>898.1</ele>
        <time>2021-08-12T08:41:10.000Z</time>
      </trkpt>
      <trkpt lat="45.07602" lon="4.2837">
        <ele>899.9</ele>
        <time>2021-08-12T08:41:12.000Z</time>
      </trkpt>
      <trkpt lat="45.07615" lon="4.28369">
        <ele>901.5</ele>
        <time>2021-08-12T08:41:14.000Z</time>
      </trkpt>
      <trkpt lat="45.07628" lon="4.28366">
        <ele>903.1</ele>
        <time>2021-08-12T08:41:16.000Z</time>
      </trkpt>
      <trkpt lat="45.0764" lon="4.28366">
        <ele>904.6</ele>
        <time>2021-08-12T08:41:18.000Z</time>
      </trkpt>
      <trkpt lat="45.07652" lon="4.28364">
        <ele>906.1</ele>
        <time>2021-08-12T08:41:20.000Z</time>
      </trkpt>
      <trkpt lat="45.07661" lon="4.28362">
        <ele>907.3</ele>
        <time>2021-08-12T08:41:22.000Z</time>
      </trkpt>
      <trkpt lat="45.07666" lon="4.28349">
        <ele>908</ele>
        <time>2021-08-12T08:41:40.000Z</time>
      </trkpt>
      <trkpt lat="45.0767" lon="4.28335">
        <ele>909</ele>
        <time>2021-08-12T08:41:45.000Z</time>
      </trkpt>
      <trkpt lat="45.07673" lon="4.28321">
        <ele>909.7</ele>
        <time>2021-08-12T08:41:51.000Z</time>
      </trkpt>
      <trkpt lat="45.07677" lon="4.28308">
        <ele>911</ele>
        <time>2021-08-12T08:41:56.000Z</time>
      </trkpt>
      <trkpt lat="45.07683" lon="4.28296">
        <ele>912.4</ele>
        <time>2021-08-12T08:42:02.000Z</time>
      </trkpt>
      <trkpt lat="45.07684" lon="4.28283">
        <ele>912.4</ele>
        <time>2021-08-12T08:42:07.000Z</time>
      </trkpt>
      <trkpt lat="45.07684" lon="4.28268">
        <ele>912.4</ele>
        <time>2021-08-12T08:42:12.000Z</time>
      </trkpt>
      <trkpt lat="45.07683" lon="4.28255">
        <ele>912</ele>
        <time>2021-08-12T08:42:16.000Z</time>
      </trkpt>
      <trkpt lat="45.0768" lon="4.28242">
        <ele>912.6</ele>
        <time>2021-08-12T08:42:20.000Z</time>
      </trkpt>
      <trkpt lat="45.07674" lon="4.28233">
        <ele>912.7</ele>
        <time>2021-08-12T08:42:24.000Z</time>
      </trkpt>
      <trkpt lat="45.07665" lon="4.28226">
        <ele>912.7</ele>
        <time>2021-08-12T08:42:29.000Z</time>
      </trkpt>
      <trkpt lat="45.07656" lon="4.28223">
        <ele>912.3</ele>
        <time>2021-08-12T08:42:34.000Z</time>
      </trkpt>
      <trkpt lat="45.07646" lon="4.28225">
        <ele>911.2</ele>
        <time>2021-08-12T08:42:39.000Z</time>
      </trkpt>
      <trkpt lat="45.07638" lon="4.28215">
        <ele>911.7</ele>
        <time>2021-08-12T08:42:43.000Z</time>
      </trkpt>
      <trkpt lat="45.07631" lon="4.28204">
        <ele>912.4</ele>
        <time>2021-08-12T08:42:45.000Z</time>
      </trkpt>
      <trkpt lat="45.07625" lon="4.2819">
        <ele>913.7</ele>
        <time>2021-08-12T08:42:48.000Z</time>
      </trkpt>
      <trkpt lat="45.07617" lon="4.28177">
        <ele>914.2</ele>
        <time>2021-08-12T08:42:51.000Z</time>
      </trkpt>
      <trkpt lat="45.07616" lon="4.28163">
        <ele>916</ele>
        <time>2021-08-12T08:42:54.000Z</time>
      </trkpt>
      <trkpt lat="45.07611" lon="4.28151">
        <ele>917.1</ele>
        <time>2021-08-12T08:42:57.000Z</time>
      </trkpt>
      <trkpt lat="45.07608" lon="4.28137">
        <ele>918.9</ele>
        <time>2021-08-12T08:43:02.000Z</time>
      </trkpt>
      <trkpt lat="45.07603" lon="4.28123">
        <ele>920.3</ele>
        <time>2021-08-12T08:43:06.000Z</time>
      </trkpt>
      <trkpt lat="45.07597" lon="4.28112">
        <ele>921.2</ele>
        <time>2021-08-12T08:43:11.000Z</time>
      </trkpt>
      <trkpt lat="45.07592" lon="4.28098">
        <ele>922.3</ele>
        <time>2021-08-12T08:43:15.000Z</time>
      </trkpt>
      <trkpt lat="45.07585" lon="4.28086">
        <ele>923</ele>
        <time>2021-08-12T08:43:19.000Z</time>
      </trkpt>
      <trkpt lat="45.07577" lon="4.28078">
        <ele>922.7</ele>
        <time>2021-08-12T08:43:24.000Z</time>
      </trkpt>
      <trkpt lat="45.07574" lon="4.28064">
        <ele>924.1</ele>
        <time>2021-08-12T08:43:29.000Z</time>
      </trkpt>
      <trkpt lat="45.07568" lon="4.28055">
        <ele>924.5</ele>
        <time>2021-08-12T08:43:33.000Z</time>
      </trkpt>
      <trkpt lat="45.07563" lon="4.28043">
        <ele>925.4</ele>
        <time>2021-08-12T08:43:39.000Z</time>
      </trkpt>
      <trkpt lat="45.07557" lon="4.28032">
        <ele>925.8</ele>
        <time>2021-08-12T08:43:43.000Z</time>
      </trkpt>
      <trkpt lat="45.07548" lon="4.28025">
        <ele>925.4</ele>
        <time>2021-08-12T08:43:51.000Z</time>
      </trkpt>
      <trkpt lat="45.07541" lon="4.28016">
        <ele>925.7</ele>
        <time>2021-08-12T08:43:57.000Z</time>
      </trkpt>
      <trkpt lat="45.07534" lon="4.28009">
        <ele>925.7</ele>
        <time>2021-08-12T08:44:03.000Z</time>
      </trkpt>
      <trkpt lat="45.0753" lon="4.27996">
        <ele>926.5</ele>
        <time>2021-08-12T08:44:08.000Z</time>
      </trkpt>
      <trkpt lat="45.07526" lon="4.27996">
        <ele>925.8</ele>
        <time>2021-08-12T08:44:23.000Z</time>
      </trkpt>
      <trkpt lat="45.07526" lon="4.27996">
        <ele>925.9</ele>
        <time>2021-08-12T08:44:24.000Z</time>
      </trkpt>
      <trkpt lat="45.07525" lon="4.27995">
        <ele>925.8</ele>
        <time>2021-08-12T08:44:29.000Z</time>
      </trkpt>
      <trkpt lat="45.07525" lon="4.27995">
        <ele>925.8</ele>
        <time>2021-08-12T08:44:31.000Z</time>
      </trkpt>
      <trkpt lat="45.07523" lon="4.27997">
        <ele>925.4</ele>
        <time>2021-08-12T08:44:40.000Z</time>
      </trkpt>
      <trkpt lat="45.07523" lon="4.27997">
        <ele>925.4</ele>
        <time>2021-08-12T08:44:42.000Z</time>
      </trkpt>
      <trkpt lat="45.07523" lon="4.27996">
        <ele>925.5</ele>
        <time>2021-08-12T08:44:46.000Z</time>
      </trkpt>
      <trkpt lat="45.07523" lon="4.27996">
        <ele>925.5</ele>
        <time>2021-08-12T08:44:47.000Z</time>
      </trkpt>
      <trkpt lat="45.0753" lon="4.28006">
        <ele>925.6</ele>
        <time>2021-08-12T08:44:56.000Z</time>
      </trkpt>
      <trkpt lat="45.07538" lon="4.28015">
        <ele>925.5</ele>
        <time>2021-08-12T08:45:01.000Z</time>
      </trkpt>
      <trkpt lat="45.07545" lon="4.28024">
        <ele>925.2</ele>
        <time>2021-08-12T08:45:05.000Z</time>
      </trkpt>
      <trkpt lat="45.07553" lon="4.28035">
        <ele>924.9</ele>
        <time>2021-08-12T08:45:09.000Z</time>
      </trkpt>
      <trkpt lat="45.07563" lon="4.2804">
        <ele>925.8</ele>
        <time>2021-08-12T08:45:11.000Z</time>
      </trkpt>
      <trkpt lat="45.07572" lon="4.28047">
        <ele>926</ele>
        <time>2021-08-12T08:45:14.000Z</time>
      </trkpt>
      <trkpt lat="45.07578" lon="4.28063">
        <ele>924.9</ele>
        <time>2021-08-12T08:45:16.000Z</time>
      </trkpt>
      <trkpt lat="45.07586" lon="4.28079">
        <ele>924.1</ele>
        <time>2021-08-12T08:45:18.000Z</time>
      </trkpt>
      <trkpt lat="45.07591" lon="4.28095">
        <ele>922.7</ele>
        <time>2021-08-12T08:45:20.000Z</time>
      </trkpt>
      <trkpt lat="45.07597" lon="4.28107">
        <ele>921.7</ele>
        <time>2021-08-12T08:45:22.000Z</time>
      </trkpt>
      <trkpt lat="45.07601" lon="4.28122">
        <ele>920.2</ele>
        <time>2021-08-12T08:45:24.000Z</time>
      </trkpt>
      <trkpt lat="45.07604" lon="4.28135">
        <ele>918.7</ele>
        <time>2021-08-12T08:45:26.000Z</time>
      </trkpt>
      <trkpt lat="45.07609" lon="4.2815">
        <ele>917</ele>
        <time>2021-08-12T08:45:28.000Z</time>
      </trkpt>
      <trkpt lat="45.07613" lon="4.28165">
        <ele>915.3</ele>
        <time>2021-08-12T08:45:30.000Z</time>
      </trkpt>
      <trkpt lat="45.07615" lon="4.28179">
        <ele>913.8</ele>
        <time>2021-08-12T08:45:32.000Z</time>
      </trkpt>
      <trkpt lat="45.07625" lon="4.28191">
        <ele>913.5</ele>
        <time>2021-08-12T08:45:35.000Z</time>
      </trkpt>
      <trkpt lat="45.07635" lon="4.28204">
        <ele>912.9</ele>
        <time>2021-08-12T08:45:38.000Z</time>
      </trkpt>
      <trkpt lat="45.07644" lon="4.28215">
        <ele>912.4</ele>
        <time>2021-08-12T08:45:43.000Z</time>
      </trkpt>
      <trkpt lat="45.0765" lon="4.28224">
        <ele>911.6</ele>
        <time>2021-08-12T08:45:51.000Z</time>
      </trkpt>
      <trkpt lat="45.07658" lon="4.28218">
        <ele>913.3</ele>
        <time>2021-08-12T08:46:00.000Z</time>
      </trkpt>
      <trkpt lat="45.07667" lon="4.28227">
        <ele>912.7</ele>
        <time>2021-08-12T08:46:06.000Z</time>
      </trkpt>
      <trkpt lat="45.07673" lon="4.28215">
        <ele>915.3</ele>
        <time>2021-08-12T08:46:10.000Z</time>
      </trkpt>
      <trkpt lat="45.0767" lon="4.28203">
        <ele>916.9</ele>
        <time>2021-08-12T08:46:14.000Z</time>
      </trkpt>
      <trkpt lat="45.07669" lon="4.2819">
        <ele>918.8</ele>
        <time>2021-08-12T08:46:20.000Z</time>
      </trkpt>
      <trkpt lat="45.07669" lon="4.28177">
        <ele>920.5</ele>
        <time>2021-08-12T08:46:27.000Z</time>
      </trkpt>
      <trkpt lat="45.0767" lon="4.28162">
        <ele>923.1</ele>
        <time>2021-08-12T08:46:35.000Z</time>
      </trkpt>
      <trkpt lat="45.07669" lon="4.28148">
        <ele>925.6</ele>
        <time>2021-08-12T08:46:42.000Z</time>
      </trkpt>
      <trkpt lat="45.07668" lon="4.28132">
        <ele>928.4</ele>
        <time>2021-08-12T08:46:51.000Z</time>
      </trkpt>
      <trkpt lat="45.07666" lon="4.28119">
        <ele>930.5</ele>
        <time>2021-08-12T08:46:57.000Z</time>
      </trkpt>
      <trkpt lat="45.07664" lon="4.28104">
        <ele>932.9</ele>
        <time>2021-08-12T08:47:03.000Z</time>
      </trkpt>
      <trkpt lat="45.07662" lon="4.28091">
        <ele>935.1</ele>
        <time>2021-08-12T08:47:09.000Z</time>
      </trkpt>
      <trkpt lat="45.07659" lon="4.28076">
        <ele>936.9</ele>
        <time>2021-08-12T08:47:15.000Z</time>
      </trkpt>
      <trkpt lat="45.07653" lon="4.28064">
        <ele>937.6</ele>
        <time>2021-08-12T08:47:24.000Z</time>
      </trkpt>
      <trkpt lat="45.07647" lon="4.28055">
        <ele>937.7</ele>
        <time>2021-08-12T08:47:29.000Z</time>
      </trkpt>
      <trkpt lat="45.0764" lon="4.28044">
        <ele>938</ele>
        <time>2021-08-12T08:47:34.000Z</time>
      </trkpt>
      <trkpt lat="45.07635" lon="4.28033">
        <ele>938.8</ele>
        <time>2021-08-12T08:47:40.000Z</time>
      </trkpt>
      <trkpt lat="45.07632" lon="4.2802">
        <ele>940</ele>
        <time>2021-08-12T08:47:46.000Z</time>
      </trkpt>
      <trkpt lat="45.07635" lon="4.28007">
        <ele>942.5</ele>
        <time>2021-08-12T08:47:53.000Z</time>
      </trkpt>
      <trkpt lat="45.07639" lon="4.27995">
        <ele>944.6</ele>
        <time>2021-08-12T08:48:00.000Z</time>
      </trkpt>
      <trkpt lat="45.07648" lon="4.27991">
        <ele>946.9</ele>
        <time>2021-08-12T08:48:11.000Z</time>
      </trkpt>
      <trkpt lat="45.07657" lon="4.27994">
        <ele>948</ele>
        <time>2021-08-12T08:48:17.000Z</time>
      </trkpt>
      <trkpt lat="45.07665" lon="4.28003">
        <ele>948.3</ele>
        <time>2021-08-12T08:48:22.000Z</time>
      </trkpt>
      <trkpt lat="45.07669" lon="4.28017">
        <ele>946.8</ele>
        <time>2021-08-12T08:48:26.000Z</time>
      </trkpt>
      <trkpt lat="45.07675" lon="4.28027">
        <ele>945.2</ele>
        <time>2021-08-12T08:48:29.000Z</time>
      </trkpt>
      <trkpt lat="45.0768" lon="4.28038">
        <ele>943.8</ele>
        <time>2021-08-12T08:48:33.000Z</time>
      </trkpt>
      <trkpt lat="45.07686" lon="4.28049">
        <ele>942.4</ele>
        <time>2021-08-12T08:48:38.000Z</time>
      </trkpt>
      <trkpt lat="45.07692" lon="4.28059">
        <ele>941</ele>
        <time>2021-08-12T08:48:45.000Z</time>
      </trkpt>
      <trkpt lat="45.07699" lon="4.28073">
        <ele>939.1</ele>
        <time>2021-08-12T08:48:50.000Z</time>
      </trkpt>
      <trkpt lat="45.07707" lon="4.28084">
        <ele>937.5</ele>
        <time>2021-08-12T08:48:53.000Z</time>
      </trkpt>
      <trkpt lat="45.07716" lon="4.28095">
        <ele>935.9</ele>
        <time>2021-08-12T08:48:56.000Z</time>
      </trkpt>
      <trkpt lat="45.07725" lon="4.28105">
        <ele>934.5</ele>
        <time>2021-08-12T08:48:59.000Z</time>
      </trkpt>
      <trkpt lat="45.07737" lon="4.28113">
        <ele>933.5</ele>
        <time>2021-08-12T08:49:02.000Z</time>
      </trkpt>
      <trkpt lat="45.07747" lon="4.2812">
        <ele>932.7</ele>
        <time>2021-08-12T08:49:05.000Z</time>
      </trkpt>
      <trkpt lat="45.07758" lon="4.28125">
        <ele>932.3</ele>
        <time>2021-08-12T08:49:08.000Z</time>
      </trkpt>
      <trkpt lat="45.07768" lon="4.28127">
        <ele>932.5</ele>
        <time>2021-08-12T08:49:11.000Z</time>
      </trkpt>
      <trkpt lat="45.07779" lon="4.28126">
        <ele>933</ele>
        <time>2021-08-12T08:49:14.000Z</time>
      </trkpt>
      <trkpt lat="45.0779" lon="4.28129">
        <ele>933.1</ele>
        <time>2021-08-12T08:49:17.000Z</time>
      </trkpt>
      <trkpt lat="45.078" lon="4.28131">
        <ele>933.4</ele>
        <time>2021-08-12T08:49:20.000Z</time>
      </trkpt>
      <trkpt lat="45.0781" lon="4.28126">
        <ele>934.2</ele>
        <time>2021-08-12T08:49:23.000Z</time>
      </trkpt>
      <trkpt lat="45.07821" lon="4.28118">
        <ele>935</ele>
        <time>2021-08-12T08:49:26.000Z</time>
      </trkpt>
      <trkpt lat="45.0783" lon="4.28109">
        <ele>935.8</ele>
        <time>2021-08-12T08:49:29.000Z</time>
      </trkpt>
      <trkpt lat="45.0784" lon="4.281">
        <ele>936.6</ele>
        <time>2021-08-12T08:49:32.000Z</time>
      </trkpt>
      <trkpt lat="45.0785" lon="4.28093">
        <ele>937.2</ele>
        <time>2021-08-12T08:49:35.000Z</time>
      </trkpt>
      <trkpt lat="45.07862" lon="4.28089">
        <ele>937.6</ele>
        <time>2021-08-12T08:49:38.000Z</time>
      </trkpt>
      <trkpt lat="45.07872" lon="4.28087">
        <ele>937.9</ele>
        <time>2021-08-12T08:49:41.000Z</time>
      </trkpt>
      <trkpt lat="45.07884" lon="4.2809">
        <ele>938.3</ele>
        <time>2021-08-12T08:49:45.000Z</time>
      </trkpt>
      <trkpt lat="45.07894" lon="4.28095">
        <ele>938.8</ele>
        <time>2021-08-12T08:49:48.000Z</time>
      </trkpt>
      <trkpt lat="45.07903" lon="4.28101">
        <ele>939.4</ele>
        <time>2021-08-12T08:49:54.000Z</time>
      </trkpt>
      <trkpt lat="45.07913" lon="4.28102">
        <ele>939.9</ele>
        <time>2021-08-12T08:49:58.000Z</time>
      </trkpt>
      <trkpt lat="45.07921" lon="4.28109">
        <ele>941</ele>
        <time>2021-08-12T08:50:03.000Z</time>
      </trkpt>
      <trkpt lat="45.07929" lon="4.28117">
        <ele>942.5</ele>
        <time>2021-08-12T08:50:06.000Z</time>
      </trkpt>
      <trkpt lat="45.07937" lon="4.28126">
        <ele>943.8</ele>
        <time>2021-08-12T08:50:09.000Z</time>
      </trkpt>
      <trkpt lat="45.07943" lon="4.28135">
        <ele>945.1</ele>
        <time>2021-08-12T08:50:12.000Z</time>
      </trkpt>
      <trkpt lat="45.0795" lon="4.28145">
        <ele>946.5</ele>
        <time>2021-08-12T08:50:17.000Z</time>
      </trkpt>
      <trkpt lat="45.07955" lon="4.2816">
        <ele>948</ele>
        <time>2021-08-12T08:50:21.000Z</time>
      </trkpt>
      <trkpt lat="45.07956" lon="4.28173">
        <ele>949.3</ele>
        <time>2021-08-12T08:50:25.000Z</time>
      </trkpt>
      <trkpt lat="45.07958" lon="4.28186">
        <ele>950.7</ele>
        <time>2021-08-12T08:50:30.000Z</time>
      </trkpt>
      <trkpt lat="45.07965" lon="4.28195">
        <ele>952.2</ele>
        <time>2021-08-12T08:50:35.000Z</time>
      </trkpt>
      <trkpt lat="45.07975" lon="4.28198">
        <ele>953.5</ele>
        <time>2021-08-12T08:50:42.000Z</time>
      </trkpt>
      <trkpt lat="45.07984" lon="4.28199">
        <ele>954.6</ele>
        <time>2021-08-12T08:50:47.000Z</time>
      </trkpt>
      <trkpt lat="45.07994" lon="4.28194">
        <ele>955.3</ele>
        <time>2021-08-12T08:50:53.000Z</time>
      </trkpt>
      <trkpt lat="45.08003" lon="4.28188">
        <ele>955.8</ele>
        <time>2021-08-12T08:50:58.000Z</time>
      </trkpt>
      <trkpt lat="45.08011" lon="4.28181">
        <ele>956.2</ele>
        <time>2021-08-12T08:51:03.000Z</time>
      </trkpt>
      <trkpt lat="45.0802" lon="4.28176">
        <ele>957</ele>
        <time>2021-08-12T08:51:08.000Z</time>
      </trkpt>
      <trkpt lat="45.0803" lon="4.28173">
        <ele>958</ele>
        <time>2021-08-12T08:51:13.000Z</time>
      </trkpt>
      <trkpt lat="45.0804" lon="4.28171">
        <ele>959</ele>
        <time>2021-08-12T08:51:18.000Z</time>
      </trkpt>
      <trkpt lat="45.08051" lon="4.28168">
        <ele>960.2</ele>
        <time>2021-08-12T08:51:23.000Z</time>
      </trkpt>
      <trkpt lat="45.08061" lon="4.28169">
        <ele>961.5</ele>
        <time>2021-08-12T08:51:29.000Z</time>
      </trkpt>
      <trkpt lat="45.08071" lon="4.28168">
        <ele>962.6</ele>
        <time>2021-08-12T08:51:35.000Z</time>
      </trkpt>
      <trkpt lat="45.0808" lon="4.28165">
        <ele>963.5</ele>
        <time>2021-08-12T08:51:40.000Z</time>
      </trkpt>
      <trkpt lat="45.08091" lon="4.2816">
        <ele>964.5</ele>
        <time>2021-08-12T08:51:46.000Z</time>
      </trkpt>
      <trkpt lat="45.081" lon="4.28161">
        <ele>965.6</ele>
        <time>2021-08-12T08:51:51.000Z</time>
      </trkpt>
      <trkpt lat="45.0811" lon="4.28163">
        <ele>966.7</ele>
        <time>2021-08-12T08:51:57.000Z</time>
      </trkpt>
      <trkpt lat="45.0812" lon="4.28162">
        <ele>967.7</ele>
        <time>2021-08-12T08:52:03.000Z</time>
      </trkpt>
      <trkpt lat="45.0813" lon="4.28157">
        <ele>968.5</ele>
        <time>2021-08-12T08:52:08.000Z</time>
      </trkpt>
      <trkpt lat="45.08138" lon="4.28151">
        <ele>969.1</ele>
        <time>2021-08-12T08:52:13.000Z</time>
      </trkpt>
      <trkpt lat="45.08145" lon="4.28142">
        <ele>969.5</ele>
        <time>2021-08-12T08:52:18.000Z</time>
      </trkpt>
      <trkpt lat="45.08153" lon="4.28132">
        <ele>969.8</ele>
        <time>2021-08-12T08:52:22.000Z</time>
      </trkpt>
      <trkpt lat="45.0816" lon="4.28119">
        <ele>970</ele>
        <time>2021-08-12T08:52:26.000Z</time>
      </trkpt>
      <trkpt lat="45.08166" lon="4.28108">
        <ele>970.1</ele>
        <time>2021-08-12T08:52:29.000Z</time>
      </trkpt>
      <trkpt lat="45.08173" lon="4.28096">
        <ele>969.8</ele>
        <time>2021-08-12T08:52:32.000Z</time>
      </trkpt>
      <trkpt lat="45.08178" lon="4.28082">
        <ele>969.5</ele>
        <time>2021-08-12T08:52:35.000Z</time>
      </trkpt>
      <trkpt lat="45.08184" lon="4.28069">
        <ele>969.5</ele>
        <time>2021-08-12T08:52:38.000Z</time>
      </trkpt>
      <trkpt lat="45.08189" lon="4.28055">
        <ele>969.5</ele>
        <time>2021-08-12T08:52:41.000Z</time>
      </trkpt>
      <trkpt lat="45.08197" lon="4.28042">
        <ele>969.8</ele>
        <time>2021-08-12T08:52:44.000Z</time>
      </trkpt>
      <trkpt lat="45.08205" lon="4.2803">
        <ele>970.4</ele>
        <time>2021-08-12T08:52:47.000Z</time>
      </trkpt>
      <trkpt lat="45.08213" lon="4.2802">
        <ele>971.1</ele>
        <time>2021-08-12T08:52:50.000Z</time>
      </trkpt>
      <trkpt lat="45.0822" lon="4.28011">
        <ele>971.8</ele>
        <time>2021-08-12T08:52:53.000Z</time>
      </trkpt>
      <trkpt lat="45.08227" lon="4.28">
        <ele>972.5</ele>
        <time>2021-08-12T08:52:57.000Z</time>
      </trkpt>
      <trkpt lat="45.08235" lon="4.27994">
        <ele>973.5</ele>
        <time>2021-08-12T08:53:02.000Z</time>
      </trkpt>
      <trkpt lat="45.08245" lon="4.2799">
        <ele>974.5</ele>
        <time>2021-08-12T08:53:06.000Z</time>
      </trkpt>
      <trkpt lat="45.08255" lon="4.27983">
        <ele>975.6</ele>
        <time>2021-08-12T08:53:10.000Z</time>
      </trkpt>
      <trkpt lat="45.08263" lon="4.27972">
        <ele>976.5</ele>
        <time>2021-08-12T08:53:14.000Z</time>
      </trkpt>
      <trkpt lat="45.0827" lon="4.2796">
        <ele>977.4</ele>
        <time>2021-08-12T08:53:18.000Z</time>
      </trkpt>
      <trkpt lat="45.08274" lon="4.27945">
        <ele>978.2</ele>
        <time>2021-08-12T08:53:22.000Z</time>
      </trkpt>
      <trkpt lat="45.08276" lon="4.27932">
        <ele>978.9</ele>
        <time>2021-08-12T08:53:25.000Z</time>
      </trkpt>
      <trkpt lat="45.08281" lon="4.27918">
        <ele>980</ele>
        <time>2021-08-12T08:53:28.000Z</time>
      </trkpt>
      <trkpt lat="45.08286" lon="4.27905">
        <ele>981.1</ele>
        <time>2021-08-12T08:53:31.000Z</time>
      </trkpt>
      <trkpt lat="45.08291" lon="4.27893">
        <ele>982</ele>
        <time>2021-08-12T08:53:34.000Z</time>
      </trkpt>
      <trkpt lat="45.08298" lon="4.27882">
        <ele>983.2</ele>
        <time>2021-08-12T08:53:38.000Z</time>
      </trkpt>
      <trkpt lat="45.08307" lon="4.2789">
        <ele>984.2</ele>
        <time>2021-08-12T08:53:42.000Z</time>
      </trkpt>
      <trkpt lat="45.08311" lon="4.27904">
        <ele>984.4</ele>
        <time>2021-08-12T08:53:45.000Z</time>
      </trkpt>
      <trkpt lat="45.08316" lon="4.27918">
        <ele>984.6</ele>
        <time>2021-08-12T08:53:48.000Z</time>
      </trkpt>
      <trkpt lat="45.0832" lon="4.27933">
        <ele>984.2</ele>
        <time>2021-08-12T08:53:51.000Z</time>
      </trkpt>
      <trkpt lat="45.08325" lon="4.27948">
        <ele>983.6</ele>
        <time>2021-08-12T08:53:54.000Z</time>
      </trkpt>
      <trkpt lat="45.0833" lon="4.27962">
        <ele>982.9</ele>
        <time>2021-08-12T08:53:57.000Z</time>
      </trkpt>
      <trkpt lat="45.08335" lon="4.27977">
        <ele>982</ele>
        <time>2021-08-12T08:54:00.000Z</time>
      </trkpt>
      <trkpt lat="45.0834" lon="4.27991">
        <ele>980.8</ele>
        <time>2021-08-12T08:54:03.000Z</time>
      </trkpt>
      <trkpt lat="45.08346" lon="4.28006">
        <ele>979.6</ele>
        <time>2021-08-12T08:54:06.000Z</time>
      </trkpt>
      <trkpt lat="45.08353" lon="4.28021">
        <ele>978.4</ele>
        <time>2021-08-12T08:54:09.000Z</time>
      </trkpt>
      <trkpt lat="45.08358" lon="4.28037">
        <ele>977</ele>
        <time>2021-08-12T08:54:12.000Z</time>
      </trkpt>
      <trkpt lat="45.08366" lon="4.28052">
        <ele>975.4</ele>
        <time>2021-08-12T08:54:15.000Z</time>
      </trkpt>
      <trkpt lat="45.08376" lon="4.28064">
        <ele>973.8</ele>
        <time>2021-08-12T08:54:18.000Z</time>
      </trkpt>
      <trkpt lat="45.08386" lon="4.28077">
        <ele>972</ele>
        <time>2021-08-12T08:54:21.000Z</time>
      </trkpt>
      <trkpt lat="45.08398" lon="4.28086">
        <ele>970.2</ele>
        <time>2021-08-12T08:54:24.000Z</time>
      </trkpt>
      <trkpt lat="45.0841" lon="4.28081">
        <ele>969.8</ele>
        <time>2021-08-12T08:54:27.000Z</time>
      </trkpt>
      <trkpt lat="45.08414" lon="4.2807">
        <ele>971</ele>
        <time>2021-08-12T08:54:30.000Z</time>
      </trkpt>
      <trkpt lat="45.08418" lon="4.28054">
        <ele>972.9</ele>
        <time>2021-08-12T08:54:34.000Z</time>
      </trkpt>
      <trkpt lat="45.08416" lon="4.28041">
        <ele>974.7</ele>
        <time>2021-08-12T08:54:38.000Z</time>
      </trkpt>
      <trkpt lat="45.08415" lon="4.28027">
        <ele>976.6</ele>
        <time>2021-08-12T08:54:42.000Z</time>
      </trkpt>
      <trkpt lat="45.08416" lon="4.28011">
        <ele>978.6</ele>
        <time>2021-08-12T08:54:46.000Z</time>
      </trkpt>
      <trkpt lat="45.08418" lon="4.27996">
        <ele>980.9</ele>
        <time>2021-08-12T08:54:50.000Z</time>
      </trkpt>
      <trkpt lat="45.08421" lon="4.27981">
        <ele>983.3</ele>
        <time>2021-08-12T08:54:54.000Z</time>
      </trkpt>
      <trkpt lat="45.08426" lon="4.27968">
        <ele>985.6</ele>
        <time>2021-08-12T08:54:58.000Z</time>
      </trkpt>
      <trkpt lat="45.08431" lon="4.27958">
        <ele>987.6</ele>
        <time>2021-08-12T08:55:02.000Z</time>
      </trkpt>
      <trkpt lat="45.08437" lon="4.27948">
        <ele>989.7</ele>
        <time>2021-08-12T08:55:06.000Z</time>
      </trkpt>
      <trkpt lat="45.08443" lon="4.27938">
        <ele>991.6</ele>
        <time>2021-08-12T08:55:10.000Z</time>
      </trkpt>
      <trkpt lat="45.08451" lon="4.27928">
        <ele>994</ele>
        <time>2021-08-12T08:55:15.000Z</time>
      </trkpt>
      <trkpt lat="45.0846" lon="4.27918">
        <ele>996.3</ele>
        <time>2021-08-12T08:55:21.000Z</time>
      </trkpt>
      <trkpt lat="45.08467" lon="4.27909">
        <ele>997.7</ele>
        <time>2021-08-12T08:55:25.000Z</time>
      </trkpt>
      <trkpt lat="45.08475" lon="4.27903">
        <ele>998.8</ele>
        <time>2021-08-12T08:55:29.000Z</time>
      </trkpt>
      <trkpt lat="45.08485" lon="4.27896">
        <ele>1000.2</ele>
        <time>2021-08-12T08:55:34.000Z</time>
      </trkpt>
      <trkpt lat="45.08494" lon="4.27888">
        <ele>1001.6</ele>
        <time>2021-08-12T08:55:39.000Z</time>
      </trkpt>
      <trkpt lat="45.08503" lon="4.27884">
        <ele>1002.8</ele>
        <time>2021-08-12T08:55:44.000Z</time>
      </trkpt>
      <trkpt lat="45.08513" lon="4.2788">
        <ele>1004.2</ele>
        <time>2021-08-12T08:55:48.000Z</time>
      </trkpt>
      <trkpt lat="45.08522" lon="4.27875">
        <ele>1005.5</ele>
        <time>2021-08-12T08:55:52.000Z</time>
      </trkpt>
      <trkpt lat="45.08531" lon="4.27868">
        <ele>1007</ele>
        <time>2021-08-12T08:55:56.000Z</time>
      </trkpt>
      <trkpt lat="45.08539" lon="4.27859">
        <ele>1008.7</ele>
        <time>2021-08-12T08:56:00.000Z</time>
      </trkpt>
      <trkpt lat="45.08544" lon="4.27849">
        <ele>1010.4</ele>
        <time>2021-08-12T08:56:04.000Z</time>
      </trkpt>
      <trkpt lat="45.08554" lon="4.27854">
        <ele>1010.7</ele>
        <time>2021-08-12T08:56:08.000Z</time>
      </trkpt>
      <trkpt lat="45.08562" lon="4.27863">
        <ele>1010.3</ele>
        <time>2021-08-12T08:56:12.000Z</time>
      </trkpt>
      <trkpt lat="45.08571" lon="4.27871">
        <ele>1010.1</ele>
        <time>2021-08-12T08:56:15.000Z</time>
      </trkpt>
      <trkpt lat="45.08581" lon="4.27879">
        <ele>1009.8</ele>
        <time>2021-08-12T08:56:18.000Z</time>
      </trkpt>
      <trkpt lat="45.0859" lon="4.27887">
        <ele>1009.1</ele>
        <time>2021-08-12T08:56:21.000Z</time>
      </trkpt>
      <trkpt lat="45.08597" lon="4.27896">
        <ele>1008.2</ele>
        <time>2021-08-12T08:56:25.000Z</time>
      </trkpt>
      <trkpt lat="45.08609" lon="4.27904">
        <ele>1007.1</ele>
        <time>2021-08-12T08:56:29.000Z</time>
      </trkpt>
      <trkpt lat="45.0862" lon="4.27913">
        <ele>1006</ele>
        <time>2021-08-12T08:56:32.000Z</time>
      </trkpt>
      <trkpt lat="45.08631" lon="4.27921">
        <ele>1004.8</ele>
        <time>2021-08-12T08:56:35.000Z</time>
      </trkpt>
      <trkpt lat="45.08643" lon="4.27926">
        <ele>1004.2</ele>
        <time>2021-08-12T08:56:38.000Z</time>
      </trkpt>
      <trkpt lat="45.08652" lon="4.27929">
        <ele>1003.6</ele>
        <time>2021-08-12T08:56:40.000Z</time>
      </trkpt>
      <trkpt lat="45.08665" lon="4.27932">
        <ele>1003.4</ele>
        <time>2021-08-12T08:56:43.000Z</time>
      </trkpt>
      <trkpt lat="45.08677" lon="4.27935">
        <ele>1002.2</ele>
        <time>2021-08-12T08:56:45.000Z</time>
      </trkpt>
      <trkpt lat="45.0869" lon="4.27937">
        <ele>1001.4</ele>
        <time>2021-08-12T08:56:47.000Z</time>
      </trkpt>
      <trkpt lat="45.08703" lon="4.27938">
        <ele>1000.6</ele>
        <time>2021-08-12T08:56:49.000Z</time>
      </trkpt>
      <trkpt lat="45.08716" lon="4.27937">
        <ele>1000.2</ele>
        <time>2021-08-12T08:56:51.000Z</time>
      </trkpt>
      <trkpt lat="45.08729" lon="4.27932">
        <ele>1000.1</ele>
        <time>2021-08-12T08:56:53.000Z</time>
      </trkpt>
      <trkpt lat="45.08744" lon="4.27927">
        <ele>1000</ele>
        <time>2021-08-12T08:56:55.000Z</time>
      </trkpt>
      <trkpt lat="45.08757" lon="4.27923">
        <ele>999</ele>
        <time>2021-08-12T08:56:57.000Z</time>
      </trkpt>
      <trkpt lat="45.08768" lon="4.27916">
        <ele>997.8</ele>
        <time>2021-08-12T08:56:59.000Z</time>
      </trkpt>
      <trkpt lat="45.08781" lon="4.2791">
        <ele>996.2</ele>
        <time>2021-08-12T08:57:01.000Z</time>
      </trkpt>
      <trkpt lat="45.08793" lon="4.27907">
        <ele>994.1</ele>
        <time>2021-08-12T08:57:03.000Z</time>
      </trkpt>
      <trkpt lat="45.08806" lon="4.27907">
        <ele>991.9</ele>
        <time>2021-08-12T08:57:05.000Z</time>
      </trkpt>
      <trkpt lat="45.08821" lon="4.27906">
        <ele>989</ele>
        <time>2021-08-12T08:57:07.000Z</time>
      </trkpt>
      <trkpt lat="45.08837" lon="4.27897">
        <ele>987.2</ele>
        <time>2021-08-12T08:57:09.000Z</time>
      </trkpt>
      <trkpt lat="45.08851" lon="4.27886">
        <ele>987.1</ele>
        <time>2021-08-12T08:57:11.000Z</time>
      </trkpt>
      <trkpt lat="45.08866" lon="4.27876">
        <ele>986.8</ele>
        <time>2021-08-12T08:57:13.000Z</time>
      </trkpt>
      <trkpt lat="45.0888" lon="4.27867">
        <ele>986.5</ele>
        <time>2021-08-12T08:57:15.000Z</time>
      </trkpt>
      <trkpt lat="45.08892" lon="4.27856">
        <ele>986.3</ele>
        <time>2021-08-12T08:57:17.000Z</time>
      </trkpt>
      <trkpt lat="45.08901" lon="4.27843">
        <ele>986.5</ele>
        <time>2021-08-12T08:57:19.000Z</time>
      </trkpt>
      <trkpt lat="45.08908" lon="4.2783">
        <ele>986.8</ele>
        <time>2021-08-12T08:57:21.000Z</time>
      </trkpt>
      <trkpt lat="45.08914" lon="4.27817">
        <ele>987</ele>
        <time>2021-08-12T08:57:23.000Z</time>
      </trkpt>
      <trkpt lat="45.08917" lon="4.27801">
        <ele>987.6</ele>
        <time>2021-08-12T08:57:26.000Z</time>
      </trkpt>
      <trkpt lat="45.08923" lon="4.2779">
        <ele>987.9</ele>
        <time>2021-08-12T08:57:28.000Z</time>
      </trkpt>
      <trkpt lat="45.0893" lon="4.27778">
        <ele>988</ele>
        <time>2021-08-12T08:57:30.000Z</time>
      </trkpt>
      <trkpt lat="45.08935" lon="4.27766">
        <ele>988.1</ele>
        <time>2021-08-12T08:57:32.000Z</time>
      </trkpt>
      <trkpt lat="45.08941" lon="4.27753">
        <ele>987.9</ele>
        <time>2021-08-12T08:57:34.000Z</time>
      </trkpt>
      <trkpt lat="45.08946" lon="4.27742">
        <ele>987.8</ele>
        <time>2021-08-12T08:57:36.000Z</time>
      </trkpt>
      <trkpt lat="45.08952" lon="4.27731">
        <ele>987.5</ele>
        <time>2021-08-12T08:57:38.000Z</time>
      </trkpt>
      <trkpt lat="45.08958" lon="4.2772">
        <ele>987.2</ele>
        <time>2021-08-12T08:57:40.000Z</time>
      </trkpt>
      <trkpt lat="45.08963" lon="4.2771">
        <ele>987</ele>
        <time>2021-08-12T08:57:42.000Z</time>
      </trkpt>
      <trkpt lat="45.08971" lon="4.27696">
        <ele>986.5</ele>
        <time>2021-08-12T08:57:45.000Z</time>
      </trkpt>
      <trkpt lat="45.08978" lon="4.27687">
        <ele>985.9</ele>
        <time>2021-08-12T08:57:47.000Z</time>
      </trkpt>
      <trkpt lat="45.0899" lon="4.27683">
        <ele>984.9</ele>
        <time>2021-08-12T08:57:49.000Z</time>
      </trkpt>
      <trkpt lat="45.09002" lon="4.2768">
        <ele>983.5</ele>
        <time>2021-08-12T08:57:51.000Z</time>
      </trkpt>
      <trkpt lat="45.09013" lon="4.27679">
        <ele>981.1</ele>
        <time>2021-08-12T08:57:53.000Z</time>
      </trkpt>
      <trkpt lat="45.09025" lon="4.27681">
        <ele>978.5</ele>
        <time>2021-08-12T08:57:56.000Z</time>
      </trkpt>
      <trkpt lat="45.09037" lon="4.27684">
        <ele>976.1</ele>
        <time>2021-08-12T08:57:59.000Z</time>
      </trkpt>
      <trkpt lat="45.09046" lon="4.27687">
        <ele>974.3</ele>
        <time>2021-08-12T08:58:02.000Z</time>
      </trkpt>
      <trkpt lat="45.09057" lon="4.27698">
        <ele>973.2</ele>
        <time>2021-08-12T08:58:06.000Z</time>
      </trkpt>
      <trkpt lat="45.09062" lon="4.27711">
        <ele>973.7</ele>
        <time>2021-08-12T08:58:08.000Z</time>
      </trkpt>
      <trkpt lat="45.09071" lon="4.27716">
        <ele>973</ele>
        <time>2021-08-12T08:58:11.000Z</time>
      </trkpt>
      <trkpt lat="45.09082" lon="4.27713">
        <ele>970.7</ele>
        <time>2021-08-12T08:58:14.000Z</time>
      </trkpt>
      <trkpt lat="45.09094" lon="4.27708">
        <ele>968.6</ele>
        <time>2021-08-12T08:58:17.000Z</time>
      </trkpt>
      <trkpt lat="45.09103" lon="4.27697">
        <ele>965.5</ele>
        <time>2021-08-12T08:58:20.000Z</time>
      </trkpt>
      <trkpt lat="45.09111" lon="4.27684">
        <ele>962.4</ele>
        <time>2021-08-12T08:58:23.000Z</time>
      </trkpt>
      <trkpt lat="45.09115" lon="4.27672">
        <ele>959.8</ele>
        <time>2021-08-12T08:58:25.000Z</time>
      </trkpt>
      <trkpt lat="45.0912" lon="4.27659">
        <ele>958.1</ele>
        <time>2021-08-12T08:58:27.000Z</time>
      </trkpt>
      <trkpt lat="45.09123" lon="4.27647">
        <ele>957.2</ele>
        <time>2021-08-12T08:58:29.000Z</time>
      </trkpt>
      <trkpt lat="45.09127" lon="4.27633">
        <ele>956.5</ele>
        <time>2021-08-12T08:58:32.000Z</time>
      </trkpt>
      <trkpt lat="45.09126" lon="4.27615">
        <ele>956.2</ele>
        <time>2021-08-12T08:58:35.000Z</time>
      </trkpt>
      <trkpt lat="45.09127" lon="4.276">
        <ele>955.7</ele>
        <time>2021-08-12T08:58:38.000Z</time>
      </trkpt>
      <trkpt lat="45.09129" lon="4.27586">
        <ele>955.2</ele>
        <time>2021-08-12T08:58:41.000Z</time>
      </trkpt>
      <trkpt lat="45.09129" lon="4.27572">
        <ele>955.1</ele>
        <time>2021-08-12T08:58:44.000Z</time>
      </trkpt>
      <trkpt lat="45.09128" lon="4.27554">
        <ele>955.3</ele>
        <time>2021-08-12T08:58:48.000Z</time>
      </trkpt>
      <trkpt lat="45.09122" lon="4.27539">
        <ele>955.7</ele>
        <time>2021-08-12T08:58:51.000Z</time>
      </trkpt>
      <trkpt lat="45.09117" lon="4.27525">
        <ele>956</ele>
        <time>2021-08-12T08:58:53.000Z</time>
      </trkpt>
      <trkpt lat="45.09114" lon="4.27506">
        <ele>955.9</ele>
        <time>2021-08-12T08:58:55.000Z</time>
      </trkpt>
      <trkpt lat="45.09115" lon="4.27489">
        <ele>955.9</ele>
        <time>2021-08-12T08:58:57.000Z</time>
      </trkpt>
      <trkpt lat="45.09121" lon="4.27478">
        <ele>955.7</ele>
        <time>2021-08-12T08:58:59.000Z</time>
      </trkpt>
      <trkpt lat="45.09127" lon="4.27468">
        <ele>955.7</ele>
        <time>2021-08-12T08:59:03.000Z</time>
      </trkpt>
      <trkpt lat="45.09134" lon="4.27458">
        <ele>955.6</ele>
        <time>2021-08-12T08:59:11.000Z</time>
      </trkpt>
      <trkpt lat="45.09143" lon="4.27457">
        <ele>955.5</ele>
        <time>2021-08-12T08:59:15.000Z</time>
      </trkpt>
      <trkpt lat="45.09153" lon="4.27457">
        <ele>955.3</ele>
        <time>2021-08-12T08:59:19.000Z</time>
      </trkpt>
      <trkpt lat="45.09163" lon="4.27459">
        <ele>955.1</ele>
        <time>2021-08-12T08:59:25.000Z</time>
      </trkpt>
      <trkpt lat="45.09172" lon="4.27463">
        <ele>954.4</ele>
        <time>2021-08-12T08:59:30.000Z</time>
      </trkpt>
      <trkpt lat="45.09182" lon="4.27466">
        <ele>953.5</ele>
        <time>2021-08-12T08:59:34.000Z</time>
      </trkpt>
      <trkpt lat="45.09192" lon="4.27467">
        <ele>952.6</ele>
        <time>2021-08-12T08:59:37.000Z</time>
      </trkpt>
      <trkpt lat="45.09204" lon="4.27467">
        <ele>951.5</ele>
        <time>2021-08-12T08:59:40.000Z</time>
      </trkpt>
      <trkpt lat="45.09214" lon="4.2747">
        <ele>950.6</ele>
        <time>2021-08-12T08:59:42.000Z</time>
      </trkpt>
      <trkpt lat="45.09224" lon="4.27476">
        <ele>949.5</ele>
        <time>2021-08-12T08:59:44.000Z</time>
      </trkpt>
      <trkpt lat="45.09233" lon="4.27484">
        <ele>948.4</ele>
        <time>2021-08-12T08:59:46.000Z</time>
      </trkpt>
      <trkpt lat="45.09243" lon="4.2749">
        <ele>947.2</ele>
        <time>2021-08-12T08:59:48.000Z</time>
      </trkpt>
      <trkpt lat="45.09254" lon="4.27495">
        <ele>945.8</ele>
        <time>2021-08-12T08:59:50.000Z</time>
      </trkpt>
      <trkpt lat="45.09266" lon="4.27504">
        <ele>944.5</ele>
        <time>2021-08-12T08:59:52.000Z</time>
      </trkpt>
      <trkpt lat="45.09278" lon="4.27511">
        <ele>943.3</ele>
        <time>2021-08-12T08:59:54.000Z</time>
      </trkpt>
      <trkpt lat="45.09292" lon="4.27515">
        <ele>941.9</ele>
        <time>2021-08-12T08:59:56.000Z</time>
      </trkpt>
      <trkpt lat="45.09308" lon="4.27516">
        <ele>940.4</ele>
        <time>2021-08-12T08:59:58.000Z</time>
      </trkpt>
      <trkpt lat="45.09325" lon="4.27516">
        <ele>938.8</ele>
        <time>2021-08-12T09:00:00.000Z</time>
      </trkpt>
      <trkpt lat="45.09335" lon="4.27515">
        <ele>937.8</ele>
        <time>2021-08-12T09:00:01.000Z</time>
      </trkpt>
      <trkpt lat="45.09346" lon="4.27515">
        <ele>936.3</ele>
        <time>2021-08-12T09:00:02.000Z</time>
      </trkpt>
      <trkpt lat="45.09357" lon="4.27515">
        <ele>934.8</ele>
        <time>2021-08-12T09:00:03.000Z</time>
      </trkpt>
      <trkpt lat="45.0937" lon="4.27514">
        <ele>933.1</ele>
        <time>2021-08-12T09:00:04.000Z</time>
      </trkpt>
      <trkpt lat="45.09382" lon="4.27513">
        <ele>931.4</ele>
        <time>2021-08-12T09:00:05.000Z</time>
      </trkpt>
      <trkpt lat="45.09396" lon="4.27514">
        <ele>929.6</ele>
        <time>2021-08-12T09:00:06.000Z</time>
      </trkpt>
      <trkpt lat="45.09409" lon="4.27514">
        <ele>927.8</ele>
        <time>2021-08-12T09:00:07.000Z</time>
      </trkpt>
      <trkpt lat="45.09421" lon="4.27513">
        <ele>926.6</ele>
        <time>2021-08-12T09:00:08.000Z</time>
      </trkpt>
      <trkpt lat="45.09432" lon="4.27509">
        <ele>926.1</ele>
        <time>2021-08-12T09:00:09.000Z</time>
      </trkpt>
      <trkpt lat="45.09443" lon="4.27503">
        <ele>925.7</ele>
        <time>2021-08-12T09:00:10.000Z</time>
      </trkpt>
      <trkpt lat="45.09455" lon="4.27497">
        <ele>925.3</ele>
        <time>2021-08-12T09:00:11.000Z</time>
      </trkpt>
      <trkpt lat="45.09465" lon="4.27491">
        <ele>925.2</ele>
        <time>2021-08-12T09:00:12.000Z</time>
      </trkpt>
      <trkpt lat="45.09475" lon="4.27483">
        <ele>925.2</ele>
        <time>2021-08-12T09:00:13.000Z</time>
      </trkpt>
      <trkpt lat="45.09484" lon="4.27477">
        <ele>925.4</ele>
        <time>2021-08-12T09:00:14.000Z</time>
      </trkpt>
      <trkpt lat="45.09492" lon="4.2747">
        <ele>925.7</ele>
        <time>2021-08-12T09:00:15.000Z</time>
      </trkpt>
      <trkpt lat="45.09499" lon="4.27462">
        <ele>926.3</ele>
        <time>2021-08-12T09:00:16.000Z</time>
      </trkpt>
      <trkpt lat="45.09507" lon="4.27441">
        <ele>928.9</ele>
        <time>2021-08-12T09:00:18.000Z</time>
      </trkpt>
      <trkpt lat="45.09513" lon="4.27418">
        <ele>931.1</ele>
        <time>2021-08-12T09:00:20.000Z</time>
      </trkpt>
      <trkpt lat="45.0952" lon="4.27398">
        <ele>933.1</ele>
        <time>2021-08-12T09:00:22.000Z</time>
      </trkpt>
      <trkpt lat="45.09533" lon="4.27388">
        <ele>934.8</ele>
        <time>2021-08-12T09:00:24.000Z</time>
      </trkpt>
      <trkpt lat="45.09546" lon="4.27385">
        <ele>936.1</ele>
        <time>2021-08-12T09:00:26.000Z</time>
      </trkpt>
      <trkpt lat="45.09558" lon="4.27386">
        <ele>937.2</ele>
        <time>2021-08-12T09:00:28.000Z</time>
      </trkpt>
      <trkpt lat="45.09568" lon="4.27394">
        <ele>937.6</ele>
        <time>2021-08-12T09:00:30.000Z</time>
      </trkpt>
      <trkpt lat="45.09575" lon="4.27407">
        <ele>937.7</ele>
        <time>2021-08-12T09:00:32.000Z</time>
      </trkpt>
      <trkpt lat="45.09581" lon="4.2742">
        <ele>937.7</ele>
        <time>2021-08-12T09:00:35.000Z</time>
      </trkpt>
      <trkpt lat="45.09588" lon="4.27429">
        <ele>938.1</ele>
        <time>2021-08-12T09:00:38.000Z</time>
      </trkpt>
      <trkpt lat="45.09596" lon="4.27442">
        <ele>938.6</ele>
        <time>2021-08-12T09:00:43.000Z</time>
      </trkpt>
      <trkpt lat="45.09596" lon="4.27456">
        <ele>938.5</ele>
        <time>2021-08-12T09:00:45.000Z</time>
      </trkpt>
      <trkpt lat="45.09592" lon="4.27469">
        <ele>938.2</ele>
        <time>2021-08-12T09:00:47.000Z</time>
      </trkpt>
      <trkpt lat="45.09586" lon="4.27482">
        <ele>937.5</ele>
        <time>2021-08-12T09:00:49.000Z</time>
      </trkpt>
      <trkpt lat="45.09576" lon="4.27498">
        <ele>935.8</ele>
        <time>2021-08-12T09:00:51.000Z</time>
      </trkpt>
      <trkpt lat="45.09565" lon="4.27515">
        <ele>933.4</ele>
        <time>2021-08-12T09:00:53.000Z</time>
      </trkpt>
      <trkpt lat="45.09555" lon="4.27534">
        <ele>930.9</ele>
        <time>2021-08-12T09:00:55.000Z</time>
      </trkpt>
      <trkpt lat="45.09546" lon="4.27551">
        <ele>928.6</ele>
        <time>2021-08-12T09:00:57.000Z</time>
      </trkpt>
      <trkpt lat="45.09537" lon="4.27567">
        <ele>926.4</ele>
        <time>2021-08-12T09:00:59.000Z</time>
      </trkpt>
      <trkpt lat="45.0953" lon="4.2758">
        <ele>924.6</ele>
        <time>2021-08-12T09:01:01.000Z</time>
      </trkpt>
      <trkpt lat="45.09523" lon="4.27592">
        <ele>923.2</ele>
        <time>2021-08-12T09:01:03.000Z</time>
      </trkpt>
      <trkpt lat="45.09515" lon="4.27603">
        <ele>922.2</ele>
        <time>2021-08-12T09:01:05.000Z</time>
      </trkpt>
      <trkpt lat="45.09511" lon="4.2762">
        <ele>921.8</ele>
        <time>2021-08-12T09:01:08.000Z</time>
      </trkpt>
      <trkpt lat="45.09517" lon="4.27631">
        <ele>922.8</ele>
        <time>2021-08-12T09:01:11.000Z</time>
      </trkpt>
      <trkpt lat="45.09524" lon="4.2764">
        <ele>923.8</ele>
        <time>2021-08-12T09:01:14.000Z</time>
      </trkpt>
      <trkpt lat="45.0953" lon="4.27651">
        <ele>924.5</ele>
        <time>2021-08-12T09:01:17.000Z</time>
      </trkpt>
      <trkpt lat="45.09536" lon="4.27665">
        <ele>925</ele>
        <time>2021-08-12T09:01:21.000Z</time>
      </trkpt>
      <trkpt lat="45.09538" lon="4.27679">
        <ele>926</ele>
        <time>2021-08-12T09:01:25.000Z</time>
      </trkpt>
      <trkpt lat="45.09543" lon="4.27693">
        <ele>927</ele>
        <time>2021-08-12T09:01:29.000Z</time>
      </trkpt>
      <trkpt lat="45.09549" lon="4.27706">
        <ele>928</ele>
        <time>2021-08-12T09:01:33.000Z</time>
      </trkpt>
      <trkpt lat="45.09554" lon="4.27719">
        <ele>928.7</ele>
        <time>2021-08-12T09:01:38.000Z</time>
      </trkpt>
      <trkpt lat="45.09561" lon="4.27731">
        <ele>929.2</ele>
        <time>2021-08-12T09:01:43.000Z</time>
      </trkpt>
      <trkpt lat="45.09565" lon="4.27743">
        <ele>929.4</ele>
        <time>2021-08-12T09:01:47.000Z</time>
      </trkpt>
      <trkpt lat="45.09569" lon="4.27756">
        <ele>929.6</ele>
        <time>2021-08-12T09:01:52.000Z</time>
      </trkpt>
      <trkpt lat="45.09572" lon="4.27771">
        <ele>929.5</ele>
        <time>2021-08-12T09:01:57.000Z</time>
      </trkpt>
      <trkpt lat="45.09576" lon="4.27784">
        <ele>929.3</ele>
        <time>2021-08-12T09:02:02.000Z</time>
      </trkpt>
      <trkpt lat="45.0958" lon="4.27796">
        <ele>929.2</ele>
        <time>2021-08-12T09:02:06.000Z</time>
      </trkpt>
      <trkpt lat="45.09581" lon="4.27811">
        <ele>929.1</ele>
        <time>2021-08-12T09:02:10.000Z</time>
      </trkpt>
      <trkpt lat="45.09582" lon="4.27827">
        <ele>929.1</ele>
        <time>2021-08-12T09:02:14.000Z</time>
      </trkpt>
      <trkpt lat="45.09581" lon="4.27842">
        <ele>929.3</ele>
        <time>2021-08-12T09:02:18.000Z</time>
      </trkpt>
      <trkpt lat="45.09581" lon="4.27856">
        <ele>929.4</ele>
        <time>2021-08-12T09:02:22.000Z</time>
      </trkpt>
      <trkpt lat="45.09585" lon="4.27867">
        <ele>929.3</ele>
        <time>2021-08-12T09:02:25.000Z</time>
      </trkpt>
      <trkpt lat="45.09588" lon="4.2788">
        <ele>929.1</ele>
        <time>2021-08-12T09:02:29.000Z</time>
      </trkpt>
      <trkpt lat="45.09591" lon="4.27893">
        <ele>928.9</ele>
        <time>2021-08-12T09:02:34.000Z</time>
      </trkpt>
      <trkpt lat="45.09592" lon="4.27908">
        <ele>929</ele>
        <time>2021-08-12T09:02:39.000Z</time>
      </trkpt>
      <trkpt lat="45.09588" lon="4.27921">
        <ele>929.4</ele>
        <time>2021-08-12T09:02:42.000Z</time>
      </trkpt>
      <trkpt lat="45.09583" lon="4.27933">
        <ele>929.5</ele>
        <time>2021-08-12T09:02:45.000Z</time>
      </trkpt>
      <trkpt lat="45.09574" lon="4.27939">
        <ele>929.4</ele>
        <time>2021-08-12T09:02:49.000Z</time>
      </trkpt>
      <trkpt lat="45.09567" lon="4.2795">
        <ele>929.2</ele>
        <time>2021-08-12T09:02:51.000Z</time>
      </trkpt>
      <trkpt lat="45.0956" lon="4.27967">
        <ele>928.5</ele>
        <time>2021-08-12T09:02:54.000Z</time>
      </trkpt>
      <trkpt lat="45.09555" lon="4.27983">
        <ele>927.8</ele>
        <time>2021-08-12T09:02:56.000Z</time>
      </trkpt>
      <trkpt lat="45.09554" lon="4.27997">
        <ele>927.2</ele>
        <time>2021-08-12T09:03:00.000Z</time>
      </trkpt>
      <trkpt lat="45.09552" lon="4.2801">
        <ele>926</ele>
        <time>2021-08-12T09:03:04.000Z</time>
      </trkpt>
      <trkpt lat="45.09554" lon="4.28024">
        <ele>924.4</ele>
        <time>2021-08-12T09:03:09.000Z</time>
      </trkpt>
      <trkpt lat="45.09556" lon="4.28036">
        <ele>922.7</ele>
        <time>2021-08-12T09:03:17.000Z</time>
      </trkpt>
      <trkpt lat="45.0956" lon="4.28048">
        <ele>921.1</ele>
        <time>2021-08-12T09:03:24.000Z</time>
      </trkpt>
      <trkpt lat="45.09567" lon="4.28057">
        <ele>919</ele>
        <time>2021-08-12T09:03:32.000Z</time>
      </trkpt>
      <trkpt lat="45.09574" lon="4.28067">
        <ele>916.5</ele>
        <time>2021-08-12T09:03:36.000Z</time>
      </trkpt>
      <trkpt lat="45.09582" lon="4.28076">
        <ele>913.6</ele>
        <time>2021-08-12T09:03:41.000Z</time>
      </trkpt>
      <trkpt lat="45.0959" lon="4.28086">
        <ele>912.5</ele>
        <time>2021-08-12T09:03:44.000Z</time>
      </trkpt>
      <trkpt lat="45.096" lon="4.28095">
        <ele>912.5</ele>
        <time>2021-08-12T09:03:47.000Z</time>
      </trkpt>
      <trkpt lat="45.09609" lon="4.28103">
        <ele>912.6</ele>
        <time>2021-08-12T09:03:51.000Z</time>
      </trkpt>
      <trkpt lat="45.09617" lon="4.2811">
        <ele>912.3</ele>
        <time>2021-08-12T09:03:54.000Z</time>
      </trkpt>
      <trkpt lat="45.09624" lon="4.28124">
        <ele>910.8</ele>
        <time>2021-08-12T09:03:58.000Z</time>
      </trkpt>
      <trkpt lat="45.0962" lon="4.28139">
        <ele>908.2</ele>
        <time>2021-08-12T09:04:00.000Z</time>
      </trkpt>
      <trkpt lat="45.09618" lon="4.28154">
        <ele>906</ele>
        <time>2021-08-12T09:04:02.000Z</time>
      </trkpt>
      <trkpt lat="45.09618" lon="4.28171">
        <ele>903.8</ele>
        <time>2021-08-12T09:04:05.000Z</time>
      </trkpt>
      <trkpt lat="45.0962" lon="4.28183">
        <ele>902.8</ele>
        <time>2021-08-12T09:04:09.000Z</time>
      </trkpt>
      <trkpt lat="45.09622" lon="4.28198">
        <ele>901.5</ele>
        <time>2021-08-12T09:04:13.000Z</time>
      </trkpt>
      <trkpt lat="45.09623" lon="4.28213">
        <ele>900.1</ele>
        <time>2021-08-12T09:04:17.000Z</time>
      </trkpt>
      <trkpt lat="45.09621" lon="4.28229">
        <ele>898.7</ele>
        <time>2021-08-12T09:04:22.000Z</time>
      </trkpt>
      <trkpt lat="45.09625" lon="4.28242">
        <ele>897.2</ele>
        <time>2021-08-12T09:04:24.000Z</time>
      </trkpt>
      <trkpt lat="45.09628" lon="4.28255">
        <ele>895.8</ele>
        <time>2021-08-12T09:04:26.000Z</time>
      </trkpt>
      <trkpt lat="45.09636" lon="4.28267">
        <ele>893.4</ele>
        <time>2021-08-12T09:04:28.000Z</time>
      </trkpt>
      <trkpt lat="45.09642" lon="4.28279">
        <ele>891.2</ele>
        <time>2021-08-12T09:04:31.000Z</time>
      </trkpt>
      <trkpt lat="45.09651" lon="4.28293">
        <ele>888.2</ele>
        <time>2021-08-12T09:04:34.000Z</time>
      </trkpt>
      <trkpt lat="45.09658" lon="4.28301">
        <ele>886.3</ele>
        <time>2021-08-12T09:04:36.000Z</time>
      </trkpt>
      <trkpt lat="45.09663" lon="4.28312">
        <ele>884.1</ele>
        <time>2021-08-12T09:04:38.000Z</time>
      </trkpt>
      <trkpt lat="45.09666" lon="4.28324">
        <ele>881.6</ele>
        <time>2021-08-12T09:04:40.000Z</time>
      </trkpt>
      <trkpt lat="45.09668" lon="4.28339">
        <ele>879.4</ele>
        <time>2021-08-12T09:04:43.000Z</time>
      </trkpt>
      <trkpt lat="45.0967" lon="4.28353">
        <ele>878</ele>
        <time>2021-08-12T09:04:46.000Z</time>
      </trkpt>
      <trkpt lat="45.09676" lon="4.28366">
        <ele>876.3</ele>
        <time>2021-08-12T09:04:49.000Z</time>
      </trkpt>
      <trkpt lat="45.09681" lon="4.2838">
        <ele>874.5</ele>
        <time>2021-08-12T09:04:52.000Z</time>
      </trkpt>
      <trkpt lat="45.09686" lon="4.28392">
        <ele>872.8</ele>
        <time>2021-08-12T09:04:55.000Z</time>
      </trkpt>
      <trkpt lat="45.0969" lon="4.28405">
        <ele>871</ele>
        <time>2021-08-12T09:04:59.000Z</time>
      </trkpt>
      <trkpt lat="45.09684" lon="4.28414">
        <ele>871</ele>
        <time>2021-08-12T09:05:02.000Z</time>
      </trkpt>
      <trkpt lat="45.09673" lon="4.28421">
        <ele>871.8</ele>
        <time>2021-08-12T09:05:05.000Z</time>
      </trkpt>
      <trkpt lat="45.09663" lon="4.28426">
        <ele>872.4</ele>
        <time>2021-08-12T09:05:08.000Z</time>
      </trkpt>
      <trkpt lat="45.09654" lon="4.28433">
        <ele>872.8</ele>
        <time>2021-08-12T09:05:11.000Z</time>
      </trkpt>
      <trkpt lat="45.09644" lon="4.2844">
        <ele>873</ele>
        <time>2021-08-12T09:05:14.000Z</time>
      </trkpt>
      <trkpt lat="45.09634" lon="4.28447">
        <ele>873.6</ele>
        <time>2021-08-12T09:05:17.000Z</time>
      </trkpt>
      <trkpt lat="45.09623" lon="4.28454">
        <ele>874.1</ele>
        <time>2021-08-12T09:05:20.000Z</time>
      </trkpt>
      <trkpt lat="45.09613" lon="4.28461">
        <ele>874.6</ele>
        <time>2021-08-12T09:05:23.000Z</time>
      </trkpt>
      <trkpt lat="45.09601" lon="4.28467">
        <ele>875.5</ele>
        <time>2021-08-12T09:05:26.000Z</time>
      </trkpt>
      <trkpt lat="45.09588" lon="4.28467">
        <ele>876.9</ele>
        <time>2021-08-12T09:05:29.000Z</time>
      </trkpt>
      <trkpt lat="45.09578" lon="4.28466">
        <ele>878.2</ele>
        <time>2021-08-12T09:05:31.000Z</time>
      </trkpt>
      <trkpt lat="45.09568" lon="4.28467">
        <ele>879.2</ele>
        <time>2021-08-12T09:05:33.000Z</time>
      </trkpt>
      <trkpt lat="45.09559" lon="4.28469">
        <ele>880.1</ele>
        <time>2021-08-12T09:05:35.000Z</time>
      </trkpt>
      <trkpt lat="45.09548" lon="4.28476">
        <ele>880.6</ele>
        <time>2021-08-12T09:05:38.000Z</time>
      </trkpt>
      <trkpt lat="45.09537" lon="4.28487">
        <ele>880.6</ele>
        <time>2021-08-12T09:05:41.000Z</time>
      </trkpt>
      <trkpt lat="45.09524" lon="4.28492">
        <ele>880.9</ele>
        <time>2021-08-12T09:05:44.000Z</time>
      </trkpt>
      <trkpt lat="45.09517" lon="4.28502">
        <ele>880.4</ele>
        <time>2021-08-12T09:05:47.000Z</time>
      </trkpt>
      <trkpt lat="45.09509" lon="4.2851">
        <ele>880.2</ele>
        <time>2021-08-12T09:05:49.000Z</time>
      </trkpt>
      <trkpt lat="45.09502" lon="4.28521">
        <ele>879.8</ele>
        <time>2021-08-12T09:05:51.000Z</time>
      </trkpt>
      <trkpt lat="45.09495" lon="4.28534">
        <ele>879.4</ele>
        <time>2021-08-12T09:05:53.000Z</time>
      </trkpt>
      <trkpt lat="45.0949" lon="4.28546">
        <ele>878.9</ele>
        <time>2021-08-12T09:05:55.000Z</time>
      </trkpt>
      <trkpt lat="45.09483" lon="4.28557">
        <ele>878.9</ele>
        <time>2021-08-12T09:05:57.000Z</time>
      </trkpt>
      <trkpt lat="45.09477" lon="4.2857">
        <ele>878.4</ele>
        <time>2021-08-12T09:05:59.000Z</time>
      </trkpt>
      <trkpt lat="45.09471" lon="4.28582">
        <ele>878.1</ele>
        <time>2021-08-12T09:06:01.000Z</time>
      </trkpt>
      <trkpt lat="45.09466" lon="4.28594">
        <ele>878.4</ele>
        <time>2021-08-12T09:06:03.000Z</time>
      </trkpt>
      <trkpt lat="45.09457" lon="4.28608">
        <ele>879.3</ele>
        <time>2021-08-12T09:06:06.000Z</time>
      </trkpt>
      <trkpt lat="45.09449" lon="4.28619">
        <ele>880.4</ele>
        <time>2021-08-12T09:06:09.000Z</time>
      </trkpt>
      <trkpt lat="45.09459" lon="4.28621">
        <ele>878.5</ele>
        <time>2021-08-12T09:06:19.000Z</time>
      </trkpt>
      <trkpt lat="45.09466" lon="4.28633">
        <ele>877</ele>
        <time>2021-08-12T09:06:21.000Z</time>
      </trkpt>
      <trkpt lat="45.0947" lon="4.28648">
        <ele>875.7</ele>
        <time>2021-08-12T09:06:23.000Z</time>
      </trkpt>
      <trkpt lat="45.09475" lon="4.28662">
        <ele>874.3</ele>
        <time>2021-08-12T09:06:25.000Z</time>
      </trkpt>
      <trkpt lat="45.09479" lon="4.28676">
        <ele>873.6</ele>
        <time>2021-08-12T09:06:28.000Z</time>
      </trkpt>
      <trkpt lat="45.09485" lon="4.2869">
        <ele>872.7</ele>
        <time>2021-08-12T09:06:32.000Z</time>
      </trkpt>
      <trkpt lat="45.09494" lon="4.28695">
        <ele>871.3</ele>
        <time>2021-08-12T09:06:36.000Z</time>
      </trkpt>
      <trkpt lat="45.09505" lon="4.28701">
        <ele>869.8</ele>
        <time>2021-08-12T09:06:39.000Z</time>
      </trkpt>
      <trkpt lat="45.09513" lon="4.2871">
        <ele>868.9</ele>
        <time>2021-08-12T09:06:42.000Z</time>
      </trkpt>
      <trkpt lat="45.0952" lon="4.28721">
        <ele>868.2</ele>
        <time>2021-08-12T09:06:45.000Z</time>
      </trkpt>
      <trkpt lat="45.09527" lon="4.28733">
        <ele>867.3</ele>
        <time>2021-08-12T09:06:48.000Z</time>
      </trkpt>
      <trkpt lat="45.09535" lon="4.28742">
        <ele>866.4</ele>
        <time>2021-08-12T09:06:50.000Z</time>
      </trkpt>
      <trkpt lat="45.09544" lon="4.28754">
        <ele>864.9</ele>
        <time>2021-08-12T09:06:53.000Z</time>
      </trkpt>
      <trkpt lat="45.09553" lon="4.28762">
        <ele>863.2</ele>
        <time>2021-08-12T09:06:56.000Z</time>
      </trkpt>
      <trkpt lat="45.09564" lon="4.28766">
        <ele>861.6</ele>
        <time>2021-08-12T09:07:00.000Z</time>
      </trkpt>
      <trkpt lat="45.09575" lon="4.28768">
        <ele>860.1</ele>
        <time>2021-08-12T09:07:04.000Z</time>
      </trkpt>
      <trkpt lat="45.09584" lon="4.28766">
        <ele>859.2</ele>
        <time>2021-08-12T09:07:07.000Z</time>
      </trkpt>
      <trkpt lat="45.09595" lon="4.2876">
        <ele>858.8</ele>
        <time>2021-08-12T09:07:10.000Z</time>
      </trkpt>
      <trkpt lat="45.09607" lon="4.28753">
        <ele>858.2</ele>
        <time>2021-08-12T09:07:13.000Z</time>
      </trkpt>
      <trkpt lat="45.09618" lon="4.28748">
        <ele>857.5</ele>
        <time>2021-08-12T09:07:16.000Z</time>
      </trkpt>
      <trkpt lat="45.09627" lon="4.28745">
        <ele>856.9</ele>
        <time>2021-08-12T09:07:18.000Z</time>
      </trkpt>
      <trkpt lat="45.09639" lon="4.28742">
        <ele>856</ele>
        <time>2021-08-12T09:07:21.000Z</time>
      </trkpt>
      <trkpt lat="45.09653" lon="4.2873">
        <ele>854.8</ele>
        <time>2021-08-12T09:07:24.000Z</time>
      </trkpt>
      <trkpt lat="45.09665" lon="4.28726">
        <ele>853.8</ele>
        <time>2021-08-12T09:07:26.000Z</time>
      </trkpt>
      <trkpt lat="45.09677" lon="4.28726">
        <ele>853.8</ele>
        <time>2021-08-12T09:07:29.000Z</time>
      </trkpt>
      <trkpt lat="45.09686" lon="4.28724">
        <ele>853.8</ele>
        <time>2021-08-12T09:07:32.000Z</time>
      </trkpt>
      <trkpt lat="45.09697" lon="4.28729">
        <ele>854</ele>
        <time>2021-08-12T09:07:36.000Z</time>
      </trkpt>
      <trkpt lat="45.09706" lon="4.28731">
        <ele>854.2</ele>
        <time>2021-08-12T09:07:39.000Z</time>
      </trkpt>
      <trkpt lat="45.09717" lon="4.28738">
        <ele>854.6</ele>
        <time>2021-08-12T09:07:44.000Z</time>
      </trkpt>
      <trkpt lat="45.09722" lon="4.28752">
        <ele>855.5</ele>
        <time>2021-08-12T09:07:48.000Z</time>
      </trkpt>
      <trkpt lat="45.09724" lon="4.28767">
        <ele>857.2</ele>
        <time>2021-08-12T09:07:52.000Z</time>
      </trkpt>
      <trkpt lat="45.09726" lon="4.28784">
        <ele>859.3</ele>
        <time>2021-08-12T09:07:55.000Z</time>
      </trkpt>
      <trkpt lat="45.09727" lon="4.28798">
        <ele>861</ele>
        <time>2021-08-12T09:07:58.000Z</time>
      </trkpt>
      <trkpt lat="45.09731" lon="4.2881">
        <ele>863</ele>
        <time>2021-08-12T09:08:01.000Z</time>
      </trkpt>
      <trkpt lat="45.09741" lon="4.28823">
        <ele>865.9</ele>
        <time>2021-08-12T09:08:03.000Z</time>
      </trkpt>
      <trkpt lat="45.09748" lon="4.28833">
        <ele>868.6</ele>
        <time>2021-08-12T09:08:06.000Z</time>
      </trkpt>
      <trkpt lat="45.09748" lon="4.28833">
        <ele>868.7</ele>
        <time>2021-08-12T09:08:08.000Z</time>
      </trkpt>
      <trkpt lat="45.09748" lon="4.28834">
        <ele>868.7</ele>
        <time>2021-08-12T09:08:10.000Z</time>
      </trkpt>
      <trkpt lat="45.09754" lon="4.28844">
        <ele>874</ele>
        <time>2021-08-12T09:08:22.000Z</time>
      </trkpt>
      <trkpt lat="45.09759" lon="4.28856">
        <ele>879.7</ele>
        <time>2021-08-12T09:08:32.000Z</time>
      </trkpt>
      <trkpt lat="45.09767" lon="4.28861">
        <ele>884.5</ele>
        <time>2021-08-12T09:08:52.000Z</time>
      </trkpt>
      <trkpt lat="45.09767" lon="4.28861">
        <ele>884.5</ele>
        <time>2021-08-12T09:08:55.000Z</time>
      </trkpt>
      <trkpt lat="45.09769" lon="4.28871">
        <ele>888.1</ele>
        <time>2021-08-12T09:09:13.000Z</time>
      </trkpt>
      <trkpt lat="45.09769" lon="4.28871">
        <ele>888.1</ele>
        <time>2021-08-12T09:09:14.000Z</time>
      </trkpt>
      <trkpt lat="45.09769" lon="4.28871">
        <ele>888.1</ele>
        <time>2021-08-12T09:09:15.000Z</time>
      </trkpt>
      <trkpt lat="45.09769" lon="4.28871">
        <ele>888</ele>
        <time>2021-08-12T09:09:16.000Z</time>
      </trkpt>
      <trkpt lat="45.09768" lon="4.2887">
        <ele>887.9</ele>
        <time>2021-08-12T09:09:19.000Z</time>
      </trkpt>
      <trkpt lat="45.09769" lon="4.2887">
        <ele>887.9</ele>
        <time>2021-08-12T09:09:20.000Z</time>
      </trkpt>
      <trkpt lat="45.09769" lon="4.2887">
        <ele>888.1</ele>
        <time>2021-08-12T09:09:25.000Z</time>
      </trkpt>
      <trkpt lat="45.0977" lon="4.28871">
        <ele>888.2</ele>
        <time>2021-08-12T09:09:27.000Z</time>
      </trkpt>
      <trkpt lat="45.09771" lon="4.28876">
        <ele>890.6</ele>
        <time>2021-08-12T09:09:42.000Z</time>
      </trkpt>
      <trkpt lat="45.09771" lon="4.28876">
        <ele>890.6</ele>
        <time>2021-08-12T09:09:43.000Z</time>
      </trkpt>
      <trkpt lat="45.09771" lon="4.28876">
        <ele>890.8</ele>
        <time>2021-08-12T09:09:44.000Z</time>
      </trkpt>
      <trkpt lat="45.09771" lon="4.28876">
        <ele>890.8</ele>
        <time>2021-08-12T09:09:45.000Z</time>
      </trkpt>
      <trkpt lat="45.09772" lon="4.28877">
        <ele>891</ele>
        <time>2021-08-12T09:09:50.000Z</time>
      </trkpt>
      <trkpt lat="45.09772" lon="4.28877">
        <ele>890.9</ele>
        <time>2021-08-12T09:09:57.000Z</time>
      </trkpt>
      <trkpt lat="45.09781" lon="4.28876">
        <ele>894.5</ele>
        <time>2021-08-12T09:10:11.000Z</time>
      </trkpt>
      <trkpt lat="45.0979" lon="4.2887">
        <ele>896</ele>
        <time>2021-08-12T09:10:18.000Z</time>
      </trkpt>
      <trkpt lat="45.09797" lon="4.28862">
        <ele>896.5</ele>
        <time>2021-08-12T09:10:24.000Z</time>
      </trkpt>
      <trkpt lat="45.09806" lon="4.28856">
        <ele>898.4</ele>
        <time>2021-08-12T09:10:31.000Z</time>
      </trkpt>
      <trkpt lat="45.09812" lon="4.28847">
        <ele>898.9</ele>
        <time>2021-08-12T09:10:41.000Z</time>
      </trkpt>
      <trkpt lat="45.0982" lon="4.28839">
        <ele>900.5</ele>
        <time>2021-08-12T09:10:49.000Z</time>
      </trkpt>
      <trkpt lat="45.09825" lon="4.28826">
        <ele>899.5</ele>
        <time>2021-08-12T09:10:55.000Z</time>
      </trkpt>
      <trkpt lat="45.09832" lon="4.28816">
        <ele>899.9</ele>
        <time>2021-08-12T09:11:00.000Z</time>
      </trkpt>
      <trkpt lat="45.09839" lon="4.28808">
        <ele>899.7</ele>
        <time>2021-08-12T09:11:11.000Z</time>
      </trkpt>
      <trkpt lat="45.09847" lon="4.28799">
        <ele>899.5</ele>
        <time>2021-08-12T09:11:18.000Z</time>
      </trkpt>
      <trkpt lat="45.09855" lon="4.28792">
        <ele>899.9</ele>
        <time>2021-08-12T09:11:23.000Z</time>
      </trkpt>
      <trkpt lat="45.09863" lon="4.28783">
        <ele>899.8</ele>
        <time>2021-08-12T09:11:28.000Z</time>
      </trkpt>
      <trkpt lat="45.09872" lon="4.28774">
        <ele>900</ele>
        <time>2021-08-12T09:11:33.000Z</time>
      </trkpt>
      <trkpt lat="45.09881" lon="4.28766">
        <ele>900.5</ele>
        <time>2021-08-12T09:11:38.000Z</time>
      </trkpt>
      <trkpt lat="45.09889" lon="4.28759">
        <ele>901.4</ele>
        <time>2021-08-12T09:11:43.000Z</time>
      </trkpt>
      <trkpt lat="45.09896" lon="4.28748">
        <ele>900.8</ele>
        <time>2021-08-12T09:11:49.000Z</time>
      </trkpt>
      <trkpt lat="45.09904" lon="4.28741">
        <ele>901.3</ele>
        <time>2021-08-12T09:11:54.000Z</time>
      </trkpt>
      <trkpt lat="45.0991" lon="4.28732">
        <ele>901.2</ele>
        <time>2021-08-12T09:12:01.000Z</time>
      </trkpt>
      <trkpt lat="45.09918" lon="4.28723">
        <ele>901.2</ele>
        <time>2021-08-12T09:12:08.000Z</time>
      </trkpt>
      <trkpt lat="45.09926" lon="4.28717">
        <ele>900.7</ele>
        <time>2021-08-12T09:12:16.000Z</time>
      </trkpt>
      <trkpt lat="45.09936" lon="4.28709">
        <ele>900</ele>
        <time>2021-08-12T09:12:25.000Z</time>
      </trkpt>
      <trkpt lat="45.09944" lon="4.28702">
        <ele>899.2</ele>
        <time>2021-08-12T09:12:29.000Z</time>
      </trkpt>
      <trkpt lat="45.09952" lon="4.28695">
        <ele>898.7</ele>
        <time>2021-08-12T09:12:32.000Z</time>
      </trkpt>
      <trkpt lat="45.09959" lon="4.28684">
        <ele>897.4</ele>
        <time>2021-08-12T09:12:35.000Z</time>
      </trkpt>
      <trkpt lat="45.09966" lon="4.28674">
        <ele>896.1</ele>
        <time>2021-08-12T09:12:38.000Z</time>
      </trkpt>
      <trkpt lat="45.09974" lon="4.28668">
        <ele>896.1</ele>
        <time>2021-08-12T09:12:41.000Z</time>
      </trkpt>
      <trkpt lat="45.09984" lon="4.28663">
        <ele>896.4</ele>
        <time>2021-08-12T09:12:45.000Z</time>
      </trkpt>
      <trkpt lat="45.09993" lon="4.28654">
        <ele>895.9</ele>
        <time>2021-08-12T09:12:49.000Z</time>
      </trkpt>
      <trkpt lat="45.10002" lon="4.28646">
        <ele>895.1</ele>
        <time>2021-08-12T09:12:54.000Z</time>
      </trkpt>
      <trkpt lat="45.10011" lon="4.28638">
        <ele>892</ele>
        <time>2021-08-12T09:12:59.000Z</time>
      </trkpt>
      <trkpt lat="45.10019" lon="4.2863">
        <ele>889.8</ele>
        <time>2021-08-12T09:13:03.000Z</time>
      </trkpt>
      <trkpt lat="45.10028" lon="4.28622">
        <ele>887</ele>
        <time>2021-08-12T09:13:08.000Z</time>
      </trkpt>
      <trkpt lat="45.10037" lon="4.28617">
        <ele>885</ele>
        <time>2021-08-12T09:13:12.000Z</time>
      </trkpt>
      <trkpt lat="45.10046" lon="4.28612">
        <ele>883</ele>
        <time>2021-08-12T09:13:15.000Z</time>
      </trkpt>
      <trkpt lat="45.10055" lon="4.28607">
        <ele>881.3</ele>
        <time>2021-08-12T09:13:19.000Z</time>
      </trkpt>
      <trkpt lat="45.10067" lon="4.28601">
        <ele>879</ele>
        <time>2021-08-12T09:13:22.000Z</time>
      </trkpt>
      <trkpt lat="45.10077" lon="4.28595">
        <ele>876.9</ele>
        <time>2021-08-12T09:13:25.000Z</time>
      </trkpt>
      <trkpt lat="45.10088" lon="4.28589">
        <ele>875.4</ele>
        <time>2021-08-12T09:13:27.000Z</time>
      </trkpt>
      <trkpt lat="45.10096" lon="4.28585">
        <ele>874.4</ele>
        <time>2021-08-12T09:13:28.000Z</time>
      </trkpt>
      <trkpt lat="45.10105" lon="4.28581">
        <ele>873.4</ele>
        <time>2021-08-12T09:13:29.000Z</time>
      </trkpt>
      <trkpt lat="45.1012" lon="4.28578">
        <ele>872</ele>
        <time>2021-08-12T09:13:31.000Z</time>
      </trkpt>
      <trkpt lat="45.10131" lon="4.28579">
        <ele>871.5</ele>
        <time>2021-08-12T09:13:33.000Z</time>
      </trkpt>
      <trkpt lat="45.10142" lon="4.28585">
        <ele>871.6</ele>
        <time>2021-08-12T09:13:36.000Z</time>
      </trkpt>
      <trkpt lat="45.10152" lon="4.28586">
        <ele>871.1</ele>
        <time>2021-08-12T09:13:38.000Z</time>
      </trkpt>
      <trkpt lat="45.10164" lon="4.28584">
        <ele>870.2</ele>
        <time>2021-08-12T09:13:40.000Z</time>
      </trkpt>
      <trkpt lat="45.10177" lon="4.28581">
        <ele>869.1</ele>
        <time>2021-08-12T09:13:42.000Z</time>
      </trkpt>
      <trkpt lat="45.10189" lon="4.28578">
        <ele>867.9</ele>
        <time>2021-08-12T09:13:44.000Z</time>
      </trkpt>
      <trkpt lat="45.102" lon="4.28577">
        <ele>867.3</ele>
        <time>2021-08-12T09:13:46.000Z</time>
      </trkpt>
      <trkpt lat="45.10208" lon="4.28571">
        <ele>866</ele>
        <time>2021-08-12T09:13:48.000Z</time>
      </trkpt>
      <trkpt lat="45.10219" lon="4.28565">
        <ele>864.6</ele>
        <time>2021-08-12T09:13:52.000Z</time>
      </trkpt>
      <trkpt lat="45.10228" lon="4.28561">
        <ele>863.7</ele>
        <time>2021-08-12T09:13:56.000Z</time>
      </trkpt>
      <trkpt lat="45.10238" lon="4.28564">
        <ele>863.4</ele>
        <time>2021-08-12T09:14:00.000Z</time>
      </trkpt>
      <trkpt lat="45.10248" lon="4.28569">
        <ele>863.4</ele>
        <time>2021-08-12T09:14:04.000Z</time>
      </trkpt>
      <trkpt lat="45.10258" lon="4.28577">
        <ele>864.7</ele>
        <time>2021-08-12T09:14:08.000Z</time>
      </trkpt>
      <trkpt lat="45.10265" lon="4.28584">
        <ele>865.7</ele>
        <time>2021-08-12T09:14:11.000Z</time>
      </trkpt>
      <trkpt lat="45.10274" lon="4.2859">
        <ele>867.1</ele>
        <time>2021-08-12T09:14:14.000Z</time>
      </trkpt>
      <trkpt lat="45.10282" lon="4.28597">
        <ele>868.3</ele>
        <time>2021-08-12T09:14:17.000Z</time>
      </trkpt>
      <trkpt lat="45.10291" lon="4.28604">
        <ele>869.7</ele>
        <time>2021-08-12T09:14:20.000Z</time>
      </trkpt>
      <trkpt lat="45.10301" lon="4.28612">
        <ele>870.9</ele>
        <time>2021-08-12T09:14:23.000Z</time>
      </trkpt>
      <trkpt lat="45.1031" lon="4.28619">
        <ele>872.1</ele>
        <time>2021-08-12T09:14:26.000Z</time>
      </trkpt>
      <trkpt lat="45.10319" lon="4.28625">
        <ele>873.2</ele>
        <time>2021-08-12T09:14:29.000Z</time>
      </trkpt>
      <trkpt lat="45.10327" lon="4.28631">
        <ele>874.1</ele>
        <time>2021-08-12T09:14:32.000Z</time>
      </trkpt>
      <trkpt lat="45.10337" lon="4.28637">
        <ele>875.2</ele>
        <time>2021-08-12T09:14:36.000Z</time>
      </trkpt>
      <trkpt lat="45.10346" lon="4.28642">
        <ele>876.6</ele>
        <time>2021-08-12T09:14:40.000Z</time>
      </trkpt>
      <trkpt lat="45.10355" lon="4.28646">
        <ele>878</ele>
        <time>2021-08-12T09:14:44.000Z</time>
      </trkpt>
      <trkpt lat="45.10364" lon="4.28651">
        <ele>879.3</ele>
        <time>2021-08-12T09:14:48.000Z</time>
      </trkpt>
      <trkpt lat="45.10374" lon="4.28658">
        <ele>880.8</ele>
        <time>2021-08-12T09:14:53.000Z</time>
      </trkpt>
      <trkpt lat="45.10383" lon="4.28665">
        <ele>882</ele>
        <time>2021-08-12T09:14:58.000Z</time>
      </trkpt>
      <trkpt lat="45.10391" lon="4.28673">
        <ele>883.4</ele>
        <time>2021-08-12T09:15:03.000Z</time>
      </trkpt>
      <trkpt lat="45.10399" lon="4.28682">
        <ele>884.8</ele>
        <time>2021-08-12T09:15:08.000Z</time>
      </trkpt>
      <trkpt lat="45.10407" lon="4.28689">
        <ele>886</ele>
        <time>2021-08-12T09:15:12.000Z</time>
      </trkpt>
      <trkpt lat="45.10415" lon="4.28696">
        <ele>887.3</ele>
        <time>2021-08-12T09:15:16.000Z</time>
      </trkpt>
      <trkpt lat="45.10425" lon="4.28702">
        <ele>889</ele>
        <time>2021-08-12T09:15:20.000Z</time>
      </trkpt>
      <trkpt lat="45.10435" lon="4.28706">
        <ele>890.6</ele>
        <time>2021-08-12T09:15:24.000Z</time>
      </trkpt>
      <trkpt lat="45.10445" lon="4.2871">
        <ele>892.1</ele>
        <time>2021-08-12T09:15:28.000Z</time>
      </trkpt>
      <trkpt lat="45.10455" lon="4.28714">
        <ele>893.5</ele>
        <time>2021-08-12T09:15:32.000Z</time>
      </trkpt>
      <trkpt lat="45.10465" lon="4.28717">
        <ele>894.8</ele>
        <time>2021-08-12T09:15:36.000Z</time>
      </trkpt>
      <trkpt lat="45.10474" lon="4.2872">
        <ele>896</ele>
        <time>2021-08-12T09:15:40.000Z</time>
      </trkpt>
      <trkpt lat="45.10484" lon="4.28723">
        <ele>897.2</ele>
        <time>2021-08-12T09:15:45.000Z</time>
      </trkpt>
      <trkpt lat="45.10494" lon="4.28728">
        <ele>898.3</ele>
        <time>2021-08-12T09:15:50.000Z</time>
      </trkpt>
      <trkpt lat="45.10504" lon="4.28733">
        <ele>899.2</ele>
        <time>2021-08-12T09:15:55.000Z</time>
      </trkpt>
      <trkpt lat="45.10513" lon="4.28739">
        <ele>899.5</ele>
        <time>2021-08-12T09:16:00.000Z</time>
      </trkpt>
      <trkpt lat="45.10522" lon="4.28744">
        <ele>899.7</ele>
        <time>2021-08-12T09:16:05.000Z</time>
      </trkpt>
      <trkpt lat="45.1053" lon="4.28751">
        <ele>899.7</ele>
        <time>2021-08-12T09:16:10.000Z</time>
      </trkpt>
      <trkpt lat="45.1054" lon="4.28757">
        <ele>899.8</ele>
        <time>2021-08-12T09:16:15.000Z</time>
      </trkpt>
      <trkpt lat="45.10549" lon="4.28764">
        <ele>899.8</ele>
        <time>2021-08-12T09:16:20.000Z</time>
      </trkpt>
      <trkpt lat="45.10558" lon="4.28769">
        <ele>899.8</ele>
        <time>2021-08-12T09:16:24.000Z</time>
      </trkpt>
      <trkpt lat="45.10568" lon="4.28773">
        <ele>899.8</ele>
        <time>2021-08-12T09:16:29.000Z</time>
      </trkpt>
      <trkpt lat="45.10576" lon="4.28765">
        <ele>900.2</ele>
        <time>2021-08-12T09:16:33.000Z</time>
      </trkpt>
      <trkpt lat="45.10571" lon="4.28746">
        <ele>901</ele>
        <time>2021-08-12T09:16:36.000Z</time>
      </trkpt>
      <trkpt lat="45.10565" lon="4.2873">
        <ele>901.7</ele>
        <time>2021-08-12T09:16:38.000Z</time>
      </trkpt>
      <trkpt lat="45.10559" lon="4.28713">
        <ele>902.4</ele>
        <time>2021-08-12T09:16:40.000Z</time>
      </trkpt>
      <trkpt lat="45.10551" lon="4.28693">
        <ele>902.8</ele>
        <time>2021-08-12T09:16:42.000Z</time>
      </trkpt>
      <trkpt lat="45.10544" lon="4.28673">
        <ele>903.1</ele>
        <time>2021-08-12T09:16:44.000Z</time>
      </trkpt>
      <trkpt lat="45.10539" lon="4.28651">
        <ele>903</ele>
        <time>2021-08-12T09:16:46.000Z</time>
      </trkpt>
      <trkpt lat="45.10534" lon="4.28629">
        <ele>903</ele>
        <time>2021-08-12T09:16:48.000Z</time>
      </trkpt>
      <trkpt lat="45.1053" lon="4.28607">
        <ele>903.1</ele>
        <time>2021-08-12T09:16:50.000Z</time>
      </trkpt>
      <trkpt lat="45.10525" lon="4.28588">
        <ele>903</ele>
        <time>2021-08-12T09:16:52.000Z</time>
      </trkpt>
      <trkpt lat="45.10517" lon="4.2857">
        <ele>902</ele>
        <time>2021-08-12T09:16:54.000Z</time>
      </trkpt>
      <trkpt lat="45.10507" lon="4.28553">
        <ele>900.5</ele>
        <time>2021-08-12T09:16:56.000Z</time>
      </trkpt>
      <trkpt lat="45.10495" lon="4.28536">
        <ele>898.4</ele>
        <time>2021-08-12T09:16:58.000Z</time>
      </trkpt>
      <trkpt lat="45.10485" lon="4.28516">
        <ele>895.9</ele>
        <time>2021-08-12T09:17:00.000Z</time>
      </trkpt>
      <trkpt lat="45.10477" lon="4.28494">
        <ele>893.5</ele>
        <time>2021-08-12T09:17:02.000Z</time>
      </trkpt>
      <trkpt lat="45.10473" lon="4.2847">
        <ele>890.6</ele>
        <time>2021-08-12T09:17:04.000Z</time>
      </trkpt>
      <trkpt lat="45.10477" lon="4.28446">
        <ele>888.9</ele>
        <time>2021-08-12T09:17:06.000Z</time>
      </trkpt>
      <trkpt lat="45.10486" lon="4.28426">
        <ele>888.3</ele>
        <time>2021-08-12T09:17:08.000Z</time>
      </trkpt>
      <trkpt lat="45.10498" lon="4.2841">
        <ele>888</ele>
        <time>2021-08-12T09:17:10.000Z</time>
      </trkpt>
      <trkpt lat="45.10509" lon="4.28397">
        <ele>888</ele>
        <time>2021-08-12T09:17:12.000Z</time>
      </trkpt>
      <trkpt lat="45.1052" lon="4.28388">
        <ele>888.1</ele>
        <time>2021-08-12T09:17:14.000Z</time>
      </trkpt>
      <trkpt lat="45.10531" lon="4.28379">
        <ele>888</ele>
        <time>2021-08-12T09:17:16.000Z</time>
      </trkpt>
      <trkpt lat="45.1054" lon="4.28369">
        <ele>887.6</ele>
        <time>2021-08-12T09:17:18.000Z</time>
      </trkpt>
      <trkpt lat="45.1055" lon="4.28358">
        <ele>887</ele>
        <time>2021-08-12T09:17:20.000Z</time>
      </trkpt>
      <trkpt lat="45.10559" lon="4.28345">
        <ele>885.9</ele>
        <time>2021-08-12T09:17:22.000Z</time>
      </trkpt>
      <trkpt lat="45.10567" lon="4.28329">
        <ele>885.1</ele>
        <time>2021-08-12T09:17:24.000Z</time>
      </trkpt>
      <trkpt lat="45.10575" lon="4.28313">
        <ele>885.7</ele>
        <time>2021-08-12T09:17:26.000Z</time>
      </trkpt>
      <trkpt lat="45.10581" lon="4.28297">
        <ele>886.3</ele>
        <time>2021-08-12T09:17:28.000Z</time>
      </trkpt>
      <trkpt lat="45.10588" lon="4.28285">
        <ele>886.7</ele>
        <time>2021-08-12T09:17:30.000Z</time>
      </trkpt>
      <trkpt lat="45.10595" lon="4.28275">
        <ele>886.8</ele>
        <time>2021-08-12T09:17:33.000Z</time>
      </trkpt>
      <trkpt lat="45.10603" lon="4.28267">
        <ele>886.8</ele>
        <time>2021-08-12T09:17:37.000Z</time>
      </trkpt>
      <trkpt lat="45.10612" lon="4.2826">
        <ele>886.7</ele>
        <time>2021-08-12T09:17:41.000Z</time>
      </trkpt>
      <trkpt lat="45.1062" lon="4.28254">
        <ele>886.6</ele>
        <time>2021-08-12T09:17:45.000Z</time>
      </trkpt>
      <trkpt lat="45.10628" lon="4.28247">
        <ele>886.4</ele>
        <time>2021-08-12T09:17:53.000Z</time>
      </trkpt>
      <trkpt lat="45.10638" lon="4.28244">
        <ele>886.2</ele>
        <time>2021-08-12T09:18:03.000Z</time>
      </trkpt>
      <trkpt lat="45.10648" lon="4.28249">
        <ele>886.2</ele>
        <time>2021-08-12T09:18:07.000Z</time>
      </trkpt>
      <trkpt lat="45.10658" lon="4.28255">
        <ele>886.3</ele>
        <time>2021-08-12T09:18:10.000Z</time>
      </trkpt>
      <trkpt lat="45.10667" lon="4.28262">
        <ele>886.5</ele>
        <time>2021-08-12T09:18:13.000Z</time>
      </trkpt>
      <trkpt lat="45.10679" lon="4.28265">
        <ele>886</ele>
        <time>2021-08-12T09:18:16.000Z</time>
      </trkpt>
      <trkpt lat="45.10691" lon="4.28263">
        <ele>885.3</ele>
        <time>2021-08-12T09:18:19.000Z</time>
      </trkpt>
      <trkpt lat="45.10703" lon="4.28258">
        <ele>884.3</ele>
        <time>2021-08-12T09:18:22.000Z</time>
      </trkpt>
      <trkpt lat="45.10714" lon="4.2825">
        <ele>883.1</ele>
        <time>2021-08-12T09:18:25.000Z</time>
      </trkpt>
      <trkpt lat="45.10722" lon="4.28243">
        <ele>882.2</ele>
        <time>2021-08-12T09:18:27.000Z</time>
      </trkpt>
      <trkpt lat="45.10731" lon="4.28235">
        <ele>881.1</ele>
        <time>2021-08-12T09:18:29.000Z</time>
      </trkpt>
      <trkpt lat="45.1074" lon="4.28226">
        <ele>879.8</ele>
        <time>2021-08-12T09:18:31.000Z</time>
      </trkpt>
      <trkpt lat="45.1075" lon="4.28217">
        <ele>878.3</ele>
        <time>2021-08-12T09:18:33.000Z</time>
      </trkpt>
      <trkpt lat="45.10763" lon="4.28212">
        <ele>877.4</ele>
        <time>2021-08-12T09:18:35.000Z</time>
      </trkpt>
      <trkpt lat="45.10778" lon="4.2821">
        <ele>876.6</ele>
        <time>2021-08-12T09:18:37.000Z</time>
      </trkpt>
      <trkpt lat="45.10795" lon="4.2821">
        <ele>876.1</ele>
        <time>2021-08-12T09:18:39.000Z</time>
      </trkpt>
      <trkpt lat="45.10804" lon="4.2821">
        <ele>875.8</ele>
        <time>2021-08-12T09:18:40.000Z</time>
      </trkpt>
      <trkpt lat="45.10814" lon="4.2821">
        <ele>875.4</ele>
        <time>2021-08-12T09:18:41.000Z</time>
      </trkpt>
      <trkpt lat="45.10825" lon="4.2821">
        <ele>875</ele>
        <time>2021-08-12T09:18:42.000Z</time>
      </trkpt>
      <trkpt lat="45.10835" lon="4.28211">
        <ele>875</ele>
        <time>2021-08-12T09:18:43.000Z</time>
      </trkpt>
      <trkpt lat="45.10845" lon="4.28212">
        <ele>874.6</ele>
        <time>2021-08-12T09:18:44.000Z</time>
      </trkpt>
      <trkpt lat="45.10854" lon="4.28213">
        <ele>874.5</ele>
        <time>2021-08-12T09:18:45.000Z</time>
      </trkpt>
      <trkpt lat="45.1087" lon="4.28217">
        <ele>874.8</ele>
        <time>2021-08-12T09:18:47.000Z</time>
      </trkpt>
      <trkpt lat="45.10882" lon="4.28224">
        <ele>875.7</ele>
        <time>2021-08-12T09:18:49.000Z</time>
      </trkpt>
      <trkpt lat="45.10891" lon="4.28229">
        <ele>876.4</ele>
        <time>2021-08-12T09:18:51.000Z</time>
      </trkpt>
      <trkpt lat="45.109" lon="4.28233">
        <ele>877.1</ele>
        <time>2021-08-12T09:18:53.000Z</time>
      </trkpt>
      <trkpt lat="45.1091" lon="4.28237">
        <ele>877.6</ele>
        <time>2021-08-12T09:18:55.000Z</time>
      </trkpt>
      <trkpt lat="45.10919" lon="4.2824">
        <ele>877.7</ele>
        <time>2021-08-12T09:18:57.000Z</time>
      </trkpt>
      <trkpt lat="45.10932" lon="4.28243">
        <ele>877.6</ele>
        <time>2021-08-12T09:19:00.000Z</time>
      </trkpt>
      <trkpt lat="45.10945" lon="4.28247">
        <ele>877.6</ele>
        <time>2021-08-12T09:19:03.000Z</time>
      </trkpt>
      <trkpt lat="45.10957" lon="4.2825">
        <ele>877.4</ele>
        <time>2021-08-12T09:19:06.000Z</time>
      </trkpt>
      <trkpt lat="45.10966" lon="4.28254">
        <ele>877.3</ele>
        <time>2021-08-12T09:19:08.000Z</time>
      </trkpt>
      <trkpt lat="45.10978" lon="4.28256">
        <ele>876.7</ele>
        <time>2021-08-12T09:19:10.000Z</time>
      </trkpt>
      <trkpt lat="45.10991" lon="4.28256">
        <ele>875.9</ele>
        <time>2021-08-12T09:19:12.000Z</time>
      </trkpt>
      <trkpt lat="45.11006" lon="4.28255">
        <ele>874.8</ele>
        <time>2021-08-12T09:19:14.000Z</time>
      </trkpt>
      <trkpt lat="45.1103" lon="4.28253">
        <ele>872.6</ele>
        <time>2021-08-12T09:19:17.000Z</time>
      </trkpt>
      <trkpt lat="45.11045" lon="4.28254">
        <ele>871.4</ele>
        <time>2021-08-12T09:19:19.000Z</time>
      </trkpt>
      <trkpt lat="45.11058" lon="4.28254">
        <ele>870.3</ele>
        <time>2021-08-12T09:19:21.000Z</time>
      </trkpt>
      <trkpt lat="45.11072" lon="4.28253">
        <ele>869.1</ele>
        <time>2021-08-12T09:19:23.000Z</time>
      </trkpt>
      <trkpt lat="45.11084" lon="4.28253">
        <ele>868.1</ele>
        <time>2021-08-12T09:19:25.000Z</time>
      </trkpt>
      <trkpt lat="45.11096" lon="4.28253">
        <ele>866.6</ele>
        <time>2021-08-12T09:19:27.000Z</time>
      </trkpt>
      <trkpt lat="45.11108" lon="4.28255">
        <ele>865.2</ele>
        <time>2021-08-12T09:19:29.000Z</time>
      </trkpt>
      <trkpt lat="45.11122" lon="4.2826">
        <ele>863.9</ele>
        <time>2021-08-12T09:19:31.000Z</time>
      </trkpt>
      <trkpt lat="45.11138" lon="4.28269">
        <ele>862.5</ele>
        <time>2021-08-12T09:19:33.000Z</time>
      </trkpt>
      <trkpt lat="45.11147" lon="4.28276">
        <ele>861.8</ele>
        <time>2021-08-12T09:19:34.000Z</time>
      </trkpt>
      <trkpt lat="45.11156" lon="4.28283">
        <ele>861.2</ele>
        <time>2021-08-12T09:19:35.000Z</time>
      </trkpt>
      <trkpt lat="45.11165" lon="4.2829">
        <ele>860.6</ele>
        <time>2021-08-12T09:19:36.000Z</time>
      </trkpt>
      <trkpt lat="45.11175" lon="4.28298">
        <ele>860.6</ele>
        <time>2021-08-12T09:19:37.000Z</time>
      </trkpt>
      <trkpt lat="45.11185" lon="4.28307">
        <ele>860.7</ele>
        <time>2021-08-12T09:19:38.000Z</time>
      </trkpt>
      <trkpt lat="45.11195" lon="4.28315">
        <ele>861</ele>
        <time>2021-08-12T09:19:39.000Z</time>
      </trkpt>
      <trkpt lat="45.11205" lon="4.28324">
        <ele>861.3</ele>
        <time>2021-08-12T09:19:40.000Z</time>
      </trkpt>
      <trkpt lat="45.11214" lon="4.28332">
        <ele>861.8</ele>
        <time>2021-08-12T09:19:41.000Z</time>
      </trkpt>
      <trkpt lat="45.11224" lon="4.2834">
        <ele>862.1</ele>
        <time>2021-08-12T09:19:42.000Z</time>
      </trkpt>
      <trkpt lat="45.11232" lon="4.28349">
        <ele>862.5</ele>
        <time>2021-08-12T09:19:43.000Z</time>
      </trkpt>
      <trkpt lat="45.1124" lon="4.28357">
        <ele>862.9</ele>
        <time>2021-08-12T09:19:44.000Z</time>
      </trkpt>
      <trkpt lat="45.11249" lon="4.28363">
        <ele>863.1</ele>
        <time>2021-08-12T09:19:45.000Z</time>
      </trkpt>
      <trkpt lat="45.11257" lon="4.28369">
        <ele>863.1</ele>
        <time>2021-08-12T09:19:46.000Z</time>
      </trkpt>
      <trkpt lat="45.11265" lon="4.28376">
        <ele>862.9</ele>
        <time>2021-08-12T09:19:47.000Z</time>
      </trkpt>
      <trkpt lat="45.11278" lon="4.28391">
        <ele>862.6</ele>
        <time>2021-08-12T09:19:49.000Z</time>
      </trkpt>
      <trkpt lat="45.11291" lon="4.28403">
        <ele>861.7</ele>
        <time>2021-08-12T09:19:51.000Z</time>
      </trkpt>
      <trkpt lat="45.11303" lon="4.28415">
        <ele>860.6</ele>
        <time>2021-08-12T09:19:53.000Z</time>
      </trkpt>
      <trkpt lat="45.11312" lon="4.28425">
        <ele>859</ele>
        <time>2021-08-12T09:19:55.000Z</time>
      </trkpt>
      <trkpt lat="45.1132" lon="4.28437">
        <ele>857.3</ele>
        <time>2021-08-12T09:19:57.000Z</time>
      </trkpt>
      <trkpt lat="45.11328" lon="4.2845">
        <ele>855.1</ele>
        <time>2021-08-12T09:19:59.000Z</time>
      </trkpt>
      <trkpt lat="45.11336" lon="4.28464">
        <ele>852.4</ele>
        <time>2021-08-12T09:20:01.000Z</time>
      </trkpt>
      <trkpt lat="45.11341" lon="4.28483">
        <ele>849.6</ele>
        <time>2021-08-12T09:20:03.000Z</time>
      </trkpt>
      <trkpt lat="45.1135" lon="4.28505">
        <ele>846.6</ele>
        <time>2021-08-12T09:20:05.000Z</time>
      </trkpt>
      <trkpt lat="45.11355" lon="4.28516">
        <ele>845.4</ele>
        <time>2021-08-12T09:20:06.000Z</time>
      </trkpt>
      <trkpt lat="45.11359" lon="4.28527">
        <ele>844.4</ele>
        <time>2021-08-12T09:20:07.000Z</time>
      </trkpt>
      <trkpt lat="45.11363" lon="4.2854">
        <ele>843.4</ele>
        <time>2021-08-12T09:20:08.000Z</time>
      </trkpt>
      <trkpt lat="45.11368" lon="4.28564">
        <ele>842</ele>
        <time>2021-08-12T09:20:10.000Z</time>
      </trkpt>
      <trkpt lat="45.11372" lon="4.28589">
        <ele>841.1</ele>
        <time>2021-08-12T09:20:12.000Z</time>
      </trkpt>
      <trkpt lat="45.11375" lon="4.28601">
        <ele>840.8</ele>
        <time>2021-08-12T09:20:13.000Z</time>
      </trkpt>
      <trkpt lat="45.11382" lon="4.28623">
        <ele>839.8</ele>
        <time>2021-08-12T09:20:15.000Z</time>
      </trkpt>
      <trkpt lat="45.11391" lon="4.28643">
        <ele>838.2</ele>
        <time>2021-08-12T09:20:17.000Z</time>
      </trkpt>
      <trkpt lat="45.114" lon="4.28661">
        <ele>836.4</ele>
        <time>2021-08-12T09:20:19.000Z</time>
      </trkpt>
      <trkpt lat="45.1141" lon="4.28682">
        <ele>835.6</ele>
        <time>2021-08-12T09:20:21.000Z</time>
      </trkpt>
      <trkpt lat="45.11416" lon="4.28705">
        <ele>835.8</ele>
        <time>2021-08-12T09:20:23.000Z</time>
      </trkpt>
      <trkpt lat="45.11421" lon="4.28726">
        <ele>837.1</ele>
        <time>2021-08-12T09:20:25.000Z</time>
      </trkpt>
      <trkpt lat="45.11423" lon="4.28749">
        <ele>838.5</ele>
        <time>2021-08-12T09:20:27.000Z</time>
      </trkpt>
      <trkpt lat="45.11426" lon="4.2877">
        <ele>839.5</ele>
        <time>2021-08-12T09:20:29.000Z</time>
      </trkpt>
      <trkpt lat="45.11433" lon="4.28791">
        <ele>840.3</ele>
        <time>2021-08-12T09:20:31.000Z</time>
      </trkpt>
      <trkpt lat="45.1144" lon="4.28811">
        <ele>841.3</ele>
        <time>2021-08-12T09:20:33.000Z</time>
      </trkpt>
      <trkpt lat="45.11445" lon="4.2883">
        <ele>842.4</ele>
        <time>2021-08-12T09:20:35.000Z</time>
      </trkpt>
      <trkpt lat="45.11448" lon="4.2885">
        <ele>843.7</ele>
        <time>2021-08-12T09:20:37.000Z</time>
      </trkpt>
      <trkpt lat="45.1145" lon="4.28866">
        <ele>844.9</ele>
        <time>2021-08-12T09:20:39.000Z</time>
      </trkpt>
      <trkpt lat="45.11453" lon="4.28882">
        <ele>846</ele>
        <time>2021-08-12T09:20:41.000Z</time>
      </trkpt>
      <trkpt lat="45.11455" lon="4.28897">
        <ele>847</ele>
        <time>2021-08-12T09:20:43.000Z</time>
      </trkpt>
      <trkpt lat="45.11455" lon="4.2891">
        <ele>847.9</ele>
        <time>2021-08-12T09:20:45.000Z</time>
      </trkpt>
      <trkpt lat="45.11457" lon="4.28923">
        <ele>848.8</ele>
        <time>2021-08-12T09:20:48.000Z</time>
      </trkpt>
      <trkpt lat="45.11448" lon="4.28936">
        <ele>849.3</ele>
        <time>2021-08-12T09:20:52.000Z</time>
      </trkpt>
      <trkpt lat="45.11442" lon="4.28946">
        <ele>849.5</ele>
        <time>2021-08-12T09:20:55.000Z</time>
      </trkpt>
      <trkpt lat="45.11434" lon="4.28956">
        <ele>849.8</ele>
        <time>2021-08-12T09:20:59.000Z</time>
      </trkpt>
      <trkpt lat="45.11425" lon="4.28964">
        <ele>849.9</ele>
        <time>2021-08-12T09:21:03.000Z</time>
      </trkpt>
      <trkpt lat="45.11423" lon="4.28977">
        <ele>850.3</ele>
        <time>2021-08-12T09:21:06.000Z</time>
      </trkpt>
      <trkpt lat="45.11419" lon="4.28992">
        <ele>850.7</ele>
        <time>2021-08-12T09:21:11.000Z</time>
      </trkpt>
      <trkpt lat="45.11416" lon="4.29004">
        <ele>850.9</ele>
        <time>2021-08-12T09:21:14.000Z</time>
      </trkpt>
      <trkpt lat="45.11416" lon="4.2902">
        <ele>850.5</ele>
        <time>2021-08-12T09:21:17.000Z</time>
      </trkpt>
      <trkpt lat="45.11424" lon="4.29033">
        <ele>850.4</ele>
        <time>2021-08-12T09:21:21.000Z</time>
      </trkpt>
      <trkpt lat="45.11431" lon="4.29041">
        <ele>850.3</ele>
        <time>2021-08-12T09:21:25.000Z</time>
      </trkpt>
      <trkpt lat="45.11438" lon="4.29045">
        <ele>850.3</ele>
        <time>2021-08-12T09:21:33.000Z</time>
      </trkpt>
      <trkpt lat="45.11438" lon="4.29046">
        <ele>850.3</ele>
        <time>2021-08-12T09:21:34.000Z</time>
      </trkpt>
      <trkpt lat="45.11438" lon="4.29046">
        <ele>850.3</ele>
        <time>2021-08-12T09:21:38.000Z</time>
      </trkpt>
      <trkpt lat="45.11438" lon="4.29046">
        <ele>850.3</ele>
        <time>2021-08-12T09:21:39.000Z</time>
      </trkpt>
      <trkpt lat="45.11449" lon="4.29048">
        <ele>850.3</ele>
        <time>2021-08-12T09:21:45.000Z</time>
      </trkpt>
      <trkpt lat="45.11456" lon="4.2905">
        <ele>850.4</ele>
        <time>2021-08-12T09:21:55.000Z</time>
      </trkpt>
      <trkpt lat="45.11456" lon="4.29049">
        <ele>850.4</ele>
        <time>2021-08-12T09:21:58.000Z</time>
      </trkpt>
      <trkpt lat="45.11457" lon="4.29048">
        <ele>850.5</ele>
        <time>2021-08-12T09:22:03.000Z</time>
      </trkpt>
      <trkpt lat="45.11457" lon="4.29048">
        <ele>850.5</ele>
        <time>2021-08-12T09:22:04.000Z</time>
      </trkpt>
      <trkpt lat="45.11451" lon="4.2906">
        <ele>850</ele>
        <time>2021-08-12T09:22:15.000Z</time>
      </trkpt>
      <trkpt lat="45.11451" lon="4.29075">
        <ele>849.4</ele>
        <time>2021-08-12T09:22:19.000Z</time>
      </trkpt>
      <trkpt lat="45.1145" lon="4.29091">
        <ele>848.6</ele>
        <time>2021-08-12T09:22:23.000Z</time>
      </trkpt>
      <trkpt lat="45.1145" lon="4.29104">
        <ele>847.8</ele>
        <time>2021-08-12T09:22:27.000Z</time>
      </trkpt>
      <trkpt lat="45.11449" lon="4.29119">
        <ele>847</ele>
        <time>2021-08-12T09:22:33.000Z</time>
      </trkpt>
      <trkpt lat="45.11449" lon="4.29132">
        <ele>846.2</ele>
        <time>2021-08-12T09:22:42.000Z</time>
      </trkpt>
      <trkpt lat="45.11443" lon="4.29139">
        <ele>846</ele>
        <time>2021-08-12T09:22:53.000Z</time>
      </trkpt>
      <trkpt lat="45.11444" lon="4.29138">
        <ele>845.9</ele>
        <time>2021-08-12T09:22:54.000Z</time>
      </trkpt>
      <trkpt lat="45.11444" lon="4.29137">
        <ele>846</ele>
        <time>2021-08-12T09:22:57.000Z</time>
      </trkpt>
      <trkpt lat="45.11444" lon="4.29137">
        <ele>846</ele>
        <time>2021-08-12T09:23:00.000Z</time>
      </trkpt>
      <trkpt lat="45.11443" lon="4.29138">
        <ele>846</ele>
        <time>2021-08-12T09:23:01.000Z</time>
      </trkpt>
      <trkpt lat="45.11444" lon="4.29138">
        <ele>846</ele>
        <time>2021-08-12T09:23:03.000Z</time>
      </trkpt>
      <trkpt lat="45.11446" lon="4.29152">
        <ele>845.2</ele>
        <time>2021-08-12T09:23:16.000Z</time>
      </trkpt>
      <trkpt lat="45.11456" lon="4.29151">
        <ele>845</ele>
        <time>2021-08-12T09:23:22.000Z</time>
      </trkpt>
      <trkpt lat="45.11468" lon="4.29147">
        <ele>845</ele>
        <time>2021-08-12T09:23:24.000Z</time>
      </trkpt>
      <trkpt lat="45.1148" lon="4.29146">
        <ele>844.9</ele>
        <time>2021-08-12T09:23:26.000Z</time>
      </trkpt>
      <trkpt lat="45.11489" lon="4.29149">
        <ele>844.5</ele>
        <time>2021-08-12T09:23:28.000Z</time>
      </trkpt>
      <trkpt lat="45.11494" lon="4.2916">
        <ele>843.6</ele>
        <time>2021-08-12T09:23:33.000Z</time>
      </trkpt>
      <trkpt lat="45.11506" lon="4.29164">
        <ele>843</ele>
        <time>2021-08-12T09:23:37.000Z</time>
      </trkpt>
      <trkpt lat="45.11517" lon="4.29169">
        <ele>842.2</ele>
        <time>2021-08-12T09:23:41.000Z</time>
      </trkpt>
      <trkpt lat="45.11526" lon="4.29175">
        <ele>841.9</ele>
        <time>2021-08-12T09:23:44.000Z</time>
      </trkpt>
      <trkpt lat="45.11538" lon="4.29174">
        <ele>841.3</ele>
        <time>2021-08-12T09:23:49.000Z</time>
      </trkpt>
      <trkpt lat="45.11549" lon="4.29169">
        <ele>840.7</ele>
        <time>2021-08-12T09:23:53.000Z</time>
      </trkpt>
      <trkpt lat="45.11558" lon="4.29165">
        <ele>840.3</ele>
        <time>2021-08-12T09:23:57.000Z</time>
      </trkpt>
      <trkpt lat="45.11558" lon="4.29157">
        <ele>840.5</ele>
        <time>2021-08-12T09:24:11.000Z</time>
      </trkpt>
      <trkpt lat="45.11558" lon="4.29157">
        <ele>840.5</ele>
        <time>2021-08-12T09:24:12.000Z</time>
      </trkpt>
      <trkpt lat="45.11559" lon="4.29157">
        <ele>840.5</ele>
        <time>2021-08-12T09:24:13.000Z</time>
      </trkpt>
      <trkpt lat="45.11559" lon="4.29156">
        <ele>840.5</ele>
        <time>2021-08-12T09:24:14.000Z</time>
      </trkpt>
      <trkpt lat="45.11554" lon="4.29142">
        <ele>841.2</ele>
        <time>2021-08-12T09:24:20.000Z</time>
      </trkpt>
      <trkpt lat="45.11545" lon="4.29136">
        <ele>842.1</ele>
        <time>2021-08-12T09:24:24.000Z</time>
      </trkpt>
      <trkpt lat="45.11537" lon="4.29126">
        <ele>843.1</ele>
        <time>2021-08-12T09:24:30.000Z</time>
      </trkpt>
      <trkpt lat="45.11538" lon="4.29112">
        <ele>843.6</ele>
        <time>2021-08-12T09:24:35.000Z</time>
      </trkpt>
      <trkpt lat="45.1154" lon="4.29098">
        <ele>844.1</ele>
        <time>2021-08-12T09:24:41.000Z</time>
      </trkpt>
      <trkpt lat="45.11532" lon="4.29089">
        <ele>845.3</ele>
        <time>2021-08-12T09:24:47.000Z</time>
      </trkpt>
      <trkpt lat="45.11521" lon="4.29079">
        <ele>847.1</ele>
        <time>2021-08-12T09:24:50.000Z</time>
      </trkpt>
      <trkpt lat="45.11512" lon="4.29076">
        <ele>848.2</ele>
        <time>2021-08-12T09:24:52.000Z</time>
      </trkpt>
      <trkpt lat="45.11501" lon="4.29075">
        <ele>849.4</ele>
        <time>2021-08-12T09:24:56.000Z</time>
      </trkpt>
      <trkpt lat="45.11506" lon="4.29064">
        <ele>849.5</ele>
        <time>2021-08-12T09:25:03.000Z</time>
      </trkpt>
      <trkpt lat="45.11517" lon="4.29061">
        <ele>848.6</ele>
        <time>2021-08-12T09:25:08.000Z</time>
      </trkpt>
      <trkpt lat="45.11525" lon="4.29064">
        <ele>847.4</ele>
        <time>2021-08-12T09:25:13.000Z</time>
      </trkpt>
      <trkpt lat="45.11536" lon="4.29058">
        <ele>846.5</ele>
        <time>2021-08-12T09:25:17.000Z</time>
      </trkpt>
      <trkpt lat="45.11538" lon="4.29043">
        <ele>847.1</ele>
        <time>2021-08-12T09:25:20.000Z</time>
      </trkpt>
      <trkpt lat="45.11538" lon="4.29027">
        <ele>848</ele>
        <time>2021-08-12T09:25:23.000Z</time>
      </trkpt>
      <trkpt lat="45.11544" lon="4.29014">
        <ele>847.9</ele>
        <time>2021-08-12T09:25:26.000Z</time>
      </trkpt>
      <trkpt lat="45.11555" lon="4.29006">
        <ele>847.1</ele>
        <time>2021-08-12T09:25:29.000Z</time>
      </trkpt>
      <trkpt lat="45.11564" lon="4.29">
        <ele>846.3</ele>
        <time>2021-08-12T09:25:32.000Z</time>
      </trkpt>
      <trkpt lat="45.1157" lon="4.28986">
        <ele>845.8</ele>
        <time>2021-08-12T09:25:35.000Z</time>
      </trkpt>
      <trkpt lat="45.11576" lon="4.28969">
        <ele>845.4</ele>
        <time>2021-08-12T09:25:38.000Z</time>
      </trkpt>
      <trkpt lat="45.11583" lon="4.28956">
        <ele>845.1</ele>
        <time>2021-08-12T09:25:41.000Z</time>
      </trkpt>
      <trkpt lat="45.1158" lon="4.28942">
        <ele>845.6</ele>
        <time>2021-08-12T09:25:47.000Z</time>
      </trkpt>
      <trkpt lat="45.1158" lon="4.28928">
        <ele>845.9</ele>
        <time>2021-08-12T09:25:52.000Z</time>
      </trkpt>
      <trkpt lat="45.11571" lon="4.28922">
        <ele>846.4</ele>
        <time>2021-08-12T09:25:56.000Z</time>
      </trkpt>
      <trkpt lat="45.11562" lon="4.28921">
        <ele>846.8</ele>
        <time>2021-08-12T09:25:59.000Z</time>
      </trkpt>
      <trkpt lat="45.11556" lon="4.28908">
        <ele>846.6</ele>
        <time>2021-08-12T09:26:02.000Z</time>
      </trkpt>
      <trkpt lat="45.11552" lon="4.28894">
        <ele>846.1</ele>
        <time>2021-08-12T09:26:05.000Z</time>
      </trkpt>
      <trkpt lat="45.11549" lon="4.28884">
        <ele>845.6</ele>
        <time>2021-08-12T09:26:13.000Z</time>
      </trkpt>
      <trkpt lat="45.11549" lon="4.28884">
        <ele>845.6</ele>
        <time>2021-08-12T09:26:14.000Z</time>
      </trkpt>
      <trkpt lat="45.11549" lon="4.28885">
        <ele>845.6</ele>
        <time>2021-08-12T09:26:16.000Z</time>
      </trkpt>
      <trkpt lat="45.11549" lon="4.28885">
        <ele>845.6</ele>
        <time>2021-08-12T09:26:17.000Z</time>
      </trkpt>
      <trkpt lat="45.11541" lon="4.28889">
        <ele>846</ele>
        <time>2021-08-12T09:26:33.000Z</time>
      </trkpt>
      <trkpt lat="45.11541" lon="4.28888">
        <ele>846</ele>
        <time>2021-08-12T09:26:35.000Z</time>
      </trkpt>
      <trkpt lat="45.1153" lon="4.28892">
        <ele>846.4</ele>
        <time>2021-08-12T09:26:45.000Z</time>
      </trkpt>
      <trkpt lat="45.11523" lon="4.289">
        <ele>847</ele>
        <time>2021-08-12T09:26:50.000Z</time>
      </trkpt>
      <trkpt lat="45.11517" lon="4.28886">
        <ele>846.1</ele>
        <time>2021-08-12T09:26:59.000Z</time>
      </trkpt>
      <trkpt lat="45.11517" lon="4.2887">
        <ele>845</ele>
        <time>2021-08-12T09:27:02.000Z</time>
      </trkpt>
      <trkpt lat="45.11512" lon="4.28858">
        <ele>844.2</ele>
        <time>2021-08-12T09:27:04.000Z</time>
      </trkpt>
      <trkpt lat="45.11509" lon="4.28842">
        <ele>842.8</ele>
        <time>2021-08-12T09:27:07.000Z</time>
      </trkpt>
      <trkpt lat="45.11506" lon="4.28826">
        <ele>841.4</ele>
        <time>2021-08-12T09:27:10.000Z</time>
      </trkpt>
      <trkpt lat="45.11501" lon="4.28812">
        <ele>839.9</ele>
        <time>2021-08-12T09:27:12.000Z</time>
      </trkpt>
      <trkpt lat="45.11493" lon="4.28798">
        <ele>838.8</ele>
        <time>2021-08-12T09:27:14.000Z</time>
      </trkpt>
      <trkpt lat="45.11487" lon="4.28785">
        <ele>837.8</ele>
        <time>2021-08-12T09:27:16.000Z</time>
      </trkpt>
      <trkpt lat="45.11483" lon="4.28772">
        <ele>836.9</ele>
        <time>2021-08-12T09:27:18.000Z</time>
      </trkpt>
      <trkpt lat="45.11479" lon="4.28758">
        <ele>835.8</ele>
        <time>2021-08-12T09:27:20.000Z</time>
      </trkpt>
      <trkpt lat="45.11479" lon="4.28745">
        <ele>834.8</ele>
        <time>2021-08-12T09:27:22.000Z</time>
      </trkpt>
      <trkpt lat="45.11478" lon="4.28729">
        <ele>833.9</ele>
        <time>2021-08-12T09:27:24.000Z</time>
      </trkpt>
      <trkpt lat="45.11475" lon="4.28716">
        <ele>833.2</ele>
        <time>2021-08-12T09:27:26.000Z</time>
      </trkpt>
      <trkpt lat="45.11476" lon="4.28699">
        <ele>832.2</ele>
        <time>2021-08-12T09:27:29.000Z</time>
      </trkpt>
      <trkpt lat="45.11485" lon="4.28684">
        <ele>830.8</ele>
        <time>2021-08-12T09:27:33.000Z</time>
      </trkpt>
      <trkpt lat="45.11492" lon="4.28675">
        <ele>829.8</ele>
        <time>2021-08-12T09:27:35.000Z</time>
      </trkpt>
      <trkpt lat="45.11501" lon="4.28664">
        <ele>829.1</ele>
        <time>2021-08-12T09:27:38.000Z</time>
      </trkpt>
      <trkpt lat="45.1151" lon="4.28653">
        <ele>829.4</ele>
        <time>2021-08-12T09:27:42.000Z</time>
      </trkpt>
      <trkpt lat="45.11516" lon="4.28644">
        <ele>829.5</ele>
        <time>2021-08-12T09:27:50.000Z</time>
      </trkpt>
      <trkpt lat="45.11526" lon="4.28646">
        <ele>829.4</ele>
        <time>2021-08-12T09:27:54.000Z</time>
      </trkpt>
      <trkpt lat="45.11537" lon="4.28644">
        <ele>829.4</ele>
        <time>2021-08-12T09:27:57.000Z</time>
      </trkpt>
      <trkpt lat="45.11546" lon="4.28642">
        <ele>829.3</ele>
        <time>2021-08-12T09:28:00.000Z</time>
      </trkpt>
      <trkpt lat="45.11553" lon="4.28629">
        <ele>829.1</ele>
        <time>2021-08-12T09:28:04.000Z</time>
      </trkpt>
      <trkpt lat="45.11552" lon="4.28616">
        <ele>828.9</ele>
        <time>2021-08-12T09:28:08.000Z</time>
      </trkpt>
      <trkpt lat="45.11555" lon="4.28602">
        <ele>828.7</ele>
        <time>2021-08-12T09:28:14.000Z</time>
      </trkpt>
      <trkpt lat="45.11566" lon="4.28602">
        <ele>828.2</ele>
        <time>2021-08-12T09:28:22.000Z</time>
      </trkpt>
      <trkpt lat="45.11574" lon="4.28615">
        <ele>828.4</ele>
        <time>2021-08-12T09:28:25.000Z</time>
      </trkpt>
      <trkpt lat="45.11576" lon="4.28631">
        <ele>828.8</ele>
        <time>2021-08-12T09:28:27.000Z</time>
      </trkpt>
      <trkpt lat="45.11584" lon="4.28645">
        <ele>829.2</ele>
        <time>2021-08-12T09:28:29.000Z</time>
      </trkpt>
      <trkpt lat="45.11596" lon="4.28652">
        <ele>829.6</ele>
        <time>2021-08-12T09:28:31.000Z</time>
      </trkpt>
      <trkpt lat="45.11609" lon="4.2865">
        <ele>829.6</ele>
        <time>2021-08-12T09:28:33.000Z</time>
      </trkpt>
      <trkpt lat="45.1162" lon="4.28643">
        <ele>829.6</ele>
        <time>2021-08-12T09:28:35.000Z</time>
      </trkpt>
      <trkpt lat="45.1163" lon="4.28635">
        <ele>829.4</ele>
        <time>2021-08-12T09:28:37.000Z</time>
      </trkpt>
      <trkpt lat="45.1164" lon="4.28626">
        <ele>829.2</ele>
        <time>2021-08-12T09:28:39.000Z</time>
      </trkpt>
      <trkpt lat="45.11651" lon="4.28619">
        <ele>829.1</ele>
        <time>2021-08-12T09:28:41.000Z</time>
      </trkpt>
      <trkpt lat="45.1166" lon="4.28612">
        <ele>829</ele>
        <time>2021-08-12T09:28:43.000Z</time>
      </trkpt>
      <trkpt lat="45.11669" lon="4.28604">
        <ele>828.7</ele>
        <time>2021-08-12T09:28:45.000Z</time>
      </trkpt>
      <trkpt lat="45.11678" lon="4.28595">
        <ele>828.4</ele>
        <time>2021-08-12T09:28:47.000Z</time>
      </trkpt>
      <trkpt lat="45.11688" lon="4.28587">
        <ele>828.1</ele>
        <time>2021-08-12T09:28:49.000Z</time>
      </trkpt>
      <trkpt lat="45.11696" lon="4.28577">
        <ele>827.9</ele>
        <time>2021-08-12T09:28:51.000Z</time>
      </trkpt>
      <trkpt lat="45.11704" lon="4.28568">
        <ele>827.9</ele>
        <time>2021-08-12T09:28:53.000Z</time>
      </trkpt>
      <trkpt lat="45.11712" lon="4.28559">
        <ele>827.9</ele>
        <time>2021-08-12T09:28:55.000Z</time>
      </trkpt>
      <trkpt lat="45.1172" lon="4.2855">
        <ele>827.9</ele>
        <time>2021-08-12T09:28:57.000Z</time>
      </trkpt>
      <trkpt lat="45.11731" lon="4.28543">
        <ele>827.9</ele>
        <time>2021-08-12T09:28:59.000Z</time>
      </trkpt>
      <trkpt lat="45.1174" lon="4.28533">
        <ele>827.9</ele>
        <time>2021-08-12T09:29:01.000Z</time>
      </trkpt>
      <trkpt lat="45.11748" lon="4.28523">
        <ele>828</ele>
        <time>2021-08-12T09:29:03.000Z</time>
      </trkpt>
      <trkpt lat="45.11756" lon="4.28512">
        <ele>828.1</ele>
        <time>2021-08-12T09:29:05.000Z</time>
      </trkpt>
      <trkpt lat="45.11763" lon="4.28503">
        <ele>828.2</ele>
        <time>2021-08-12T09:29:07.000Z</time>
      </trkpt>
      <trkpt lat="45.11771" lon="4.28492">
        <ele>828.2</ele>
        <time>2021-08-12T09:29:09.000Z</time>
      </trkpt>
      <trkpt lat="45.11779" lon="4.28482">
        <ele>828.1</ele>
        <time>2021-08-12T09:29:11.000Z</time>
      </trkpt>
      <trkpt lat="45.11786" lon="4.28471">
        <ele>828</ele>
        <time>2021-08-12T09:29:13.000Z</time>
      </trkpt>
      <trkpt lat="45.11793" lon="4.2846">
        <ele>827.8</ele>
        <time>2021-08-12T09:29:15.000Z</time>
      </trkpt>
      <trkpt lat="45.11801" lon="4.28449">
        <ele>827.5</ele>
        <time>2021-08-12T09:29:17.000Z</time>
      </trkpt>
      <trkpt lat="45.11809" lon="4.28438">
        <ele>827.1</ele>
        <time>2021-08-12T09:29:19.000Z</time>
      </trkpt>
      <trkpt lat="45.11817" lon="4.28426">
        <ele>826.7</ele>
        <time>2021-08-12T09:29:21.000Z</time>
      </trkpt>
      <trkpt lat="45.11824" lon="4.28414">
        <ele>826.3</ele>
        <time>2021-08-12T09:29:23.000Z</time>
      </trkpt>
      <trkpt lat="45.11832" lon="4.28403">
        <ele>826.4</ele>
        <time>2021-08-12T09:29:25.000Z</time>
      </trkpt>
      <trkpt lat="45.1184" lon="4.28394">
        <ele>827.2</ele>
        <time>2021-08-12T09:29:27.000Z</time>
      </trkpt>
      <trkpt lat="45.11849" lon="4.28383">
        <ele>828</ele>
        <time>2021-08-12T09:29:29.000Z</time>
      </trkpt>
      <trkpt lat="45.11857" lon="4.28372">
        <ele>828.7</ele>
        <time>2021-08-12T09:29:31.000Z</time>
      </trkpt>
      <trkpt lat="45.11864" lon="4.28362">
        <ele>829.3</ele>
        <time>2021-08-12T09:29:33.000Z</time>
      </trkpt>
      <trkpt lat="45.11871" lon="4.28352">
        <ele>829.8</ele>
        <time>2021-08-12T09:29:35.000Z</time>
      </trkpt>
      <trkpt lat="45.11879" lon="4.28342">
        <ele>830.2</ele>
        <time>2021-08-12T09:29:37.000Z</time>
      </trkpt>
      <trkpt lat="45.11888" lon="4.2833">
        <ele>830.5</ele>
        <time>2021-08-12T09:29:39.000Z</time>
      </trkpt>
      <trkpt lat="45.11895" lon="4.28316">
        <ele>830.1</ele>
        <time>2021-08-12T09:29:41.000Z</time>
      </trkpt>
      <trkpt lat="45.11902" lon="4.28303">
        <ele>829.8</ele>
        <time>2021-08-12T09:29:43.000Z</time>
      </trkpt>
      <trkpt lat="45.1191" lon="4.28291">
        <ele>829.3</ele>
        <time>2021-08-12T09:29:45.000Z</time>
      </trkpt>
      <trkpt lat="45.11918" lon="4.28278">
        <ele>828.7</ele>
        <time>2021-08-12T09:29:47.000Z</time>
      </trkpt>
      <trkpt lat="45.11924" lon="4.28265">
        <ele>828.6</ele>
        <time>2021-08-12T09:29:49.000Z</time>
      </trkpt>
      <trkpt lat="45.1193" lon="4.28252">
        <ele>828.2</ele>
        <time>2021-08-12T09:29:51.000Z</time>
      </trkpt>
      <trkpt lat="45.11936" lon="4.2824">
        <ele>828.4</ele>
        <time>2021-08-12T09:29:53.000Z</time>
      </trkpt>
      <trkpt lat="45.11942" lon="4.28228">
        <ele>828.8</ele>
        <time>2021-08-12T09:29:55.000Z</time>
      </trkpt>
      <trkpt lat="45.11948" lon="4.28215">
        <ele>829.1</ele>
        <time>2021-08-12T09:29:57.000Z</time>
      </trkpt>
      <trkpt lat="45.11953" lon="4.28204">
        <ele>829.5</ele>
        <time>2021-08-12T09:29:59.000Z</time>
      </trkpt>
      <trkpt lat="45.11959" lon="4.28191">
        <ele>829.9</ele>
        <time>2021-08-12T09:30:01.000Z</time>
      </trkpt>
      <trkpt lat="45.11965" lon="4.28178">
        <ele>830.4</ele>
        <time>2021-08-12T09:30:03.000Z</time>
      </trkpt>
      <trkpt lat="45.11971" lon="4.28165">
        <ele>830.8</ele>
        <time>2021-08-12T09:30:05.000Z</time>
      </trkpt>
      <trkpt lat="45.11977" lon="4.28152">
        <ele>831.1</ele>
        <time>2021-08-12T09:30:07.000Z</time>
      </trkpt>
      <trkpt lat="45.11982" lon="4.28138">
        <ele>831.4</ele>
        <time>2021-08-12T09:30:09.000Z</time>
      </trkpt>
      <trkpt lat="45.11988" lon="4.28124">
        <ele>831.5</ele>
        <time>2021-08-12T09:30:11.000Z</time>
      </trkpt>
      <trkpt lat="45.11995" lon="4.28109">
        <ele>831.5</ele>
        <time>2021-08-12T09:30:13.000Z</time>
      </trkpt>
      <trkpt lat="45.12001" lon="4.28094">
        <ele>831.4</ele>
        <time>2021-08-12T09:30:15.000Z</time>
      </trkpt>
      <trkpt lat="45.12008" lon="4.2808">
        <ele>831.3</ele>
        <time>2021-08-12T09:30:17.000Z</time>
      </trkpt>
      <trkpt lat="45.12014" lon="4.28065">
        <ele>830.8</ele>
        <time>2021-08-12T09:30:19.000Z</time>
      </trkpt>
      <trkpt lat="45.12021" lon="4.2805">
        <ele>830.2</ele>
        <time>2021-08-12T09:30:21.000Z</time>
      </trkpt>
      <trkpt lat="45.12027" lon="4.28036">
        <ele>829.5</ele>
        <time>2021-08-12T09:30:23.000Z</time>
      </trkpt>
      <trkpt lat="45.12034" lon="4.28021">
        <ele>828.8</ele>
        <time>2021-08-12T09:30:25.000Z</time>
      </trkpt>
      <trkpt lat="45.1204" lon="4.28006">
        <ele>827.9</ele>
        <time>2021-08-12T09:30:27.000Z</time>
      </trkpt>
      <trkpt lat="45.12047" lon="4.27991">
        <ele>827.6</ele>
        <time>2021-08-12T09:30:29.000Z</time>
      </trkpt>
      <trkpt lat="45.12054" lon="4.27976">
        <ele>827.6</ele>
        <time>2021-08-12T09:30:31.000Z</time>
      </trkpt>
      <trkpt lat="45.1206" lon="4.27962">
        <ele>827.5</ele>
        <time>2021-08-12T09:30:33.000Z</time>
      </trkpt>
      <trkpt lat="45.12067" lon="4.27947">
        <ele>827.4</ele>
        <time>2021-08-12T09:30:35.000Z</time>
      </trkpt>
      <trkpt lat="45.12074" lon="4.27933">
        <ele>827.2</ele>
        <time>2021-08-12T09:30:37.000Z</time>
      </trkpt>
      <trkpt lat="45.12081" lon="4.27918">
        <ele>827</ele>
        <time>2021-08-12T09:30:39.000Z</time>
      </trkpt>
      <trkpt lat="45.12088" lon="4.27904">
        <ele>826.9</ele>
        <time>2021-08-12T09:30:41.000Z</time>
      </trkpt>
      <trkpt lat="45.12094" lon="4.27889">
        <ele>826.8</ele>
        <time>2021-08-12T09:30:43.000Z</time>
      </trkpt>
      <trkpt lat="45.12101" lon="4.27874">
        <ele>826.8</ele>
        <time>2021-08-12T09:30:45.000Z</time>
      </trkpt>
      <trkpt lat="45.12108" lon="4.2786">
        <ele>826.9</ele>
        <time>2021-08-12T09:30:47.000Z</time>
      </trkpt>
      <trkpt lat="45.12114" lon="4.27844">
        <ele>827.1</ele>
        <time>2021-08-12T09:30:49.000Z</time>
      </trkpt>
      <trkpt lat="45.1212" lon="4.2783">
        <ele>827.4</ele>
        <time>2021-08-12T09:30:51.000Z</time>
      </trkpt>
      <trkpt lat="45.12126" lon="4.27818">
        <ele>827.9</ele>
        <time>2021-08-12T09:30:53.000Z</time>
      </trkpt>
      <trkpt lat="45.12132" lon="4.27805">
        <ele>828.5</ele>
        <time>2021-08-12T09:30:55.000Z</time>
      </trkpt>
      <trkpt lat="45.12139" lon="4.27794">
        <ele>829.1</ele>
        <time>2021-08-12T09:30:57.000Z</time>
      </trkpt>
      <trkpt lat="45.12147" lon="4.27785">
        <ele>829.8</ele>
        <time>2021-08-12T09:30:59.000Z</time>
      </trkpt>
      <trkpt lat="45.12156" lon="4.27779">
        <ele>830.4</ele>
        <time>2021-08-12T09:31:01.000Z</time>
      </trkpt>
      <trkpt lat="45.12165" lon="4.27775">
        <ele>831</ele>
        <time>2021-08-12T09:31:03.000Z</time>
      </trkpt>
      <trkpt lat="45.12175" lon="4.27772">
        <ele>831.8</ele>
        <time>2021-08-12T09:31:05.000Z</time>
      </trkpt>
      <trkpt lat="45.12187" lon="4.27769">
        <ele>832.8</ele>
        <time>2021-08-12T09:31:08.000Z</time>
      </trkpt>
      <trkpt lat="45.12198" lon="4.27763">
        <ele>833.7</ele>
        <time>2021-08-12T09:31:11.000Z</time>
      </trkpt>
      <trkpt lat="45.12207" lon="4.27757">
        <ele>834.4</ele>
        <time>2021-08-12T09:31:14.000Z</time>
      </trkpt>
      <trkpt lat="45.12215" lon="4.27749">
        <ele>834.9</ele>
        <time>2021-08-12T09:31:18.000Z</time>
      </trkpt>
      <trkpt lat="45.12223" lon="4.2774">
        <ele>835.4</ele>
        <time>2021-08-12T09:31:22.000Z</time>
      </trkpt>
      <trkpt lat="45.12232" lon="4.27729">
        <ele>835.9</ele>
        <time>2021-08-12T09:31:26.000Z</time>
      </trkpt>
      <trkpt lat="45.1224" lon="4.27721">
        <ele>836.4</ele>
        <time>2021-08-12T09:31:29.000Z</time>
      </trkpt>
      <trkpt lat="45.12249" lon="4.27715">
        <ele>837</ele>
        <time>2021-08-12T09:31:33.000Z</time>
      </trkpt>
      <trkpt lat="45.1226" lon="4.27712">
        <ele>837.8</ele>
        <time>2021-08-12T09:31:37.000Z</time>
      </trkpt>
      <trkpt lat="45.1227" lon="4.27702">
        <ele>838.6</ele>
        <time>2021-08-12T09:31:41.000Z</time>
      </trkpt>
      <trkpt lat="45.12277" lon="4.27693">
        <ele>839.3</ele>
        <time>2021-08-12T09:31:44.000Z</time>
      </trkpt>
      <trkpt lat="45.12285" lon="4.27684">
        <ele>839.9</ele>
        <time>2021-08-12T09:31:47.000Z</time>
      </trkpt>
      <trkpt lat="45.12293" lon="4.27677">
        <ele>840.6</ele>
        <time>2021-08-12T09:31:50.000Z</time>
      </trkpt>
      <trkpt lat="45.12302" lon="4.2767">
        <ele>841.3</ele>
        <time>2021-08-12T09:31:53.000Z</time>
      </trkpt>
      <trkpt lat="45.12312" lon="4.27662">
        <ele>842.4</ele>
        <time>2021-08-12T09:31:57.000Z</time>
      </trkpt>
      <trkpt lat="45.1232" lon="4.27654">
        <ele>843.4</ele>
        <time>2021-08-12T09:32:00.000Z</time>
      </trkpt>
      <trkpt lat="45.12327" lon="4.27645">
        <ele>844.5</ele>
        <time>2021-08-12T09:32:03.000Z</time>
      </trkpt>
      <trkpt lat="45.12334" lon="4.27636">
        <ele>845.5</ele>
        <time>2021-08-12T09:32:06.000Z</time>
      </trkpt>
      <trkpt lat="45.12342" lon="4.27625">
        <ele>846.5</ele>
        <time>2021-08-12T09:32:10.000Z</time>
      </trkpt>
      <trkpt lat="45.12347" lon="4.27613">
        <ele>847.4</ele>
        <time>2021-08-12T09:32:14.000Z</time>
      </trkpt>
      <trkpt lat="45.12349" lon="4.276">
        <ele>848.3</ele>
        <time>2021-08-12T09:32:18.000Z</time>
      </trkpt>
      <trkpt lat="45.12352" lon="4.27584">
        <ele>849.4</ele>
        <time>2021-08-12T09:32:22.000Z</time>
      </trkpt>
      <trkpt lat="45.12357" lon="4.2757">
        <ele>849.8</ele>
        <time>2021-08-12T09:32:26.000Z</time>
      </trkpt>
      <trkpt lat="45.12364" lon="4.27557">
        <ele>850.4</ele>
        <time>2021-08-12T09:32:30.000Z</time>
      </trkpt>
      <trkpt lat="45.12371" lon="4.27548">
        <ele>851.1</ele>
        <time>2021-08-12T09:32:33.000Z</time>
      </trkpt>
      <trkpt lat="45.12379" lon="4.27537">
        <ele>851.9</ele>
        <time>2021-08-12T09:32:37.000Z</time>
      </trkpt>
      <trkpt lat="45.12387" lon="4.27528">
        <ele>852.7</ele>
        <time>2021-08-12T09:32:41.000Z</time>
      </trkpt>
      <trkpt lat="45.12394" lon="4.2752">
        <ele>853.5</ele>
        <time>2021-08-12T09:32:45.000Z</time>
      </trkpt>
      <trkpt lat="45.12402" lon="4.27513">
        <ele>854.4</ele>
        <time>2021-08-12T09:32:49.000Z</time>
      </trkpt>
      <trkpt lat="45.1241" lon="4.27507">
        <ele>855.2</ele>
        <time>2021-08-12T09:32:53.000Z</time>
      </trkpt>
      <trkpt lat="45.12419" lon="4.27498">
        <ele>856.2</ele>
        <time>2021-08-12T09:32:58.000Z</time>
      </trkpt>
      <trkpt lat="45.12427" lon="4.27493">
        <ele>856.7</ele>
        <time>2021-08-12T09:33:02.000Z</time>
      </trkpt>
      <trkpt lat="45.12437" lon="4.27493">
        <ele>857.4</ele>
        <time>2021-08-12T09:33:06.000Z</time>
      </trkpt>
      <trkpt lat="45.12447" lon="4.27492">
        <ele>858</ele>
        <time>2021-08-12T09:33:10.000Z</time>
      </trkpt>
      <trkpt lat="45.12457" lon="4.27492">
        <ele>858.7</ele>
        <time>2021-08-12T09:33:15.000Z</time>
      </trkpt>
      <trkpt lat="45.12467" lon="4.27491">
        <ele>859.2</ele>
        <time>2021-08-12T09:33:19.000Z</time>
      </trkpt>
      <trkpt lat="45.12476" lon="4.27491">
        <ele>859.8</ele>
        <time>2021-08-12T09:33:23.000Z</time>
      </trkpt>
      <trkpt lat="45.12486" lon="4.2749">
        <ele>860.5</ele>
        <time>2021-08-12T09:33:27.000Z</time>
      </trkpt>
      <trkpt lat="45.12497" lon="4.2749">
        <ele>861.2</ele>
        <time>2021-08-12T09:33:32.000Z</time>
      </trkpt>
      <trkpt lat="45.12507" lon="4.27489">
        <ele>861.9</ele>
        <time>2021-08-12T09:33:36.000Z</time>
      </trkpt>
      <trkpt lat="45.12518" lon="4.27488">
        <ele>862.7</ele>
        <time>2021-08-12T09:33:41.000Z</time>
      </trkpt>
      <trkpt lat="45.12529" lon="4.27486">
        <ele>863.5</ele>
        <time>2021-08-12T09:33:46.000Z</time>
      </trkpt>
      <trkpt lat="45.12538" lon="4.27485">
        <ele>864.2</ele>
        <time>2021-08-12T09:33:50.000Z</time>
      </trkpt>
      <trkpt lat="45.12548" lon="4.27479">
        <ele>865.1</ele>
        <time>2021-08-12T09:33:55.000Z</time>
      </trkpt>
      <trkpt lat="45.12555" lon="4.2747">
        <ele>865.8</ele>
        <time>2021-08-12T09:34:00.000Z</time>
      </trkpt>
      <trkpt lat="45.12562" lon="4.27461">
        <ele>866.5</ele>
        <time>2021-08-12T09:34:05.000Z</time>
      </trkpt>
      <trkpt lat="45.1257" lon="4.27451">
        <ele>867.3</ele>
        <time>2021-08-12T09:34:10.000Z</time>
      </trkpt>
      <trkpt lat="45.12577" lon="4.2744">
        <ele>868</ele>
        <time>2021-08-12T09:34:15.000Z</time>
      </trkpt>
      <trkpt lat="45.12585" lon="4.27431">
        <ele>868.8</ele>
        <time>2021-08-12T09:34:20.000Z</time>
      </trkpt>
      <trkpt lat="45.12594" lon="4.2742">
        <ele>869.4</ele>
        <time>2021-08-12T09:34:25.000Z</time>
      </trkpt>
      <trkpt lat="45.126" lon="4.27411">
        <ele>870.2</ele>
        <time>2021-08-12T09:34:29.000Z</time>
      </trkpt>
      <trkpt lat="45.12608" lon="4.27402">
        <ele>871.2</ele>
        <time>2021-08-12T09:34:34.000Z</time>
      </trkpt>
      <trkpt lat="45.12616" lon="4.27393">
        <ele>872.1</ele>
        <time>2021-08-12T09:34:39.000Z</time>
      </trkpt>
      <trkpt lat="45.12624" lon="4.27387">
        <ele>872.8</ele>
        <time>2021-08-12T09:34:44.000Z</time>
      </trkpt>
      <trkpt lat="45.12632" lon="4.27376">
        <ele>873.7</ele>
        <time>2021-08-12T09:34:50.000Z</time>
      </trkpt>
      <trkpt lat="45.12637" lon="4.27365">
        <ele>874.5</ele>
        <time>2021-08-12T09:34:55.000Z</time>
      </trkpt>
      <trkpt lat="45.12645" lon="4.27358">
        <ele>875.2</ele>
        <time>2021-08-12T09:35:01.000Z</time>
      </trkpt>
      <trkpt lat="45.12653" lon="4.27348">
        <ele>875.9</ele>
        <time>2021-08-12T09:35:08.000Z</time>
      </trkpt>
      <trkpt lat="45.1266" lon="4.27341">
        <ele>876.5</ele>
        <time>2021-08-12T09:35:13.000Z</time>
      </trkpt>
      <trkpt lat="45.12668" lon="4.27333">
        <ele>877.1</ele>
        <time>2021-08-12T09:35:18.000Z</time>
      </trkpt>
      <trkpt lat="45.12676" lon="4.27326">
        <ele>877.4</ele>
        <time>2021-08-12T09:35:24.000Z</time>
      </trkpt>
      <trkpt lat="45.12684" lon="4.27321">
        <ele>877.7</ele>
        <time>2021-08-12T09:35:29.000Z</time>
      </trkpt>
      <trkpt lat="45.12695" lon="4.27315">
        <ele>877.9</ele>
        <time>2021-08-12T09:35:34.000Z</time>
      </trkpt>
      <trkpt lat="45.12703" lon="4.2731">
        <ele>878</ele>
        <time>2021-08-12T09:35:40.000Z</time>
      </trkpt>
      <trkpt lat="45.12712" lon="4.27307">
        <ele>878.1</ele>
        <time>2021-08-12T09:35:44.000Z</time>
      </trkpt>
      <trkpt lat="45.12723" lon="4.27306">
        <ele>878</ele>
        <time>2021-08-12T09:35:48.000Z</time>
      </trkpt>
      <trkpt lat="45.12734" lon="4.27303">
        <ele>878</ele>
        <time>2021-08-12T09:35:52.000Z</time>
      </trkpt>
      <trkpt lat="45.12743" lon="4.273">
        <ele>877.9</ele>
        <time>2021-08-12T09:35:55.000Z</time>
      </trkpt>
      <trkpt lat="45.12754" lon="4.27298">
        <ele>877.8</ele>
        <time>2021-08-12T09:35:58.000Z</time>
      </trkpt>
      <trkpt lat="45.12763" lon="4.27296">
        <ele>877.8</ele>
        <time>2021-08-12T09:36:00.000Z</time>
      </trkpt>
      <trkpt lat="45.12772" lon="4.27293">
        <ele>877.8</ele>
        <time>2021-08-12T09:36:02.000Z</time>
      </trkpt>
      <trkpt lat="45.12781" lon="4.27292">
        <ele>877.8</ele>
        <time>2021-08-12T09:36:04.000Z</time>
      </trkpt>
      <trkpt lat="45.12792" lon="4.27288">
        <ele>877.9</ele>
        <time>2021-08-12T09:36:07.000Z</time>
      </trkpt>
      <trkpt lat="45.12803" lon="4.27283">
        <ele>878.1</ele>
        <time>2021-08-12T09:36:10.000Z</time>
      </trkpt>
      <trkpt lat="45.12812" lon="4.27278">
        <ele>878.4</ele>
        <time>2021-08-12T09:36:13.000Z</time>
      </trkpt>
      <trkpt lat="45.12823" lon="4.27272">
        <ele>878.7</ele>
        <time>2021-08-12T09:36:17.000Z</time>
      </trkpt>
      <trkpt lat="45.12833" lon="4.27264">
        <ele>879.2</ele>
        <time>2021-08-12T09:36:21.000Z</time>
      </trkpt>
      <trkpt lat="45.12835" lon="4.27249">
        <ele>880.1</ele>
        <time>2021-08-12T09:36:25.000Z</time>
      </trkpt>
      <trkpt lat="45.1283" lon="4.27236">
        <ele>881</ele>
        <time>2021-08-12T09:36:29.000Z</time>
      </trkpt>
      <trkpt lat="45.12826" lon="4.27222">
        <ele>882</ele>
        <time>2021-08-12T09:36:34.000Z</time>
      </trkpt>
      <trkpt lat="45.12822" lon="4.2721">
        <ele>882.8</ele>
        <time>2021-08-12T09:36:39.000Z</time>
      </trkpt>
      <trkpt lat="45.12819" lon="4.27197">
        <ele>883.8</ele>
        <time>2021-08-12T09:36:45.000Z</time>
      </trkpt>
      <trkpt lat="45.12813" lon="4.27185">
        <ele>884.6</ele>
        <time>2021-08-12T09:36:52.000Z</time>
      </trkpt>
      <trkpt lat="45.12809" lon="4.27173">
        <ele>885.6</ele>
        <time>2021-08-12T09:36:58.000Z</time>
      </trkpt>
      <trkpt lat="45.12805" lon="4.2716">
        <ele>886.6</ele>
        <time>2021-08-12T09:37:04.000Z</time>
      </trkpt>
      <trkpt lat="45.12802" lon="4.27148">
        <ele>887.9</ele>
        <time>2021-08-12T09:37:10.000Z</time>
      </trkpt>
      <trkpt lat="45.12795" lon="4.27139">
        <ele>888.9</ele>
        <time>2021-08-12T09:37:15.000Z</time>
      </trkpt>
      <trkpt lat="45.12788" lon="4.27129">
        <ele>889.9</ele>
        <time>2021-08-12T09:37:20.000Z</time>
      </trkpt>
      <trkpt lat="45.12782" lon="4.2712">
        <ele>891.1</ele>
        <time>2021-08-12T09:37:25.000Z</time>
      </trkpt>
      <trkpt lat="45.12774" lon="4.27112">
        <ele>892.3</ele>
        <time>2021-08-12T09:37:31.000Z</time>
      </trkpt>
      <trkpt lat="45.12765" lon="4.27105">
        <ele>893.4</ele>
        <time>2021-08-12T09:37:37.000Z</time>
      </trkpt>
      <trkpt lat="45.12756" lon="4.27097">
        <ele>895</ele>
        <time>2021-08-12T09:37:43.000Z</time>
      </trkpt>
      <trkpt lat="45.12747" lon="4.27089">
        <ele>896.5</ele>
        <time>2021-08-12T09:37:49.000Z</time>
      </trkpt>
      <trkpt lat="45.12738" lon="4.27084">
        <ele>897.7</ele>
        <time>2021-08-12T09:37:54.000Z</time>
      </trkpt>
      <trkpt lat="45.12729" lon="4.27077">
        <ele>899</ele>
        <time>2021-08-12T09:38:00.000Z</time>
      </trkpt>
      <trkpt lat="45.1272" lon="4.27068">
        <ele>900.6</ele>
        <time>2021-08-12T09:38:06.000Z</time>
      </trkpt>
      <trkpt lat="45.12713" lon="4.2706">
        <ele>902</ele>
        <time>2021-08-12T09:38:11.000Z</time>
      </trkpt>
      <trkpt lat="45.12705" lon="4.27051">
        <ele>903.2</ele>
        <time>2021-08-12T09:38:16.000Z</time>
      </trkpt>
      <trkpt lat="45.12697" lon="4.27042">
        <ele>904.4</ele>
        <time>2021-08-12T09:38:21.000Z</time>
      </trkpt>
      <trkpt lat="45.1269" lon="4.27032">
        <ele>905.7</ele>
        <time>2021-08-12T09:38:26.000Z</time>
      </trkpt>
      <trkpt lat="45.12683" lon="4.27022">
        <ele>906.8</ele>
        <time>2021-08-12T09:38:31.000Z</time>
      </trkpt>
      <trkpt lat="45.12677" lon="4.27011">
        <ele>907.9</ele>
        <time>2021-08-12T09:38:36.000Z</time>
      </trkpt>
      <trkpt lat="45.12671" lon="4.27">
        <ele>908.9</ele>
        <time>2021-08-12T09:38:41.000Z</time>
      </trkpt>
      <trkpt lat="45.12665" lon="4.26989">
        <ele>911</ele>
        <time>2021-08-12T09:38:46.000Z</time>
      </trkpt>
      <trkpt lat="45.12657" lon="4.26979">
        <ele>912.7</ele>
        <time>2021-08-12T09:38:52.000Z</time>
      </trkpt>
      <trkpt lat="45.1265" lon="4.26968">
        <ele>914.3</ele>
        <time>2021-08-12T09:38:58.000Z</time>
      </trkpt>
      <trkpt lat="45.12643" lon="4.26957">
        <ele>916</ele>
        <time>2021-08-12T09:39:04.000Z</time>
      </trkpt>
      <trkpt lat="45.12638" lon="4.26945">
        <ele>917.6</ele>
        <time>2021-08-12T09:39:09.000Z</time>
      </trkpt>
      <trkpt lat="45.12632" lon="4.26932">
        <ele>919.1</ele>
        <time>2021-08-12T09:39:14.000Z</time>
      </trkpt>
      <trkpt lat="45.12627" lon="4.26919">
        <ele>920.9</ele>
        <time>2021-08-12T09:39:19.000Z</time>
      </trkpt>
      <trkpt lat="45.12623" lon="4.26907">
        <ele>923</ele>
        <time>2021-08-12T09:39:23.000Z</time>
      </trkpt>
      <trkpt lat="45.12619" lon="4.26893">
        <ele>925.6</ele>
        <time>2021-08-12T09:39:27.000Z</time>
      </trkpt>
      <trkpt lat="45.12616" lon="4.26879">
        <ele>928.2</ele>
        <time>2021-08-12T09:39:31.000Z</time>
      </trkpt>
      <trkpt lat="45.12614" lon="4.26863">
        <ele>931</ele>
        <time>2021-08-12T09:39:35.000Z</time>
      </trkpt>
      <trkpt lat="45.12615" lon="4.26849">
        <ele>933.6</ele>
        <time>2021-08-12T09:39:39.000Z</time>
      </trkpt>
      <trkpt lat="45.12617" lon="4.26835">
        <ele>936.6</ele>
        <time>2021-08-12T09:39:44.000Z</time>
      </trkpt>
      <trkpt lat="45.12622" lon="4.26823">
        <ele>938.4</ele>
        <time>2021-08-12T09:39:49.000Z</time>
      </trkpt>
      <trkpt lat="45.12625" lon="4.2681">
        <ele>940</ele>
        <time>2021-08-12T09:39:54.000Z</time>
      </trkpt>
      <trkpt lat="45.12626" lon="4.26796">
        <ele>941.4</ele>
        <time>2021-08-12T09:39:59.000Z</time>
      </trkpt>
      <trkpt lat="45.12629" lon="4.26782">
        <ele>943.1</ele>
        <time>2021-08-12T09:40:04.000Z</time>
      </trkpt>
      <trkpt lat="45.12632" lon="4.26768">
        <ele>944.8</ele>
        <time>2021-08-12T09:40:09.000Z</time>
      </trkpt>
      <trkpt lat="45.12636" lon="4.26753">
        <ele>946.6</ele>
        <time>2021-08-12T09:40:14.000Z</time>
      </trkpt>
      <trkpt lat="45.12639" lon="4.26738">
        <ele>947.3</ele>
        <time>2021-08-12T09:40:19.000Z</time>
      </trkpt>
      <trkpt lat="45.12642" lon="4.26725">
        <ele>947.6</ele>
        <time>2021-08-12T09:40:24.000Z</time>
      </trkpt>
      <trkpt lat="45.12645" lon="4.2671">
        <ele>947.9</ele>
        <time>2021-08-12T09:40:29.000Z</time>
      </trkpt>
      <trkpt lat="45.12646" lon="4.26697">
        <ele>948.1</ele>
        <time>2021-08-12T09:40:33.000Z</time>
      </trkpt>
      <trkpt lat="45.12648" lon="4.26682">
        <ele>948.3</ele>
        <time>2021-08-12T09:40:38.000Z</time>
      </trkpt>
      <trkpt lat="45.12652" lon="4.26669">
        <ele>948.7</ele>
        <time>2021-08-12T09:40:43.000Z</time>
      </trkpt>
      <trkpt lat="45.12656" lon="4.26657">
        <ele>948.4</ele>
        <time>2021-08-12T09:40:47.000Z</time>
      </trkpt>
      <trkpt lat="45.12659" lon="4.26642">
        <ele>947.3</ele>
        <time>2021-08-12T09:40:51.000Z</time>
      </trkpt>
      <trkpt lat="45.12659" lon="4.26626">
        <ele>945.8</ele>
        <time>2021-08-12T09:40:55.000Z</time>
      </trkpt>
      <trkpt lat="45.12663" lon="4.26615">
        <ele>945</ele>
        <time>2021-08-12T09:40:58.000Z</time>
      </trkpt>
      <trkpt lat="45.1267" lon="4.266">
        <ele>944.4</ele>
        <time>2021-08-12T09:41:01.000Z</time>
      </trkpt>
      <trkpt lat="45.12674" lon="4.26589">
        <ele>943.8</ele>
        <time>2021-08-12T09:41:03.000Z</time>
      </trkpt>
      <trkpt lat="45.1268" lon="4.26571">
        <ele>941.7</ele>
        <time>2021-08-12T09:41:05.000Z</time>
      </trkpt>
      <trkpt lat="45.12685" lon="4.26556">
        <ele>939.9</ele>
        <time>2021-08-12T09:41:07.000Z</time>
      </trkpt>
      <trkpt lat="45.12693" lon="4.26542">
        <ele>938.3</ele>
        <time>2021-08-12T09:41:09.000Z</time>
      </trkpt>
      <trkpt lat="45.12707" lon="4.26527">
        <ele>937.1</ele>
        <time>2021-08-12T09:41:11.000Z</time>
      </trkpt>
      <trkpt lat="45.12719" lon="4.26512">
        <ele>935.8</ele>
        <time>2021-08-12T09:41:13.000Z</time>
      </trkpt>
      <trkpt lat="45.12729" lon="4.26495">
        <ele>933.5</ele>
        <time>2021-08-12T09:41:15.000Z</time>
      </trkpt>
      <trkpt lat="45.12736" lon="4.26476">
        <ele>930.4</ele>
        <time>2021-08-12T09:41:17.000Z</time>
      </trkpt>
      <trkpt lat="45.12743" lon="4.26457">
        <ele>927.5</ele>
        <time>2021-08-12T09:41:19.000Z</time>
      </trkpt>
      <trkpt lat="45.12751" lon="4.26438">
        <ele>924.3</ele>
        <time>2021-08-12T09:41:21.000Z</time>
      </trkpt>
      <trkpt lat="45.1276" lon="4.26418">
        <ele>920</ele>
        <time>2021-08-12T09:41:23.000Z</time>
      </trkpt>
      <trkpt lat="45.12766" lon="4.26408">
        <ele>918.4</ele>
        <time>2021-08-12T09:41:24.000Z</time>
      </trkpt>
      <trkpt lat="45.12772" lon="4.26398">
        <ele>916.5</ele>
        <time>2021-08-12T09:41:25.000Z</time>
      </trkpt>
      <trkpt lat="45.12778" lon="4.26387">
        <ele>914.5</ele>
        <time>2021-08-12T09:41:26.000Z</time>
      </trkpt>
      <trkpt lat="45.12784" lon="4.26377">
        <ele>912.4</ele>
        <time>2021-08-12T09:41:27.000Z</time>
      </trkpt>
      <trkpt lat="45.12794" lon="4.26359">
        <ele>908.7</ele>
        <time>2021-08-12T09:41:29.000Z</time>
      </trkpt>
      <trkpt lat="45.12802" lon="4.26344">
        <ele>905.6</ele>
        <time>2021-08-12T09:41:31.000Z</time>
      </trkpt>
      <trkpt lat="45.12809" lon="4.26331">
        <ele>902.8</ele>
        <time>2021-08-12T09:41:33.000Z</time>
      </trkpt>
      <trkpt lat="45.12818" lon="4.26316">
        <ele>901.2</ele>
        <time>2021-08-12T09:41:35.000Z</time>
      </trkpt>
      <trkpt lat="45.12827" lon="4.26297">
        <ele>899.2</ele>
        <time>2021-08-12T09:41:37.000Z</time>
      </trkpt>
      <trkpt lat="45.12837" lon="4.26277">
        <ele>896.8</ele>
        <time>2021-08-12T09:41:39.000Z</time>
      </trkpt>
      <trkpt lat="45.12843" lon="4.26267">
        <ele>895.4</ele>
        <time>2021-08-12T09:41:40.000Z</time>
      </trkpt>
      <trkpt lat="45.12847" lon="4.26256">
        <ele>894.2</ele>
        <time>2021-08-12T09:41:41.000Z</time>
      </trkpt>
      <trkpt lat="45.12856" lon="4.26234">
        <ele>892</ele>
        <time>2021-08-12T09:41:43.000Z</time>
      </trkpt>
      <trkpt lat="45.12863" lon="4.26211">
        <ele>890.2</ele>
        <time>2021-08-12T09:41:45.000Z</time>
      </trkpt>
      <trkpt lat="45.12867" lon="4.262">
        <ele>889.2</ele>
        <time>2021-08-12T09:41:46.000Z</time>
      </trkpt>
      <trkpt lat="45.12873" lon="4.26176">
        <ele>887.6</ele>
        <time>2021-08-12T09:41:48.000Z</time>
      </trkpt>
      <trkpt lat="45.12879" lon="4.26152">
        <ele>885.8</ele>
        <time>2021-08-12T09:41:50.000Z</time>
      </trkpt>
      <trkpt lat="45.12886" lon="4.2613">
        <ele>884</ele>
        <time>2021-08-12T09:41:52.000Z</time>
      </trkpt>
      <trkpt lat="45.12891" lon="4.26107">
        <ele>882.2</ele>
        <time>2021-08-12T09:41:54.000Z</time>
      </trkpt>
      <trkpt lat="45.12896" lon="4.26094">
        <ele>881.2</ele>
        <time>2021-08-12T09:41:55.000Z</time>
      </trkpt>
      <trkpt lat="45.12899" lon="4.26082">
        <ele>880.2</ele>
        <time>2021-08-12T09:41:56.000Z</time>
      </trkpt>
      <trkpt lat="45.12905" lon="4.26058">
        <ele>878.1</ele>
        <time>2021-08-12T09:41:58.000Z</time>
      </trkpt>
      <trkpt lat="45.1291" lon="4.26034">
        <ele>876</ele>
        <time>2021-08-12T09:42:00.000Z</time>
      </trkpt>
      <trkpt lat="45.12913" lon="4.26022">
        <ele>874.8</ele>
        <time>2021-08-12T09:42:01.000Z</time>
      </trkpt>
      <trkpt lat="45.12915" lon="4.25998">
        <ele>872.9</ele>
        <time>2021-08-12T09:42:03.000Z</time>
      </trkpt>
      <trkpt lat="45.12919" lon="4.25975">
        <ele>871.4</ele>
        <time>2021-08-12T09:42:05.000Z</time>
      </trkpt>
      <trkpt lat="45.12922" lon="4.25954">
        <ele>870.1</ele>
        <time>2021-08-12T09:42:07.000Z</time>
      </trkpt>
      <trkpt lat="45.12925" lon="4.25934">
        <ele>868.8</ele>
        <time>2021-08-12T09:42:09.000Z</time>
      </trkpt>
      <trkpt lat="45.12929" lon="4.25916">
        <ele>867.5</ele>
        <time>2021-08-12T09:42:11.000Z</time>
      </trkpt>
      <trkpt lat="45.12931" lon="4.25896">
        <ele>866.2</ele>
        <time>2021-08-12T09:42:13.000Z</time>
      </trkpt>
      <trkpt lat="45.12933" lon="4.25879">
        <ele>865.1</ele>
        <time>2021-08-12T09:42:15.000Z</time>
      </trkpt>
      <trkpt lat="45.12934" lon="4.25858">
        <ele>863.8</ele>
        <time>2021-08-12T09:42:17.000Z</time>
      </trkpt>
      <trkpt lat="45.12934" lon="4.25836">
        <ele>862.5</ele>
        <time>2021-08-12T09:42:19.000Z</time>
      </trkpt>
      <trkpt lat="45.12934" lon="4.25816">
        <ele>861.4</ele>
        <time>2021-08-12T09:42:21.000Z</time>
      </trkpt>
      <trkpt lat="45.12934" lon="4.25795">
        <ele>860.2</ele>
        <time>2021-08-12T09:42:23.000Z</time>
      </trkpt>
      <trkpt lat="45.1293" lon="4.25774">
        <ele>859.1</ele>
        <time>2021-08-12T09:42:25.000Z</time>
      </trkpt>
      <trkpt lat="45.12924" lon="4.25757">
        <ele>858.2</ele>
        <time>2021-08-12T09:42:27.000Z</time>
      </trkpt>
      <trkpt lat="45.12917" lon="4.25745">
        <ele>857.6</ele>
        <time>2021-08-12T09:42:29.000Z</time>
      </trkpt>
      <trkpt lat="45.1291" lon="4.25737">
        <ele>857.2</ele>
        <time>2021-08-12T09:42:31.000Z</time>
      </trkpt>
      <trkpt lat="45.12902" lon="4.25728">
        <ele>856.8</ele>
        <time>2021-08-12T09:42:33.000Z</time>
      </trkpt>
      <trkpt lat="45.12902" lon="4.2571">
        <ele>855.3</ele>
        <time>2021-08-12T09:42:36.000Z</time>
      </trkpt>
      <trkpt lat="45.12909" lon="4.25693">
        <ele>853.5</ele>
        <time>2021-08-12T09:42:38.000Z</time>
      </trkpt>
      <trkpt lat="45.12916" lon="4.25683">
        <ele>852.3</ele>
        <time>2021-08-12T09:42:40.000Z</time>
      </trkpt>
      <trkpt lat="45.12923" lon="4.25673">
        <ele>851.2</ele>
        <time>2021-08-12T09:42:42.000Z</time>
      </trkpt>
      <trkpt lat="45.12926" lon="4.25658">
        <ele>850.4</ele>
        <time>2021-08-12T09:42:45.000Z</time>
      </trkpt>
      <trkpt lat="45.12921" lon="4.25644">
        <ele>850</ele>
        <time>2021-08-12T09:42:48.000Z</time>
      </trkpt>
      <trkpt lat="45.12919" lon="4.2563">
        <ele>849.6</ele>
        <time>2021-08-12T09:42:50.000Z</time>
      </trkpt>
      <trkpt lat="45.12917" lon="4.25616">
        <ele>849.2</ele>
        <time>2021-08-12T09:42:52.000Z</time>
      </trkpt>
      <trkpt lat="45.12916" lon="4.25602">
        <ele>848.7</ele>
        <time>2021-08-12T09:42:54.000Z</time>
      </trkpt>
      <trkpt lat="45.12915" lon="4.25586">
        <ele>848.1</ele>
        <time>2021-08-12T09:42:57.000Z</time>
      </trkpt>
      <trkpt lat="45.12914" lon="4.25568">
        <ele>848.4</ele>
        <time>2021-08-12T09:43:00.000Z</time>
      </trkpt>
      <trkpt lat="45.12913" lon="4.25553">
        <ele>848.5</ele>
        <time>2021-08-12T09:43:02.000Z</time>
      </trkpt>
      <trkpt lat="45.12915" lon="4.25533">
        <ele>848.7</ele>
        <time>2021-08-12T09:43:04.000Z</time>
      </trkpt>
      <trkpt lat="45.12917" lon="4.25512">
        <ele>848.9</ele>
        <time>2021-08-12T09:43:06.000Z</time>
      </trkpt>
      <trkpt lat="45.12919" lon="4.25497">
        <ele>849.1</ele>
        <time>2021-08-12T09:43:08.000Z</time>
      </trkpt>
      <trkpt lat="45.12922" lon="4.25483">
        <ele>849.4</ele>
        <time>2021-08-12T09:43:10.000Z</time>
      </trkpt>
      <trkpt lat="45.12931" lon="4.25472">
        <ele>849.8</ele>
        <time>2021-08-12T09:43:13.000Z</time>
      </trkpt>
      <trkpt lat="45.12941" lon="4.25472">
        <ele>850.2</ele>
        <time>2021-08-12T09:43:15.000Z</time>
      </trkpt>
      <trkpt lat="45.12952" lon="4.25474">
        <ele>850.6</ele>
        <time>2021-08-12T09:43:18.000Z</time>
      </trkpt>
      <trkpt lat="45.12965" lon="4.25479">
        <ele>851</ele>
        <time>2021-08-12T09:43:21.000Z</time>
      </trkpt>
      <trkpt lat="45.12975" lon="4.25483">
        <ele>851.3</ele>
        <time>2021-08-12T09:43:23.000Z</time>
      </trkpt>
      <trkpt lat="45.12984" lon="4.25488">
        <ele>851.6</ele>
        <time>2021-08-12T09:43:25.000Z</time>
      </trkpt>
      <trkpt lat="45.12994" lon="4.25492">
        <ele>851.9</ele>
        <time>2021-08-12T09:43:27.000Z</time>
      </trkpt>
      <trkpt lat="45.13004" lon="4.25496">
        <ele>852.2</ele>
        <time>2021-08-12T09:43:29.000Z</time>
      </trkpt>
      <trkpt lat="45.13013" lon="4.25499">
        <ele>852.3</ele>
        <time>2021-08-12T09:43:31.000Z</time>
      </trkpt>
      <trkpt lat="45.13026" lon="4.25502">
        <ele>852.6</ele>
        <time>2021-08-12T09:43:34.000Z</time>
      </trkpt>
      <trkpt lat="45.13037" lon="4.25497">
        <ele>853</ele>
        <time>2021-08-12T09:43:37.000Z</time>
      </trkpt>
      <trkpt lat="45.13044" lon="4.25489">
        <ele>853.6</ele>
        <time>2021-08-12T09:43:40.000Z</time>
      </trkpt>
      <trkpt lat="45.13051" lon="4.25478">
        <ele>854.3</ele>
        <time>2021-08-12T09:43:44.000Z</time>
      </trkpt>
      <trkpt lat="45.13059" lon="4.25471">
        <ele>855</ele>
        <time>2021-08-12T09:43:47.000Z</time>
      </trkpt>
      <trkpt lat="45.13067" lon="4.25465">
        <ele>855.7</ele>
        <time>2021-08-12T09:43:50.000Z</time>
      </trkpt>
      <trkpt lat="45.13078" lon="4.25458">
        <ele>856.8</ele>
        <time>2021-08-12T09:43:54.000Z</time>
      </trkpt>
      <trkpt lat="45.13087" lon="4.25453">
        <ele>857.7</ele>
        <time>2021-08-12T09:43:58.000Z</time>
      </trkpt>
      <trkpt lat="45.13096" lon="4.25447">
        <ele>858.7</ele>
        <time>2021-08-12T09:44:02.000Z</time>
      </trkpt>
      <trkpt lat="45.13106" lon="4.25443">
        <ele>859.7</ele>
        <time>2021-08-12T09:44:06.000Z</time>
      </trkpt>
      <trkpt lat="45.13117" lon="4.25438">
        <ele>860.7</ele>
        <time>2021-08-12T09:44:10.000Z</time>
      </trkpt>
      <trkpt lat="45.13128" lon="4.25435">
        <ele>861.6</ele>
        <time>2021-08-12T09:44:15.000Z</time>
      </trkpt>
      <trkpt lat="45.13138" lon="4.25435">
        <ele>862.3</ele>
        <time>2021-08-12T09:44:19.000Z</time>
      </trkpt>
      <trkpt lat="45.13149" lon="4.25434">
        <ele>863</ele>
        <time>2021-08-12T09:44:23.000Z</time>
      </trkpt>
      <trkpt lat="45.1316" lon="4.25429">
        <ele>864</ele>
        <time>2021-08-12T09:44:27.000Z</time>
      </trkpt>
      <trkpt lat="45.13169" lon="4.25424">
        <ele>864.8</ele>
        <time>2021-08-12T09:44:31.000Z</time>
      </trkpt>
      <trkpt lat="45.13179" lon="4.2542">
        <ele>865.3</ele>
        <time>2021-08-12T09:44:35.000Z</time>
      </trkpt>
      <trkpt lat="45.13189" lon="4.25415">
        <ele>865.9</ele>
        <time>2021-08-12T09:44:39.000Z</time>
      </trkpt>
      <trkpt lat="45.13199" lon="4.25408">
        <ele>866.4</ele>
        <time>2021-08-12T09:44:43.000Z</time>
      </trkpt>
      <trkpt lat="45.13207" lon="4.25397">
        <ele>866.9</ele>
        <time>2021-08-12T09:44:47.000Z</time>
      </trkpt>
      <trkpt lat="45.13215" lon="4.25386">
        <ele>867.4</ele>
        <time>2021-08-12T09:44:51.000Z</time>
      </trkpt>
      <trkpt lat="45.13223" lon="4.25377">
        <ele>867.8</ele>
        <time>2021-08-12T09:44:55.000Z</time>
      </trkpt>
      <trkpt lat="45.1323" lon="4.25366">
        <ele>868.2</ele>
        <time>2021-08-12T09:44:59.000Z</time>
      </trkpt>
      <trkpt lat="45.1324" lon="4.25356">
        <ele>868.5</ele>
        <time>2021-08-12T09:45:03.000Z</time>
      </trkpt>
      <trkpt lat="45.13247" lon="4.25348">
        <ele>868.8</ele>
        <time>2021-08-12T09:45:06.000Z</time>
      </trkpt>
      <trkpt lat="45.13256" lon="4.25338">
        <ele>869.1</ele>
        <time>2021-08-12T09:45:10.000Z</time>
      </trkpt>
      <trkpt lat="45.13265" lon="4.25333">
        <ele>869.4</ele>
        <time>2021-08-12T09:45:13.000Z</time>
      </trkpt>
      <trkpt lat="45.13275" lon="4.25327">
        <ele>869.7</ele>
        <time>2021-08-12T09:45:17.000Z</time>
      </trkpt>
      <trkpt lat="45.13286" lon="4.25322">
        <ele>870</ele>
        <time>2021-08-12T09:45:21.000Z</time>
      </trkpt>
      <trkpt lat="45.13295" lon="4.25321">
        <ele>870.2</ele>
        <time>2021-08-12T09:45:24.000Z</time>
      </trkpt>
      <trkpt lat="45.13307" lon="4.25323">
        <ele>870.5</ele>
        <time>2021-08-12T09:45:28.000Z</time>
      </trkpt>
      <trkpt lat="45.13316" lon="4.25327">
        <ele>870.7</ele>
        <time>2021-08-12T09:45:32.000Z</time>
      </trkpt>
      <trkpt lat="45.13326" lon="4.25331">
        <ele>870.9</ele>
        <time>2021-08-12T09:45:36.000Z</time>
      </trkpt>
      <trkpt lat="45.13336" lon="4.25335">
        <ele>870.8</ele>
        <time>2021-08-12T09:45:40.000Z</time>
      </trkpt>
      <trkpt lat="45.13343" lon="4.25346">
        <ele>870</ele>
        <time>2021-08-12T09:45:45.000Z</time>
      </trkpt>
      <trkpt lat="45.13344" lon="4.25362">
        <ele>869</ele>
        <time>2021-08-12T09:45:48.000Z</time>
      </trkpt>
      <trkpt lat="45.13344" lon="4.25376">
        <ele>868.3</ele>
        <time>2021-08-12T09:45:51.000Z</time>
      </trkpt>
      <trkpt lat="45.13341" lon="4.25389">
        <ele>867.5</ele>
        <time>2021-08-12T09:45:54.000Z</time>
      </trkpt>
      <trkpt lat="45.13337" lon="4.254">
        <ele>867</ele>
        <time>2021-08-12T09:45:57.000Z</time>
      </trkpt>
      <trkpt lat="45.13323" lon="4.25419">
        <ele>866.2</ele>
        <time>2021-08-12T09:46:01.000Z</time>
      </trkpt>
      <trkpt lat="45.13317" lon="4.25433">
        <ele>865.3</ele>
        <time>2021-08-12T09:46:03.000Z</time>
      </trkpt>
      <trkpt lat="45.13315" lon="4.2545">
        <ele>864.2</ele>
        <time>2021-08-12T09:46:05.000Z</time>
      </trkpt>
      <trkpt lat="45.13315" lon="4.25465">
        <ele>863.1</ele>
        <time>2021-08-12T09:46:07.000Z</time>
      </trkpt>
      <trkpt lat="45.13315" lon="4.25482">
        <ele>861.9</ele>
        <time>2021-08-12T09:46:09.000Z</time>
      </trkpt>
      <trkpt lat="45.13315" lon="4.25498">
        <ele>860.8</ele>
        <time>2021-08-12T09:46:11.000Z</time>
      </trkpt>
      <trkpt lat="45.13315" lon="4.25516">
        <ele>859</ele>
        <time>2021-08-12T09:46:13.000Z</time>
      </trkpt>
      <trkpt lat="45.13315" lon="4.25532">
        <ele>857.1</ele>
        <time>2021-08-12T09:46:15.000Z</time>
      </trkpt>
      <trkpt lat="45.13314" lon="4.25555">
        <ele>854.8</ele>
        <time>2021-08-12T09:46:17.000Z</time>
      </trkpt>
      <trkpt lat="45.13314" lon="4.25578">
        <ele>852.3</ele>
        <time>2021-08-12T09:46:19.000Z</time>
      </trkpt>
      <trkpt lat="45.13317" lon="4.25602">
        <ele>850.9</ele>
        <time>2021-08-12T09:46:21.000Z</time>
      </trkpt>
      <trkpt lat="45.13321" lon="4.25624">
        <ele>850.1</ele>
        <time>2021-08-12T09:46:23.000Z</time>
      </trkpt>
      <trkpt lat="45.13327" lon="4.25642">
        <ele>849.6</ele>
        <time>2021-08-12T09:46:25.000Z</time>
      </trkpt>
      <trkpt lat="45.13332" lon="4.25657">
        <ele>849.2</ele>
        <time>2021-08-12T09:46:27.000Z</time>
      </trkpt>
      <trkpt lat="45.13337" lon="4.2567">
        <ele>849.3</ele>
        <time>2021-08-12T09:46:29.000Z</time>
      </trkpt>
      <trkpt lat="45.13341" lon="4.25681">
        <ele>850.1</ele>
        <time>2021-08-12T09:46:31.000Z</time>
      </trkpt>
      <trkpt lat="45.13346" lon="4.25695">
        <ele>851.2</ele>
        <time>2021-08-12T09:46:34.000Z</time>
      </trkpt>
      <trkpt lat="45.13347" lon="4.25709">
        <ele>852.1</ele>
        <time>2021-08-12T09:46:38.000Z</time>
      </trkpt>
      <trkpt lat="45.13345" lon="4.25721">
        <ele>852.6</ele>
        <time>2021-08-12T09:46:43.000Z</time>
      </trkpt>
      <trkpt lat="45.13342" lon="4.25735">
        <ele>853.1</ele>
        <time>2021-08-12T09:46:48.000Z</time>
      </trkpt>
      <trkpt lat="45.13338" lon="4.25749">
        <ele>853.5</ele>
        <time>2021-08-12T09:46:53.000Z</time>
      </trkpt>
      <trkpt lat="45.13331" lon="4.25758">
        <ele>853.8</ele>
        <time>2021-08-12T09:47:00.000Z</time>
      </trkpt>
      <trkpt lat="45.13323" lon="4.25763">
        <ele>854</ele>
        <time>2021-08-12T09:47:06.000Z</time>
      </trkpt>
      <trkpt lat="45.13319" lon="4.25775">
        <ele>855.2</ele>
        <time>2021-08-12T09:47:17.000Z</time>
      </trkpt>
      <trkpt lat="45.13321" lon="4.25787">
        <ele>856.6</ele>
        <time>2021-08-12T09:47:32.000Z</time>
      </trkpt>
      <trkpt lat="45.13328" lon="4.25796">
        <ele>858.1</ele>
        <time>2021-08-12T09:47:42.000Z</time>
      </trkpt>
      <trkpt lat="45.13333" lon="4.25807">
        <ele>859.7</ele>
        <time>2021-08-12T09:47:53.000Z</time>
      </trkpt>
      <trkpt lat="45.13336" lon="4.2582">
        <ele>861.6</ele>
        <time>2021-08-12T09:48:08.000Z</time>
      </trkpt>
      <trkpt lat="45.13338" lon="4.25835">
        <ele>863.3</ele>
        <time>2021-08-12T09:48:16.000Z</time>
      </trkpt>
      <trkpt lat="45.13338" lon="4.25849">
        <ele>864.3</ele>
        <time>2021-08-12T09:48:22.000Z</time>
      </trkpt>
      <trkpt lat="45.13335" lon="4.25863">
        <ele>865.1</ele>
        <time>2021-08-12T09:48:29.000Z</time>
      </trkpt>
      <trkpt lat="45.13332" lon="4.25875">
        <ele>865.9</ele>
        <time>2021-08-12T09:48:35.000Z</time>
      </trkpt>
      <trkpt lat="45.1333" lon="4.25889">
        <ele>866.8</ele>
        <time>2021-08-12T09:48:43.000Z</time>
      </trkpt>
      <trkpt lat="45.13329" lon="4.25902">
        <ele>867.9</ele>
        <time>2021-08-12T09:48:51.000Z</time>
      </trkpt>
      <trkpt lat="45.13329" lon="4.25917">
        <ele>869</ele>
        <time>2021-08-12T09:48:59.000Z</time>
      </trkpt>
      <trkpt lat="45.13328" lon="4.2593">
        <ele>869.4</ele>
        <time>2021-08-12T09:49:07.000Z</time>
      </trkpt>
      <trkpt lat="45.13327" lon="4.25943">
        <ele>869.9</ele>
        <time>2021-08-12T09:49:14.000Z</time>
      </trkpt>
      <trkpt lat="45.13327" lon="4.25956">
        <ele>870.4</ele>
        <time>2021-08-12T09:49:22.000Z</time>
      </trkpt>
      <trkpt lat="45.13337" lon="4.25962">
        <ele>870.6</ele>
        <time>2021-08-12T09:49:29.000Z</time>
      </trkpt>
      <trkpt lat="45.13348" lon="4.2596">
        <ele>870.5</ele>
        <time>2021-08-12T09:49:34.000Z</time>
      </trkpt>
      <trkpt lat="45.1336" lon="4.25955">
        <ele>870.2</ele>
        <time>2021-08-12T09:49:38.000Z</time>
      </trkpt>
      <trkpt lat="45.13371" lon="4.25952">
        <ele>870.1</ele>
        <time>2021-08-12T09:49:42.000Z</time>
      </trkpt>
      <trkpt lat="45.13382" lon="4.25949">
        <ele>869.9</ele>
        <time>2021-08-12T09:49:45.000Z</time>
      </trkpt>
      <trkpt lat="45.13394" lon="4.25946">
        <ele>869.8</ele>
        <time>2021-08-12T09:49:48.000Z</time>
      </trkpt>
      <trkpt lat="45.13407" lon="4.25942">
        <ele>869.6</ele>
        <time>2021-08-12T09:49:51.000Z</time>
      </trkpt>
      <trkpt lat="45.13417" lon="4.25938">
        <ele>869.5</ele>
        <time>2021-08-12T09:49:53.000Z</time>
      </trkpt>
      <trkpt lat="45.13427" lon="4.25933">
        <ele>869.3</ele>
        <time>2021-08-12T09:49:55.000Z</time>
      </trkpt>
      <trkpt lat="45.1344" lon="4.2593">
        <ele>869.1</ele>
        <time>2021-08-12T09:49:57.000Z</time>
      </trkpt>
      <trkpt lat="45.13452" lon="4.25931">
        <ele>869</ele>
        <time>2021-08-12T09:49:59.000Z</time>
      </trkpt>
      <trkpt lat="45.13466" lon="4.25936">
        <ele>868.8</ele>
        <time>2021-08-12T09:50:01.000Z</time>
      </trkpt>
      <trkpt lat="45.13479" lon="4.25944">
        <ele>868.5</ele>
        <time>2021-08-12T09:50:03.000Z</time>
      </trkpt>
      <trkpt lat="45.13491" lon="4.25955">
        <ele>867.9</ele>
        <time>2021-08-12T09:50:05.000Z</time>
      </trkpt>
      <trkpt lat="45.13505" lon="4.25965">
        <ele>867</ele>
        <time>2021-08-12T09:50:07.000Z</time>
      </trkpt>
      <trkpt lat="45.1352" lon="4.25974">
        <ele>865.7</ele>
        <time>2021-08-12T09:50:09.000Z</time>
      </trkpt>
      <trkpt lat="45.13536" lon="4.25979">
        <ele>864.3</ele>
        <time>2021-08-12T09:50:11.000Z</time>
      </trkpt>
      <trkpt lat="45.13551" lon="4.25984">
        <ele>862.9</ele>
        <time>2021-08-12T09:50:13.000Z</time>
      </trkpt>
      <trkpt lat="45.13566" lon="4.25988">
        <ele>861.5</ele>
        <time>2021-08-12T09:50:15.000Z</time>
      </trkpt>
      <trkpt lat="45.13581" lon="4.25995">
        <ele>859.7</ele>
        <time>2021-08-12T09:50:17.000Z</time>
      </trkpt>
      <trkpt lat="45.13595" lon="4.26003">
        <ele>858.4</ele>
        <time>2021-08-12T09:50:19.000Z</time>
      </trkpt>
      <trkpt lat="45.13609" lon="4.26011">
        <ele>857.8</ele>
        <time>2021-08-12T09:50:21.000Z</time>
      </trkpt>
      <trkpt lat="45.13621" lon="4.2602">
        <ele>857.2</ele>
        <time>2021-08-12T09:50:23.000Z</time>
      </trkpt>
      <trkpt lat="45.13632" lon="4.26026">
        <ele>856.3</ele>
        <time>2021-08-12T09:50:25.000Z</time>
      </trkpt>
      <trkpt lat="45.13644" lon="4.26034">
        <ele>855.2</ele>
        <time>2021-08-12T09:50:27.000Z</time>
      </trkpt>
      <trkpt lat="45.13652" lon="4.26041">
        <ele>854.3</ele>
        <time>2021-08-12T09:50:29.000Z</time>
      </trkpt>
      <trkpt lat="45.13664" lon="4.2605">
        <ele>852.7</ele>
        <time>2021-08-12T09:50:31.000Z</time>
      </trkpt>
      <trkpt lat="45.13678" lon="4.26062">
        <ele>852</ele>
        <time>2021-08-12T09:50:33.000Z</time>
      </trkpt>
      <trkpt lat="45.13692" lon="4.26073">
        <ele>851.4</ele>
        <time>2021-08-12T09:50:35.000Z</time>
      </trkpt>
      <trkpt lat="45.13705" lon="4.26084">
        <ele>850.6</ele>
        <time>2021-08-12T09:50:37.000Z</time>
      </trkpt>
      <trkpt lat="45.13719" lon="4.26096">
        <ele>850.8</ele>
        <time>2021-08-12T09:50:39.000Z</time>
      </trkpt>
      <trkpt lat="45.13733" lon="4.26106">
        <ele>850.7</ele>
        <time>2021-08-12T09:50:41.000Z</time>
      </trkpt>
      <trkpt lat="45.13747" lon="4.26117">
        <ele>850.4</ele>
        <time>2021-08-12T09:50:43.000Z</time>
      </trkpt>
      <trkpt lat="45.1376" lon="4.26131">
        <ele>850.3</ele>
        <time>2021-08-12T09:50:45.000Z</time>
      </trkpt>
      <trkpt lat="45.13772" lon="4.26145">
        <ele>850.4</ele>
        <time>2021-08-12T09:50:47.000Z</time>
      </trkpt>
      <trkpt lat="45.13785" lon="4.26161">
        <ele>850.6</ele>
        <time>2021-08-12T09:50:49.000Z</time>
      </trkpt>
      <trkpt lat="45.13797" lon="4.26176">
        <ele>851.4</ele>
        <time>2021-08-12T09:50:51.000Z</time>
      </trkpt>
      <trkpt lat="45.1381" lon="4.26189">
        <ele>852.4</ele>
        <time>2021-08-12T09:50:53.000Z</time>
      </trkpt>
      <trkpt lat="45.13823" lon="4.26201">
        <ele>853.5</ele>
        <time>2021-08-12T09:50:55.000Z</time>
      </trkpt>
      <trkpt lat="45.13835" lon="4.26213">
        <ele>854.6</ele>
        <time>2021-08-12T09:50:57.000Z</time>
      </trkpt>
      <trkpt lat="45.13847" lon="4.26225">
        <ele>856.7</ele>
        <time>2021-08-12T09:50:59.000Z</time>
      </trkpt>
      <trkpt lat="45.13859" lon="4.2624">
        <ele>858.8</ele>
        <time>2021-08-12T09:51:01.000Z</time>
      </trkpt>
      <trkpt lat="45.13872" lon="4.2625">
        <ele>860.4</ele>
        <time>2021-08-12T09:51:03.000Z</time>
      </trkpt>
      <trkpt lat="45.13883" lon="4.26261">
        <ele>861</ele>
        <time>2021-08-12T09:51:05.000Z</time>
      </trkpt>
      <trkpt lat="45.13893" lon="4.26275">
        <ele>861.4</ele>
        <time>2021-08-12T09:51:07.000Z</time>
      </trkpt>
      <trkpt lat="45.13898" lon="4.26292">
        <ele>861.5</ele>
        <time>2021-08-12T09:51:09.000Z</time>
      </trkpt>
      <trkpt lat="45.13905" lon="4.26303">
        <ele>861.5</ele>
        <time>2021-08-12T09:51:11.000Z</time>
      </trkpt>
      <trkpt lat="45.13912" lon="4.26314">
        <ele>861.3</ele>
        <time>2021-08-12T09:51:13.000Z</time>
      </trkpt>
      <trkpt lat="45.13918" lon="4.26324">
        <ele>861.1</ele>
        <time>2021-08-12T09:51:15.000Z</time>
      </trkpt>
      <trkpt lat="45.1393" lon="4.26333">
        <ele>860.3</ele>
        <time>2021-08-12T09:51:17.000Z</time>
      </trkpt>
      <trkpt lat="45.13941" lon="4.26341">
        <ele>859</ele>
        <time>2021-08-12T09:51:19.000Z</time>
      </trkpt>
      <trkpt lat="45.1395" lon="4.26354">
        <ele>857.2</ele>
        <time>2021-08-12T09:51:21.000Z</time>
      </trkpt>
      <trkpt lat="45.13956" lon="4.2637">
        <ele>855.6</ele>
        <time>2021-08-12T09:51:23.000Z</time>
      </trkpt>
      <trkpt lat="45.13962" lon="4.26386">
        <ele>853.5</ele>
        <time>2021-08-12T09:51:25.000Z</time>
      </trkpt>
      <trkpt lat="45.13968" lon="4.26396">
        <ele>852</ele>
        <time>2021-08-12T09:51:26.000Z</time>
      </trkpt>
      <trkpt lat="45.13972" lon="4.26408">
        <ele>850.5</ele>
        <time>2021-08-12T09:51:27.000Z</time>
      </trkpt>
      <trkpt lat="45.13976" lon="4.2642">
        <ele>849.2</ele>
        <time>2021-08-12T09:51:28.000Z</time>
      </trkpt>
      <trkpt lat="45.13982" lon="4.26433">
        <ele>848.2</ele>
        <time>2021-08-12T09:51:29.000Z</time>
      </trkpt>
      <trkpt lat="45.1399" lon="4.26445">
        <ele>847.3</ele>
        <time>2021-08-12T09:51:30.000Z</time>
      </trkpt>
      <trkpt lat="45.13998" lon="4.26457">
        <ele>846.6</ele>
        <time>2021-08-12T09:51:31.000Z</time>
      </trkpt>
      <trkpt lat="45.14006" lon="4.26468">
        <ele>846.2</ele>
        <time>2021-08-12T09:51:32.000Z</time>
      </trkpt>
      <trkpt lat="45.14014" lon="4.26478">
        <ele>846.1</ele>
        <time>2021-08-12T09:51:33.000Z</time>
      </trkpt>
      <trkpt lat="45.14027" lon="4.26497">
        <ele>846.3</ele>
        <time>2021-08-12T09:51:35.000Z</time>
      </trkpt>
      <trkpt lat="45.14034" lon="4.26506">
        <ele>846.2</ele>
        <time>2021-08-12T09:51:36.000Z</time>
      </trkpt>
      <trkpt lat="45.1404" lon="4.26515">
        <ele>845.9</ele>
        <time>2021-08-12T09:51:37.000Z</time>
      </trkpt>
      <trkpt lat="45.14048" lon="4.26523">
        <ele>845.9</ele>
        <time>2021-08-12T09:51:38.000Z</time>
      </trkpt>
      <trkpt lat="45.14062" lon="4.2654">
        <ele>846</ele>
        <time>2021-08-12T09:51:40.000Z</time>
      </trkpt>
      <trkpt lat="45.14075" lon="4.26555">
        <ele>846.5</ele>
        <time>2021-08-12T09:51:42.000Z</time>
      </trkpt>
      <trkpt lat="45.14084" lon="4.26572">
        <ele>846.9</ele>
        <time>2021-08-12T09:51:44.000Z</time>
      </trkpt>
      <trkpt lat="45.14093" lon="4.26586">
        <ele>845.6</ele>
        <time>2021-08-12T09:51:46.000Z</time>
      </trkpt>
      <trkpt lat="45.14103" lon="4.26596">
        <ele>843.4</ele>
        <time>2021-08-12T09:51:48.000Z</time>
      </trkpt>
      <trkpt lat="45.14116" lon="4.26606">
        <ele>841.2</ele>
        <time>2021-08-12T09:51:50.000Z</time>
      </trkpt>
      <trkpt lat="45.14127" lon="4.26618">
        <ele>839.2</ele>
        <time>2021-08-12T09:51:52.000Z</time>
      </trkpt>
      <trkpt lat="45.14135" lon="4.26628">
        <ele>837.8</ele>
        <time>2021-08-12T09:51:54.000Z</time>
      </trkpt>
      <trkpt lat="45.14146" lon="4.26636">
        <ele>836.5</ele>
        <time>2021-08-12T09:51:56.000Z</time>
      </trkpt>
      <trkpt lat="45.14161" lon="4.26641">
        <ele>835.3</ele>
        <time>2021-08-12T09:51:58.000Z</time>
      </trkpt>
      <trkpt lat="45.14173" lon="4.26645">
        <ele>834.5</ele>
        <time>2021-08-12T09:52:00.000Z</time>
      </trkpt>
      <trkpt lat="45.14186" lon="4.2664">
        <ele>834</ele>
        <time>2021-08-12T09:52:02.000Z</time>
      </trkpt>
      <trkpt lat="45.14198" lon="4.26637">
        <ele>833.5</ele>
        <time>2021-08-12T09:52:04.000Z</time>
      </trkpt>
      <trkpt lat="45.14212" lon="4.26637">
        <ele>832.7</ele>
        <time>2021-08-12T09:52:06.000Z</time>
      </trkpt>
      <trkpt lat="45.14228" lon="4.26642">
        <ele>831.7</ele>
        <time>2021-08-12T09:52:08.000Z</time>
      </trkpt>
      <trkpt lat="45.14243" lon="4.2665">
        <ele>830.8</ele>
        <time>2021-08-12T09:52:10.000Z</time>
      </trkpt>
      <trkpt lat="45.14258" lon="4.26656">
        <ele>829.8</ele>
        <time>2021-08-12T09:52:12.000Z</time>
      </trkpt>
      <trkpt lat="45.14273" lon="4.26662">
        <ele>828.8</ele>
        <time>2021-08-12T09:52:14.000Z</time>
      </trkpt>
      <trkpt lat="45.14281" lon="4.26668">
        <ele>827.9</ele>
        <time>2021-08-12T09:52:16.000Z</time>
      </trkpt>
      <trkpt lat="45.14289" lon="4.26658">
        <ele>827.9</ele>
        <time>2021-08-12T09:52:20.000Z</time>
      </trkpt>
      <trkpt lat="45.14287" lon="4.26645">
        <ele>828.5</ele>
        <time>2021-08-12T09:52:23.000Z</time>
      </trkpt>
      <trkpt lat="45.14285" lon="4.26632">
        <ele>828.9</ele>
        <time>2021-08-12T09:52:26.000Z</time>
      </trkpt>
      <trkpt lat="45.14282" lon="4.2662">
        <ele>829.4</ele>
        <time>2021-08-12T09:52:29.000Z</time>
      </trkpt>
      <trkpt lat="45.14277" lon="4.26605">
        <ele>830.1</ele>
        <time>2021-08-12T09:52:33.000Z</time>
      </trkpt>
      <trkpt lat="45.14274" lon="4.26591">
        <ele>830.7</ele>
        <time>2021-08-12T09:52:37.000Z</time>
      </trkpt>
      <trkpt lat="45.14276" lon="4.26576">
        <ele>830.5</ele>
        <time>2021-08-12T09:52:42.000Z</time>
      </trkpt>
      <trkpt lat="45.14279" lon="4.26562">
        <ele>830</ele>
        <time>2021-08-12T09:52:46.000Z</time>
      </trkpt>
      <trkpt lat="45.14284" lon="4.26546">
        <ele>829.3</ele>
        <time>2021-08-12T09:52:50.000Z</time>
      </trkpt>
      <trkpt lat="45.14282" lon="4.26531">
        <ele>828.9</ele>
        <time>2021-08-12T09:52:53.000Z</time>
      </trkpt>
      <trkpt lat="45.14278" lon="4.26512">
        <ele>828.6</ele>
        <time>2021-08-12T09:52:56.000Z</time>
      </trkpt>
      <trkpt lat="45.14275" lon="4.26496">
        <ele>828.2</ele>
        <time>2021-08-12T09:52:59.000Z</time>
      </trkpt>
      <trkpt lat="45.14272" lon="4.26484">
        <ele>827.5</ele>
        <time>2021-08-12T09:53:01.000Z</time>
      </trkpt>
      <trkpt lat="45.14269" lon="4.26466">
        <ele>826.4</ele>
        <time>2021-08-12T09:53:04.000Z</time>
      </trkpt>
      <trkpt lat="45.14265" lon="4.26448">
        <ele>825.5</ele>
        <time>2021-08-12T09:53:06.000Z</time>
      </trkpt>
      <trkpt lat="45.14261" lon="4.26434">
        <ele>825</ele>
        <time>2021-08-12T09:53:08.000Z</time>
      </trkpt>
      <trkpt lat="45.14259" lon="4.26421">
        <ele>824.4</ele>
        <time>2021-08-12T09:53:11.000Z</time>
      </trkpt>
      <trkpt lat="45.14257" lon="4.26408">
        <ele>823.9</ele>
        <time>2021-08-12T09:53:14.000Z</time>
      </trkpt>
      <trkpt lat="45.14256" lon="4.26396">
        <ele>823.3</ele>
        <time>2021-08-12T09:53:17.000Z</time>
      </trkpt>
      <trkpt lat="45.14256" lon="4.26382">
        <ele>822.6</ele>
        <time>2021-08-12T09:53:23.000Z</time>
      </trkpt>
      <trkpt lat="45.14254" lon="4.26369">
        <ele>822</ele>
        <time>2021-08-12T09:53:27.000Z</time>
      </trkpt>
      <trkpt lat="45.14254" lon="4.26355">
        <ele>821.2</ele>
        <time>2021-08-12T09:53:32.000Z</time>
      </trkpt>
      <trkpt lat="45.14253" lon="4.2634">
        <ele>820.4</ele>
        <time>2021-08-12T09:53:37.000Z</time>
      </trkpt>
      <trkpt lat="45.1425" lon="4.26327">
        <ele>820</ele>
        <time>2021-08-12T09:53:41.000Z</time>
      </trkpt>
      <trkpt lat="45.1425" lon="4.26315">
        <ele>820.1</ele>
        <time>2021-08-12T09:53:44.000Z</time>
      </trkpt>
      <trkpt lat="45.14248" lon="4.26296">
        <ele>820.5</ele>
        <time>2021-08-12T09:53:48.000Z</time>
      </trkpt>
      <trkpt lat="45.14248" lon="4.26281">
        <ele>820.5</ele>
        <time>2021-08-12T09:53:51.000Z</time>
      </trkpt>
      <trkpt lat="45.14248" lon="4.26266">
        <ele>820.5</ele>
        <time>2021-08-12T09:53:54.000Z</time>
      </trkpt>
      <trkpt lat="45.1425" lon="4.26249">
        <ele>820</ele>
        <time>2021-08-12T09:53:58.000Z</time>
      </trkpt>
      <trkpt lat="45.14249" lon="4.26235">
        <ele>818.6</ele>
        <time>2021-08-12T09:54:01.000Z</time>
      </trkpt>
      <trkpt lat="45.14251" lon="4.2622">
        <ele>816.7</ele>
        <time>2021-08-12T09:54:05.000Z</time>
      </trkpt>
      <trkpt lat="45.14257" lon="4.2621">
        <ele>816.5</ele>
        <time>2021-08-12T09:54:08.000Z</time>
      </trkpt>
      <trkpt lat="45.14262" lon="4.26196">
        <ele>815.7</ele>
        <time>2021-08-12T09:54:11.000Z</time>
      </trkpt>
      <trkpt lat="45.14263" lon="4.26181">
        <ele>814.5</ele>
        <time>2021-08-12T09:54:15.000Z</time>
      </trkpt>
      <trkpt lat="45.1426" lon="4.26169">
        <ele>812.8</ele>
        <time>2021-08-12T09:54:19.000Z</time>
      </trkpt>
      <trkpt lat="45.14259" lon="4.26156">
        <ele>812.3</ele>
        <time>2021-08-12T09:54:23.000Z</time>
      </trkpt>
      <trkpt lat="45.14258" lon="4.26141">
        <ele>812.2</ele>
        <time>2021-08-12T09:54:27.000Z</time>
      </trkpt>
      <trkpt lat="45.14258" lon="4.26126">
        <ele>812.1</ele>
        <time>2021-08-12T09:54:30.000Z</time>
      </trkpt>
      <trkpt lat="45.14254" lon="4.2611">
        <ele>811.6</ele>
        <time>2021-08-12T09:54:32.000Z</time>
      </trkpt>
      <trkpt lat="45.14245" lon="4.26097">
        <ele>812.8</ele>
        <time>2021-08-12T09:54:34.000Z</time>
      </trkpt>
      <trkpt lat="45.14249" lon="4.26081">
        <ele>811.7</ele>
        <time>2021-08-12T09:54:38.000Z</time>
      </trkpt>
      <trkpt lat="45.14245" lon="4.26066">
        <ele>814.5</ele>
        <time>2021-08-12T09:54:40.000Z</time>
      </trkpt>
      <trkpt lat="45.14242" lon="4.26053">
        <ele>816.4</ele>
        <time>2021-08-12T09:54:42.000Z</time>
      </trkpt>
      <trkpt lat="45.14237" lon="4.26037">
        <ele>819.1</ele>
        <time>2021-08-12T09:54:45.000Z</time>
      </trkpt>
      <trkpt lat="45.14228" lon="4.26023">
        <ele>821.9</ele>
        <time>2021-08-12T09:54:48.000Z</time>
      </trkpt>
      <trkpt lat="45.1422" lon="4.26011">
        <ele>823.9</ele>
        <time>2021-08-12T09:54:50.000Z</time>
      </trkpt>
      <trkpt lat="45.14212" lon="4.25999">
        <ele>825.3</ele>
        <time>2021-08-12T09:54:52.000Z</time>
      </trkpt>
      <trkpt lat="45.142" lon="4.25994">
        <ele>826.6</ele>
        <time>2021-08-12T09:54:55.000Z</time>
      </trkpt>
      <trkpt lat="45.14191" lon="4.25988">
        <ele>827</ele>
        <time>2021-08-12T09:54:57.000Z</time>
      </trkpt>
      <trkpt lat="45.14183" lon="4.25984">
        <ele>827.5</ele>
        <time>2021-08-12T09:54:59.000Z</time>
      </trkpt>
      <trkpt lat="45.14176" lon="4.25975">
        <ele>827</ele>
        <time>2021-08-12T09:55:01.000Z</time>
      </trkpt>
      <trkpt lat="45.14166" lon="4.25964">
        <ele>826.3</ele>
        <time>2021-08-12T09:55:04.000Z</time>
      </trkpt>
      <trkpt lat="45.14156" lon="4.25953">
        <ele>825.8</ele>
        <time>2021-08-12T09:55:06.000Z</time>
      </trkpt>
      <trkpt lat="45.1414" lon="4.25936">
        <ele>824.2</ele>
        <time>2021-08-12T09:55:08.000Z</time>
      </trkpt>
      <trkpt lat="45.14128" lon="4.25924">
        <ele>822.6</ele>
        <time>2021-08-12T09:55:10.000Z</time>
      </trkpt>
      <trkpt lat="45.14112" lon="4.25915">
        <ele>822.3</ele>
        <time>2021-08-12T09:55:12.000Z</time>
      </trkpt>
      <trkpt lat="45.141" lon="4.25911">
        <ele>823</ele>
        <time>2021-08-12T09:55:14.000Z</time>
      </trkpt>
      <trkpt lat="45.14091" lon="4.25914">
        <ele>823.5</ele>
        <time>2021-08-12T09:55:18.000Z</time>
      </trkpt>
      <trkpt lat="45.14081" lon="4.25913">
        <ele>823.9</ele>
        <time>2021-08-12T09:55:22.000Z</time>
      </trkpt>
      <trkpt lat="45.14071" lon="4.25909">
        <ele>823.7</ele>
        <time>2021-08-12T09:55:25.000Z</time>
      </trkpt>
      <trkpt lat="45.14064" lon="4.259">
        <ele>823.5</ele>
        <time>2021-08-12T09:55:28.000Z</time>
      </trkpt>
      <trkpt lat="45.14057" lon="4.25891">
        <ele>823.3</ele>
        <time>2021-08-12T09:55:32.000Z</time>
      </trkpt>
      <trkpt lat="45.14053" lon="4.25879">
        <ele>823</ele>
        <time>2021-08-12T09:55:36.000Z</time>
      </trkpt>
      <trkpt lat="45.14051" lon="4.25867">
        <ele>822.8</ele>
        <time>2021-08-12T09:55:44.000Z</time>
      </trkpt>
      <trkpt lat="45.14048" lon="4.25854">
        <ele>822.5</ele>
        <time>2021-08-12T09:55:47.000Z</time>
      </trkpt>
      <trkpt lat="45.14053" lon="4.25843">
        <ele>822.4</ele>
        <time>2021-08-12T09:55:52.000Z</time>
      </trkpt>
      <trkpt lat="45.14058" lon="4.25831">
        <ele>822.8</ele>
        <time>2021-08-12T09:55:57.000Z</time>
      </trkpt>
      <trkpt lat="45.14066" lon="4.25822">
        <ele>824.3</ele>
        <time>2021-08-12T09:56:01.000Z</time>
      </trkpt>
      <trkpt lat="45.14075" lon="4.25815">
        <ele>825.8</ele>
        <time>2021-08-12T09:56:05.000Z</time>
      </trkpt>
      <trkpt lat="45.14085" lon="4.25811">
        <ele>826.4</ele>
        <time>2021-08-12T09:56:11.000Z</time>
      </trkpt>
      <trkpt lat="45.14095" lon="4.25806">
        <ele>827.4</ele>
        <time>2021-08-12T09:56:16.000Z</time>
      </trkpt>
      <trkpt lat="45.14101" lon="4.25794">
        <ele>829.1</ele>
        <time>2021-08-12T09:56:21.000Z</time>
      </trkpt>
      <trkpt lat="45.14104" lon="4.25781">
        <ele>831.2</ele>
        <time>2021-08-12T09:56:28.000Z</time>
      </trkpt>
      <trkpt lat="45.14104" lon="4.25768">
        <ele>833.3</ele>
        <time>2021-08-12T09:56:36.000Z</time>
      </trkpt>
      <trkpt lat="45.14113" lon="4.25761">
        <ele>834.6</ele>
        <time>2021-08-12T09:56:47.000Z</time>
      </trkpt>
      <trkpt lat="45.14119" lon="4.25752">
        <ele>836.2</ele>
        <time>2021-08-12T09:56:54.000Z</time>
      </trkpt>
      <trkpt lat="45.14124" lon="4.25744">
        <ele>837.2</ele>
        <time>2021-08-12T09:57:13.000Z</time>
      </trkpt>
      <trkpt lat="45.14123" lon="4.25744">
        <ele>837.2</ele>
        <time>2021-08-12T09:57:14.000Z</time>
      </trkpt>
      <trkpt lat="45.14123" lon="4.25743">
        <ele>837.2</ele>
        <time>2021-08-12T09:57:23.000Z</time>
      </trkpt>
      <trkpt lat="45.14123" lon="4.25743">
        <ele>837.3</ele>
        <time>2021-08-12T09:57:25.000Z</time>
      </trkpt>
      <trkpt lat="45.14124" lon="4.25742">
        <ele>837.5</ele>
        <time>2021-08-12T09:57:30.000Z</time>
      </trkpt>
      <trkpt lat="45.14125" lon="4.25741">
        <ele>837.5</ele>
        <time>2021-08-12T09:57:34.000Z</time>
      </trkpt>
      <trkpt lat="45.14129" lon="4.25729">
        <ele>838.8</ele>
        <time>2021-08-12T09:57:52.000Z</time>
      </trkpt>
      <trkpt lat="45.1413" lon="4.25724">
        <ele>839.4</ele>
        <time>2021-08-12T09:57:59.000Z</time>
      </trkpt>
      <trkpt lat="45.1413" lon="4.25724">
        <ele>839.4</ele>
        <time>2021-08-12T09:58:00.000Z</time>
      </trkpt>
      <trkpt lat="45.14129" lon="4.25727">
        <ele>839.1</ele>
        <time>2021-08-12T09:58:06.000Z</time>
      </trkpt>
      <trkpt lat="45.1413" lon="4.25727">
        <ele>839.1</ele>
        <time>2021-08-12T09:58:07.000Z</time>
      </trkpt>
      <trkpt lat="45.1413" lon="4.25726">
        <ele>839.3</ele>
        <time>2021-08-12T09:58:11.000Z</time>
      </trkpt>
      <trkpt lat="45.1413" lon="4.25726">
        <ele>839.3</ele>
        <time>2021-08-12T09:58:14.000Z</time>
      </trkpt>
      <trkpt lat="45.1413" lon="4.25725">
        <ele>839.3</ele>
        <time>2021-08-12T09:58:16.000Z</time>
      </trkpt>
      <trkpt lat="45.1413" lon="4.25725">
        <ele>839.4</ele>
        <time>2021-08-12T09:58:17.000Z</time>
      </trkpt>
      <trkpt lat="45.14138" lon="4.25718">
        <ele>840.3</ele>
        <time>2021-08-12T09:58:26.000Z</time>
      </trkpt>
      <trkpt lat="45.14147" lon="4.2571">
        <ele>841.4</ele>
        <time>2021-08-12T09:58:33.000Z</time>
      </trkpt>
      <trkpt lat="45.14155" lon="4.25704">
        <ele>842.3</ele>
        <time>2021-08-12T09:58:39.000Z</time>
      </trkpt>
      <trkpt lat="45.14163" lon="4.25696">
        <ele>843.4</ele>
        <time>2021-08-12T09:58:45.000Z</time>
      </trkpt>
      <trkpt lat="45.14171" lon="4.25689">
        <ele>844.5</ele>
        <time>2021-08-12T09:58:52.000Z</time>
      </trkpt>
      <trkpt lat="45.14178" lon="4.25682">
        <ele>845.5</ele>
        <time>2021-08-12T09:58:58.000Z</time>
      </trkpt>
      <trkpt lat="45.14185" lon="4.25671">
        <ele>846.8</ele>
        <time>2021-08-12T09:59:05.000Z</time>
      </trkpt>
      <trkpt lat="45.14191" lon="4.25659">
        <ele>847.8</ele>
        <time>2021-08-12T09:59:12.000Z</time>
      </trkpt>
      <trkpt lat="45.14197" lon="4.25649">
        <ele>848.5</ele>
        <time>2021-08-12T09:59:18.000Z</time>
      </trkpt>
      <trkpt lat="45.14204" lon="4.25638">
        <ele>849.2</ele>
        <time>2021-08-12T09:59:24.000Z</time>
      </trkpt>
      <trkpt lat="45.14207" lon="4.25625">
        <ele>850</ele>
        <time>2021-08-12T09:59:29.000Z</time>
      </trkpt>
      <trkpt lat="45.14211" lon="4.25614">
        <ele>850.7</ele>
        <time>2021-08-12T09:59:34.000Z</time>
      </trkpt>
      <trkpt lat="45.14216" lon="4.25602">
        <ele>851.5</ele>
        <time>2021-08-12T09:59:38.000Z</time>
      </trkpt>
      <trkpt lat="45.14214" lon="4.25588">
        <ele>852.3</ele>
        <time>2021-08-12T09:59:42.000Z</time>
      </trkpt>
      <trkpt lat="45.14209" lon="4.25574">
        <ele>852.5</ele>
        <time>2021-08-12T09:59:46.000Z</time>
      </trkpt>
      <trkpt lat="45.14205" lon="4.25559">
        <ele>852.5</ele>
        <time>2021-08-12T09:59:50.000Z</time>
      </trkpt>
      <trkpt lat="45.14201" lon="4.25547">
        <ele>852.4</ele>
        <time>2021-08-12T09:59:53.000Z</time>
      </trkpt>
      <trkpt lat="45.14202" lon="4.25534">
        <ele>852.4</ele>
        <time>2021-08-12T09:59:56.000Z</time>
      </trkpt>
      <trkpt lat="45.14209" lon="4.25524">
        <ele>852.5</ele>
        <time>2021-08-12T09:59:59.000Z</time>
      </trkpt>
      <trkpt lat="45.14219" lon="4.25519">
        <ele>852.6</ele>
        <time>2021-08-12T10:00:02.000Z</time>
      </trkpt>
      <trkpt lat="45.1423" lon="4.25521">
        <ele>852.8</ele>
        <time>2021-08-12T10:00:05.000Z</time>
      </trkpt>
      <trkpt lat="45.14239" lon="4.25523">
        <ele>852.9</ele>
        <time>2021-08-12T10:00:08.000Z</time>
      </trkpt>
      <trkpt lat="45.1425" lon="4.25525">
        <ele>853</ele>
        <time>2021-08-12T10:00:12.000Z</time>
      </trkpt>
      <trkpt lat="45.1426" lon="4.25528">
        <ele>852.6</ele>
        <time>2021-08-12T10:00:15.000Z</time>
      </trkpt>
      <trkpt lat="45.14272" lon="4.25532">
        <ele>852.1</ele>
        <time>2021-08-12T10:00:19.000Z</time>
      </trkpt>
      <trkpt lat="45.14283" lon="4.25532">
        <ele>851.7</ele>
        <time>2021-08-12T10:00:22.000Z</time>
      </trkpt>
      <trkpt lat="45.14294" lon="4.25528">
        <ele>851.3</ele>
        <time>2021-08-12T10:00:26.000Z</time>
      </trkpt>
      <trkpt lat="45.14305" lon="4.25526">
        <ele>850.8</ele>
        <time>2021-08-12T10:00:29.000Z</time>
      </trkpt>
      <trkpt lat="45.14319" lon="4.25523">
        <ele>850.3</ele>
        <time>2021-08-12T10:00:32.000Z</time>
      </trkpt>
      <trkpt lat="45.14331" lon="4.2552">
        <ele>849.8</ele>
        <time>2021-08-12T10:00:35.000Z</time>
      </trkpt>
      <trkpt lat="45.14341" lon="4.25518">
        <ele>849.6</ele>
        <time>2021-08-12T10:00:37.000Z</time>
      </trkpt>
      <trkpt lat="45.14352" lon="4.25516">
        <ele>849.3</ele>
        <time>2021-08-12T10:00:39.000Z</time>
      </trkpt>
      <trkpt lat="45.14363" lon="4.25514">
        <ele>849.1</ele>
        <time>2021-08-12T10:00:41.000Z</time>
      </trkpt>
      <trkpt lat="45.14376" lon="4.25511">
        <ele>848.8</ele>
        <time>2021-08-12T10:00:43.000Z</time>
      </trkpt>
      <trkpt lat="45.14388" lon="4.25508">
        <ele>848.5</ele>
        <time>2021-08-12T10:00:45.000Z</time>
      </trkpt>
      <trkpt lat="45.14401" lon="4.25505">
        <ele>848.3</ele>
        <time>2021-08-12T10:00:47.000Z</time>
      </trkpt>
      <trkpt lat="45.14412" lon="4.25501">
        <ele>848.1</ele>
        <time>2021-08-12T10:00:49.000Z</time>
      </trkpt>
      <trkpt lat="45.14425" lon="4.25498">
        <ele>848.6</ele>
        <time>2021-08-12T10:00:51.000Z</time>
      </trkpt>
      <trkpt lat="45.14437" lon="4.25493">
        <ele>849.3</ele>
        <time>2021-08-12T10:00:53.000Z</time>
      </trkpt>
      <trkpt lat="45.14448" lon="4.25489">
        <ele>849.9</ele>
        <time>2021-08-12T10:00:55.000Z</time>
      </trkpt>
      <trkpt lat="45.14461" lon="4.25485">
        <ele>850.6</ele>
        <time>2021-08-12T10:00:57.000Z</time>
      </trkpt>
      <trkpt lat="45.14475" lon="4.25483">
        <ele>851.2</ele>
        <time>2021-08-12T10:00:59.000Z</time>
      </trkpt>
      <trkpt lat="45.14487" lon="4.25483">
        <ele>851.8</ele>
        <time>2021-08-12T10:01:01.000Z</time>
      </trkpt>
      <trkpt lat="45.14501" lon="4.25484">
        <ele>852.5</ele>
        <time>2021-08-12T10:01:04.000Z</time>
      </trkpt>
      <trkpt lat="45.14511" lon="4.25484">
        <ele>853.2</ele>
        <time>2021-08-12T10:01:06.000Z</time>
      </trkpt>
      <trkpt lat="45.14523" lon="4.25489">
        <ele>854.1</ele>
        <time>2021-08-12T10:01:08.000Z</time>
      </trkpt>
      <trkpt lat="45.14532" lon="4.25498">
        <ele>855.2</ele>
        <time>2021-08-12T10:01:10.000Z</time>
      </trkpt>
      <trkpt lat="45.14541" lon="4.25506">
        <ele>855.7</ele>
        <time>2021-08-12T10:01:13.000Z</time>
      </trkpt>
      <trkpt lat="45.14551" lon="4.25512">
        <ele>856.1</ele>
        <time>2021-08-12T10:01:16.000Z</time>
      </trkpt>
      <trkpt lat="45.14562" lon="4.25517">
        <ele>856.7</ele>
        <time>2021-08-12T10:01:19.000Z</time>
      </trkpt>
      <trkpt lat="45.14573" lon="4.25521">
        <ele>857.4</ele>
        <time>2021-08-12T10:01:22.000Z</time>
      </trkpt>
      <trkpt lat="45.14582" lon="4.25523">
        <ele>858.1</ele>
        <time>2021-08-12T10:01:24.000Z</time>
      </trkpt>
      <trkpt lat="45.14595" lon="4.25518">
        <ele>858.2</ele>
        <time>2021-08-12T10:01:26.000Z</time>
      </trkpt>
      <trkpt lat="45.14605" lon="4.25511">
        <ele>858.2</ele>
        <time>2021-08-12T10:01:29.000Z</time>
      </trkpt>
      <trkpt lat="45.14616" lon="4.25506">
        <ele>858.1</ele>
        <time>2021-08-12T10:01:31.000Z</time>
      </trkpt>
      <trkpt lat="45.14629" lon="4.25502">
        <ele>857.9</ele>
        <time>2021-08-12T10:01:33.000Z</time>
      </trkpt>
      <trkpt lat="45.14638" lon="4.2549">
        <ele>856.6</ele>
        <time>2021-08-12T10:01:36.000Z</time>
      </trkpt>
      <trkpt lat="45.14636" lon="4.25472">
        <ele>854.7</ele>
        <time>2021-08-12T10:01:39.000Z</time>
      </trkpt>
      <trkpt lat="45.14635" lon="4.25459">
        <ele>853.3</ele>
        <time>2021-08-12T10:01:41.000Z</time>
      </trkpt>
      <trkpt lat="45.14636" lon="4.25442">
        <ele>851.5</ele>
        <time>2021-08-12T10:01:44.000Z</time>
      </trkpt>
      <trkpt lat="45.1464" lon="4.25427">
        <ele>849.6</ele>
        <time>2021-08-12T10:01:47.000Z</time>
      </trkpt>
      <trkpt lat="45.14645" lon="4.25411">
        <ele>847.2</ele>
        <time>2021-08-12T10:01:53.000Z</time>
      </trkpt>
      <trkpt lat="45.14651" lon="4.25399">
        <ele>844.1</ele>
        <time>2021-08-12T10:01:57.000Z</time>
      </trkpt>
      <trkpt lat="45.14659" lon="4.2539">
        <ele>841.7</ele>
        <time>2021-08-12T10:02:00.000Z</time>
      </trkpt>
      <trkpt lat="45.14668" lon="4.25387">
        <ele>840.3</ele>
        <time>2021-08-12T10:02:02.000Z</time>
      </trkpt>
      <trkpt lat="45.14677" lon="4.25383">
        <ele>838.1</ele>
        <time>2021-08-12T10:02:04.000Z</time>
      </trkpt>
      <trkpt lat="45.14686" lon="4.25378">
        <ele>835.7</ele>
        <time>2021-08-12T10:02:06.000Z</time>
      </trkpt>
      <trkpt lat="45.14698" lon="4.25374">
        <ele>833.2</ele>
        <time>2021-08-12T10:02:09.000Z</time>
      </trkpt>
      <trkpt lat="45.14708" lon="4.25374">
        <ele>831.8</ele>
        <time>2021-08-12T10:02:11.000Z</time>
      </trkpt>
      <trkpt lat="45.1472" lon="4.25375">
        <ele>830.3</ele>
        <time>2021-08-12T10:02:13.000Z</time>
      </trkpt>
      <trkpt lat="45.14732" lon="4.25376">
        <ele>828.7</ele>
        <time>2021-08-12T10:02:15.000Z</time>
      </trkpt>
      <trkpt lat="45.14743" lon="4.25377">
        <ele>827.2</ele>
        <time>2021-08-12T10:02:17.000Z</time>
      </trkpt>
      <trkpt lat="45.14754" lon="4.25379">
        <ele>825.9</ele>
        <time>2021-08-12T10:02:19.000Z</time>
      </trkpt>
      <trkpt lat="45.14766" lon="4.25381">
        <ele>824.8</ele>
        <time>2021-08-12T10:02:21.000Z</time>
      </trkpt>
      <trkpt lat="45.14778" lon="4.25381">
        <ele>823.3</ele>
        <time>2021-08-12T10:02:24.000Z</time>
      </trkpt>
      <trkpt lat="45.14788" lon="4.2538">
        <ele>822.1</ele>
        <time>2021-08-12T10:02:26.000Z</time>
      </trkpt>
      <trkpt lat="45.14799" lon="4.25374">
        <ele>820.7</ele>
        <time>2021-08-12T10:02:29.000Z</time>
      </trkpt>
      <trkpt lat="45.14806" lon="4.25363">
        <ele>819.9</ele>
        <time>2021-08-12T10:02:32.000Z</time>
      </trkpt>
      <trkpt lat="45.14804" lon="4.25345">
        <ele>819.8</ele>
        <time>2021-08-12T10:02:34.000Z</time>
      </trkpt>
      <trkpt lat="45.14808" lon="4.25329">
        <ele>820.1</ele>
        <time>2021-08-12T10:02:37.000Z</time>
      </trkpt>
      <trkpt lat="45.1482" lon="4.25332">
        <ele>819.5</ele>
        <time>2021-08-12T10:02:42.000Z</time>
      </trkpt>
      <trkpt lat="45.14828" lon="4.25338">
        <ele>819</ele>
        <time>2021-08-12T10:02:46.000Z</time>
      </trkpt>
      <trkpt lat="45.14839" lon="4.25341">
        <ele>818.1</ele>
        <time>2021-08-12T10:02:51.000Z</time>
      </trkpt>
      <trkpt lat="45.14839" lon="4.25344">
        <ele>818.1</ele>
        <time>2021-08-12T10:02:57.000Z</time>
      </trkpt>
      <trkpt lat="45.14839" lon="4.25344">
        <ele>818.1</ele>
        <time>2021-08-12T10:02:58.000Z</time>
      </trkpt>
      <trkpt lat="45.14849" lon="4.25347">
        <ele>817</ele>
        <time>2021-08-12T10:03:08.000Z</time>
      </trkpt>
      <trkpt lat="45.1486" lon="4.25347">
        <ele>816</ele>
        <time>2021-08-12T10:03:11.000Z</time>
      </trkpt>
      <trkpt lat="45.1487" lon="4.25348">
        <ele>815.1</ele>
        <time>2021-08-12T10:03:15.000Z</time>
      </trkpt>
      <trkpt lat="45.14881" lon="4.2535">
        <ele>814.1</ele>
        <time>2021-08-12T10:03:20.000Z</time>
      </trkpt>
      <trkpt lat="45.14891" lon="4.25349">
        <ele>813.3</ele>
        <time>2021-08-12T10:03:26.000Z</time>
      </trkpt>
      <trkpt lat="45.14902" lon="4.25347">
        <ele>812.3</ele>
        <time>2021-08-12T10:03:32.000Z</time>
      </trkpt>
      <trkpt lat="45.1491" lon="4.25337">
        <ele>811.6</ele>
        <time>2021-08-12T10:03:36.000Z</time>
      </trkpt>
      <trkpt lat="45.14912" lon="4.25324">
        <ele>811.5</ele>
        <time>2021-08-12T10:03:41.000Z</time>
      </trkpt>
      <trkpt lat="45.14913" lon="4.25311">
        <ele>811.5</ele>
        <time>2021-08-12T10:03:46.000Z</time>
      </trkpt>
      <trkpt lat="45.14916" lon="4.25299">
        <ele>811.1</ele>
        <time>2021-08-12T10:03:50.000Z</time>
      </trkpt>
      <trkpt lat="45.14916" lon="4.25286">
        <ele>811.2</ele>
        <time>2021-08-12T10:03:55.000Z</time>
      </trkpt>
      <trkpt lat="45.14913" lon="4.25274">
        <ele>811.6</ele>
        <time>2021-08-12T10:04:01.000Z</time>
      </trkpt>
      <trkpt lat="45.14909" lon="4.2526">
        <ele>812.5</ele>
        <time>2021-08-12T10:04:07.000Z</time>
      </trkpt>
      <trkpt lat="45.14904" lon="4.25247">
        <ele>813.8</ele>
        <time>2021-08-12T10:04:13.000Z</time>
      </trkpt>
      <trkpt lat="45.14902" lon="4.25234">
        <ele>814.2</ele>
        <time>2021-08-12T10:04:18.000Z</time>
      </trkpt>
      <trkpt lat="45.1491" lon="4.25227">
        <ele>812.5</ele>
        <time>2021-08-12T10:04:22.000Z</time>
      </trkpt>
      <trkpt lat="45.14918" lon="4.25219">
        <ele>811.1</ele>
        <time>2021-08-12T10:04:26.000Z</time>
      </trkpt>
      <trkpt lat="45.14926" lon="4.25209">
        <ele>811.3</ele>
        <time>2021-08-12T10:04:31.000Z</time>
      </trkpt>
      <trkpt lat="45.14928" lon="4.25192">
        <ele>811.2</ele>
        <time>2021-08-12T10:04:37.000Z</time>
      </trkpt>
      <trkpt lat="45.1493" lon="4.25177">
        <ele>811.1</ele>
        <time>2021-08-12T10:04:40.000Z</time>
      </trkpt>
      <trkpt lat="45.14934" lon="4.25165">
        <ele>811</ele>
        <time>2021-08-12T10:04:42.000Z</time>
      </trkpt>
      <trkpt lat="45.14939" lon="4.25152">
        <ele>811</ele>
        <time>2021-08-12T10:04:45.000Z</time>
      </trkpt>
      <trkpt lat="45.14942" lon="4.25139">
        <ele>811</ele>
        <time>2021-08-12T10:04:47.000Z</time>
      </trkpt>
      <trkpt lat="45.14944" lon="4.25124">
        <ele>811</ele>
        <time>2021-08-12T10:04:49.000Z</time>
      </trkpt>
      <trkpt lat="45.14943" lon="4.25108">
        <ele>811</ele>
        <time>2021-08-12T10:04:51.000Z</time>
      </trkpt>
      <trkpt lat="45.14943" lon="4.2509">
        <ele>811</ele>
        <time>2021-08-12T10:04:53.000Z</time>
      </trkpt>
      <trkpt lat="45.14949" lon="4.25072">
        <ele>811.7</ele>
        <time>2021-08-12T10:04:55.000Z</time>
      </trkpt>
      <trkpt lat="45.14951" lon="4.25056">
        <ele>812.5</ele>
        <time>2021-08-12T10:04:57.000Z</time>
      </trkpt>
      <trkpt lat="45.14952" lon="4.25042">
        <ele>813.3</ele>
        <time>2021-08-12T10:04:59.000Z</time>
      </trkpt>
      <trkpt lat="45.14954" lon="4.25025">
        <ele>814.1</ele>
        <time>2021-08-12T10:05:02.000Z</time>
      </trkpt>
      <trkpt lat="45.14958" lon="4.25013">
        <ele>814.5</ele>
        <time>2021-08-12T10:05:04.000Z</time>
      </trkpt>
      <trkpt lat="45.14962" lon="4.24996">
        <ele>814.6</ele>
        <time>2021-08-12T10:05:07.000Z</time>
      </trkpt>
      <trkpt lat="45.14966" lon="4.24985">
        <ele>814.2</ele>
        <time>2021-08-12T10:05:09.000Z</time>
      </trkpt>
      <trkpt lat="45.14969" lon="4.24971">
        <ele>814</ele>
        <time>2021-08-12T10:05:12.000Z</time>
      </trkpt>
      <trkpt lat="45.14972" lon="4.24956">
        <ele>813.7</ele>
        <time>2021-08-12T10:05:15.000Z</time>
      </trkpt>
      <trkpt lat="45.14978" lon="4.24942">
        <ele>813.1</ele>
        <time>2021-08-12T10:05:18.000Z</time>
      </trkpt>
      <trkpt lat="45.14981" lon="4.24929">
        <ele>812.8</ele>
        <time>2021-08-12T10:05:20.000Z</time>
      </trkpt>
      <trkpt lat="45.14982" lon="4.24912">
        <ele>813.3</ele>
        <time>2021-08-12T10:05:22.000Z</time>
      </trkpt>
      <trkpt lat="45.14987" lon="4.24899">
        <ele>814.1</ele>
        <time>2021-08-12T10:05:24.000Z</time>
      </trkpt>
      <trkpt lat="45.14994" lon="4.24886">
        <ele>814.9</ele>
        <time>2021-08-12T10:05:27.000Z</time>
      </trkpt>
      <trkpt lat="45.15" lon="4.24877">
        <ele>815.3</ele>
        <time>2021-08-12T10:05:31.000Z</time>
      </trkpt>
      <trkpt lat="45.15009" lon="4.24872">
        <ele>815.4</ele>
        <time>2021-08-12T10:05:35.000Z</time>
      </trkpt>
      <trkpt lat="45.15017" lon="4.24863">
        <ele>815.6</ele>
        <time>2021-08-12T10:05:42.000Z</time>
      </trkpt>
      <trkpt lat="45.15027" lon="4.24857">
        <ele>815.4</ele>
        <time>2021-08-12T10:05:46.000Z</time>
      </trkpt>
      <trkpt lat="45.15035" lon="4.2485">
        <ele>815.3</ele>
        <time>2021-08-12T10:05:49.000Z</time>
      </trkpt>
      <trkpt lat="45.15043" lon="4.24838">
        <ele>815.2</ele>
        <time>2021-08-12T10:05:53.000Z</time>
      </trkpt>
      <trkpt lat="45.15053" lon="4.24832">
        <ele>814.4</ele>
        <time>2021-08-12T10:05:56.000Z</time>
      </trkpt>
      <trkpt lat="45.15062" lon="4.2482">
        <ele>814.8</ele>
        <time>2021-08-12T10:05:59.000Z</time>
      </trkpt>
      <trkpt lat="45.15064" lon="4.24804">
        <ele>816.7</ele>
        <time>2021-08-12T10:06:03.000Z</time>
      </trkpt>
      <trkpt lat="45.1506" lon="4.2479">
        <ele>818.7</ele>
        <time>2021-08-12T10:06:06.000Z</time>
      </trkpt>
      <trkpt lat="45.1506" lon="4.24775">
        <ele>820.4</ele>
        <time>2021-08-12T10:06:10.000Z</time>
      </trkpt>
      <trkpt lat="45.15061" lon="4.24762">
        <ele>821.9</ele>
        <time>2021-08-12T10:06:13.000Z</time>
      </trkpt>
      <trkpt lat="45.15072" lon="4.2475">
        <ele>823.1</ele>
        <time>2021-08-12T10:06:15.000Z</time>
      </trkpt>
      <trkpt lat="45.15083" lon="4.2475">
        <ele>823</ele>
        <time>2021-08-12T10:06:18.000Z</time>
      </trkpt>
      <trkpt lat="45.15094" lon="4.24752">
        <ele>822.2</ele>
        <time>2021-08-12T10:06:25.000Z</time>
      </trkpt>
      <trkpt lat="45.15103" lon="4.24748">
        <ele>822.2</ele>
        <time>2021-08-12T10:06:33.000Z</time>
      </trkpt>
      <trkpt lat="45.15114" lon="4.24746">
        <ele>822</ele>
        <time>2021-08-12T10:06:40.000Z</time>
      </trkpt>
      <trkpt lat="45.15122" lon="4.24743">
        <ele>821.8</ele>
        <time>2021-08-12T10:06:45.000Z</time>
      </trkpt>
      <trkpt lat="45.15132" lon="4.24741">
        <ele>821.4</ele>
        <time>2021-08-12T10:06:51.000Z</time>
      </trkpt>
      <trkpt lat="45.15142" lon="4.24738">
        <ele>821.3</ele>
        <time>2021-08-12T10:06:54.000Z</time>
      </trkpt>
      <trkpt lat="45.15153" lon="4.24737">
        <ele>820.7</ele>
        <time>2021-08-12T10:06:57.000Z</time>
      </trkpt>
      <trkpt lat="45.15165" lon="4.24733">
        <ele>820.3</ele>
        <time>2021-08-12T10:07:00.000Z</time>
      </trkpt>
      <trkpt lat="45.15174" lon="4.24729">
        <ele>820.6</ele>
        <time>2021-08-12T10:07:02.000Z</time>
      </trkpt>
      <trkpt lat="45.15185" lon="4.24724">
        <ele>821.3</ele>
        <time>2021-08-12T10:07:05.000Z</time>
      </trkpt>
      <trkpt lat="45.15196" lon="4.24722">
        <ele>821.3</ele>
        <time>2021-08-12T10:07:08.000Z</time>
      </trkpt>
      <trkpt lat="45.15204" lon="4.24716">
        <ele>821.8</ele>
        <time>2021-08-12T10:07:11.000Z</time>
      </trkpt>
      <trkpt lat="45.15204" lon="4.24701">
        <ele>823.8</ele>
        <time>2021-08-12T10:07:15.000Z</time>
      </trkpt>
      <trkpt lat="45.15203" lon="4.24688">
        <ele>825.5</ele>
        <time>2021-08-12T10:07:20.000Z</time>
      </trkpt>
      <trkpt lat="45.15203" lon="4.24674">
        <ele>827.3</ele>
        <time>2021-08-12T10:07:27.000Z</time>
      </trkpt>
      <trkpt lat="45.15202" lon="4.24659">
        <ele>829.2</ele>
        <time>2021-08-12T10:07:34.000Z</time>
      </trkpt>
      <trkpt lat="45.15201" lon="4.24645">
        <ele>830.7</ele>
        <time>2021-08-12T10:07:40.000Z</time>
      </trkpt>
      <trkpt lat="45.15192" lon="4.24641">
        <ele>831.4</ele>
        <time>2021-08-12T10:07:46.000Z</time>
      </trkpt>
      <trkpt lat="45.15184" lon="4.24633">
        <ele>832.7</ele>
        <time>2021-08-12T10:07:52.000Z</time>
      </trkpt>
      <trkpt lat="45.15176" lon="4.24624">
        <ele>833.9</ele>
        <time>2021-08-12T10:07:58.000Z</time>
      </trkpt>
      <trkpt lat="45.15169" lon="4.24615">
        <ele>835.2</ele>
        <time>2021-08-12T10:08:03.000Z</time>
      </trkpt>
      <trkpt lat="45.15167" lon="4.24611">
        <ele>835.7</ele>
        <time>2021-08-12T10:08:15.000Z</time>
      </trkpt>
      <trkpt lat="45.15167" lon="4.24611">
        <ele>835.7</ele>
        <time>2021-08-12T10:08:18.000Z</time>
      </trkpt>
      <trkpt lat="45.15167" lon="4.24611">
        <ele>835.7</ele>
        <time>2021-08-12T10:08:19.000Z</time>
      </trkpt>
      <trkpt lat="45.15167" lon="4.24611">
        <ele>835.7</ele>
        <time>2021-08-12T10:08:21.000Z</time>
      </trkpt>
      <trkpt lat="45.15168" lon="4.24612">
        <ele>835.5</ele>
        <time>2021-08-12T10:08:25.000Z</time>
      </trkpt>
      <trkpt lat="45.15168" lon="4.24613">
        <ele>835.5</ele>
        <time>2021-08-12T10:08:27.000Z</time>
      </trkpt>
      <trkpt lat="45.15168" lon="4.24614">
        <ele>835.4</ele>
        <time>2021-08-12T10:08:31.000Z</time>
      </trkpt>
      <trkpt lat="45.15168" lon="4.24613">
        <ele>835.4</ele>
        <time>2021-08-12T10:08:32.000Z</time>
      </trkpt>
      <trkpt lat="45.1516" lon="4.24604">
        <ele>836.7</ele>
        <time>2021-08-12T10:08:37.000Z</time>
      </trkpt>
      <trkpt lat="45.15153" lon="4.24594">
        <ele>837.9</ele>
        <time>2021-08-12T10:08:40.000Z</time>
      </trkpt>
      <trkpt lat="45.15146" lon="4.24581">
        <ele>839</ele>
        <time>2021-08-12T10:08:44.000Z</time>
      </trkpt>
      <trkpt lat="45.15138" lon="4.2457">
        <ele>839.9</ele>
        <time>2021-08-12T10:08:48.000Z</time>
      </trkpt>
      <trkpt lat="45.15131" lon="4.24558">
        <ele>840.8</ele>
        <time>2021-08-12T10:08:52.000Z</time>
      </trkpt>
      <trkpt lat="45.15127" lon="4.24544">
        <ele>841.9</ele>
        <time>2021-08-12T10:08:57.000Z</time>
      </trkpt>
      <trkpt lat="45.1512" lon="4.24534">
        <ele>842.6</ele>
        <time>2021-08-12T10:09:01.000Z</time>
      </trkpt>
      <trkpt lat="45.15111" lon="4.24522">
        <ele>843.3</ele>
        <time>2021-08-12T10:09:05.000Z</time>
      </trkpt>
      <trkpt lat="45.15102" lon="4.24511">
        <ele>843.9</ele>
        <time>2021-08-12T10:09:09.000Z</time>
      </trkpt>
      <trkpt lat="45.15093" lon="4.24507">
        <ele>843.8</ele>
        <time>2021-08-12T10:09:12.000Z</time>
      </trkpt>
      <trkpt lat="45.15082" lon="4.24506">
        <ele>843.6</ele>
        <time>2021-08-12T10:09:15.000Z</time>
      </trkpt>
      <trkpt lat="45.15072" lon="4.24505">
        <ele>843.2</ele>
        <time>2021-08-12T10:09:18.000Z</time>
      </trkpt>
      <trkpt lat="45.15062" lon="4.24505">
        <ele>842.8</ele>
        <time>2021-08-12T10:09:21.000Z</time>
      </trkpt>
      <trkpt lat="45.15051" lon="4.24504">
        <ele>842.5</ele>
        <time>2021-08-12T10:09:25.000Z</time>
      </trkpt>
      <trkpt lat="45.1504" lon="4.24502">
        <ele>842.3</ele>
        <time>2021-08-12T10:09:29.000Z</time>
      </trkpt>
      <trkpt lat="45.1503" lon="4.24499">
        <ele>842.2</ele>
        <time>2021-08-12T10:09:33.000Z</time>
      </trkpt>
      <trkpt lat="45.15019" lon="4.24498">
        <ele>841.9</ele>
        <time>2021-08-12T10:09:37.000Z</time>
      </trkpt>
      <trkpt lat="45.15008" lon="4.24496">
        <ele>841.6</ele>
        <time>2021-08-12T10:09:41.000Z</time>
      </trkpt>
      <trkpt lat="45.14998" lon="4.24493">
        <ele>842</ele>
        <time>2021-08-12T10:09:45.000Z</time>
      </trkpt>
      <trkpt lat="45.14989" lon="4.24492">
        <ele>843.4</ele>
        <time>2021-08-12T10:09:49.000Z</time>
      </trkpt>
      <trkpt lat="45.14978" lon="4.24492">
        <ele>844.8</ele>
        <time>2021-08-12T10:09:54.000Z</time>
      </trkpt>
      <trkpt lat="45.14968" lon="4.24491">
        <ele>846.4</ele>
        <time>2021-08-12T10:09:59.000Z</time>
      </trkpt>
      <trkpt lat="45.14957" lon="4.24487">
        <ele>847.9</ele>
        <time>2021-08-12T10:10:04.000Z</time>
      </trkpt>
      <trkpt lat="45.14949" lon="4.24484">
        <ele>849.2</ele>
        <time>2021-08-12T10:10:09.000Z</time>
      </trkpt>
      <trkpt lat="45.14939" lon="4.2448">
        <ele>850.7</ele>
        <time>2021-08-12T10:10:14.000Z</time>
      </trkpt>
      <trkpt lat="45.14929" lon="4.24475">
        <ele>852.1</ele>
        <time>2021-08-12T10:10:19.000Z</time>
      </trkpt>
      <trkpt lat="45.1492" lon="4.24468">
        <ele>853.3</ele>
        <time>2021-08-12T10:10:24.000Z</time>
      </trkpt>
      <trkpt lat="45.14913" lon="4.2446">
        <ele>854.3</ele>
        <time>2021-08-12T10:10:29.000Z</time>
      </trkpt>
      <trkpt lat="45.14907" lon="4.24451">
        <ele>855.1</ele>
        <time>2021-08-12T10:10:34.000Z</time>
      </trkpt>
      <trkpt lat="45.14901" lon="4.2444">
        <ele>855.9</ele>
        <time>2021-08-12T10:10:39.000Z</time>
      </trkpt>
      <trkpt lat="45.14893" lon="4.2443">
        <ele>857</ele>
        <time>2021-08-12T10:10:44.000Z</time>
      </trkpt>
      <trkpt lat="45.14886" lon="4.2442">
        <ele>858.2</ele>
        <time>2021-08-12T10:10:49.000Z</time>
      </trkpt>
      <trkpt lat="45.14878" lon="4.24409">
        <ele>859.7</ele>
        <time>2021-08-12T10:10:54.000Z</time>
      </trkpt>
      <trkpt lat="45.14871" lon="4.24402">
        <ele>861</ele>
        <time>2021-08-12T10:10:58.000Z</time>
      </trkpt>
      <trkpt lat="45.14863" lon="4.24391">
        <ele>862.4</ele>
        <time>2021-08-12T10:11:03.000Z</time>
      </trkpt>
      <trkpt lat="45.14856" lon="4.24379">
        <ele>863.8</ele>
        <time>2021-08-12T10:11:08.000Z</time>
      </trkpt>
      <trkpt lat="45.1485" lon="4.24368">
        <ele>864.9</ele>
        <time>2021-08-12T10:11:12.000Z</time>
      </trkpt>
      <trkpt lat="45.14843" lon="4.24355">
        <ele>866.1</ele>
        <time>2021-08-12T10:11:17.000Z</time>
      </trkpt>
      <trkpt lat="45.14836" lon="4.24348">
        <ele>867.1</ele>
        <time>2021-08-12T10:11:21.000Z</time>
      </trkpt>
      <trkpt lat="45.14828" lon="4.24341">
        <ele>867.6</ele>
        <time>2021-08-12T10:11:25.000Z</time>
      </trkpt>
      <trkpt lat="45.1482" lon="4.24334">
        <ele>867.8</ele>
        <time>2021-08-12T10:11:29.000Z</time>
      </trkpt>
      <trkpt lat="45.1481" lon="4.24327">
        <ele>867.9</ele>
        <time>2021-08-12T10:11:34.000Z</time>
      </trkpt>
      <trkpt lat="45.14802" lon="4.24322">
        <ele>868</ele>
        <time>2021-08-12T10:11:38.000Z</time>
      </trkpt>
      <trkpt lat="45.14793" lon="4.24318">
        <ele>868</ele>
        <time>2021-08-12T10:11:42.000Z</time>
      </trkpt>
      <trkpt lat="45.14784" lon="4.24316">
        <ele>867.9</ele>
        <time>2021-08-12T10:11:46.000Z</time>
      </trkpt>
      <trkpt lat="45.14773" lon="4.24317">
        <ele>867.7</ele>
        <time>2021-08-12T10:11:51.000Z</time>
      </trkpt>
      <trkpt lat="45.14762" lon="4.24319">
        <ele>867.5</ele>
        <time>2021-08-12T10:11:56.000Z</time>
      </trkpt>
      <trkpt lat="45.14753" lon="4.24322">
        <ele>867.3</ele>
        <time>2021-08-12T10:12:01.000Z</time>
      </trkpt>
      <trkpt lat="45.14742" lon="4.24323">
        <ele>867.7</ele>
        <time>2021-08-12T10:12:06.000Z</time>
      </trkpt>
      <trkpt lat="45.14732" lon="4.24323">
        <ele>868.4</ele>
        <time>2021-08-12T10:12:11.000Z</time>
      </trkpt>
      <trkpt lat="45.14721" lon="4.24322">
        <ele>869</ele>
        <time>2021-08-12T10:12:16.000Z</time>
      </trkpt>
      <trkpt lat="45.14712" lon="4.24321">
        <ele>869.7</ele>
        <time>2021-08-12T10:12:20.000Z</time>
      </trkpt>
      <trkpt lat="45.14703" lon="4.24314">
        <ele>870.4</ele>
        <time>2021-08-12T10:12:24.000Z</time>
      </trkpt>
      <trkpt lat="45.14696" lon="4.24303">
        <ele>871.2</ele>
        <time>2021-08-12T10:12:28.000Z</time>
      </trkpt>
      <trkpt lat="45.14689" lon="4.24295">
        <ele>871.9</ele>
        <time>2021-08-12T10:12:32.000Z</time>
      </trkpt>
      <trkpt lat="45.14678" lon="4.24296">
        <ele>872.6</ele>
        <time>2021-08-12T10:12:36.000Z</time>
      </trkpt>
      <trkpt lat="45.14667" lon="4.24298">
        <ele>873.3</ele>
        <time>2021-08-12T10:12:40.000Z</time>
      </trkpt>
      <trkpt lat="45.14658" lon="4.24301">
        <ele>873.5</ele>
        <time>2021-08-12T10:12:43.000Z</time>
      </trkpt>
      <trkpt lat="45.14648" lon="4.24303">
        <ele>873.8</ele>
        <time>2021-08-12T10:12:46.000Z</time>
      </trkpt>
      <trkpt lat="45.14635" lon="4.24306">
        <ele>874.1</ele>
        <time>2021-08-12T10:12:49.000Z</time>
      </trkpt>
      <trkpt lat="45.14624" lon="4.24309">
        <ele>874.5</ele>
        <time>2021-08-12T10:12:52.000Z</time>
      </trkpt>
      <trkpt lat="45.14612" lon="4.24311">
        <ele>874.9</ele>
        <time>2021-08-12T10:12:55.000Z</time>
      </trkpt>
      <trkpt lat="45.146" lon="4.24313">
        <ele>875.4</ele>
        <time>2021-08-12T10:12:58.000Z</time>
      </trkpt>
      <trkpt lat="45.14587" lon="4.24312">
        <ele>875.8</ele>
        <time>2021-08-12T10:13:01.000Z</time>
      </trkpt>
      <trkpt lat="45.1458" lon="4.24303">
        <ele>876</ele>
        <time>2021-08-12T10:13:03.000Z</time>
      </trkpt>
      <trkpt lat="45.1457" lon="4.24293">
        <ele>876.1</ele>
        <time>2021-08-12T10:13:05.000Z</time>
      </trkpt>
      <trkpt lat="45.14559" lon="4.2428">
        <ele>876</ele>
        <time>2021-08-12T10:13:07.000Z</time>
      </trkpt>
      <trkpt lat="45.14551" lon="4.24266">
        <ele>875.8</ele>
        <time>2021-08-12T10:13:09.000Z</time>
      </trkpt>
      <trkpt lat="45.14546" lon="4.24252">
        <ele>875.6</ele>
        <time>2021-08-12T10:13:11.000Z</time>
      </trkpt>
      <trkpt lat="45.1454" lon="4.24239">
        <ele>875.1</ele>
        <time>2021-08-12T10:13:14.000Z</time>
      </trkpt>
      <trkpt lat="45.14535" lon="4.24226">
        <ele>874.8</ele>
        <time>2021-08-12T10:13:18.000Z</time>
      </trkpt>
      <trkpt lat="45.14528" lon="4.24216">
        <ele>874.8</ele>
        <time>2021-08-12T10:13:22.000Z</time>
      </trkpt>
      <trkpt lat="45.14519" lon="4.24207">
        <ele>874.9</ele>
        <time>2021-08-12T10:13:27.000Z</time>
      </trkpt>
      <trkpt lat="45.14511" lon="4.24201">
        <ele>875.2</ele>
        <time>2021-08-12T10:13:32.000Z</time>
      </trkpt>
      <trkpt lat="45.14502" lon="4.24194">
        <ele>875.6</ele>
        <time>2021-08-12T10:13:37.000Z</time>
      </trkpt>
      <trkpt lat="45.14493" lon="4.24186">
        <ele>876.6</ele>
        <time>2021-08-12T10:13:42.000Z</time>
      </trkpt>
      <trkpt lat="45.14484" lon="4.24179">
        <ele>877.8</ele>
        <time>2021-08-12T10:13:47.000Z</time>
      </trkpt>
      <trkpt lat="45.14475" lon="4.24171">
        <ele>879.2</ele>
        <time>2021-08-12T10:13:52.000Z</time>
      </trkpt>
      <trkpt lat="45.14467" lon="4.24163">
        <ele>880.7</ele>
        <time>2021-08-12T10:13:57.000Z</time>
      </trkpt>
      <trkpt lat="45.14459" lon="4.2415">
        <ele>882.3</ele>
        <time>2021-08-12T10:14:02.000Z</time>
      </trkpt>
      <trkpt lat="45.14454" lon="4.24138">
        <ele>883.6</ele>
        <time>2021-08-12T10:14:06.000Z</time>
      </trkpt>
      <trkpt lat="45.14448" lon="4.24125">
        <ele>884.9</ele>
        <time>2021-08-12T10:14:10.000Z</time>
      </trkpt>
      <trkpt lat="45.14443" lon="4.24112">
        <ele>886.2</ele>
        <time>2021-08-12T10:14:14.000Z</time>
      </trkpt>
      <trkpt lat="45.14438" lon="4.24101">
        <ele>887.2</ele>
        <time>2021-08-12T10:14:17.000Z</time>
      </trkpt>
      <trkpt lat="45.14433" lon="4.2409">
        <ele>888.2</ele>
        <time>2021-08-12T10:14:20.000Z</time>
      </trkpt>
      <trkpt lat="45.14429" lon="4.24077">
        <ele>888.7</ele>
        <time>2021-08-12T10:14:23.000Z</time>
      </trkpt>
      <trkpt lat="45.14424" lon="4.24064">
        <ele>888.8</ele>
        <time>2021-08-12T10:14:26.000Z</time>
      </trkpt>
      <trkpt lat="45.1442" lon="4.2405">
        <ele>888.8</ele>
        <time>2021-08-12T10:14:29.000Z</time>
      </trkpt>
      <trkpt lat="45.14416" lon="4.24035">
        <ele>888.9</ele>
        <time>2021-08-12T10:14:32.000Z</time>
      </trkpt>
      <trkpt lat="45.14411" lon="4.2402">
        <ele>888.8</ele>
        <time>2021-08-12T10:14:35.000Z</time>
      </trkpt>
      <trkpt lat="45.14407" lon="4.24005">
        <ele>888.8</ele>
        <time>2021-08-12T10:14:38.000Z</time>
      </trkpt>
      <trkpt lat="45.14403" lon="4.23992">
        <ele>888.8</ele>
        <time>2021-08-12T10:14:41.000Z</time>
      </trkpt>
      <trkpt lat="45.14399" lon="4.23978">
        <ele>888.8</ele>
        <time>2021-08-12T10:14:44.000Z</time>
      </trkpt>
      <trkpt lat="45.14394" lon="4.23964">
        <ele>889</ele>
        <time>2021-08-12T10:14:48.000Z</time>
      </trkpt>
      <trkpt lat="45.14387" lon="4.23952">
        <ele>889.7</ele>
        <time>2021-08-12T10:14:55.000Z</time>
      </trkpt>
      <trkpt lat="45.14383" lon="4.23939">
        <ele>889.9</ele>
        <time>2021-08-12T10:15:00.000Z</time>
      </trkpt>
      <trkpt lat="45.14384" lon="4.23924">
        <ele>889.8</ele>
        <time>2021-08-12T10:15:04.000Z</time>
      </trkpt>
      <trkpt lat="45.14386" lon="4.23911">
        <ele>889.1</ele>
        <time>2021-08-12T10:15:07.000Z</time>
      </trkpt>
      <trkpt lat="45.14393" lon="4.23898">
        <ele>887.4</ele>
        <time>2021-08-12T10:15:10.000Z</time>
      </trkpt>
      <trkpt lat="45.14401" lon="4.23886">
        <ele>885.5</ele>
        <time>2021-08-12T10:15:12.000Z</time>
      </trkpt>
      <trkpt lat="45.14408" lon="4.23871">
        <ele>883.6</ele>
        <time>2021-08-12T10:15:14.000Z</time>
      </trkpt>
      <trkpt lat="45.14404" lon="4.23848">
        <ele>882.9</ele>
        <time>2021-08-12T10:15:16.000Z</time>
      </trkpt>
      <trkpt lat="45.14402" lon="4.23833">
        <ele>882.4</ele>
        <time>2021-08-12T10:15:18.000Z</time>
      </trkpt>
      <trkpt lat="45.144" lon="4.23814">
        <ele>881.3</ele>
        <time>2021-08-12T10:15:21.000Z</time>
      </trkpt>
      <trkpt lat="45.14396" lon="4.23801">
        <ele>880.9</ele>
        <time>2021-08-12T10:15:23.000Z</time>
      </trkpt>
      <trkpt lat="45.14392" lon="4.23789">
        <ele>880.3</ele>
        <time>2021-08-12T10:15:25.000Z</time>
      </trkpt>
      <trkpt lat="45.14387" lon="4.23776">
        <ele>880.1</ele>
        <time>2021-08-12T10:15:28.000Z</time>
      </trkpt>
      <trkpt lat="45.14376" lon="4.23772">
        <ele>881.2</ele>
        <time>2021-08-12T10:15:31.000Z</time>
      </trkpt>
      <trkpt lat="45.14365" lon="4.23775">
        <ele>883.1</ele>
        <time>2021-08-12T10:15:33.000Z</time>
      </trkpt>
      <trkpt lat="45.14355" lon="4.23784">
        <ele>885.5</ele>
        <time>2021-08-12T10:15:35.000Z</time>
      </trkpt>
      <trkpt lat="45.14345" lon="4.23795">
        <ele>887.9</ele>
        <time>2021-08-12T10:15:37.000Z</time>
      </trkpt>
      <trkpt lat="45.14337" lon="4.23806">
        <ele>890.4</ele>
        <time>2021-08-12T10:15:39.000Z</time>
      </trkpt>
      <trkpt lat="45.14328" lon="4.23813">
        <ele>891.3</ele>
        <time>2021-08-12T10:15:41.000Z</time>
      </trkpt>
      <trkpt lat="45.14317" lon="4.23805">
        <ele>889.5</ele>
        <time>2021-08-12T10:15:43.000Z</time>
      </trkpt>
      <trkpt lat="45.14306" lon="4.23791">
        <ele>887.1</ele>
        <time>2021-08-12T10:15:45.000Z</time>
      </trkpt>
      <trkpt lat="45.14294" lon="4.23776">
        <ele>884.7</ele>
        <time>2021-08-12T10:15:47.000Z</time>
      </trkpt>
      <trkpt lat="45.14281" lon="4.23763">
        <ele>882.5</ele>
        <time>2021-08-12T10:15:49.000Z</time>
      </trkpt>
      <trkpt lat="45.14269" lon="4.23749">
        <ele>880.2</ele>
        <time>2021-08-12T10:15:51.000Z</time>
      </trkpt>
      <trkpt lat="45.14256" lon="4.23736">
        <ele>877.5</ele>
        <time>2021-08-12T10:15:53.000Z</time>
      </trkpt>
      <trkpt lat="45.14245" lon="4.23721">
        <ele>874.6</ele>
        <time>2021-08-12T10:15:55.000Z</time>
      </trkpt>
      <trkpt lat="45.14239" lon="4.237">
        <ele>871.7</ele>
        <time>2021-08-12T10:15:57.000Z</time>
      </trkpt>
      <trkpt lat="45.14234" lon="4.23682">
        <ele>869</ele>
        <time>2021-08-12T10:15:59.000Z</time>
      </trkpt>
      <trkpt lat="45.14228" lon="4.23667">
        <ele>867.2</ele>
        <time>2021-08-12T10:16:01.000Z</time>
      </trkpt>
      <trkpt lat="45.14222" lon="4.23657">
        <ele>866.5</ele>
        <time>2021-08-12T10:16:03.000Z</time>
      </trkpt>
      <trkpt lat="45.14225" lon="4.23641">
        <ele>865.7</ele>
        <time>2021-08-12T10:16:06.000Z</time>
      </trkpt>
      <trkpt lat="45.14235" lon="4.23633">
        <ele>865.6</ele>
        <time>2021-08-12T10:16:09.000Z</time>
      </trkpt>
      <trkpt lat="45.14244" lon="4.23624">
        <ele>865.3</ele>
        <time>2021-08-12T10:16:12.000Z</time>
      </trkpt>
      <trkpt lat="45.14257" lon="4.23615">
        <ele>864.9</ele>
        <time>2021-08-12T10:16:15.000Z</time>
      </trkpt>
      <trkpt lat="45.14265" lon="4.23607">
        <ele>864.5</ele>
        <time>2021-08-12T10:16:17.000Z</time>
      </trkpt>
      <trkpt lat="45.14274" lon="4.23598">
        <ele>864</ele>
        <time>2021-08-12T10:16:19.000Z</time>
      </trkpt>
      <trkpt lat="45.14283" lon="4.23589">
        <ele>863.4</ele>
        <time>2021-08-12T10:16:21.000Z</time>
      </trkpt>
      <trkpt lat="45.14293" lon="4.23579">
        <ele>862.9</ele>
        <time>2021-08-12T10:16:23.000Z</time>
      </trkpt>
      <trkpt lat="45.14303" lon="4.23569">
        <ele>862.7</ele>
        <time>2021-08-12T10:16:25.000Z</time>
      </trkpt>
      <trkpt lat="45.14311" lon="4.2356">
        <ele>862.4</ele>
        <time>2021-08-12T10:16:27.000Z</time>
      </trkpt>
      <trkpt lat="45.1432" lon="4.23552">
        <ele>862.2</ele>
        <time>2021-08-12T10:16:29.000Z</time>
      </trkpt>
      <trkpt lat="45.14329" lon="4.23542">
        <ele>862</ele>
        <time>2021-08-12T10:16:31.000Z</time>
      </trkpt>
      <trkpt lat="45.14338" lon="4.23533">
        <ele>861.5</ele>
        <time>2021-08-12T10:16:33.000Z</time>
      </trkpt>
      <trkpt lat="45.14346" lon="4.23526">
        <ele>860.8</ele>
        <time>2021-08-12T10:16:35.000Z</time>
      </trkpt>
      <trkpt lat="45.14354" lon="4.23517">
        <ele>860.1</ele>
        <time>2021-08-12T10:16:37.000Z</time>
      </trkpt>
      <trkpt lat="45.14362" lon="4.23508">
        <ele>859.4</ele>
        <time>2021-08-12T10:16:39.000Z</time>
      </trkpt>
      <trkpt lat="45.14369" lon="4.235">
        <ele>858.8</ele>
        <time>2021-08-12T10:16:41.000Z</time>
      </trkpt>
      <trkpt lat="45.14377" lon="4.23492">
        <ele>858.5</ele>
        <time>2021-08-12T10:16:43.000Z</time>
      </trkpt>
      <trkpt lat="45.14384" lon="4.23484">
        <ele>858.2</ele>
        <time>2021-08-12T10:16:45.000Z</time>
      </trkpt>
      <trkpt lat="45.14391" lon="4.23476">
        <ele>857.8</ele>
        <time>2021-08-12T10:16:47.000Z</time>
      </trkpt>
      <trkpt lat="45.14403" lon="4.23465">
        <ele>857.2</ele>
        <time>2021-08-12T10:16:50.000Z</time>
      </trkpt>
      <trkpt lat="45.14411" lon="4.23457">
        <ele>856.8</ele>
        <time>2021-08-12T10:16:52.000Z</time>
      </trkpt>
      <trkpt lat="45.14424" lon="4.23449">
        <ele>855.9</ele>
        <time>2021-08-12T10:16:55.000Z</time>
      </trkpt>
      <trkpt lat="45.14434" lon="4.23444">
        <ele>854.9</ele>
        <time>2021-08-12T10:16:57.000Z</time>
      </trkpt>
      <trkpt lat="45.14445" lon="4.23436">
        <ele>854</ele>
        <time>2021-08-12T10:16:59.000Z</time>
      </trkpt>
      <trkpt lat="45.14455" lon="4.23427">
        <ele>853.1</ele>
        <time>2021-08-12T10:17:01.000Z</time>
      </trkpt>
      <trkpt lat="45.14465" lon="4.23416">
        <ele>852.3</ele>
        <time>2021-08-12T10:17:03.000Z</time>
      </trkpt>
      <trkpt lat="45.14477" lon="4.23402">
        <ele>851.2</ele>
        <time>2021-08-12T10:17:05.000Z</time>
      </trkpt>
      <trkpt lat="45.14489" lon="4.2339">
        <ele>850.3</ele>
        <time>2021-08-12T10:17:07.000Z</time>
      </trkpt>
      <trkpt lat="45.14501" lon="4.23378">
        <ele>849.4</ele>
        <time>2021-08-12T10:17:09.000Z</time>
      </trkpt>
      <trkpt lat="45.14513" lon="4.23365">
        <ele>848.3</ele>
        <time>2021-08-12T10:17:11.000Z</time>
      </trkpt>
      <trkpt lat="45.14525" lon="4.23352">
        <ele>847.1</ele>
        <time>2021-08-12T10:17:13.000Z</time>
      </trkpt>
      <trkpt lat="45.14535" lon="4.2334">
        <ele>845.8</ele>
        <time>2021-08-12T10:17:15.000Z</time>
      </trkpt>
      <trkpt lat="45.14546" lon="4.23328">
        <ele>844.6</ele>
        <time>2021-08-12T10:17:17.000Z</time>
      </trkpt>
      <trkpt lat="45.14557" lon="4.23318">
        <ele>843.7</ele>
        <time>2021-08-12T10:17:19.000Z</time>
      </trkpt>
      <trkpt lat="45.14568" lon="4.23307">
        <ele>843.1</ele>
        <time>2021-08-12T10:17:21.000Z</time>
      </trkpt>
      <trkpt lat="45.14577" lon="4.23293">
        <ele>842.9</ele>
        <time>2021-08-12T10:17:23.000Z</time>
      </trkpt>
      <trkpt lat="45.14588" lon="4.23279">
        <ele>843</ele>
        <time>2021-08-12T10:17:25.000Z</time>
      </trkpt>
      <trkpt lat="45.14599" lon="4.23263">
        <ele>843.3</ele>
        <time>2021-08-12T10:17:27.000Z</time>
      </trkpt>
      <trkpt lat="45.14607" lon="4.23244">
        <ele>843.9</ele>
        <time>2021-08-12T10:17:29.000Z</time>
      </trkpt>
      <trkpt lat="45.14611" lon="4.23225">
        <ele>845.3</ele>
        <time>2021-08-12T10:17:31.000Z</time>
      </trkpt>
      <trkpt lat="45.1461" lon="4.23207">
        <ele>846.9</ele>
        <time>2021-08-12T10:17:33.000Z</time>
      </trkpt>
      <trkpt lat="45.14605" lon="4.23194">
        <ele>848.8</ele>
        <time>2021-08-12T10:17:36.000Z</time>
      </trkpt>
      <trkpt lat="45.14598" lon="4.23184">
        <ele>850.5</ele>
        <time>2021-08-12T10:17:39.000Z</time>
      </trkpt>
      <trkpt lat="45.14593" lon="4.23167">
        <ele>852.8</ele>
        <time>2021-08-12T10:17:42.000Z</time>
      </trkpt>
      <trkpt lat="45.14592" lon="4.23152">
        <ele>852.5</ele>
        <time>2021-08-12T10:17:46.000Z</time>
      </trkpt>
      <trkpt lat="45.14591" lon="4.2314">
        <ele>852.4</ele>
        <time>2021-08-12T10:17:49.000Z</time>
      </trkpt>
      <trkpt lat="45.14595" lon="4.23128">
        <ele>851.8</ele>
        <time>2021-08-12T10:17:51.000Z</time>
      </trkpt>
      <trkpt lat="45.14602" lon="4.23115">
        <ele>851.3</ele>
        <time>2021-08-12T10:17:53.000Z</time>
      </trkpt>
      <trkpt lat="45.14612" lon="4.23106">
        <ele>851</ele>
        <time>2021-08-12T10:17:55.000Z</time>
      </trkpt>
      <trkpt lat="45.14621" lon="4.23095">
        <ele>851.1</ele>
        <time>2021-08-12T10:17:57.000Z</time>
      </trkpt>
      <trkpt lat="45.14628" lon="4.23083">
        <ele>851.4</ele>
        <time>2021-08-12T10:17:59.000Z</time>
      </trkpt>
      <trkpt lat="45.14633" lon="4.23071">
        <ele>850.6</ele>
        <time>2021-08-12T10:18:01.000Z</time>
      </trkpt>
      <trkpt lat="45.14633" lon="4.23056">
        <ele>849.3</ele>
        <time>2021-08-12T10:18:03.000Z</time>
      </trkpt>
      <trkpt lat="45.14635" lon="4.23041">
        <ele>848.2</ele>
        <time>2021-08-12T10:18:05.000Z</time>
      </trkpt>
      <trkpt lat="45.14638" lon="4.23026">
        <ele>847.4</ele>
        <time>2021-08-12T10:18:07.000Z</time>
      </trkpt>
      <trkpt lat="45.14638" lon="4.2301">
        <ele>846.2</ele>
        <time>2021-08-12T10:18:09.000Z</time>
      </trkpt>
      <trkpt lat="45.1464" lon="4.22983">
        <ele>843.1</ele>
        <time>2021-08-12T10:18:13.000Z</time>
      </trkpt>
      <trkpt lat="45.14639" lon="4.2297">
        <ele>840.9</ele>
        <time>2021-08-12T10:18:15.000Z</time>
      </trkpt>
      <trkpt lat="45.14637" lon="4.22953">
        <ele>837.8</ele>
        <time>2021-08-12T10:18:18.000Z</time>
      </trkpt>
      <trkpt lat="45.14636" lon="4.22935">
        <ele>835.1</ele>
        <time>2021-08-12T10:18:21.000Z</time>
      </trkpt>
      <trkpt lat="45.14633" lon="4.22922">
        <ele>833</ele>
        <time>2021-08-12T10:18:24.000Z</time>
      </trkpt>
      <trkpt lat="45.14622" lon="4.22917">
        <ele>831.9</ele>
        <time>2021-08-12T10:18:28.000Z</time>
      </trkpt>
      <trkpt lat="45.14613" lon="4.22906">
        <ele>830.3</ele>
        <time>2021-08-12T10:18:31.000Z</time>
      </trkpt>
      <trkpt lat="45.14605" lon="4.22898">
        <ele>828.9</ele>
        <time>2021-08-12T10:18:34.000Z</time>
      </trkpt>
      <trkpt lat="45.14595" lon="4.22887">
        <ele>827.5</ele>
        <time>2021-08-12T10:18:37.000Z</time>
      </trkpt>
      <trkpt lat="45.14584" lon="4.2288">
        <ele>826.6</ele>
        <time>2021-08-12T10:18:39.000Z</time>
      </trkpt>
      <trkpt lat="45.14573" lon="4.22876">
        <ele>827.2</ele>
        <time>2021-08-12T10:18:42.000Z</time>
      </trkpt>
      <trkpt lat="45.14562" lon="4.22871">
        <ele>827.7</ele>
        <time>2021-08-12T10:18:44.000Z</time>
      </trkpt>
      <trkpt lat="45.14553" lon="4.22868">
        <ele>828.1</ele>
        <time>2021-08-12T10:18:47.000Z</time>
      </trkpt>
      <trkpt lat="45.14542" lon="4.22865">
        <ele>828.7</ele>
        <time>2021-08-12T10:18:50.000Z</time>
      </trkpt>
      <trkpt lat="45.14531" lon="4.22862">
        <ele>829.3</ele>
        <time>2021-08-12T10:18:52.000Z</time>
      </trkpt>
      <trkpt lat="45.14516" lon="4.22861">
        <ele>830.4</ele>
        <time>2021-08-12T10:18:54.000Z</time>
      </trkpt>
      <trkpt lat="45.14501" lon="4.22858">
        <ele>831.3</ele>
        <time>2021-08-12T10:18:56.000Z</time>
      </trkpt>
      <trkpt lat="45.14485" lon="4.22852">
        <ele>830.4</ele>
        <time>2021-08-12T10:18:58.000Z</time>
      </trkpt>
      <trkpt lat="45.14476" lon="4.22845">
        <ele>829.2</ele>
        <time>2021-08-12T10:19:01.000Z</time>
      </trkpt>
      <trkpt lat="45.14465" lon="4.22843">
        <ele>829.3</ele>
        <time>2021-08-12T10:19:04.000Z</time>
      </trkpt>
      <trkpt lat="45.14455" lon="4.22837">
        <ele>828.8</ele>
        <time>2021-08-12T10:19:08.000Z</time>
      </trkpt>
      <trkpt lat="45.14445" lon="4.22833">
        <ele>828.4</ele>
        <time>2021-08-12T10:19:13.000Z</time>
      </trkpt>
      <trkpt lat="45.14429" lon="4.22827">
        <ele>828</ele>
        <time>2021-08-12T10:19:17.000Z</time>
      </trkpt>
      <trkpt lat="45.14417" lon="4.22826">
        <ele>828.2</ele>
        <time>2021-08-12T10:19:19.000Z</time>
      </trkpt>
      <trkpt lat="45.14405" lon="4.22831">
        <ele>830.1</ele>
        <time>2021-08-12T10:19:22.000Z</time>
      </trkpt>
      <trkpt lat="45.14391" lon="4.22832">
        <ele>831.2</ele>
        <time>2021-08-12T10:19:25.000Z</time>
      </trkpt>
      <trkpt lat="45.1438" lon="4.22834">
        <ele>832.2</ele>
        <time>2021-08-12T10:19:28.000Z</time>
      </trkpt>
      <trkpt lat="45.14368" lon="4.22833">
        <ele>832.9</ele>
        <time>2021-08-12T10:19:31.000Z</time>
      </trkpt>
      <trkpt lat="45.14351" lon="4.22831">
        <ele>833.3</ele>
        <time>2021-08-12T10:19:33.000Z</time>
      </trkpt>
      <trkpt lat="45.14337" lon="4.2283">
        <ele>833.9</ele>
        <time>2021-08-12T10:19:35.000Z</time>
      </trkpt>
      <trkpt lat="45.1432" lon="4.2283">
        <ele>833.1</ele>
        <time>2021-08-12T10:19:37.000Z</time>
      </trkpt>
      <trkpt lat="45.1431" lon="4.22832">
        <ele>832.7</ele>
        <time>2021-08-12T10:19:38.000Z</time>
      </trkpt>
      <trkpt lat="45.14296" lon="4.22837">
        <ele>832.6</ele>
        <time>2021-08-12T10:19:40.000Z</time>
      </trkpt>
      <trkpt lat="45.14286" lon="4.22845">
        <ele>832.3</ele>
        <time>2021-08-12T10:19:42.000Z</time>
      </trkpt>
      <trkpt lat="45.14279" lon="4.22857">
        <ele>832.8</ele>
        <time>2021-08-12T10:19:44.000Z</time>
      </trkpt>
      <trkpt lat="45.14271" lon="4.22868">
        <ele>833.1</ele>
        <time>2021-08-12T10:19:46.000Z</time>
      </trkpt>
      <trkpt lat="45.14262" lon="4.22866">
        <ele>832.1</ele>
        <time>2021-08-12T10:19:48.000Z</time>
      </trkpt>
      <trkpt lat="45.14254" lon="4.2286">
        <ele>831.1</ele>
        <time>2021-08-12T10:19:51.000Z</time>
      </trkpt>
      <trkpt lat="45.14243" lon="4.22862">
        <ele>830.7</ele>
        <time>2021-08-12T10:19:53.000Z</time>
      </trkpt>
      <trkpt lat="45.14233" lon="4.22864">
        <ele>830.2</ele>
        <time>2021-08-12T10:19:56.000Z</time>
      </trkpt>
      <trkpt lat="45.14223" lon="4.22863">
        <ele>829.5</ele>
        <time>2021-08-12T10:19:59.000Z</time>
      </trkpt>
      <trkpt lat="45.14211" lon="4.22863">
        <ele>829</ele>
        <time>2021-08-12T10:20:02.000Z</time>
      </trkpt>
      <trkpt lat="45.14201" lon="4.22868">
        <ele>828.8</ele>
        <time>2021-08-12T10:20:05.000Z</time>
      </trkpt>
      <trkpt lat="45.14189" lon="4.22871">
        <ele>828.7</ele>
        <time>2021-08-12T10:20:08.000Z</time>
      </trkpt>
      <trkpt lat="45.14178" lon="4.22875">
        <ele>828.4</ele>
        <time>2021-08-12T10:20:11.000Z</time>
      </trkpt>
      <trkpt lat="45.14165" lon="4.2288">
        <ele>828.5</ele>
        <time>2021-08-12T10:20:14.000Z</time>
      </trkpt>
      <trkpt lat="45.1415" lon="4.22886">
        <ele>829.2</ele>
        <time>2021-08-12T10:20:16.000Z</time>
      </trkpt>
      <trkpt lat="45.14139" lon="4.2289">
        <ele>829.7</ele>
        <time>2021-08-12T10:20:18.000Z</time>
      </trkpt>
      <trkpt lat="45.14129" lon="4.22894">
        <ele>830.3</ele>
        <time>2021-08-12T10:20:20.000Z</time>
      </trkpt>
      <trkpt lat="45.1412" lon="4.22897">
        <ele>831</ele>
        <time>2021-08-12T10:20:22.000Z</time>
      </trkpt>
      <trkpt lat="45.14111" lon="4.22903">
        <ele>831.9</ele>
        <time>2021-08-12T10:20:25.000Z</time>
      </trkpt>
      <trkpt lat="45.14102" lon="4.22906">
        <ele>832.5</ele>
        <time>2021-08-12T10:20:28.000Z</time>
      </trkpt>
      <trkpt lat="45.14092" lon="4.22908">
        <ele>833.1</ele>
        <time>2021-08-12T10:20:31.000Z</time>
      </trkpt>
      <trkpt lat="45.14081" lon="4.22912">
        <ele>833.8</ele>
        <time>2021-08-12T10:20:36.000Z</time>
      </trkpt>
      <trkpt lat="45.1407" lon="4.22915">
        <ele>833.1</ele>
        <time>2021-08-12T10:20:39.000Z</time>
      </trkpt>
      <trkpt lat="45.1406" lon="4.22916">
        <ele>832.3</ele>
        <time>2021-08-12T10:20:41.000Z</time>
      </trkpt>
      <trkpt lat="45.14051" lon="4.22922">
        <ele>831.9</ele>
        <time>2021-08-12T10:20:45.000Z</time>
      </trkpt>
      <trkpt lat="45.14043" lon="4.22936">
        <ele>832.4</ele>
        <time>2021-08-12T10:20:48.000Z</time>
      </trkpt>
      <trkpt lat="45.14038" lon="4.22954">
        <ele>833.7</ele>
        <time>2021-08-12T10:20:50.000Z</time>
      </trkpt>
      <trkpt lat="45.14037" lon="4.2297">
        <ele>835.2</ele>
        <time>2021-08-12T10:20:52.000Z</time>
      </trkpt>
      <trkpt lat="45.14035" lon="4.22982">
        <ele>836.4</ele>
        <time>2021-08-12T10:20:56.000Z</time>
      </trkpt>
      <trkpt lat="45.14024" lon="4.22989">
        <ele>836.6</ele>
        <time>2021-08-12T10:21:01.000Z</time>
      </trkpt>
      <trkpt lat="45.14011" lon="4.22999">
        <ele>837.3</ele>
        <time>2021-08-12T10:21:03.000Z</time>
      </trkpt>
      <trkpt lat="45.14003" lon="4.23009">
        <ele>837.1</ele>
        <time>2021-08-12T10:21:05.000Z</time>
      </trkpt>
      <trkpt lat="45.13995" lon="4.23014">
        <ele>836.1</ele>
        <time>2021-08-12T10:21:13.000Z</time>
      </trkpt>
      <trkpt lat="45.13985" lon="4.23011">
        <ele>834.4</ele>
        <time>2021-08-12T10:21:25.000Z</time>
      </trkpt>
      <trkpt lat="45.13976" lon="4.23014">
        <ele>832.8</ele>
        <time>2021-08-12T10:21:31.000Z</time>
      </trkpt>
      <trkpt lat="45.13967" lon="4.23012">
        <ele>831.2</ele>
        <time>2021-08-12T10:21:44.000Z</time>
      </trkpt>
      <trkpt lat="45.13968" lon="4.2301">
        <ele>831.4</ele>
        <time>2021-08-12T10:21:47.000Z</time>
      </trkpt>
      <trkpt lat="45.13968" lon="4.2301">
        <ele>831.4</ele>
        <time>2021-08-12T10:21:48.000Z</time>
      </trkpt>
      <trkpt lat="45.13966" lon="4.23009">
        <ele>831.1</ele>
        <time>2021-08-12T10:21:56.000Z</time>
      </trkpt>
      <trkpt lat="45.13966" lon="4.23008">
        <ele>831.1</ele>
        <time>2021-08-12T10:21:57.000Z</time>
      </trkpt>
      <trkpt lat="45.13967" lon="4.23006">
        <ele>831.1</ele>
        <time>2021-08-12T10:22:05.000Z</time>
      </trkpt>
      <trkpt lat="45.13967" lon="4.23006">
        <ele>831.1</ele>
        <time>2021-08-12T10:22:27.000Z</time>
      </trkpt>
      <trkpt lat="45.13969" lon="4.22994">
        <ele>830.7</ele>
        <time>2021-08-12T10:22:45.000Z</time>
      </trkpt>
      <trkpt lat="45.13969" lon="4.22995">
        <ele>830.9</ele>
        <time>2021-08-12T10:22:46.000Z</time>
      </trkpt>
      <trkpt lat="45.13969" lon="4.22995">
        <ele>830.9</ele>
        <time>2021-08-12T10:22:48.000Z</time>
      </trkpt>
      <trkpt lat="45.13969" lon="4.22995">
        <ele>830.9</ele>
        <time>2021-08-12T10:22:51.000Z</time>
      </trkpt>
      <trkpt lat="45.13969" lon="4.22995">
        <ele>830.9</ele>
        <time>2021-08-12T10:22:52.000Z</time>
      </trkpt>
      <trkpt lat="45.13969" lon="4.22995">
        <ele>830.9</ele>
        <time>2021-08-12T10:23:36.000Z</time>
      </trkpt>
      <trkpt lat="45.1396" lon="4.22996">
        <ele>829.3</ele>
        <time>2021-08-12T10:23:51.000Z</time>
      </trkpt>
      <trkpt lat="45.1396" lon="4.22996">
        <ele>829.4</ele>
        <time>2021-08-12T10:23:53.000Z</time>
      </trkpt>
      <trkpt lat="45.13959" lon="4.22997">
        <ele>829.3</ele>
        <time>2021-08-12T10:23:54.000Z</time>
      </trkpt>
      <trkpt lat="45.13952" lon="4.22988">
        <ele>827.4</ele>
        <time>2021-08-12T10:24:06.000Z</time>
      </trkpt>
      <trkpt lat="45.13948" lon="4.22975">
        <ele>825.7</ele>
        <time>2021-08-12T10:24:13.000Z</time>
      </trkpt>
      <trkpt lat="45.13946" lon="4.22961">
        <ele>824.2</ele>
        <time>2021-08-12T10:24:18.000Z</time>
      </trkpt>
      <trkpt lat="45.13943" lon="4.22945">
        <ele>822.6</ele>
        <time>2021-08-12T10:24:22.000Z</time>
      </trkpt>
      <trkpt lat="45.13944" lon="4.22932">
        <ele>821.8</ele>
        <time>2021-08-12T10:24:25.000Z</time>
      </trkpt>
      <trkpt lat="45.13946" lon="4.22918">
        <ele>821</ele>
        <time>2021-08-12T10:24:28.000Z</time>
      </trkpt>
      <trkpt lat="45.13938" lon="4.22908">
        <ele>819.8</ele>
        <time>2021-08-12T10:24:32.000Z</time>
      </trkpt>
      <trkpt lat="45.13926" lon="4.22908">
        <ele>818.7</ele>
        <time>2021-08-12T10:24:35.000Z</time>
      </trkpt>
      <trkpt lat="45.13914" lon="4.22906">
        <ele>818</ele>
        <time>2021-08-12T10:24:39.000Z</time>
      </trkpt>
      <trkpt lat="45.13904" lon="4.22907">
        <ele>818.9</ele>
        <time>2021-08-12T10:24:42.000Z</time>
      </trkpt>
      <trkpt lat="45.13894" lon="4.22909">
        <ele>819.8</ele>
        <time>2021-08-12T10:24:44.000Z</time>
      </trkpt>
      <trkpt lat="45.13881" lon="4.2291">
        <ele>821</ele>
        <time>2021-08-12T10:24:47.000Z</time>
      </trkpt>
      <trkpt lat="45.1387" lon="4.22913">
        <ele>822.2</ele>
        <time>2021-08-12T10:24:50.000Z</time>
      </trkpt>
      <trkpt lat="45.1386" lon="4.22917">
        <ele>823.4</ele>
        <time>2021-08-12T10:24:53.000Z</time>
      </trkpt>
      <trkpt lat="45.13849" lon="4.2292">
        <ele>824.6</ele>
        <time>2021-08-12T10:24:56.000Z</time>
      </trkpt>
      <trkpt lat="45.1384" lon="4.22926">
        <ele>825.7</ele>
        <time>2021-08-12T10:24:59.000Z</time>
      </trkpt>
      <trkpt lat="45.13829" lon="4.22928">
        <ele>826.5</ele>
        <time>2021-08-12T10:25:02.000Z</time>
      </trkpt>
      <trkpt lat="45.1382" lon="4.22928">
        <ele>826.7</ele>
        <time>2021-08-12T10:25:05.000Z</time>
      </trkpt>
      <trkpt lat="45.1381" lon="4.22927">
        <ele>826.8</ele>
        <time>2021-08-12T10:25:08.000Z</time>
      </trkpt>
      <trkpt lat="45.13798" lon="4.22927">
        <ele>826.9</ele>
        <time>2021-08-12T10:25:11.000Z</time>
      </trkpt>
      <trkpt lat="45.13787" lon="4.22931">
        <ele>827.4</ele>
        <time>2021-08-12T10:25:14.000Z</time>
      </trkpt>
      <trkpt lat="45.13776" lon="4.22937">
        <ele>828</ele>
        <time>2021-08-12T10:25:17.000Z</time>
      </trkpt>
      <trkpt lat="45.13765" lon="4.22941">
        <ele>828.6</ele>
        <time>2021-08-12T10:25:21.000Z</time>
      </trkpt>
      <trkpt lat="45.13754" lon="4.22939">
        <ele>828.8</ele>
        <time>2021-08-12T10:25:24.000Z</time>
      </trkpt>
      <trkpt lat="45.13745" lon="4.22938">
        <ele>829</ele>
        <time>2021-08-12T10:25:26.000Z</time>
      </trkpt>
      <trkpt lat="45.13735" lon="4.22937">
        <ele>829.4</ele>
        <time>2021-08-12T10:25:28.000Z</time>
      </trkpt>
      <trkpt lat="45.13725" lon="4.22938">
        <ele>830.1</ele>
        <time>2021-08-12T10:25:31.000Z</time>
      </trkpt>
      <trkpt lat="45.13714" lon="4.22937">
        <ele>830.6</ele>
        <time>2021-08-12T10:25:35.000Z</time>
      </trkpt>
      <trkpt lat="45.13704" lon="4.22934">
        <ele>830.8</ele>
        <time>2021-08-12T10:25:38.000Z</time>
      </trkpt>
      <trkpt lat="45.13697" lon="4.22926">
        <ele>830.4</ele>
        <time>2021-08-12T10:25:41.000Z</time>
      </trkpt>
      <trkpt lat="45.13702" lon="4.22915">
        <ele>829.4</ele>
        <time>2021-08-12T10:25:46.000Z</time>
      </trkpt>
      <trkpt lat="45.13711" lon="4.22908">
        <ele>829</ele>
        <time>2021-08-12T10:25:50.000Z</time>
      </trkpt>
      <trkpt lat="45.13722" lon="4.22903">
        <ele>828.5</ele>
        <time>2021-08-12T10:25:54.000Z</time>
      </trkpt>
      <trkpt lat="45.13732" lon="4.22899">
        <ele>827.9</ele>
        <time>2021-08-12T10:25:58.000Z</time>
      </trkpt>
      <trkpt lat="45.13739" lon="4.22891">
        <ele>827.5</ele>
        <time>2021-08-12T10:26:03.000Z</time>
      </trkpt>
      <trkpt lat="45.13746" lon="4.22884">
        <ele>826.9</ele>
        <time>2021-08-12T10:26:06.000Z</time>
      </trkpt>
      <trkpt lat="45.13755" lon="4.22876">
        <ele>826.2</ele>
        <time>2021-08-12T10:26:12.000Z</time>
      </trkpt>
      <trkpt lat="45.13762" lon="4.22866">
        <ele>825.4</ele>
        <time>2021-08-12T10:26:17.000Z</time>
      </trkpt>
      <trkpt lat="45.1377" lon="4.22857">
        <ele>824.4</ele>
        <time>2021-08-12T10:26:21.000Z</time>
      </trkpt>
      <trkpt lat="45.13779" lon="4.22846">
        <ele>823.1</ele>
        <time>2021-08-12T10:26:25.000Z</time>
      </trkpt>
      <trkpt lat="45.13786" lon="4.22837">
        <ele>821.9</ele>
        <time>2021-08-12T10:26:29.000Z</time>
      </trkpt>
      <trkpt lat="45.13793" lon="4.22826">
        <ele>820.8</ele>
        <time>2021-08-12T10:26:34.000Z</time>
      </trkpt>
      <trkpt lat="45.13796" lon="4.22814">
        <ele>820.5</ele>
        <time>2021-08-12T10:26:38.000Z</time>
      </trkpt>
      <trkpt lat="45.13796" lon="4.228">
        <ele>820.6</ele>
        <time>2021-08-12T10:26:42.000Z</time>
      </trkpt>
      <trkpt lat="45.13793" lon="4.22788">
        <ele>820.9</ele>
        <time>2021-08-12T10:26:46.000Z</time>
      </trkpt>
      <trkpt lat="45.13788" lon="4.22775">
        <ele>821.3</ele>
        <time>2021-08-12T10:26:51.000Z</time>
      </trkpt>
      <trkpt lat="45.1378" lon="4.22764">
        <ele>821.9</ele>
        <time>2021-08-12T10:26:56.000Z</time>
      </trkpt>
      <trkpt lat="45.13772" lon="4.22756">
        <ele>822.5</ele>
        <time>2021-08-12T10:27:01.000Z</time>
      </trkpt>
      <trkpt lat="45.13762" lon="4.2275">
        <ele>823.1</ele>
        <time>2021-08-12T10:27:06.000Z</time>
      </trkpt>
      <trkpt lat="45.13752" lon="4.22747">
        <ele>823.9</ele>
        <time>2021-08-12T10:27:11.000Z</time>
      </trkpt>
      <trkpt lat="45.13742" lon="4.22744">
        <ele>825.6</ele>
        <time>2021-08-12T10:27:16.000Z</time>
      </trkpt>
      <trkpt lat="45.13733" lon="4.22743">
        <ele>827.3</ele>
        <time>2021-08-12T10:27:21.000Z</time>
      </trkpt>
      <trkpt lat="45.13723" lon="4.22739">
        <ele>829.2</ele>
        <time>2021-08-12T10:27:26.000Z</time>
      </trkpt>
      <trkpt lat="45.13713" lon="4.22733">
        <ele>831.2</ele>
        <time>2021-08-12T10:27:31.000Z</time>
      </trkpt>
      <trkpt lat="45.13703" lon="4.22731">
        <ele>833.2</ele>
        <time>2021-08-12T10:27:36.000Z</time>
      </trkpt>
      <trkpt lat="45.13692" lon="4.22728">
        <ele>835.3</ele>
        <time>2021-08-12T10:27:41.000Z</time>
      </trkpt>
      <trkpt lat="45.13682" lon="4.22726">
        <ele>837.2</ele>
        <time>2021-08-12T10:27:46.000Z</time>
      </trkpt>
      <trkpt lat="45.13672" lon="4.22725">
        <ele>839.3</ele>
        <time>2021-08-12T10:27:51.000Z</time>
      </trkpt>
      <trkpt lat="45.13663" lon="4.22725">
        <ele>840.7</ele>
        <time>2021-08-12T10:27:55.000Z</time>
      </trkpt>
      <trkpt lat="45.13653" lon="4.22725">
        <ele>841.6</ele>
        <time>2021-08-12T10:27:59.000Z</time>
      </trkpt>
      <trkpt lat="45.13643" lon="4.22725">
        <ele>842.6</ele>
        <time>2021-08-12T10:28:03.000Z</time>
      </trkpt>
      <trkpt lat="45.13633" lon="4.22725">
        <ele>843.6</ele>
        <time>2021-08-12T10:28:07.000Z</time>
      </trkpt>
      <trkpt lat="45.13624" lon="4.22727">
        <ele>844.5</ele>
        <time>2021-08-12T10:28:11.000Z</time>
      </trkpt>
      <trkpt lat="45.13614" lon="4.22726">
        <ele>845.4</ele>
        <time>2021-08-12T10:28:16.000Z</time>
      </trkpt>
      <trkpt lat="45.13604" lon="4.22727">
        <ele>846.4</ele>
        <time>2021-08-12T10:28:21.000Z</time>
      </trkpt>
      <trkpt lat="45.13595" lon="4.22727">
        <ele>847.3</ele>
        <time>2021-08-12T10:28:26.000Z</time>
      </trkpt>
      <trkpt lat="45.13586" lon="4.22729">
        <ele>848.2</ele>
        <time>2021-08-12T10:28:31.000Z</time>
      </trkpt>
      <trkpt lat="45.13576" lon="4.22728">
        <ele>849.1</ele>
        <time>2021-08-12T10:28:36.000Z</time>
      </trkpt>
      <trkpt lat="45.13566" lon="4.22729">
        <ele>850</ele>
        <time>2021-08-12T10:28:41.000Z</time>
      </trkpt>
      <trkpt lat="45.13556" lon="4.22729">
        <ele>850.8</ele>
        <time>2021-08-12T10:28:46.000Z</time>
      </trkpt>
      <trkpt lat="45.13545" lon="4.2273">
        <ele>851.7</ele>
        <time>2021-08-12T10:28:52.000Z</time>
      </trkpt>
      <trkpt lat="45.13535" lon="4.2273">
        <ele>852.5</ele>
        <time>2021-08-12T10:28:57.000Z</time>
      </trkpt>
      <trkpt lat="45.13525" lon="4.22731">
        <ele>853.4</ele>
        <time>2021-08-12T10:29:02.000Z</time>
      </trkpt>
      <trkpt lat="45.13516" lon="4.22731">
        <ele>854.1</ele>
        <time>2021-08-12T10:29:07.000Z</time>
      </trkpt>
      <trkpt lat="45.13507" lon="4.2273">
        <ele>854.9</ele>
        <time>2021-08-12T10:29:12.000Z</time>
      </trkpt>
      <trkpt lat="45.13497" lon="4.22729">
        <ele>855.8</ele>
        <time>2021-08-12T10:29:17.000Z</time>
      </trkpt>
      <trkpt lat="45.13488" lon="4.22732">
        <ele>857.2</ele>
        <time>2021-08-12T10:29:22.000Z</time>
      </trkpt>
      <trkpt lat="45.13477" lon="4.22731">
        <ele>858.7</ele>
        <time>2021-08-12T10:29:27.000Z</time>
      </trkpt>
      <trkpt lat="45.13468" lon="4.22732">
        <ele>860.1</ele>
        <time>2021-08-12T10:29:30.000Z</time>
      </trkpt>
      <trkpt lat="45.13458" lon="4.22736">
        <ele>861.3</ele>
        <time>2021-08-12T10:29:33.000Z</time>
      </trkpt>
      <trkpt lat="45.13448" lon="4.22738">
        <ele>862.8</ele>
        <time>2021-08-12T10:29:36.000Z</time>
      </trkpt>
      <trkpt lat="45.13439" lon="4.22741">
        <ele>864.1</ele>
        <time>2021-08-12T10:29:39.000Z</time>
      </trkpt>
      <trkpt lat="45.13428" lon="4.22745">
        <ele>865.5</ele>
        <time>2021-08-12T10:29:42.000Z</time>
      </trkpt>
      <trkpt lat="45.13416" lon="4.22749">
        <ele>867</ele>
        <time>2021-08-12T10:29:45.000Z</time>
      </trkpt>
      <trkpt lat="45.13405" lon="4.22751">
        <ele>867.4</ele>
        <time>2021-08-12T10:29:48.000Z</time>
      </trkpt>
      <trkpt lat="45.13395" lon="4.22754">
        <ele>867.7</ele>
        <time>2021-08-12T10:29:51.000Z</time>
      </trkpt>
      <trkpt lat="45.13385" lon="4.22756">
        <ele>868</ele>
        <time>2021-08-12T10:29:54.000Z</time>
      </trkpt>
      <trkpt lat="45.13374" lon="4.22757">
        <ele>868.4</ele>
        <time>2021-08-12T10:29:58.000Z</time>
      </trkpt>
      <trkpt lat="45.13362" lon="4.22758">
        <ele>868.9</ele>
        <time>2021-08-12T10:30:02.000Z</time>
      </trkpt>
      <trkpt lat="45.13351" lon="4.2276">
        <ele>869.1</ele>
        <time>2021-08-12T10:30:06.000Z</time>
      </trkpt>
      <trkpt lat="45.13342" lon="4.22762">
        <ele>869.2</ele>
        <time>2021-08-12T10:30:09.000Z</time>
      </trkpt>
      <trkpt lat="45.13333" lon="4.22765">
        <ele>869.3</ele>
        <time>2021-08-12T10:30:12.000Z</time>
      </trkpt>
      <trkpt lat="45.13322" lon="4.22768">
        <ele>869</ele>
        <time>2021-08-12T10:30:15.000Z</time>
      </trkpt>
      <trkpt lat="45.13311" lon="4.22771">
        <ele>869</ele>
        <time>2021-08-12T10:30:18.000Z</time>
      </trkpt>
      <trkpt lat="45.133" lon="4.22773">
        <ele>869.1</ele>
        <time>2021-08-12T10:30:21.000Z</time>
      </trkpt>
      <trkpt lat="45.1329" lon="4.22775">
        <ele>869.1</ele>
        <time>2021-08-12T10:30:24.000Z</time>
      </trkpt>
      <trkpt lat="45.13281" lon="4.22776">
        <ele>869.2</ele>
        <time>2021-08-12T10:30:27.000Z</time>
      </trkpt>
      <trkpt lat="45.13272" lon="4.22778">
        <ele>869.4</ele>
        <time>2021-08-12T10:30:30.000Z</time>
      </trkpt>
      <trkpt lat="45.13262" lon="4.22779">
        <ele>869.6</ele>
        <time>2021-08-12T10:30:33.000Z</time>
      </trkpt>
      <trkpt lat="45.13253" lon="4.2278">
        <ele>869.8</ele>
        <time>2021-08-12T10:30:36.000Z</time>
      </trkpt>
      <trkpt lat="45.13244" lon="4.22782">
        <ele>870.3</ele>
        <time>2021-08-12T10:30:39.000Z</time>
      </trkpt>
      <trkpt lat="45.13234" lon="4.22782">
        <ele>871</ele>
        <time>2021-08-12T10:30:42.000Z</time>
      </trkpt>
      <trkpt lat="45.13225" lon="4.22783">
        <ele>871.6</ele>
        <time>2021-08-12T10:30:45.000Z</time>
      </trkpt>
      <trkpt lat="45.13216" lon="4.22782">
        <ele>872.2</ele>
        <time>2021-08-12T10:30:48.000Z</time>
      </trkpt>
      <trkpt lat="45.13206" lon="4.22783">
        <ele>872.9</ele>
        <time>2021-08-12T10:30:51.000Z</time>
      </trkpt>
      <trkpt lat="45.13195" lon="4.22784">
        <ele>873.6</ele>
        <time>2021-08-12T10:30:54.000Z</time>
      </trkpt>
      <trkpt lat="45.13184" lon="4.22787">
        <ele>874.3</ele>
        <time>2021-08-12T10:30:57.000Z</time>
      </trkpt>
      <trkpt lat="45.13173" lon="4.22791">
        <ele>875.1</ele>
        <time>2021-08-12T10:31:00.000Z</time>
      </trkpt>
      <trkpt lat="45.13162" lon="4.22795">
        <ele>875.6</ele>
        <time>2021-08-12T10:31:03.000Z</time>
      </trkpt>
      <trkpt lat="45.13151" lon="4.228">
        <ele>876</ele>
        <time>2021-08-12T10:31:06.000Z</time>
      </trkpt>
      <trkpt lat="45.13139" lon="4.22804">
        <ele>876.4</ele>
        <time>2021-08-12T10:31:09.000Z</time>
      </trkpt>
      <trkpt lat="45.13128" lon="4.22805">
        <ele>876.9</ele>
        <time>2021-08-12T10:31:12.000Z</time>
      </trkpt>
      <trkpt lat="45.13117" lon="4.22801">
        <ele>877.3</ele>
        <time>2021-08-12T10:31:16.000Z</time>
      </trkpt>
      <trkpt lat="45.13107" lon="4.22791">
        <ele>877.6</ele>
        <time>2021-08-12T10:31:20.000Z</time>
      </trkpt>
      <trkpt lat="45.13099" lon="4.22782">
        <ele>877.8</ele>
        <time>2021-08-12T10:31:23.000Z</time>
      </trkpt>
      <trkpt lat="45.13092" lon="4.22774">
        <ele>878</ele>
        <time>2021-08-12T10:31:26.000Z</time>
      </trkpt>
      <trkpt lat="45.13083" lon="4.22765">
        <ele>878.2</ele>
        <time>2021-08-12T10:31:29.000Z</time>
      </trkpt>
      <trkpt lat="45.13074" lon="4.22757">
        <ele>878.5</ele>
        <time>2021-08-12T10:31:32.000Z</time>
      </trkpt>
      <trkpt lat="45.13065" lon="4.22749">
        <ele>878.8</ele>
        <time>2021-08-12T10:31:35.000Z</time>
      </trkpt>
      <trkpt lat="45.13055" lon="4.22743">
        <ele>878.8</ele>
        <time>2021-08-12T10:31:38.000Z</time>
      </trkpt>
      <trkpt lat="45.13046" lon="4.22738">
        <ele>879</ele>
        <time>2021-08-12T10:31:41.000Z</time>
      </trkpt>
      <trkpt lat="45.13036" lon="4.22735">
        <ele>879.3</ele>
        <time>2021-08-12T10:31:45.000Z</time>
      </trkpt>
      <trkpt lat="45.13026" lon="4.22734">
        <ele>879.8</ele>
        <time>2021-08-12T10:31:49.000Z</time>
      </trkpt>
      <trkpt lat="45.13016" lon="4.22731">
        <ele>880.2</ele>
        <time>2021-08-12T10:31:53.000Z</time>
      </trkpt>
      <trkpt lat="45.13006" lon="4.2273">
        <ele>880.7</ele>
        <time>2021-08-12T10:31:57.000Z</time>
      </trkpt>
      <trkpt lat="45.12995" lon="4.22728">
        <ele>881.4</ele>
        <time>2021-08-12T10:32:01.000Z</time>
      </trkpt>
      <trkpt lat="45.12985" lon="4.22727">
        <ele>882.2</ele>
        <time>2021-08-12T10:32:05.000Z</time>
      </trkpt>
      <trkpt lat="45.12974" lon="4.22723">
        <ele>882.9</ele>
        <time>2021-08-12T10:32:09.000Z</time>
      </trkpt>
      <trkpt lat="45.12964" lon="4.22719">
        <ele>883.6</ele>
        <time>2021-08-12T10:32:13.000Z</time>
      </trkpt>
      <trkpt lat="45.12954" lon="4.22711">
        <ele>884.2</ele>
        <time>2021-08-12T10:32:17.000Z</time>
      </trkpt>
      <trkpt lat="45.12946" lon="4.22703">
        <ele>884.6</ele>
        <time>2021-08-12T10:32:21.000Z</time>
      </trkpt>
      <trkpt lat="45.12937" lon="4.22694">
        <ele>885.1</ele>
        <time>2021-08-12T10:32:25.000Z</time>
      </trkpt>
      <trkpt lat="45.12929" lon="4.22685">
        <ele>885.5</ele>
        <time>2021-08-12T10:32:29.000Z</time>
      </trkpt>
      <trkpt lat="45.12919" lon="4.22684">
        <ele>886.4</ele>
        <time>2021-08-12T10:32:33.000Z</time>
      </trkpt>
      <trkpt lat="45.12912" lon="4.22694">
        <ele>887.4</ele>
        <time>2021-08-12T10:32:36.000Z</time>
      </trkpt>
      <trkpt lat="45.12909" lon="4.22709">
        <ele>888.2</ele>
        <time>2021-08-12T10:32:39.000Z</time>
      </trkpt>
      <trkpt lat="45.12907" lon="4.22727">
        <ele>889</ele>
        <time>2021-08-12T10:32:42.000Z</time>
      </trkpt>
      <trkpt lat="45.12903" lon="4.22743">
        <ele>889.8</ele>
        <time>2021-08-12T10:32:45.000Z</time>
      </trkpt>
      <trkpt lat="45.12897" lon="4.22759">
        <ele>890.7</ele>
        <time>2021-08-12T10:32:48.000Z</time>
      </trkpt>
      <trkpt lat="45.12892" lon="4.2277">
        <ele>891.3</ele>
        <time>2021-08-12T10:32:50.000Z</time>
      </trkpt>
      <trkpt lat="45.12887" lon="4.22782">
        <ele>891.8</ele>
        <time>2021-08-12T10:32:52.000Z</time>
      </trkpt>
      <trkpt lat="45.12882" lon="4.22793">
        <ele>892.4</ele>
        <time>2021-08-12T10:32:54.000Z</time>
      </trkpt>
      <trkpt lat="45.12876" lon="4.22803">
        <ele>892.9</ele>
        <time>2021-08-12T10:32:56.000Z</time>
      </trkpt>
      <trkpt lat="45.12869" lon="4.22815">
        <ele>893.4</ele>
        <time>2021-08-12T10:32:58.000Z</time>
      </trkpt>
      <trkpt lat="45.12862" lon="4.22826">
        <ele>893.9</ele>
        <time>2021-08-12T10:33:00.000Z</time>
      </trkpt>
      <trkpt lat="45.12854" lon="4.22836">
        <ele>894.1</ele>
        <time>2021-08-12T10:33:02.000Z</time>
      </trkpt>
      <trkpt lat="45.12847" lon="4.22847">
        <ele>894</ele>
        <time>2021-08-12T10:33:04.000Z</time>
      </trkpt>
      <trkpt lat="45.12839" lon="4.22859">
        <ele>893.9</ele>
        <time>2021-08-12T10:33:06.000Z</time>
      </trkpt>
      <trkpt lat="45.12833" lon="4.22871">
        <ele>893.7</ele>
        <time>2021-08-12T10:33:08.000Z</time>
      </trkpt>
      <trkpt lat="45.12827" lon="4.22883">
        <ele>893.6</ele>
        <time>2021-08-12T10:33:10.000Z</time>
      </trkpt>
      <trkpt lat="45.12822" lon="4.22897">
        <ele>893.4</ele>
        <time>2021-08-12T10:33:12.000Z</time>
      </trkpt>
      <trkpt lat="45.12818" lon="4.22914">
        <ele>893</ele>
        <time>2021-08-12T10:33:14.000Z</time>
      </trkpt>
      <trkpt lat="45.12815" lon="4.22931">
        <ele>892</ele>
        <time>2021-08-12T10:33:16.000Z</time>
      </trkpt>
      <trkpt lat="45.12814" lon="4.22947">
        <ele>891</ele>
        <time>2021-08-12T10:33:18.000Z</time>
      </trkpt>
      <trkpt lat="45.12813" lon="4.22964">
        <ele>889.9</ele>
        <time>2021-08-12T10:33:20.000Z</time>
      </trkpt>
      <trkpt lat="45.12812" lon="4.22981">
        <ele>888.7</ele>
        <time>2021-08-12T10:33:22.000Z</time>
      </trkpt>
      <trkpt lat="45.12812" lon="4.22997">
        <ele>887.6</ele>
        <time>2021-08-12T10:33:24.000Z</time>
      </trkpt>
      <trkpt lat="45.12811" lon="4.23013">
        <ele>887.4</ele>
        <time>2021-08-12T10:33:26.000Z</time>
      </trkpt>
      <trkpt lat="45.12808" lon="4.23029">
        <ele>887.5</ele>
        <time>2021-08-12T10:33:28.000Z</time>
      </trkpt>
      <trkpt lat="45.12804" lon="4.23044">
        <ele>887.6</ele>
        <time>2021-08-12T10:33:30.000Z</time>
      </trkpt>
      <trkpt lat="45.12797" lon="4.23059">
        <ele>887.8</ele>
        <time>2021-08-12T10:33:32.000Z</time>
      </trkpt>
      <trkpt lat="45.1279" lon="4.23073">
        <ele>887.9</ele>
        <time>2021-08-12T10:33:34.000Z</time>
      </trkpt>
      <trkpt lat="45.12782" lon="4.23085">
        <ele>887.9</ele>
        <time>2021-08-12T10:33:36.000Z</time>
      </trkpt>
      <trkpt lat="45.12771" lon="4.23095">
        <ele>888.4</ele>
        <time>2021-08-12T10:33:38.000Z</time>
      </trkpt>
      <trkpt lat="45.1276" lon="4.23105">
        <ele>888.6</ele>
        <time>2021-08-12T10:33:40.000Z</time>
      </trkpt>
      <trkpt lat="45.12749" lon="4.23113">
        <ele>888.8</ele>
        <time>2021-08-12T10:33:42.000Z</time>
      </trkpt>
      <trkpt lat="45.1274" lon="4.23119">
        <ele>890</ele>
        <time>2021-08-12T10:33:44.000Z</time>
      </trkpt>
      <trkpt lat="45.12733" lon="4.23129">
        <ele>890.6</ele>
        <time>2021-08-12T10:33:46.000Z</time>
      </trkpt>
      <trkpt lat="45.12729" lon="4.23141">
        <ele>890.7</ele>
        <time>2021-08-12T10:33:48.000Z</time>
      </trkpt>
      <trkpt lat="45.12725" lon="4.23155">
        <ele>890.6</ele>
        <time>2021-08-12T10:33:50.000Z</time>
      </trkpt>
      <trkpt lat="45.1272" lon="4.23169">
        <ele>890.6</ele>
        <time>2021-08-12T10:33:52.000Z</time>
      </trkpt>
      <trkpt lat="45.12714" lon="4.23186">
        <ele>891</ele>
        <time>2021-08-12T10:33:54.000Z</time>
      </trkpt>
      <trkpt lat="45.12708" lon="4.23202">
        <ele>891.3</ele>
        <time>2021-08-12T10:33:56.000Z</time>
      </trkpt>
      <trkpt lat="45.12703" lon="4.23218">
        <ele>891.4</ele>
        <time>2021-08-12T10:33:58.000Z</time>
      </trkpt>
      <trkpt lat="45.12697" lon="4.23232">
        <ele>891.3</ele>
        <time>2021-08-12T10:34:00.000Z</time>
      </trkpt>
      <trkpt lat="45.12691" lon="4.23245">
        <ele>891.1</ele>
        <time>2021-08-12T10:34:02.000Z</time>
      </trkpt>
      <trkpt lat="45.12685" lon="4.23258">
        <ele>891.3</ele>
        <time>2021-08-12T10:34:04.000Z</time>
      </trkpt>
      <trkpt lat="45.12679" lon="4.23271">
        <ele>891.8</ele>
        <time>2021-08-12T10:34:06.000Z</time>
      </trkpt>
      <trkpt lat="45.12674" lon="4.23285">
        <ele>892.3</ele>
        <time>2021-08-12T10:34:08.000Z</time>
      </trkpt>
      <trkpt lat="45.12672" lon="4.233">
        <ele>892.9</ele>
        <time>2021-08-12T10:34:10.000Z</time>
      </trkpt>
      <trkpt lat="45.12672" lon="4.23316">
        <ele>893.4</ele>
        <time>2021-08-12T10:34:12.000Z</time>
      </trkpt>
      <trkpt lat="45.12673" lon="4.23331">
        <ele>894</ele>
        <time>2021-08-12T10:34:14.000Z</time>
      </trkpt>
      <trkpt lat="45.12675" lon="4.23344">
        <ele>895</ele>
        <time>2021-08-12T10:34:16.000Z</time>
      </trkpt>
      <trkpt lat="45.12677" lon="4.23362">
        <ele>896.6</ele>
        <time>2021-08-12T10:34:19.000Z</time>
      </trkpt>
      <trkpt lat="45.12678" lon="4.23379">
        <ele>898</ele>
        <time>2021-08-12T10:34:22.000Z</time>
      </trkpt>
      <trkpt lat="45.12678" lon="4.23397">
        <ele>899.5</ele>
        <time>2021-08-12T10:34:25.000Z</time>
      </trkpt>
      <trkpt lat="45.12678" lon="4.23415">
        <ele>900.9</ele>
        <time>2021-08-12T10:34:28.000Z</time>
      </trkpt>
      <trkpt lat="45.12677" lon="4.23427">
        <ele>901.7</ele>
        <time>2021-08-12T10:34:30.000Z</time>
      </trkpt>
      <trkpt lat="45.12677" lon="4.23446">
        <ele>903</ele>
        <time>2021-08-12T10:34:33.000Z</time>
      </trkpt>
      <trkpt lat="45.12676" lon="4.23464">
        <ele>904.2</ele>
        <time>2021-08-12T10:34:36.000Z</time>
      </trkpt>
      <trkpt lat="45.12676" lon="4.23479">
        <ele>905.3</ele>
        <time>2021-08-12T10:34:38.000Z</time>
      </trkpt>
      <trkpt lat="45.12675" lon="4.23494">
        <ele>906.3</ele>
        <time>2021-08-12T10:34:40.000Z</time>
      </trkpt>
      <trkpt lat="45.12675" lon="4.23507">
        <ele>906.7</ele>
        <time>2021-08-12T10:34:42.000Z</time>
      </trkpt>
      <trkpt lat="45.12675" lon="4.23521">
        <ele>906.7</ele>
        <time>2021-08-12T10:34:44.000Z</time>
      </trkpt>
      <trkpt lat="45.12673" lon="4.2354">
        <ele>906.6</ele>
        <time>2021-08-12T10:34:47.000Z</time>
      </trkpt>
      <trkpt lat="45.12671" lon="4.23558">
        <ele>906.5</ele>
        <time>2021-08-12T10:34:50.000Z</time>
      </trkpt>
      <trkpt lat="45.1267" lon="4.23576">
        <ele>906.3</ele>
        <time>2021-08-12T10:34:53.000Z</time>
      </trkpt>
      <trkpt lat="45.12667" lon="4.23593">
        <ele>906.5</ele>
        <time>2021-08-12T10:34:56.000Z</time>
      </trkpt>
      <trkpt lat="45.12663" lon="4.23611">
        <ele>907.5</ele>
        <time>2021-08-12T10:34:59.000Z</time>
      </trkpt>
      <trkpt lat="45.12661" lon="4.23624">
        <ele>908.1</ele>
        <time>2021-08-12T10:35:01.000Z</time>
      </trkpt>
      <trkpt lat="45.12659" lon="4.23638">
        <ele>908.7</ele>
        <time>2021-08-12T10:35:03.000Z</time>
      </trkpt>
      <trkpt lat="45.12657" lon="4.23653">
        <ele>909.3</ele>
        <time>2021-08-12T10:35:05.000Z</time>
      </trkpt>
      <trkpt lat="45.12654" lon="4.23668">
        <ele>909.9</ele>
        <time>2021-08-12T10:35:07.000Z</time>
      </trkpt>
      <trkpt lat="45.12652" lon="4.23683">
        <ele>910.4</ele>
        <time>2021-08-12T10:35:09.000Z</time>
      </trkpt>
      <trkpt lat="45.12649" lon="4.23698">
        <ele>910.9</ele>
        <time>2021-08-12T10:35:11.000Z</time>
      </trkpt>
      <trkpt lat="45.12646" lon="4.23713">
        <ele>911.1</ele>
        <time>2021-08-12T10:35:13.000Z</time>
      </trkpt>
      <trkpt lat="45.12644" lon="4.23728">
        <ele>911.5</ele>
        <time>2021-08-12T10:35:15.000Z</time>
      </trkpt>
      <trkpt lat="45.12642" lon="4.23746">
        <ele>911.9</ele>
        <time>2021-08-12T10:35:17.000Z</time>
      </trkpt>
      <trkpt lat="45.1264" lon="4.23764">
        <ele>911.3</ele>
        <time>2021-08-12T10:35:19.000Z</time>
      </trkpt>
      <trkpt lat="45.12639" lon="4.23782">
        <ele>910.1</ele>
        <time>2021-08-12T10:35:21.000Z</time>
      </trkpt>
      <trkpt lat="45.12637" lon="4.238">
        <ele>908.9</ele>
        <time>2021-08-12T10:35:23.000Z</time>
      </trkpt>
      <trkpt lat="45.12636" lon="4.23818">
        <ele>907.7</ele>
        <time>2021-08-12T10:35:25.000Z</time>
      </trkpt>
      <trkpt lat="45.12635" lon="4.23838">
        <ele>906.6</ele>
        <time>2021-08-12T10:35:27.000Z</time>
      </trkpt>
      <trkpt lat="45.12635" lon="4.23857">
        <ele>905.5</ele>
        <time>2021-08-12T10:35:29.000Z</time>
      </trkpt>
      <trkpt lat="45.12633" lon="4.23877">
        <ele>904.2</ele>
        <time>2021-08-12T10:35:31.000Z</time>
      </trkpt>
      <trkpt lat="45.12632" lon="4.23898">
        <ele>902.9</ele>
        <time>2021-08-12T10:35:33.000Z</time>
      </trkpt>
      <trkpt lat="45.12631" lon="4.23923">
        <ele>901.6</ele>
        <time>2021-08-12T10:35:35.000Z</time>
      </trkpt>
      <trkpt lat="45.12631" lon="4.23949">
        <ele>900.8</ele>
        <time>2021-08-12T10:35:37.000Z</time>
      </trkpt>
      <trkpt lat="45.1263" lon="4.23963">
        <ele>900.4</ele>
        <time>2021-08-12T10:35:38.000Z</time>
      </trkpt>
      <trkpt lat="45.1263" lon="4.23976">
        <ele>900</ele>
        <time>2021-08-12T10:35:39.000Z</time>
      </trkpt>
      <trkpt lat="45.12629" lon="4.2399">
        <ele>899.4</ele>
        <time>2021-08-12T10:35:40.000Z</time>
      </trkpt>
      <trkpt lat="45.12626" lon="4.24005">
        <ele>898.3</ele>
        <time>2021-08-12T10:35:41.000Z</time>
      </trkpt>
      <trkpt lat="45.1262" lon="4.24019">
        <ele>896.6</ele>
        <time>2021-08-12T10:35:42.000Z</time>
      </trkpt>
      <trkpt lat="45.12613" lon="4.24032">
        <ele>894.7</ele>
        <time>2021-08-12T10:35:43.000Z</time>
      </trkpt>
      <trkpt lat="45.12605" lon="4.24045">
        <ele>892.9</ele>
        <time>2021-08-12T10:35:44.000Z</time>
      </trkpt>
      <trkpt lat="45.12597" lon="4.24057">
        <ele>891</ele>
        <time>2021-08-12T10:35:45.000Z</time>
      </trkpt>
      <trkpt lat="45.12589" lon="4.2407">
        <ele>889.4</ele>
        <time>2021-08-12T10:35:46.000Z</time>
      </trkpt>
      <trkpt lat="45.12581" lon="4.24083">
        <ele>887.9</ele>
        <time>2021-08-12T10:35:47.000Z</time>
      </trkpt>
      <trkpt lat="45.12574" lon="4.24095">
        <ele>886.5</ele>
        <time>2021-08-12T10:35:48.000Z</time>
      </trkpt>
      <trkpt lat="45.12566" lon="4.24108">
        <ele>885.2</ele>
        <time>2021-08-12T10:35:49.000Z</time>
      </trkpt>
      <trkpt lat="45.12559" lon="4.24121">
        <ele>884</ele>
        <time>2021-08-12T10:35:50.000Z</time>
      </trkpt>
      <trkpt lat="45.12552" lon="4.24133">
        <ele>882.8</ele>
        <time>2021-08-12T10:35:51.000Z</time>
      </trkpt>
      <trkpt lat="45.12545" lon="4.24146">
        <ele>881.8</ele>
        <time>2021-08-12T10:35:52.000Z</time>
      </trkpt>
      <trkpt lat="45.12539" lon="4.24157">
        <ele>880.7</ele>
        <time>2021-08-12T10:35:53.000Z</time>
      </trkpt>
      <trkpt lat="45.12534" lon="4.24168">
        <ele>879.7</ele>
        <time>2021-08-12T10:35:54.000Z</time>
      </trkpt>
      <trkpt lat="45.12528" lon="4.24179">
        <ele>878.6</ele>
        <time>2021-08-12T10:35:55.000Z</time>
      </trkpt>
      <trkpt lat="45.12522" lon="4.2419">
        <ele>877.6</ele>
        <time>2021-08-12T10:35:56.000Z</time>
      </trkpt>
      <trkpt lat="45.12516" lon="4.242">
        <ele>876.6</ele>
        <time>2021-08-12T10:35:57.000Z</time>
      </trkpt>
      <trkpt lat="45.12507" lon="4.24218">
        <ele>875</ele>
        <time>2021-08-12T10:35:59.000Z</time>
      </trkpt>
      <trkpt lat="45.12501" lon="4.24232">
        <ele>873.9</ele>
        <time>2021-08-12T10:36:01.000Z</time>
      </trkpt>
      <trkpt lat="45.12495" lon="4.24242">
        <ele>873.2</ele>
        <time>2021-08-12T10:36:03.000Z</time>
      </trkpt>
      <trkpt lat="45.12486" lon="4.2425">
        <ele>872.7</ele>
        <time>2021-08-12T10:36:05.000Z</time>
      </trkpt>
      <trkpt lat="45.12475" lon="4.2426">
        <ele>871.6</ele>
        <time>2021-08-12T10:36:07.000Z</time>
      </trkpt>
      <trkpt lat="45.12462" lon="4.24271">
        <ele>870.4</ele>
        <time>2021-08-12T10:36:09.000Z</time>
      </trkpt>
      <trkpt lat="45.12447" lon="4.24282">
        <ele>868.8</ele>
        <time>2021-08-12T10:36:11.000Z</time>
      </trkpt>
      <trkpt lat="45.12438" lon="4.24287">
        <ele>867.9</ele>
        <time>2021-08-12T10:36:12.000Z</time>
      </trkpt>
      <trkpt lat="45.12428" lon="4.24292">
        <ele>867</ele>
        <time>2021-08-12T10:36:13.000Z</time>
      </trkpt>
      <trkpt lat="45.12418" lon="4.24297">
        <ele>866</ele>
        <time>2021-08-12T10:36:14.000Z</time>
      </trkpt>
      <trkpt lat="45.12409" lon="4.24302">
        <ele>865.4</ele>
        <time>2021-08-12T10:36:15.000Z</time>
      </trkpt>
      <trkpt lat="45.12399" lon="4.24308">
        <ele>865</ele>
        <time>2021-08-12T10:36:16.000Z</time>
      </trkpt>
      <trkpt lat="45.1239" lon="4.24314">
        <ele>864.6</ele>
        <time>2021-08-12T10:36:17.000Z</time>
      </trkpt>
      <trkpt lat="45.12382" lon="4.24321">
        <ele>864.3</ele>
        <time>2021-08-12T10:36:18.000Z</time>
      </trkpt>
      <trkpt lat="45.12367" lon="4.24336">
        <ele>863.7</ele>
        <time>2021-08-12T10:36:20.000Z</time>
      </trkpt>
      <trkpt lat="45.12354" lon="4.24352">
        <ele>863.9</ele>
        <time>2021-08-12T10:36:22.000Z</time>
      </trkpt>
      <trkpt lat="45.12343" lon="4.24367">
        <ele>863.9</ele>
        <time>2021-08-12T10:36:24.000Z</time>
      </trkpt>
      <trkpt lat="45.12333" lon="4.24378">
        <ele>863.9</ele>
        <time>2021-08-12T10:36:26.000Z</time>
      </trkpt>
      <trkpt lat="45.12322" lon="4.24389">
        <ele>864.3</ele>
        <time>2021-08-12T10:36:28.000Z</time>
      </trkpt>
      <trkpt lat="45.12313" lon="4.24398">
        <ele>864.8</ele>
        <time>2021-08-12T10:36:30.000Z</time>
      </trkpt>
      <trkpt lat="45.12306" lon="4.24406">
        <ele>865.3</ele>
        <time>2021-08-12T10:36:32.000Z</time>
      </trkpt>
      <trkpt lat="45.12299" lon="4.24416">
        <ele>865.9</ele>
        <time>2021-08-12T10:36:35.000Z</time>
      </trkpt>
      <trkpt lat="45.12293" lon="4.24427">
        <ele>866.6</ele>
        <time>2021-08-12T10:36:39.000Z</time>
      </trkpt>
      <trkpt lat="45.1229" lon="4.24441">
        <ele>867.2</ele>
        <time>2021-08-12T10:36:44.000Z</time>
      </trkpt>
      <trkpt lat="45.12289" lon="4.24455">
        <ele>867.7</ele>
        <time>2021-08-12T10:36:49.000Z</time>
      </trkpt>
      <trkpt lat="45.12287" lon="4.24471">
        <ele>868.3</ele>
        <time>2021-08-12T10:36:54.000Z</time>
      </trkpt>
      <trkpt lat="45.12284" lon="4.24483">
        <ele>868.9</ele>
        <time>2021-08-12T10:36:58.000Z</time>
      </trkpt>
      <trkpt lat="45.12282" lon="4.24499">
        <ele>869.5</ele>
        <time>2021-08-12T10:37:03.000Z</time>
      </trkpt>
      <trkpt lat="45.12279" lon="4.24513">
        <ele>870.4</ele>
        <time>2021-08-12T10:37:08.000Z</time>
      </trkpt>
      <trkpt lat="45.12277" lon="4.24528">
        <ele>871.3</ele>
        <time>2021-08-12T10:37:13.000Z</time>
      </trkpt>
      <trkpt lat="45.12275" lon="4.24542">
        <ele>872.1</ele>
        <time>2021-08-12T10:37:17.000Z</time>
      </trkpt>
      <trkpt lat="45.12274" lon="4.24557">
        <ele>872.9</ele>
        <time>2021-08-12T10:37:21.000Z</time>
      </trkpt>
      <trkpt lat="45.12272" lon="4.24573">
        <ele>873.7</ele>
        <time>2021-08-12T10:37:25.000Z</time>
      </trkpt>
      <trkpt lat="45.12268" lon="4.24589">
        <ele>875.2</ele>
        <time>2021-08-12T10:37:29.000Z</time>
      </trkpt>
      <trkpt lat="45.12264" lon="4.24601">
        <ele>877.3</ele>
        <time>2021-08-12T10:37:32.000Z</time>
      </trkpt>
      <trkpt lat="45.1226" lon="4.24615">
        <ele>879.9</ele>
        <time>2021-08-12T10:37:36.000Z</time>
      </trkpt>
      <trkpt lat="45.12254" lon="4.2463">
        <ele>882.7</ele>
        <time>2021-08-12T10:37:41.000Z</time>
      </trkpt>
      <trkpt lat="45.12248" lon="4.24642">
        <ele>885</ele>
        <time>2021-08-12T10:37:45.000Z</time>
      </trkpt>
      <trkpt lat="45.12241" lon="4.24652">
        <ele>886.8</ele>
        <time>2021-08-12T10:37:50.000Z</time>
      </trkpt>
      <trkpt lat="45.12237" lon="4.24664">
        <ele>888.6</ele>
        <time>2021-08-12T10:37:54.000Z</time>
      </trkpt>
      <trkpt lat="45.12231" lon="4.24674">
        <ele>889.8</ele>
        <time>2021-08-12T10:37:57.000Z</time>
      </trkpt>
      <trkpt lat="45.12226" lon="4.24685">
        <ele>890.8</ele>
        <time>2021-08-12T10:38:01.000Z</time>
      </trkpt>
      <trkpt lat="45.1222" lon="4.24698">
        <ele>892</ele>
        <time>2021-08-12T10:38:05.000Z</time>
      </trkpt>
      <trkpt lat="45.12218" lon="4.24711">
        <ele>893</ele>
        <time>2021-08-12T10:38:09.000Z</time>
      </trkpt>
      <trkpt lat="45.12214" lon="4.24725">
        <ele>894</ele>
        <time>2021-08-12T10:38:14.000Z</time>
      </trkpt>
      <trkpt lat="45.1221" lon="4.24738">
        <ele>895.1</ele>
        <time>2021-08-12T10:38:18.000Z</time>
      </trkpt>
      <trkpt lat="45.12205" lon="4.24753">
        <ele>895.9</ele>
        <time>2021-08-12T10:38:23.000Z</time>
      </trkpt>
      <trkpt lat="45.12201" lon="4.24765">
        <ele>895.6</ele>
        <time>2021-08-12T10:38:27.000Z</time>
      </trkpt>
      <trkpt lat="45.12194" lon="4.24777">
        <ele>895.5</ele>
        <time>2021-08-12T10:38:32.000Z</time>
      </trkpt>
      <trkpt lat="45.1219" lon="4.24792">
        <ele>895.5</ele>
        <time>2021-08-12T10:38:36.000Z</time>
      </trkpt>
      <trkpt lat="45.12186" lon="4.24805">
        <ele>895.6</ele>
        <time>2021-08-12T10:38:41.000Z</time>
      </trkpt>
      <trkpt lat="45.12182" lon="4.24817">
        <ele>895.8</ele>
        <time>2021-08-12T10:38:46.000Z</time>
      </trkpt>
      <trkpt lat="45.12176" lon="4.24827">
        <ele>896.3</ele>
        <time>2021-08-12T10:38:51.000Z</time>
      </trkpt>
      <trkpt lat="45.12169" lon="4.24839">
        <ele>896.7</ele>
        <time>2021-08-12T10:38:58.000Z</time>
      </trkpt>
      <trkpt lat="45.12163" lon="4.24852">
        <ele>896.6</ele>
        <time>2021-08-12T10:39:03.000Z</time>
      </trkpt>
      <trkpt lat="45.12156" lon="4.24862">
        <ele>896.9</ele>
        <time>2021-08-12T10:39:08.000Z</time>
      </trkpt>
      <trkpt lat="45.12151" lon="4.24873">
        <ele>897.2</ele>
        <time>2021-08-12T10:39:13.000Z</time>
      </trkpt>
      <trkpt lat="45.12147" lon="4.24885">
        <ele>897.6</ele>
        <time>2021-08-12T10:39:18.000Z</time>
      </trkpt>
      <trkpt lat="45.12139" lon="4.24895">
        <ele>898.4</ele>
        <time>2021-08-12T10:39:22.000Z</time>
      </trkpt>
      <trkpt lat="45.12133" lon="4.24906">
        <ele>899.2</ele>
        <time>2021-08-12T10:39:28.000Z</time>
      </trkpt>
      <trkpt lat="45.12127" lon="4.24916">
        <ele>900.2</ele>
        <time>2021-08-12T10:39:33.000Z</time>
      </trkpt>
      <trkpt lat="45.12123" lon="4.24929">
        <ele>900.3</ele>
        <time>2021-08-12T10:39:37.000Z</time>
      </trkpt>
      <trkpt lat="45.12117" lon="4.24941">
        <ele>900.5</ele>
        <time>2021-08-12T10:39:41.000Z</time>
      </trkpt>
      <trkpt lat="45.1211" lon="4.24949">
        <ele>901.2</ele>
        <time>2021-08-12T10:39:45.000Z</time>
      </trkpt>
      <trkpt lat="45.12104" lon="4.24958">
        <ele>901.5</ele>
        <time>2021-08-12T10:39:52.000Z</time>
      </trkpt>
      <trkpt lat="45.12095" lon="4.24962">
        <ele>902.7</ele>
        <time>2021-08-12T10:39:55.000Z</time>
      </trkpt>
      <trkpt lat="45.12085" lon="4.24966">
        <ele>903.9</ele>
        <time>2021-08-12T10:39:59.000Z</time>
      </trkpt>
      <trkpt lat="45.12078" lon="4.24973">
        <ele>904.1</ele>
        <time>2021-08-12T10:40:03.000Z</time>
      </trkpt>
      <trkpt lat="45.12068" lon="4.24981">
        <ele>904.7</ele>
        <time>2021-08-12T10:40:07.000Z</time>
      </trkpt>
      <trkpt lat="45.12059" lon="4.24987">
        <ele>905.3</ele>
        <time>2021-08-12T10:40:11.000Z</time>
      </trkpt>
      <trkpt lat="45.1205" lon="4.24994">
        <ele>906.1</ele>
        <time>2021-08-12T10:40:14.000Z</time>
      </trkpt>
      <trkpt lat="45.12042" lon="4.25002">
        <ele>906.8</ele>
        <time>2021-08-12T10:40:18.000Z</time>
      </trkpt>
      <trkpt lat="45.12032" lon="4.25008">
        <ele>907.8</ele>
        <time>2021-08-12T10:40:22.000Z</time>
      </trkpt>
      <trkpt lat="45.12022" lon="4.25015">
        <ele>908.7</ele>
        <time>2021-08-12T10:40:25.000Z</time>
      </trkpt>
      <trkpt lat="45.12011" lon="4.25022">
        <ele>909.6</ele>
        <time>2021-08-12T10:40:28.000Z</time>
      </trkpt>
      <trkpt lat="45.11999" lon="4.25026">
        <ele>910.8</ele>
        <time>2021-08-12T10:40:31.000Z</time>
      </trkpt>
      <trkpt lat="45.11989" lon="4.25027">
        <ele>911</ele>
        <time>2021-08-12T10:40:34.000Z</time>
      </trkpt>
      <trkpt lat="45.11977" lon="4.25031">
        <ele>911.2</ele>
        <time>2021-08-12T10:40:37.000Z</time>
      </trkpt>
      <trkpt lat="45.11966" lon="4.25037">
        <ele>911.4</ele>
        <time>2021-08-12T10:40:40.000Z</time>
      </trkpt>
      <trkpt lat="45.11955" lon="4.25043">
        <ele>911.6</ele>
        <time>2021-08-12T10:40:43.000Z</time>
      </trkpt>
      <trkpt lat="45.11944" lon="4.25051">
        <ele>911.9</ele>
        <time>2021-08-12T10:40:46.000Z</time>
      </trkpt>
      <trkpt lat="45.11934" lon="4.25057">
        <ele>912.2</ele>
        <time>2021-08-12T10:40:49.000Z</time>
      </trkpt>
      <trkpt lat="45.11925" lon="4.25062">
        <ele>912.6</ele>
        <time>2021-08-12T10:40:52.000Z</time>
      </trkpt>
      <trkpt lat="45.11914" lon="4.25068">
        <ele>913.3</ele>
        <time>2021-08-12T10:40:56.000Z</time>
      </trkpt>
      <trkpt lat="45.11906" lon="4.25077">
        <ele>914.3</ele>
        <time>2021-08-12T10:40:59.000Z</time>
      </trkpt>
      <trkpt lat="45.11898" lon="4.25083">
        <ele>915.3</ele>
        <time>2021-08-12T10:41:02.000Z</time>
      </trkpt>
      <trkpt lat="45.11886" lon="4.25081">
        <ele>916.6</ele>
        <time>2021-08-12T10:41:07.000Z</time>
      </trkpt>
      <trkpt lat="45.11874" lon="4.25078">
        <ele>918.2</ele>
        <time>2021-08-12T10:41:10.000Z</time>
      </trkpt>
      <trkpt lat="45.1186" lon="4.25071">
        <ele>919.9</ele>
        <time>2021-08-12T10:41:12.000Z</time>
      </trkpt>
      <trkpt lat="45.11849" lon="4.25066">
        <ele>921.3</ele>
        <time>2021-08-12T10:41:14.000Z</time>
      </trkpt>
      <trkpt lat="45.11839" lon="4.25061">
        <ele>922.6</ele>
        <time>2021-08-12T10:41:16.000Z</time>
      </trkpt>
      <trkpt lat="45.11828" lon="4.25053">
        <ele>923.2</ele>
        <time>2021-08-12T10:41:19.000Z</time>
      </trkpt>
      <trkpt lat="45.1182" lon="4.25048">
        <ele>922.9</ele>
        <time>2021-08-12T10:41:22.000Z</time>
      </trkpt>
      <trkpt lat="45.11812" lon="4.25042">
        <ele>922.6</ele>
        <time>2021-08-12T10:41:25.000Z</time>
      </trkpt>
      <trkpt lat="45.11804" lon="4.25032">
        <ele>922.4</ele>
        <time>2021-08-12T10:41:28.000Z</time>
      </trkpt>
      <trkpt lat="45.11795" lon="4.25026">
        <ele>922</ele>
        <time>2021-08-12T10:41:31.000Z</time>
      </trkpt>
      <trkpt lat="45.11787" lon="4.25017">
        <ele>921.7</ele>
        <time>2021-08-12T10:41:35.000Z</time>
      </trkpt>
      <trkpt lat="45.11778" lon="4.25007">
        <ele>921.3</ele>
        <time>2021-08-12T10:41:39.000Z</time>
      </trkpt>
      <trkpt lat="45.11771" lon="4.24995">
        <ele>920.7</ele>
        <time>2021-08-12T10:41:44.000Z</time>
      </trkpt>
      <trkpt lat="45.11763" lon="4.24987">
        <ele>920</ele>
        <time>2021-08-12T10:41:48.000Z</time>
      </trkpt>
      <trkpt lat="45.11753" lon="4.24979">
        <ele>919.1</ele>
        <time>2021-08-12T10:41:53.000Z</time>
      </trkpt>
      <trkpt lat="45.11744" lon="4.24974">
        <ele>918.5</ele>
        <time>2021-08-12T10:41:57.000Z</time>
      </trkpt>
      <trkpt lat="45.11737" lon="4.24964">
        <ele>917.9</ele>
        <time>2021-08-12T10:42:02.000Z</time>
      </trkpt>
      <trkpt lat="45.11728" lon="4.24955">
        <ele>917.4</ele>
        <time>2021-08-12T10:42:07.000Z</time>
      </trkpt>
      <trkpt lat="45.1172" lon="4.24946">
        <ele>917</ele>
        <time>2021-08-12T10:42:12.000Z</time>
      </trkpt>
      <trkpt lat="45.11711" lon="4.24941">
        <ele>916.8</ele>
        <time>2021-08-12T10:42:17.000Z</time>
      </trkpt>
      <trkpt lat="45.11702" lon="4.24935">
        <ele>916.7</ele>
        <time>2021-08-12T10:42:22.000Z</time>
      </trkpt>
      <trkpt lat="45.11693" lon="4.24929">
        <ele>916.7</ele>
        <time>2021-08-12T10:42:27.000Z</time>
      </trkpt>
      <trkpt lat="45.11682" lon="4.24929">
        <ele>916.7</ele>
        <time>2021-08-12T10:42:33.000Z</time>
      </trkpt>
      <trkpt lat="45.11673" lon="4.24929">
        <ele>916.7</ele>
        <time>2021-08-12T10:42:38.000Z</time>
      </trkpt>
      <trkpt lat="45.11663" lon="4.24929">
        <ele>917</ele>
        <time>2021-08-12T10:42:43.000Z</time>
      </trkpt>
      <trkpt lat="45.11653" lon="4.24931">
        <ele>917.6</ele>
        <time>2021-08-12T10:42:48.000Z</time>
      </trkpt>
      <trkpt lat="45.11644" lon="4.24931">
        <ele>918.3</ele>
        <time>2021-08-12T10:42:52.000Z</time>
      </trkpt>
      <trkpt lat="45.11635" lon="4.24932">
        <ele>918.9</ele>
        <time>2021-08-12T10:42:56.000Z</time>
      </trkpt>
      <trkpt lat="45.11625" lon="4.24932">
        <ele>919.7</ele>
        <time>2021-08-12T10:43:00.000Z</time>
      </trkpt>
      <trkpt lat="45.11614" lon="4.24934">
        <ele>920.2</ele>
        <time>2021-08-12T10:43:04.000Z</time>
      </trkpt>
      <trkpt lat="45.11604" lon="4.24936">
        <ele>920.8</ele>
        <time>2021-08-12T10:43:08.000Z</time>
      </trkpt>
      <trkpt lat="45.11594" lon="4.24939">
        <ele>921.2</ele>
        <time>2021-08-12T10:43:12.000Z</time>
      </trkpt>
      <trkpt lat="45.11583" lon="4.24943">
        <ele>921.6</ele>
        <time>2021-08-12T10:43:16.000Z</time>
      </trkpt>
      <trkpt lat="45.11574" lon="4.24944">
        <ele>922.3</ele>
        <time>2021-08-12T10:43:20.000Z</time>
      </trkpt>
      <trkpt lat="45.11565" lon="4.24943">
        <ele>923.4</ele>
        <time>2021-08-12T10:43:25.000Z</time>
      </trkpt>
      <trkpt lat="45.11556" lon="4.24943">
        <ele>924.2</ele>
        <time>2021-08-12T10:43:32.000Z</time>
      </trkpt>
      <trkpt lat="45.11545" lon="4.24944">
        <ele>925.2</ele>
        <time>2021-08-12T10:43:39.000Z</time>
      </trkpt>
      <trkpt lat="45.11535" lon="4.24947">
        <ele>925.9</ele>
        <time>2021-08-12T10:43:45.000Z</time>
      </trkpt>
      <trkpt lat="45.11525" lon="4.24947">
        <ele>926.9</ele>
        <time>2021-08-12T10:43:51.000Z</time>
      </trkpt>
      <trkpt lat="45.11516" lon="4.2495">
        <ele>927.6</ele>
        <time>2021-08-12T10:43:55.000Z</time>
      </trkpt>
      <trkpt lat="45.11506" lon="4.24954">
        <ele>928</ele>
        <time>2021-08-12T10:43:59.000Z</time>
      </trkpt>
      <trkpt lat="45.11496" lon="4.24956">
        <ele>928.8</ele>
        <time>2021-08-12T10:44:03.000Z</time>
      </trkpt>
      <trkpt lat="45.11487" lon="4.24961">
        <ele>929.4</ele>
        <time>2021-08-12T10:44:08.000Z</time>
      </trkpt>
      <trkpt lat="45.11476" lon="4.24963">
        <ele>930.8</ele>
        <time>2021-08-12T10:44:12.000Z</time>
      </trkpt>
      <trkpt lat="45.11466" lon="4.24965">
        <ele>931.9</ele>
        <time>2021-08-12T10:44:15.000Z</time>
      </trkpt>
      <trkpt lat="45.11455" lon="4.24967">
        <ele>933.3</ele>
        <time>2021-08-12T10:44:18.000Z</time>
      </trkpt>
      <trkpt lat="45.11444" lon="4.24969">
        <ele>934.7</ele>
        <time>2021-08-12T10:44:21.000Z</time>
      </trkpt>
      <trkpt lat="45.11435" lon="4.24972">
        <ele>935.8</ele>
        <time>2021-08-12T10:44:23.000Z</time>
      </trkpt>
      <trkpt lat="45.11425" lon="4.24975">
        <ele>937</ele>
        <time>2021-08-12T10:44:25.000Z</time>
      </trkpt>
      <trkpt lat="45.11412" lon="4.2498">
        <ele>938.1</ele>
        <time>2021-08-12T10:44:28.000Z</time>
      </trkpt>
      <trkpt lat="45.114" lon="4.24987">
        <ele>938.2</ele>
        <time>2021-08-12T10:44:30.000Z</time>
      </trkpt>
      <trkpt lat="45.11387" lon="4.2499">
        <ele>938.7</ele>
        <time>2021-08-12T10:44:32.000Z</time>
      </trkpt>
      <trkpt lat="45.11377" lon="4.24996">
        <ele>939.2</ele>
        <time>2021-08-12T10:44:34.000Z</time>
      </trkpt>
      <trkpt lat="45.11366" lon="4.25001">
        <ele>940</ele>
        <time>2021-08-12T10:44:36.000Z</time>
      </trkpt>
      <trkpt lat="45.11356" lon="4.25002">
        <ele>940.6</ele>
        <time>2021-08-12T10:44:38.000Z</time>
      </trkpt>
      <trkpt lat="45.11344" lon="4.25005">
        <ele>941.3</ele>
        <time>2021-08-12T10:44:41.000Z</time>
      </trkpt>
      <trkpt lat="45.11333" lon="4.25008">
        <ele>942</ele>
        <time>2021-08-12T10:44:44.000Z</time>
      </trkpt>
      <trkpt lat="45.11322" lon="4.25011">
        <ele>942.1</ele>
        <time>2021-08-12T10:44:47.000Z</time>
      </trkpt>
      <trkpt lat="45.11313" lon="4.25014">
        <ele>942.3</ele>
        <time>2021-08-12T10:44:50.000Z</time>
      </trkpt>
      <trkpt lat="45.11303" lon="4.25017">
        <ele>942.6</ele>
        <time>2021-08-12T10:44:53.000Z</time>
      </trkpt>
      <trkpt lat="45.11294" lon="4.25021">
        <ele>942.9</ele>
        <time>2021-08-12T10:44:56.000Z</time>
      </trkpt>
      <trkpt lat="45.11285" lon="4.25026">
        <ele>943.4</ele>
        <time>2021-08-12T10:44:59.000Z</time>
      </trkpt>
      <trkpt lat="45.11275" lon="4.2503">
        <ele>944</ele>
        <time>2021-08-12T10:45:02.000Z</time>
      </trkpt>
      <trkpt lat="45.11266" lon="4.25033">
        <ele>944.5</ele>
        <time>2021-08-12T10:45:05.000Z</time>
      </trkpt>
      <trkpt lat="45.11256" lon="4.25036">
        <ele>945.1</ele>
        <time>2021-08-12T10:45:08.000Z</time>
      </trkpt>
      <trkpt lat="45.11247" lon="4.2504">
        <ele>945.7</ele>
        <time>2021-08-12T10:45:11.000Z</time>
      </trkpt>
      <trkpt lat="45.11238" lon="4.25046">
        <ele>946</ele>
        <time>2021-08-12T10:45:14.000Z</time>
      </trkpt>
      <trkpt lat="45.11228" lon="4.25052">
        <ele>946.4</ele>
        <time>2021-08-12T10:45:17.000Z</time>
      </trkpt>
      <trkpt lat="45.11218" lon="4.25056">
        <ele>946.6</ele>
        <time>2021-08-12T10:45:20.000Z</time>
      </trkpt>
      <trkpt lat="45.11207" lon="4.25061">
        <ele>946.9</ele>
        <time>2021-08-12T10:45:23.000Z</time>
      </trkpt>
      <trkpt lat="45.11195" lon="4.25065">
        <ele>947.2</ele>
        <time>2021-08-12T10:45:26.000Z</time>
      </trkpt>
      <trkpt lat="45.11182" lon="4.25068">
        <ele>947.2</ele>
        <time>2021-08-12T10:45:29.000Z</time>
      </trkpt>
      <trkpt lat="45.1117" lon="4.25073">
        <ele>947.7</ele>
        <time>2021-08-12T10:45:32.000Z</time>
      </trkpt>
      <trkpt lat="45.11162" lon="4.25078">
        <ele>948</ele>
        <time>2021-08-12T10:45:34.000Z</time>
      </trkpt>
      <trkpt lat="45.11149" lon="4.25085">
        <ele>948</ele>
        <time>2021-08-12T10:45:37.000Z</time>
      </trkpt>
      <trkpt lat="45.11139" lon="4.2509">
        <ele>947.4</ele>
        <time>2021-08-12T10:45:40.000Z</time>
      </trkpt>
      <trkpt lat="45.11127" lon="4.25096">
        <ele>946.7</ele>
        <time>2021-08-12T10:45:43.000Z</time>
      </trkpt>
      <trkpt lat="45.11116" lon="4.25099">
        <ele>946</ele>
        <time>2021-08-12T10:45:46.000Z</time>
      </trkpt>
      <trkpt lat="45.11106" lon="4.25089">
        <ele>945.4</ele>
        <time>2021-08-12T10:45:50.000Z</time>
      </trkpt>
      <trkpt lat="45.11101" lon="4.25075">
        <ele>944.1</ele>
        <time>2021-08-12T10:45:53.000Z</time>
      </trkpt>
      <trkpt lat="45.11093" lon="4.25059">
        <ele>942.1</ele>
        <time>2021-08-12T10:45:56.000Z</time>
      </trkpt>
      <trkpt lat="45.11087" lon="4.25048">
        <ele>940.7</ele>
        <time>2021-08-12T10:45:58.000Z</time>
      </trkpt>
      <trkpt lat="45.11082" lon="4.25036">
        <ele>939.4</ele>
        <time>2021-08-12T10:46:00.000Z</time>
      </trkpt>
      <trkpt lat="45.11077" lon="4.25025">
        <ele>938</ele>
        <time>2021-08-12T10:46:02.000Z</time>
      </trkpt>
      <trkpt lat="45.11071" lon="4.25013">
        <ele>936.7</ele>
        <time>2021-08-12T10:46:04.000Z</time>
      </trkpt>
      <trkpt lat="45.11066" lon="4.25001">
        <ele>935.7</ele>
        <time>2021-08-12T10:46:06.000Z</time>
      </trkpt>
      <trkpt lat="45.11061" lon="4.24989">
        <ele>935</ele>
        <time>2021-08-12T10:46:08.000Z</time>
      </trkpt>
      <trkpt lat="45.11056" lon="4.24972">
        <ele>934.3</ele>
        <time>2021-08-12T10:46:11.000Z</time>
      </trkpt>
      <trkpt lat="45.11046" lon="4.24968">
        <ele>934.1</ele>
        <time>2021-08-12T10:46:15.000Z</time>
      </trkpt>
      <trkpt lat="45.11037" lon="4.2497">
        <ele>934</ele>
        <time>2021-08-12T10:46:18.000Z</time>
      </trkpt>
      <trkpt lat="45.11026" lon="4.24972">
        <ele>934</ele>
        <time>2021-08-12T10:46:22.000Z</time>
      </trkpt>
      <trkpt lat="45.11016" lon="4.24973">
        <ele>933.9</ele>
        <time>2021-08-12T10:46:26.000Z</time>
      </trkpt>
      <trkpt lat="45.11005" lon="4.24971">
        <ele>933.7</ele>
        <time>2021-08-12T10:46:31.000Z</time>
      </trkpt>
      <trkpt lat="45.10995" lon="4.24969">
        <ele>934.3</ele>
        <time>2021-08-12T10:46:36.000Z</time>
      </trkpt>
      <trkpt lat="45.10986" lon="4.24964">
        <ele>935.5</ele>
        <time>2021-08-12T10:46:43.000Z</time>
      </trkpt>
      <trkpt lat="45.10976" lon="4.24957">
        <ele>936.5</ele>
        <time>2021-08-12T10:46:50.000Z</time>
      </trkpt>
      <trkpt lat="45.10968" lon="4.24948">
        <ele>937.2</ele>
        <time>2021-08-12T10:46:56.000Z</time>
      </trkpt>
      <trkpt lat="45.10962" lon="4.24939">
        <ele>937.5</ele>
        <time>2021-08-12T10:47:02.000Z</time>
      </trkpt>
      <trkpt lat="45.10953" lon="4.24935">
        <ele>938.1</ele>
        <time>2021-08-12T10:47:08.000Z</time>
      </trkpt>
      <trkpt lat="45.10944" lon="4.24929">
        <ele>938.6</ele>
        <time>2021-08-12T10:47:16.000Z</time>
      </trkpt>
      <trkpt lat="45.10935" lon="4.24925">
        <ele>939.2</ele>
        <time>2021-08-12T10:47:23.000Z</time>
      </trkpt>
      <trkpt lat="45.10927" lon="4.24916">
        <ele>939</ele>
        <time>2021-08-12T10:47:29.000Z</time>
      </trkpt>
      <trkpt lat="45.10919" lon="4.24909">
        <ele>939.5</ele>
        <time>2021-08-12T10:47:36.000Z</time>
      </trkpt>
      <trkpt lat="45.1091" lon="4.24903">
        <ele>940.5</ele>
        <time>2021-08-12T10:47:42.000Z</time>
      </trkpt>
      <trkpt lat="45.109" lon="4.24897">
        <ele>941.7</ele>
        <time>2021-08-12T10:47:48.000Z</time>
      </trkpt>
      <trkpt lat="45.10892" lon="4.24892">
        <ele>942.7</ele>
        <time>2021-08-12T10:47:54.000Z</time>
      </trkpt>
      <trkpt lat="45.10883" lon="4.24885">
        <ele>943.6</ele>
        <time>2021-08-12T10:48:02.000Z</time>
      </trkpt>
      <trkpt lat="45.10873" lon="4.24882">
        <ele>944.9</ele>
        <time>2021-08-12T10:48:10.000Z</time>
      </trkpt>
      <trkpt lat="45.10863" lon="4.2488">
        <ele>946.2</ele>
        <time>2021-08-12T10:48:15.000Z</time>
      </trkpt>
      <trkpt lat="45.10854" lon="4.24877">
        <ele>947.3</ele>
        <time>2021-08-12T10:48:20.000Z</time>
      </trkpt>
      <trkpt lat="45.10844" lon="4.24876">
        <ele>948.4</ele>
        <time>2021-08-12T10:48:25.000Z</time>
      </trkpt>
      <trkpt lat="45.10833" lon="4.24872">
        <ele>949.5</ele>
        <time>2021-08-12T10:48:29.000Z</time>
      </trkpt>
      <trkpt lat="45.10824" lon="4.2487">
        <ele>950.4</ele>
        <time>2021-08-12T10:48:32.000Z</time>
      </trkpt>
      <trkpt lat="45.10813" lon="4.24866">
        <ele>951.5</ele>
        <time>2021-08-12T10:48:36.000Z</time>
      </trkpt>
      <trkpt lat="45.10802" lon="4.24863">
        <ele>952.7</ele>
        <time>2021-08-12T10:48:40.000Z</time>
      </trkpt>
      <trkpt lat="45.10792" lon="4.24866">
        <ele>954.6</ele>
        <time>2021-08-12T10:48:43.000Z</time>
      </trkpt>
      <trkpt lat="45.1078" lon="4.2487">
        <ele>956.7</ele>
        <time>2021-08-12T10:48:47.000Z</time>
      </trkpt>
      <trkpt lat="45.10771" lon="4.24872">
        <ele>958.4</ele>
        <time>2021-08-12T10:48:50.000Z</time>
      </trkpt>
      <trkpt lat="45.10761" lon="4.24871">
        <ele>959.8</ele>
        <time>2021-08-12T10:48:54.000Z</time>
      </trkpt>
      <trkpt lat="45.10752" lon="4.24872">
        <ele>961.2</ele>
        <time>2021-08-12T10:48:57.000Z</time>
      </trkpt>
      <trkpt lat="45.10741" lon="4.24873">
        <ele>961.3</ele>
        <time>2021-08-12T10:49:00.000Z</time>
      </trkpt>
      <trkpt lat="45.10737" lon="4.24861">
        <ele>959.6</ele>
        <time>2021-08-12T10:49:03.000Z</time>
      </trkpt>
      <trkpt lat="45.10738" lon="4.24848">
        <ele>957.9</ele>
        <time>2021-08-12T10:49:06.000Z</time>
      </trkpt>
      <trkpt lat="45.10737" lon="4.24835">
        <ele>956.2</ele>
        <time>2021-08-12T10:49:09.000Z</time>
      </trkpt>
      <trkpt lat="45.10736" lon="4.24819">
        <ele>954.7</ele>
        <time>2021-08-12T10:49:12.000Z</time>
      </trkpt>
      <trkpt lat="45.10735" lon="4.24801">
        <ele>953.2</ele>
        <time>2021-08-12T10:49:15.000Z</time>
      </trkpt>
      <trkpt lat="45.10734" lon="4.24786">
        <ele>951.8</ele>
        <time>2021-08-12T10:49:18.000Z</time>
      </trkpt>
      <trkpt lat="45.10733" lon="4.24773">
        <ele>950.7</ele>
        <time>2021-08-12T10:49:22.000Z</time>
      </trkpt>
      <trkpt lat="45.10734" lon="4.24757">
        <ele>949.3</ele>
        <time>2021-08-12T10:49:30.000Z</time>
      </trkpt>
      <trkpt lat="45.10733" lon="4.2474">
        <ele>948.7</ele>
        <time>2021-08-12T10:49:33.000Z</time>
      </trkpt>
      <trkpt lat="45.10732" lon="4.24724">
        <ele>948.4</ele>
        <time>2021-08-12T10:49:36.000Z</time>
      </trkpt>
      <trkpt lat="45.10732" lon="4.24709">
        <ele>948.1</ele>
        <time>2021-08-12T10:49:38.000Z</time>
      </trkpt>
      <trkpt lat="45.10732" lon="4.24693">
        <ele>947.9</ele>
        <time>2021-08-12T10:49:40.000Z</time>
      </trkpt>
      <trkpt lat="45.10732" lon="4.24677">
        <ele>947.6</ele>
        <time>2021-08-12T10:49:42.000Z</time>
      </trkpt>
      <trkpt lat="45.1073" lon="4.24663">
        <ele>947.3</ele>
        <time>2021-08-12T10:49:44.000Z</time>
      </trkpt>
      <trkpt lat="45.10729" lon="4.2465">
        <ele>946.8</ele>
        <time>2021-08-12T10:49:46.000Z</time>
      </trkpt>
      <trkpt lat="45.10727" lon="4.24632">
        <ele>946.2</ele>
        <time>2021-08-12T10:49:49.000Z</time>
      </trkpt>
      <trkpt lat="45.10726" lon="4.24619">
        <ele>945.7</ele>
        <time>2021-08-12T10:49:51.000Z</time>
      </trkpt>
      <trkpt lat="45.10726" lon="4.24604">
        <ele>945.1</ele>
        <time>2021-08-12T10:49:53.000Z</time>
      </trkpt>
      <trkpt lat="45.10727" lon="4.24589">
        <ele>944.5</ele>
        <time>2021-08-12T10:49:55.000Z</time>
      </trkpt>
      <trkpt lat="45.10726" lon="4.24573">
        <ele>944.2</ele>
        <time>2021-08-12T10:49:57.000Z</time>
      </trkpt>
      <trkpt lat="45.10725" lon="4.24559">
        <ele>944</ele>
        <time>2021-08-12T10:49:59.000Z</time>
      </trkpt>
      <trkpt lat="45.10724" lon="4.24545">
        <ele>943.8</ele>
        <time>2021-08-12T10:50:01.000Z</time>
      </trkpt>
      <trkpt lat="45.10721" lon="4.24531">
        <ele>943.7</ele>
        <time>2021-08-12T10:50:03.000Z</time>
      </trkpt>
      <trkpt lat="45.10716" lon="4.24514">
        <ele>943.6</ele>
        <time>2021-08-12T10:50:06.000Z</time>
      </trkpt>
      <trkpt lat="45.10709" lon="4.24499">
        <ele>943.5</ele>
        <time>2021-08-12T10:50:09.000Z</time>
      </trkpt>
      <trkpt lat="45.10704" lon="4.24476">
        <ele>944.6</ele>
        <time>2021-08-12T10:50:13.000Z</time>
      </trkpt>
      <trkpt lat="45.10701" lon="4.24459">
        <ele>945.3</ele>
        <time>2021-08-12T10:50:16.000Z</time>
      </trkpt>
      <trkpt lat="45.10696" lon="4.24442">
        <ele>946</ele>
        <time>2021-08-12T10:50:19.000Z</time>
      </trkpt>
      <trkpt lat="45.10694" lon="4.24424">
        <ele>946.7</ele>
        <time>2021-08-12T10:50:22.000Z</time>
      </trkpt>
      <trkpt lat="45.10691" lon="4.24407">
        <ele>947.6</ele>
        <time>2021-08-12T10:50:25.000Z</time>
      </trkpt>
      <trkpt lat="45.10686" lon="4.24392">
        <ele>948.4</ele>
        <time>2021-08-12T10:50:28.000Z</time>
      </trkpt>
      <trkpt lat="45.10676" lon="4.24391">
        <ele>948.5</ele>
        <time>2021-08-12T10:50:32.000Z</time>
      </trkpt>
      <trkpt lat="45.10674" lon="4.24403">
        <ele>947.8</ele>
        <time>2021-08-12T10:50:34.000Z</time>
      </trkpt>
      <trkpt lat="45.10671" lon="4.24415">
        <ele>947.1</ele>
        <time>2021-08-12T10:50:36.000Z</time>
      </trkpt>
      <trkpt lat="45.10662" lon="4.2443">
        <ele>946.7</ele>
        <time>2021-08-12T10:50:39.000Z</time>
      </trkpt>
      <trkpt lat="45.10655" lon="4.24437">
        <ele>946.6</ele>
        <time>2021-08-12T10:50:41.000Z</time>
      </trkpt>
      <trkpt lat="45.10648" lon="4.24445">
        <ele>946.6</ele>
        <time>2021-08-12T10:50:43.000Z</time>
      </trkpt>
      <trkpt lat="45.10641" lon="4.24454">
        <ele>946.5</ele>
        <time>2021-08-12T10:50:45.000Z</time>
      </trkpt>
      <trkpt lat="45.10634" lon="4.24463">
        <ele>946.3</ele>
        <time>2021-08-12T10:50:47.000Z</time>
      </trkpt>
      <trkpt lat="45.10626" lon="4.24472">
        <ele>946.2</ele>
        <time>2021-08-12T10:50:49.000Z</time>
      </trkpt>
      <trkpt lat="45.10618" lon="4.24479">
        <ele>946.1</ele>
        <time>2021-08-12T10:50:51.000Z</time>
      </trkpt>
      <trkpt lat="45.1061" lon="4.24486">
        <ele>946</ele>
        <time>2021-08-12T10:50:53.000Z</time>
      </trkpt>
      <trkpt lat="45.10602" lon="4.24492">
        <ele>945.9</ele>
        <time>2021-08-12T10:50:55.000Z</time>
      </trkpt>
      <trkpt lat="45.10593" lon="4.24496">
        <ele>945.9</ele>
        <time>2021-08-12T10:50:57.000Z</time>
      </trkpt>
      <trkpt lat="45.10584" lon="4.24498">
        <ele>946.1</ele>
        <time>2021-08-12T10:50:59.000Z</time>
      </trkpt>
      <trkpt lat="45.10575" lon="4.245">
        <ele>946.4</ele>
        <time>2021-08-12T10:51:01.000Z</time>
      </trkpt>
      <trkpt lat="45.10561" lon="4.245">
        <ele>946.8</ele>
        <time>2021-08-12T10:51:04.000Z</time>
      </trkpt>
      <trkpt lat="45.1055" lon="4.24503">
        <ele>947.2</ele>
        <time>2021-08-12T10:51:07.000Z</time>
      </trkpt>
      <trkpt lat="45.10539" lon="4.24506">
        <ele>947.6</ele>
        <time>2021-08-12T10:51:10.000Z</time>
      </trkpt>
      <trkpt lat="45.10529" lon="4.24515">
        <ele>948</ele>
        <time>2021-08-12T10:51:13.000Z</time>
      </trkpt>
      <trkpt lat="45.10521" lon="4.24526">
        <ele>948.3</ele>
        <time>2021-08-12T10:51:16.000Z</time>
      </trkpt>
      <trkpt lat="45.10514" lon="4.2454">
        <ele>948.5</ele>
        <time>2021-08-12T10:51:19.000Z</time>
      </trkpt>
      <trkpt lat="45.10509" lon="4.24555">
        <ele>948.7</ele>
        <time>2021-08-12T10:51:22.000Z</time>
      </trkpt>
      <trkpt lat="45.10504" lon="4.24569">
        <ele>948.9</ele>
        <time>2021-08-12T10:51:25.000Z</time>
      </trkpt>
      <trkpt lat="45.105" lon="4.24584">
        <ele>949</ele>
        <time>2021-08-12T10:51:28.000Z</time>
      </trkpt>
      <trkpt lat="45.10495" lon="4.24597">
        <ele>949.2</ele>
        <time>2021-08-12T10:51:31.000Z</time>
      </trkpt>
      <trkpt lat="45.10489" lon="4.24607">
        <ele>949.5</ele>
        <time>2021-08-12T10:51:34.000Z</time>
      </trkpt>
      <trkpt lat="45.1048" lon="4.24616">
        <ele>949.9</ele>
        <time>2021-08-12T10:51:38.000Z</time>
      </trkpt>
      <trkpt lat="45.10472" lon="4.24625">
        <ele>950.3</ele>
        <time>2021-08-12T10:51:42.000Z</time>
      </trkpt>
      <trkpt lat="45.10464" lon="4.24636">
        <ele>950.8</ele>
        <time>2021-08-12T10:51:47.000Z</time>
      </trkpt>
      <trkpt lat="45.10457" lon="4.24645">
        <ele>951.3</ele>
        <time>2021-08-12T10:51:52.000Z</time>
      </trkpt>
      <trkpt lat="45.10449" lon="4.24655">
        <ele>951.9</ele>
        <time>2021-08-12T10:51:58.000Z</time>
      </trkpt>
      <trkpt lat="45.10444" lon="4.24667">
        <ele>952.4</ele>
        <time>2021-08-12T10:52:06.000Z</time>
      </trkpt>
      <trkpt lat="45.10436" lon="4.24676">
        <ele>953</ele>
        <time>2021-08-12T10:52:12.000Z</time>
      </trkpt>
      <trkpt lat="45.1043" lon="4.24686">
        <ele>953.6</ele>
        <time>2021-08-12T10:52:17.000Z</time>
      </trkpt>
      <trkpt lat="45.10422" lon="4.24693">
        <ele>954.3</ele>
        <time>2021-08-12T10:52:24.000Z</time>
      </trkpt>
      <trkpt lat="45.10416" lon="4.24706">
        <ele>955.1</ele>
        <time>2021-08-12T10:52:31.000Z</time>
      </trkpt>
      <trkpt lat="45.1041" lon="4.24716">
        <ele>955.9</ele>
        <time>2021-08-12T10:52:37.000Z</time>
      </trkpt>
      <trkpt lat="45.10407" lon="4.24729">
        <ele>956.7</ele>
        <time>2021-08-12T10:52:42.000Z</time>
      </trkpt>
      <trkpt lat="45.10404" lon="4.24741">
        <ele>957.4</ele>
        <time>2021-08-12T10:52:46.000Z</time>
      </trkpt>
      <trkpt lat="45.10396" lon="4.24759">
        <ele>959.5</ele>
        <time>2021-08-12T10:52:52.000Z</time>
      </trkpt>
      <trkpt lat="45.10388" lon="4.24765">
        <ele>961</ele>
        <time>2021-08-12T10:52:55.000Z</time>
      </trkpt>
      <trkpt lat="45.1038" lon="4.24774">
        <ele>962.6</ele>
        <time>2021-08-12T10:52:59.000Z</time>
      </trkpt>
      <trkpt lat="45.10371" lon="4.24781">
        <ele>963.8</ele>
        <time>2021-08-12T10:53:02.000Z</time>
      </trkpt>
      <trkpt lat="45.10363" lon="4.24786">
        <ele>964.9</ele>
        <time>2021-08-12T10:53:05.000Z</time>
      </trkpt>
      <trkpt lat="45.10357" lon="4.24798">
        <ele>965.9</ele>
        <time>2021-08-12T10:53:08.000Z</time>
      </trkpt>
      <trkpt lat="45.10349" lon="4.24806">
        <ele>966.7</ele>
        <time>2021-08-12T10:53:13.000Z</time>
      </trkpt>
      <trkpt lat="45.10337" lon="4.24815">
        <ele>967.6</ele>
        <time>2021-08-12T10:53:16.000Z</time>
      </trkpt>
      <trkpt lat="45.10329" lon="4.24826">
        <ele>968.5</ele>
        <time>2021-08-12T10:53:19.000Z</time>
      </trkpt>
      <trkpt lat="45.10321" lon="4.24839">
        <ele>970.2</ele>
        <time>2021-08-12T10:53:22.000Z</time>
      </trkpt>
      <trkpt lat="45.10315" lon="4.24849">
        <ele>971.9</ele>
        <time>2021-08-12T10:53:26.000Z</time>
      </trkpt>
      <trkpt lat="45.10306" lon="4.24859">
        <ele>973.7</ele>
        <time>2021-08-12T10:53:30.000Z</time>
      </trkpt>
      <trkpt lat="45.10298" lon="4.24867">
        <ele>974.8</ele>
        <time>2021-08-12T10:53:34.000Z</time>
      </trkpt>
      <trkpt lat="45.1029" lon="4.24873">
        <ele>975.6</ele>
        <time>2021-08-12T10:53:37.000Z</time>
      </trkpt>
      <trkpt lat="45.10282" lon="4.24885">
        <ele>976.4</ele>
        <time>2021-08-12T10:53:43.000Z</time>
      </trkpt>
      <trkpt lat="45.10273" lon="4.2489">
        <ele>976.7</ele>
        <time>2021-08-12T10:53:48.000Z</time>
      </trkpt>
      <trkpt lat="45.10262" lon="4.24896">
        <ele>976.7</ele>
        <time>2021-08-12T10:53:52.000Z</time>
      </trkpt>
      <trkpt lat="45.10252" lon="4.249">
        <ele>976.5</ele>
        <time>2021-08-12T10:53:57.000Z</time>
      </trkpt>
      <trkpt lat="45.10243" lon="4.24905">
        <ele>976.9</ele>
        <time>2021-08-12T10:54:02.000Z</time>
      </trkpt>
      <trkpt lat="45.10234" lon="4.24911">
        <ele>977.5</ele>
        <time>2021-08-12T10:54:08.000Z</time>
      </trkpt>
      <trkpt lat="45.10225" lon="4.24921">
        <ele>977.8</ele>
        <time>2021-08-12T10:54:13.000Z</time>
      </trkpt>
      <trkpt lat="45.10218" lon="4.24933">
        <ele>978.1</ele>
        <time>2021-08-12T10:54:17.000Z</time>
      </trkpt>
      <trkpt lat="45.1021" lon="4.24947">
        <ele>977.9</ele>
        <time>2021-08-12T10:54:20.000Z</time>
      </trkpt>
      <trkpt lat="45.10203" lon="4.24956">
        <ele>977.5</ele>
        <time>2021-08-12T10:54:22.000Z</time>
      </trkpt>
      <trkpt lat="45.10194" lon="4.2497">
        <ele>976.4</ele>
        <time>2021-08-12T10:54:25.000Z</time>
      </trkpt>
      <trkpt lat="45.10187" lon="4.24982">
        <ele>975</ele>
        <time>2021-08-12T10:54:27.000Z</time>
      </trkpt>
      <trkpt lat="45.10178" lon="4.24999">
        <ele>972.5</ele>
        <time>2021-08-12T10:54:29.000Z</time>
      </trkpt>
      <trkpt lat="45.10169" lon="4.25017">
        <ele>971</ele>
        <time>2021-08-12T10:54:31.000Z</time>
      </trkpt>
      <trkpt lat="45.10161" lon="4.25032">
        <ele>971.3</ele>
        <time>2021-08-12T10:54:33.000Z</time>
      </trkpt>
      <trkpt lat="45.10156" lon="4.25048">
        <ele>971.5</ele>
        <time>2021-08-12T10:54:35.000Z</time>
      </trkpt>
      <trkpt lat="45.10151" lon="4.25065">
        <ele>971.4</ele>
        <time>2021-08-12T10:54:37.000Z</time>
      </trkpt>
      <trkpt lat="45.10144" lon="4.25077">
        <ele>971.4</ele>
        <time>2021-08-12T10:54:39.000Z</time>
      </trkpt>
      <trkpt lat="45.10133" lon="4.25084">
        <ele>971.6</ele>
        <time>2021-08-12T10:54:41.000Z</time>
      </trkpt>
      <trkpt lat="45.10122" lon="4.25087">
        <ele>971.9</ele>
        <time>2021-08-12T10:54:43.000Z</time>
      </trkpt>
      <trkpt lat="45.1011" lon="4.25094">
        <ele>972.1</ele>
        <time>2021-08-12T10:54:46.000Z</time>
      </trkpt>
      <trkpt lat="45.101" lon="4.25099">
        <ele>972.3</ele>
        <time>2021-08-12T10:54:49.000Z</time>
      </trkpt>
      <trkpt lat="45.10091" lon="4.25103">
        <ele>972.5</ele>
        <time>2021-08-12T10:54:54.000Z</time>
      </trkpt>
      <trkpt lat="45.10082" lon="4.25109">
        <ele>972.6</ele>
        <time>2021-08-12T10:55:00.000Z</time>
      </trkpt>
      <trkpt lat="45.10073" lon="4.25115">
        <ele>972.9</ele>
        <time>2021-08-12T10:55:07.000Z</time>
      </trkpt>
      <trkpt lat="45.10064" lon="4.25122">
        <ele>973</ele>
        <time>2021-08-12T10:55:10.000Z</time>
      </trkpt>
      <trkpt lat="45.10055" lon="4.25129">
        <ele>973.2</ele>
        <time>2021-08-12T10:55:13.000Z</time>
      </trkpt>
      <trkpt lat="45.10044" lon="4.25135">
        <ele>973.3</ele>
        <time>2021-08-12T10:55:16.000Z</time>
      </trkpt>
      <trkpt lat="45.10034" lon="4.25146">
        <ele>973.1</ele>
        <time>2021-08-12T10:55:19.000Z</time>
      </trkpt>
      <trkpt lat="45.10026" lon="4.25159">
        <ele>972.4</ele>
        <time>2021-08-12T10:55:22.000Z</time>
      </trkpt>
      <trkpt lat="45.10018" lon="4.25168">
        <ele>972.2</ele>
        <time>2021-08-12T10:55:24.000Z</time>
      </trkpt>
      <trkpt lat="45.10009" lon="4.25177">
        <ele>973.1</ele>
        <time>2021-08-12T10:55:26.000Z</time>
      </trkpt>
      <trkpt lat="45.10001" lon="4.25184">
        <ele>974</ele>
        <time>2021-08-12T10:55:28.000Z</time>
      </trkpt>
      <trkpt lat="45.09994" lon="4.25191">
        <ele>975.2</ele>
        <time>2021-08-12T10:55:30.000Z</time>
      </trkpt>
      <trkpt lat="45.09986" lon="4.25199">
        <ele>976.5</ele>
        <time>2021-08-12T10:55:32.000Z</time>
      </trkpt>
      <trkpt lat="45.09978" lon="4.25209">
        <ele>977.9</ele>
        <time>2021-08-12T10:55:35.000Z</time>
      </trkpt>
      <trkpt lat="45.0997" lon="4.25217">
        <ele>979.2</ele>
        <time>2021-08-12T10:55:38.000Z</time>
      </trkpt>
      <trkpt lat="45.09964" lon="4.25227">
        <ele>980.2</ele>
        <time>2021-08-12T10:55:41.000Z</time>
      </trkpt>
      <trkpt lat="45.09959" lon="4.25242">
        <ele>981.2</ele>
        <time>2021-08-12T10:55:44.000Z</time>
      </trkpt>
      <trkpt lat="45.09955" lon="4.25255">
        <ele>982.4</ele>
        <time>2021-08-12T10:55:47.000Z</time>
      </trkpt>
      <trkpt lat="45.09949" lon="4.25268">
        <ele>984.6</ele>
        <time>2021-08-12T10:55:51.000Z</time>
      </trkpt>
      <trkpt lat="45.09942" lon="4.25276">
        <ele>986.6</ele>
        <time>2021-08-12T10:55:56.000Z</time>
      </trkpt>
      <trkpt lat="45.09936" lon="4.25287">
        <ele>988.9</ele>
        <time>2021-08-12T10:56:01.000Z</time>
      </trkpt>
      <trkpt lat="45.09931" lon="4.25299">
        <ele>991.3</ele>
        <time>2021-08-12T10:56:06.000Z</time>
      </trkpt>
      <trkpt lat="45.09925" lon="4.25311">
        <ele>994.1</ele>
        <time>2021-08-12T10:56:11.000Z</time>
      </trkpt>
      <trkpt lat="45.09919" lon="4.25321">
        <ele>996.5</ele>
        <time>2021-08-12T10:56:16.000Z</time>
      </trkpt>
      <trkpt lat="45.0991" lon="4.25329">
        <ele>998.3</ele>
        <time>2021-08-12T10:56:21.000Z</time>
      </trkpt>
      <trkpt lat="45.09901" lon="4.25334">
        <ele>998.8</ele>
        <time>2021-08-12T10:56:26.000Z</time>
      </trkpt>
      <trkpt lat="45.0989" lon="4.25336">
        <ele>998.8</ele>
        <time>2021-08-12T10:56:30.000Z</time>
      </trkpt>
      <trkpt lat="45.0988" lon="4.25339">
        <ele>998.8</ele>
        <time>2021-08-12T10:56:34.000Z</time>
      </trkpt>
      <trkpt lat="45.09869" lon="4.25341">
        <ele>998.7</ele>
        <time>2021-08-12T10:56:38.000Z</time>
      </trkpt>
      <trkpt lat="45.09859" lon="4.25343">
        <ele>998.7</ele>
        <time>2021-08-12T10:56:42.000Z</time>
      </trkpt>
      <trkpt lat="45.09848" lon="4.25347">
        <ele>998.7</ele>
        <time>2021-08-12T10:56:46.000Z</time>
      </trkpt>
      <trkpt lat="45.09837" lon="4.25345">
        <ele>998.5</ele>
        <time>2021-08-12T10:56:52.000Z</time>
      </trkpt>
      <trkpt lat="45.09828" lon="4.25344">
        <ele>998.3</ele>
        <time>2021-08-12T10:56:56.000Z</time>
      </trkpt>
      <trkpt lat="45.09817" lon="4.25344">
        <ele>998.2</ele>
        <time>2021-08-12T10:57:01.000Z</time>
      </trkpt>
      <trkpt lat="45.09807" lon="4.25343">
        <ele>998</ele>
        <time>2021-08-12T10:57:05.000Z</time>
      </trkpt>
      <trkpt lat="45.09798" lon="4.2534">
        <ele>997.7</ele>
        <time>2021-08-12T10:57:09.000Z</time>
      </trkpt>
      <trkpt lat="45.09788" lon="4.25337">
        <ele>997.1</ele>
        <time>2021-08-12T10:57:13.000Z</time>
      </trkpt>
      <trkpt lat="45.09779" lon="4.25333">
        <ele>996.7</ele>
        <time>2021-08-12T10:57:16.000Z</time>
      </trkpt>
      <trkpt lat="45.09772" lon="4.25324">
        <ele>996.7</ele>
        <time>2021-08-12T10:57:19.000Z</time>
      </trkpt>
      <trkpt lat="45.09762" lon="4.25325">
        <ele>996.6</ele>
        <time>2021-08-12T10:57:23.000Z</time>
      </trkpt>
      <trkpt lat="45.09755" lon="4.25336">
        <ele>996.4</ele>
        <time>2021-08-12T10:57:28.000Z</time>
      </trkpt>
      <trkpt lat="45.09753" lon="4.2534">
        <ele>996.9</ele>
        <time>2021-08-12T10:57:33.000Z</time>
      </trkpt>
      <trkpt lat="45.09753" lon="4.2534">
        <ele>996.9</ele>
        <time>2021-08-12T10:57:35.000Z</time>
      </trkpt>
      <trkpt lat="45.09751" lon="4.25339">
        <ele>996.7</ele>
        <time>2021-08-12T10:57:40.000Z</time>
      </trkpt>
      <trkpt lat="45.09751" lon="4.2534">
        <ele>996.9</ele>
        <time>2021-08-12T10:58:30.000Z</time>
      </trkpt>
      <trkpt lat="45.09744" lon="4.25349">
        <ele>998.1</ele>
        <time>2021-08-12T10:58:36.000Z</time>
      </trkpt>
      <trkpt lat="45.09734" lon="4.25356">
        <ele>999.1</ele>
        <time>2021-08-12T10:58:42.000Z</time>
      </trkpt>
      <trkpt lat="45.09727" lon="4.25365">
        <ele>1000.5</ele>
        <time>2021-08-12T10:58:47.000Z</time>
      </trkpt>
      <trkpt lat="45.09718" lon="4.25373">
        <ele>1001.9</ele>
        <time>2021-08-12T10:58:52.000Z</time>
      </trkpt>
      <trkpt lat="45.0971" lon="4.2538">
        <ele>1003.1</ele>
        <time>2021-08-12T10:58:56.000Z</time>
      </trkpt>
      <trkpt lat="45.09703" lon="4.25392">
        <ele>1005.3</ele>
        <time>2021-08-12T10:59:00.000Z</time>
      </trkpt>
      <trkpt lat="45.097" lon="4.25404">
        <ele>1007.3</ele>
        <time>2021-08-12T10:59:04.000Z</time>
      </trkpt>
      <trkpt lat="45.09697" lon="4.25418">
        <ele>1009.7</ele>
        <time>2021-08-12T10:59:09.000Z</time>
      </trkpt>
      <trkpt lat="45.09695" lon="4.2543">
        <ele>1011.4</ele>
        <time>2021-08-12T10:59:14.000Z</time>
      </trkpt>
      <trkpt lat="45.09692" lon="4.25445">
        <ele>1013.5</ele>
        <time>2021-08-12T10:59:20.000Z</time>
      </trkpt>
      <trkpt lat="45.09687" lon="4.25457">
        <ele>1015.3</ele>
        <time>2021-08-12T10:59:25.000Z</time>
      </trkpt>
      <trkpt lat="45.09685" lon="4.2547">
        <ele>1017.1</ele>
        <time>2021-08-12T10:59:29.000Z</time>
      </trkpt>
      <trkpt lat="45.09686" lon="4.25485">
        <ele>1019.2</ele>
        <time>2021-08-12T10:59:34.000Z</time>
      </trkpt>
      <trkpt lat="45.09686" lon="4.255">
        <ele>1021.1</ele>
        <time>2021-08-12T10:59:38.000Z</time>
      </trkpt>
      <trkpt lat="45.09692" lon="4.25512">
        <ele>1021.6</ele>
        <time>2021-08-12T10:59:44.000Z</time>
      </trkpt>
      <trkpt lat="45.097" lon="4.25517">
        <ele>1021.6</ele>
        <time>2021-08-12T10:59:49.000Z</time>
      </trkpt>
      <trkpt lat="45.09705" lon="4.25528">
        <ele>1022</ele>
        <time>2021-08-12T10:59:54.000Z</time>
      </trkpt>
      <trkpt lat="45.09706" lon="4.25542">
        <ele>1022.8</ele>
        <time>2021-08-12T10:59:59.000Z</time>
      </trkpt>
      <trkpt lat="45.09707" lon="4.25556">
        <ele>1023.5</ele>
        <time>2021-08-12T11:00:04.000Z</time>
      </trkpt>
      <trkpt lat="45.09708" lon="4.2557">
        <ele>1024.2</ele>
        <time>2021-08-12T11:00:08.000Z</time>
      </trkpt>
      <trkpt lat="45.0971" lon="4.25587">
        <ele>1025.1</ele>
        <time>2021-08-12T11:00:12.000Z</time>
      </trkpt>
      <trkpt lat="45.09711" lon="4.25599">
        <ele>1025.2</ele>
        <time>2021-08-12T11:00:16.000Z</time>
      </trkpt>
      <trkpt lat="45.09716" lon="4.25612">
        <ele>1025.7</ele>
        <time>2021-08-12T11:00:20.000Z</time>
      </trkpt>
      <trkpt lat="45.09717" lon="4.25626">
        <ele>1026</ele>
        <time>2021-08-12T11:00:23.000Z</time>
      </trkpt>
      <trkpt lat="45.09717" lon="4.25642">
        <ele>1026.5</ele>
        <time>2021-08-12T11:00:26.000Z</time>
      </trkpt>
      <trkpt lat="45.09721" lon="4.25658">
        <ele>1027.2</ele>
        <time>2021-08-12T11:00:29.000Z</time>
      </trkpt>
      <trkpt lat="45.09724" lon="4.25673">
        <ele>1027.3</ele>
        <time>2021-08-12T11:00:31.000Z</time>
      </trkpt>
      <trkpt lat="45.09724" lon="4.25691">
        <ele>1025.4</ele>
        <time>2021-08-12T11:00:33.000Z</time>
      </trkpt>
      <trkpt lat="45.09727" lon="4.25707">
        <ele>1023.9</ele>
        <time>2021-08-12T11:00:35.000Z</time>
      </trkpt>
      <trkpt lat="45.0973" lon="4.25724">
        <ele>1022.3</ele>
        <time>2021-08-12T11:00:37.000Z</time>
      </trkpt>
      <trkpt lat="45.09733" lon="4.25738">
        <ele>1020.9</ele>
        <time>2021-08-12T11:00:39.000Z</time>
      </trkpt>
      <trkpt lat="45.09731" lon="4.25753">
        <ele>1018.8</ele>
        <time>2021-08-12T11:00:42.000Z</time>
      </trkpt>
      <trkpt lat="45.09721" lon="4.25754">
        <ele>1017.7</ele>
        <time>2021-08-12T11:00:45.000Z</time>
      </trkpt>
      <trkpt lat="45.09711" lon="4.25755">
        <ele>1016.7</ele>
        <time>2021-08-12T11:00:48.000Z</time>
      </trkpt>
      <trkpt lat="45.09702" lon="4.25759">
        <ele>1015.4</ele>
        <time>2021-08-12T11:00:51.000Z</time>
      </trkpt>
      <trkpt lat="45.09692" lon="4.25768">
        <ele>1013.9</ele>
        <time>2021-08-12T11:00:54.000Z</time>
      </trkpt>
      <trkpt lat="45.09685" lon="4.25777">
        <ele>1012.6</ele>
        <time>2021-08-12T11:00:57.000Z</time>
      </trkpt>
      <trkpt lat="45.09678" lon="4.25786">
        <ele>1011.5</ele>
        <time>2021-08-12T11:01:00.000Z</time>
      </trkpt>
      <trkpt lat="45.09668" lon="4.25798">
        <ele>1010.2</ele>
        <time>2021-08-12T11:01:04.000Z</time>
      </trkpt>
      <trkpt lat="45.09658" lon="4.25803">
        <ele>1010.5</ele>
        <time>2021-08-12T11:01:07.000Z</time>
      </trkpt>
      <trkpt lat="45.09649" lon="4.25806">
        <ele>1011.2</ele>
        <time>2021-08-12T11:01:10.000Z</time>
      </trkpt>
      <trkpt lat="45.09638" lon="4.25805">
        <ele>1012.1</ele>
        <time>2021-08-12T11:01:13.000Z</time>
      </trkpt>
      <trkpt lat="45.09628" lon="4.25802">
        <ele>1013</ele>
        <time>2021-08-12T11:01:16.000Z</time>
      </trkpt>
      <trkpt lat="45.09619" lon="4.25798">
        <ele>1014</ele>
        <time>2021-08-12T11:01:19.000Z</time>
      </trkpt>
      <trkpt lat="45.0961" lon="4.25794">
        <ele>1014.8</ele>
        <time>2021-08-12T11:01:22.000Z</time>
      </trkpt>
      <trkpt lat="45.096" lon="4.25791">
        <ele>1015.7</ele>
        <time>2021-08-12T11:01:25.000Z</time>
      </trkpt>
      <trkpt lat="45.09591" lon="4.25787">
        <ele>1016.5</ele>
        <time>2021-08-12T11:01:28.000Z</time>
      </trkpt>
      <trkpt lat="45.09582" lon="4.25785">
        <ele>1017.3</ele>
        <time>2021-08-12T11:01:31.000Z</time>
      </trkpt>
      <trkpt lat="45.09571" lon="4.25781">
        <ele>1018.7</ele>
        <time>2021-08-12T11:01:34.000Z</time>
      </trkpt>
      <trkpt lat="45.09561" lon="4.25776">
        <ele>1020.1</ele>
        <time>2021-08-12T11:01:37.000Z</time>
      </trkpt>
      <trkpt lat="45.09552" lon="4.25773">
        <ele>1021.4</ele>
        <time>2021-08-12T11:01:40.000Z</time>
      </trkpt>
      <trkpt lat="45.09543" lon="4.25768">
        <ele>1022.9</ele>
        <time>2021-08-12T11:01:43.000Z</time>
      </trkpt>
      <trkpt lat="45.09533" lon="4.25765">
        <ele>1024.6</ele>
        <time>2021-08-12T11:01:46.000Z</time>
      </trkpt>
      <trkpt lat="45.09523" lon="4.25767">
        <ele>1025.7</ele>
        <time>2021-08-12T11:01:49.000Z</time>
      </trkpt>
      <trkpt lat="45.09511" lon="4.25769">
        <ele>1027.1</ele>
        <time>2021-08-12T11:01:52.000Z</time>
      </trkpt>
      <trkpt lat="45.095" lon="4.25771">
        <ele>1028.2</ele>
        <time>2021-08-12T11:01:55.000Z</time>
      </trkpt>
      <trkpt lat="45.09488" lon="4.25776">
        <ele>1028.5</ele>
        <time>2021-08-12T11:01:58.000Z</time>
      </trkpt>
      <trkpt lat="45.09476" lon="4.25781">
        <ele>1028.5</ele>
        <time>2021-08-12T11:02:01.000Z</time>
      </trkpt>
      <trkpt lat="45.09464" lon="4.25784">
        <ele>1028.6</ele>
        <time>2021-08-12T11:02:04.000Z</time>
      </trkpt>
      <trkpt lat="45.09455" lon="4.25789">
        <ele>1028.4</ele>
        <time>2021-08-12T11:02:07.000Z</time>
      </trkpt>
      <trkpt lat="45.09445" lon="4.25797">
        <ele>1027.6</ele>
        <time>2021-08-12T11:02:11.000Z</time>
      </trkpt>
      <trkpt lat="45.09436" lon="4.25807">
        <ele>1026.7</ele>
        <time>2021-08-12T11:02:15.000Z</time>
      </trkpt>
      <trkpt lat="45.09427" lon="4.25813">
        <ele>1026</ele>
        <time>2021-08-12T11:02:19.000Z</time>
      </trkpt>
      <trkpt lat="45.09417" lon="4.2582">
        <ele>1025.4</ele>
        <time>2021-08-12T11:02:27.000Z</time>
      </trkpt>
      <trkpt lat="45.0941" lon="4.25827">
        <ele>1024.6</ele>
        <time>2021-08-12T11:02:31.000Z</time>
      </trkpt>
      <trkpt lat="45.09402" lon="4.25834">
        <ele>1024.2</ele>
        <time>2021-08-12T11:02:35.000Z</time>
      </trkpt>
      <trkpt lat="45.09394" lon="4.25843">
        <ele>1024.5</ele>
        <time>2021-08-12T11:02:40.000Z</time>
      </trkpt>
      <trkpt lat="45.09386" lon="4.25851">
        <ele>1024.8</ele>
        <time>2021-08-12T11:02:43.000Z</time>
      </trkpt>
      <trkpt lat="45.09379" lon="4.25863">
        <ele>1024.8</ele>
        <time>2021-08-12T11:02:47.000Z</time>
      </trkpt>
      <trkpt lat="45.09371" lon="4.25872">
        <ele>1024.9</ele>
        <time>2021-08-12T11:02:50.000Z</time>
      </trkpt>
      <trkpt lat="45.09363" lon="4.25883">
        <ele>1025.1</ele>
        <time>2021-08-12T11:02:54.000Z</time>
      </trkpt>
      <trkpt lat="45.09357" lon="4.25893">
        <ele>1025.2</ele>
        <time>2021-08-12T11:02:58.000Z</time>
      </trkpt>
      <trkpt lat="45.0935" lon="4.25903">
        <ele>1025.3</ele>
        <time>2021-08-12T11:03:02.000Z</time>
      </trkpt>
      <trkpt lat="45.09343" lon="4.25913">
        <ele>1025.4</ele>
        <time>2021-08-12T11:03:06.000Z</time>
      </trkpt>
      <trkpt lat="45.09336" lon="4.25923">
        <ele>1025.4</ele>
        <time>2021-08-12T11:03:09.000Z</time>
      </trkpt>
      <trkpt lat="45.09329" lon="4.25935">
        <ele>1025.3</ele>
        <time>2021-08-12T11:03:12.000Z</time>
      </trkpt>
      <trkpt lat="45.09324" lon="4.25949">
        <ele>1025</ele>
        <time>2021-08-12T11:03:16.000Z</time>
      </trkpt>
      <trkpt lat="45.09318" lon="4.25961">
        <ele>1024.9</ele>
        <time>2021-08-12T11:03:18.000Z</time>
      </trkpt>
      <trkpt lat="45.09314" lon="4.25974">
        <ele>1024.6</ele>
        <time>2021-08-12T11:03:20.000Z</time>
      </trkpt>
      <trkpt lat="45.09307" lon="4.25985">
        <ele>1024.7</ele>
        <time>2021-08-12T11:03:24.000Z</time>
      </trkpt>
      <trkpt lat="45.09303" lon="4.25999">
        <ele>1024.4</ele>
        <time>2021-08-12T11:03:28.000Z</time>
      </trkpt>
      <trkpt lat="45.09298" lon="4.26012">
        <ele>1025.1</ele>
        <time>2021-08-12T11:03:31.000Z</time>
      </trkpt>
      <trkpt lat="45.09294" lon="4.26024">
        <ele>1025.8</ele>
        <time>2021-08-12T11:03:34.000Z</time>
      </trkpt>
      <trkpt lat="45.09287" lon="4.26038">
        <ele>1026.8</ele>
        <time>2021-08-12T11:03:37.000Z</time>
      </trkpt>
      <trkpt lat="45.09282" lon="4.2605">
        <ele>1027.6</ele>
        <time>2021-08-12T11:03:39.000Z</time>
      </trkpt>
      <trkpt lat="45.09277" lon="4.26063">
        <ele>1028.3</ele>
        <time>2021-08-12T11:03:42.000Z</time>
      </trkpt>
      <trkpt lat="45.09274" lon="4.26076">
        <ele>1028.8</ele>
        <time>2021-08-12T11:03:45.000Z</time>
      </trkpt>
      <trkpt lat="45.09271" lon="4.26093">
        <ele>1030.7</ele>
        <time>2021-08-12T11:03:48.000Z</time>
      </trkpt>
      <trkpt lat="45.09268" lon="4.26106">
        <ele>1033.3</ele>
        <time>2021-08-12T11:03:51.000Z</time>
      </trkpt>
      <trkpt lat="45.09264" lon="4.26119">
        <ele>1035.9</ele>
        <time>2021-08-12T11:03:54.000Z</time>
      </trkpt>
      <trkpt lat="45.09261" lon="4.26137">
        <ele>1039.1</ele>
        <time>2021-08-12T11:03:58.000Z</time>
      </trkpt>
      <trkpt lat="45.09264" lon="4.2615">
        <ele>1041.2</ele>
        <time>2021-08-12T11:04:00.000Z</time>
      </trkpt>
      <trkpt lat="45.09266" lon="4.26165">
        <ele>1043.5</ele>
        <time>2021-08-12T11:04:03.000Z</time>
      </trkpt>
      <trkpt lat="45.09266" lon="4.26179">
        <ele>1044.9</ele>
        <time>2021-08-12T11:04:06.000Z</time>
      </trkpt>
      <trkpt lat="45.09267" lon="4.26194">
        <ele>1046.2</ele>
        <time>2021-08-12T11:04:11.000Z</time>
      </trkpt>
      <trkpt lat="45.09265" lon="4.26206">
        <ele>1047.5</ele>
        <time>2021-08-12T11:04:15.000Z</time>
      </trkpt>
      <trkpt lat="45.09265" lon="4.26221">
        <ele>1048.8</ele>
        <time>2021-08-12T11:04:19.000Z</time>
      </trkpt>
      <trkpt lat="45.09266" lon="4.26234">
        <ele>1049.9</ele>
        <time>2021-08-12T11:04:22.000Z</time>
      </trkpt>
      <trkpt lat="45.09269" lon="4.26249">
        <ele>1051.2</ele>
        <time>2021-08-12T11:04:26.000Z</time>
      </trkpt>
      <trkpt lat="45.09275" lon="4.26261">
        <ele>1051.4</ele>
        <time>2021-08-12T11:04:30.000Z</time>
      </trkpt>
      <trkpt lat="45.09275" lon="4.26276">
        <ele>1051.8</ele>
        <time>2021-08-12T11:04:33.000Z</time>
      </trkpt>
      <trkpt lat="45.09274" lon="4.26294">
        <ele>1052.2</ele>
        <time>2021-08-12T11:04:37.000Z</time>
      </trkpt>
      <trkpt lat="45.09273" lon="4.26308">
        <ele>1052.5</ele>
        <time>2021-08-12T11:04:40.000Z</time>
      </trkpt>
      <trkpt lat="45.09273" lon="4.26325">
        <ele>1052.9</ele>
        <time>2021-08-12T11:04:44.000Z</time>
      </trkpt>
      <trkpt lat="45.09268" lon="4.26338">
        <ele>1052.8</ele>
        <time>2021-08-12T11:04:46.000Z</time>
      </trkpt>
      <trkpt lat="45.09263" lon="4.26349">
        <ele>1052.3</ele>
        <time>2021-08-12T11:04:48.000Z</time>
      </trkpt>
      <trkpt lat="45.09262" lon="4.26363">
        <ele>1051.9</ele>
        <time>2021-08-12T11:04:50.000Z</time>
      </trkpt>
      <trkpt lat="45.09261" lon="4.26378">
        <ele>1051.5</ele>
        <time>2021-08-12T11:04:53.000Z</time>
      </trkpt>
      <trkpt lat="45.09257" lon="4.2639">
        <ele>1051</ele>
        <time>2021-08-12T11:04:55.000Z</time>
      </trkpt>
      <trkpt lat="45.0925" lon="4.26407">
        <ele>1050.3</ele>
        <time>2021-08-12T11:04:58.000Z</time>
      </trkpt>
      <trkpt lat="45.09248" lon="4.26423">
        <ele>1049.7</ele>
        <time>2021-08-12T11:05:01.000Z</time>
      </trkpt>
      <trkpt lat="45.09243" lon="4.26436">
        <ele>1049</ele>
        <time>2021-08-12T11:05:03.000Z</time>
      </trkpt>
      <trkpt lat="45.09236" lon="4.26448">
        <ele>1048.5</ele>
        <time>2021-08-12T11:05:05.000Z</time>
      </trkpt>
      <trkpt lat="45.09228" lon="4.26458">
        <ele>1048.2</ele>
        <time>2021-08-12T11:05:07.000Z</time>
      </trkpt>
      <trkpt lat="45.09223" lon="4.26472">
        <ele>1047.7</ele>
        <time>2021-08-12T11:05:10.000Z</time>
      </trkpt>
      <trkpt lat="45.09217" lon="4.26482">
        <ele>1047.4</ele>
        <time>2021-08-12T11:05:12.000Z</time>
      </trkpt>
      <trkpt lat="45.09206" lon="4.26495">
        <ele>1047.2</ele>
        <time>2021-08-12T11:05:15.000Z</time>
      </trkpt>
      <trkpt lat="45.09197" lon="4.26506">
        <ele>1047</ele>
        <time>2021-08-12T11:05:17.000Z</time>
      </trkpt>
      <trkpt lat="45.09188" lon="4.26518">
        <ele>1046.7</ele>
        <time>2021-08-12T11:05:20.000Z</time>
      </trkpt>
      <trkpt lat="45.0918" lon="4.26525">
        <ele>1046.7</ele>
        <time>2021-08-12T11:05:23.000Z</time>
      </trkpt>
      <trkpt lat="45.09173" lon="4.26533">
        <ele>1046.6</ele>
        <time>2021-08-12T11:05:25.000Z</time>
      </trkpt>
      <trkpt lat="45.09167" lon="4.26544">
        <ele>1046.5</ele>
        <time>2021-08-12T11:05:27.000Z</time>
      </trkpt>
      <trkpt lat="45.09154" lon="4.26554">
        <ele>1045.7</ele>
        <time>2021-08-12T11:05:29.000Z</time>
      </trkpt>
      <trkpt lat="45.09144" lon="4.26562">
        <ele>1045.1</ele>
        <time>2021-08-12T11:05:31.000Z</time>
      </trkpt>
      <trkpt lat="45.09136" lon="4.26571">
        <ele>1044.5</ele>
        <time>2021-08-12T11:05:34.000Z</time>
      </trkpt>
      <trkpt lat="45.09131" lon="4.26583">
        <ele>1043.8</ele>
        <time>2021-08-12T11:05:36.000Z</time>
      </trkpt>
      <trkpt lat="45.09125" lon="4.26601">
        <ele>1042.1</ele>
        <time>2021-08-12T11:05:38.000Z</time>
      </trkpt>
      <trkpt lat="45.09118" lon="4.26617">
        <ele>1040.6</ele>
        <time>2021-08-12T11:05:40.000Z</time>
      </trkpt>
      <trkpt lat="45.09115" lon="4.2663">
        <ele>1039.4</ele>
        <time>2021-08-12T11:05:42.000Z</time>
      </trkpt>
      <trkpt lat="45.09109" lon="4.26644">
        <ele>1038.2</ele>
        <time>2021-08-12T11:05:45.000Z</time>
      </trkpt>
      <trkpt lat="45.09102" lon="4.26658">
        <ele>1036.9</ele>
        <time>2021-08-12T11:05:49.000Z</time>
      </trkpt>
      <trkpt lat="45.09093" lon="4.26668">
        <ele>1036.1</ele>
        <time>2021-08-12T11:05:52.000Z</time>
      </trkpt>
      <trkpt lat="45.09082" lon="4.2668">
        <ele>1035</ele>
        <time>2021-08-12T11:05:55.000Z</time>
      </trkpt>
      <trkpt lat="45.09074" lon="4.26687">
        <ele>1035.1</ele>
        <time>2021-08-12T11:05:57.000Z</time>
      </trkpt>
      <trkpt lat="45.09063" lon="4.26699">
        <ele>1035.4</ele>
        <time>2021-08-12T11:06:00.000Z</time>
      </trkpt>
      <trkpt lat="45.09051" lon="4.26706">
        <ele>1036.1</ele>
        <time>2021-08-12T11:06:02.000Z</time>
      </trkpt>
      <trkpt lat="45.09041" lon="4.26719">
        <ele>1036.2</ele>
        <time>2021-08-12T11:06:05.000Z</time>
      </trkpt>
      <trkpt lat="45.09033" lon="4.26728">
        <ele>1036.5</ele>
        <time>2021-08-12T11:06:08.000Z</time>
      </trkpt>
      <trkpt lat="45.09028" lon="4.26739">
        <ele>1036.2</ele>
        <time>2021-08-12T11:06:11.000Z</time>
      </trkpt>
      <trkpt lat="45.09022" lon="4.26754">
        <ele>1036</ele>
        <time>2021-08-12T11:06:15.000Z</time>
      </trkpt>
      <trkpt lat="45.09013" lon="4.26765">
        <ele>1036.8</ele>
        <time>2021-08-12T11:06:18.000Z</time>
      </trkpt>
      <trkpt lat="45.09003" lon="4.26775">
        <ele>1037.7</ele>
        <time>2021-08-12T11:06:22.000Z</time>
      </trkpt>
      <trkpt lat="45.08996" lon="4.26788">
        <ele>1037.8</ele>
        <time>2021-08-12T11:06:24.000Z</time>
      </trkpt>
      <trkpt lat="45.08992" lon="4.26802">
        <ele>1037.6</ele>
        <time>2021-08-12T11:06:27.000Z</time>
      </trkpt>
      <trkpt lat="45.08983" lon="4.26814">
        <ele>1037.4</ele>
        <time>2021-08-12T11:06:29.000Z</time>
      </trkpt>
      <trkpt lat="45.08976" lon="4.26825">
        <ele>1037.3</ele>
        <time>2021-08-12T11:06:31.000Z</time>
      </trkpt>
      <trkpt lat="45.08968" lon="4.2684">
        <ele>1036.8</ele>
        <time>2021-08-12T11:06:34.000Z</time>
      </trkpt>
      <trkpt lat="45.08958" lon="4.26854">
        <ele>1036</ele>
        <time>2021-08-12T11:06:37.000Z</time>
      </trkpt>
      <trkpt lat="45.08948" lon="4.2686">
        <ele>1035.8</ele>
        <time>2021-08-12T11:06:39.000Z</time>
      </trkpt>
      <trkpt lat="45.08941" lon="4.26868">
        <ele>1035.4</ele>
        <time>2021-08-12T11:06:41.000Z</time>
      </trkpt>
      <trkpt lat="45.08931" lon="4.26874">
        <ele>1034.9</ele>
        <time>2021-08-12T11:06:43.000Z</time>
      </trkpt>
      <trkpt lat="45.08924" lon="4.26884">
        <ele>1034.2</ele>
        <time>2021-08-12T11:06:46.000Z</time>
      </trkpt>
      <trkpt lat="45.08916" lon="4.26898">
        <ele>1032.9</ele>
        <time>2021-08-12T11:06:49.000Z</time>
      </trkpt>
      <trkpt lat="45.08911" lon="4.26908">
        <ele>1032.3</ele>
        <time>2021-08-12T11:06:51.000Z</time>
      </trkpt>
      <trkpt lat="45.08903" lon="4.26916">
        <ele>1032.1</ele>
        <time>2021-08-12T11:06:54.000Z</time>
      </trkpt>
      <trkpt lat="45.08895" lon="4.26927">
        <ele>1031.6</ele>
        <time>2021-08-12T11:06:57.000Z</time>
      </trkpt>
      <trkpt lat="45.08889" lon="4.26943">
        <ele>1030.6</ele>
        <time>2021-08-12T11:07:00.000Z</time>
      </trkpt>
      <trkpt lat="45.08884" lon="4.26954">
        <ele>1030.3</ele>
        <time>2021-08-12T11:07:04.000Z</time>
      </trkpt>
      <trkpt lat="45.08879" lon="4.26965">
        <ele>1029.8</ele>
        <time>2021-08-12T11:07:06.000Z</time>
      </trkpt>
      <trkpt lat="45.0887" lon="4.26986">
        <ele>1029.2</ele>
        <time>2021-08-12T11:07:08.000Z</time>
      </trkpt>
      <trkpt lat="45.0886" lon="4.27007">
        <ele>1028.7</ele>
        <time>2021-08-12T11:07:10.000Z</time>
      </trkpt>
      <trkpt lat="45.08855" lon="4.2702">
        <ele>1028.1</ele>
        <time>2021-08-12T11:07:12.000Z</time>
      </trkpt>
      <trkpt lat="45.08849" lon="4.27031">
        <ele>1028</ele>
        <time>2021-08-12T11:07:14.000Z</time>
      </trkpt>
      <trkpt lat="45.08844" lon="4.2705">
        <ele>1027.2</ele>
        <time>2021-08-12T11:07:16.000Z</time>
      </trkpt>
      <trkpt lat="45.08835" lon="4.27065">
        <ele>1027.9</ele>
        <time>2021-08-12T11:07:18.000Z</time>
      </trkpt>
      <trkpt lat="45.08829" lon="4.27079">
        <ele>1027.8</ele>
        <time>2021-08-12T11:07:20.000Z</time>
      </trkpt>
      <trkpt lat="45.08826" lon="4.27096">
        <ele>1026.2</ele>
        <time>2021-08-12T11:07:22.000Z</time>
      </trkpt>
      <trkpt lat="45.08821" lon="4.2711">
        <ele>1024.9</ele>
        <time>2021-08-12T11:07:24.000Z</time>
      </trkpt>
      <trkpt lat="45.08816" lon="4.27124">
        <ele>1023.8</ele>
        <time>2021-08-12T11:07:26.000Z</time>
      </trkpt>
      <trkpt lat="45.08811" lon="4.27137">
        <ele>1023.1</ele>
        <time>2021-08-12T11:07:28.000Z</time>
      </trkpt>
      <trkpt lat="45.08805" lon="4.27148">
        <ele>1022.5</ele>
        <time>2021-08-12T11:07:30.000Z</time>
      </trkpt>
      <trkpt lat="45.08797" lon="4.2716">
        <ele>1022.3</ele>
        <time>2021-08-12T11:07:32.000Z</time>
      </trkpt>
      <trkpt lat="45.08791" lon="4.27174">
        <ele>1021.7</ele>
        <time>2021-08-12T11:07:34.000Z</time>
      </trkpt>
      <trkpt lat="45.08785" lon="4.27188">
        <ele>1020.9</ele>
        <time>2021-08-12T11:07:36.000Z</time>
      </trkpt>
      <trkpt lat="45.0878" lon="4.272">
        <ele>1020.2</ele>
        <time>2021-08-12T11:07:39.000Z</time>
      </trkpt>
      <trkpt lat="45.08772" lon="4.2721">
        <ele>1020</ele>
        <time>2021-08-12T11:07:41.000Z</time>
      </trkpt>
      <trkpt lat="45.08764" lon="4.27222">
        <ele>1019.7</ele>
        <time>2021-08-12T11:07:43.000Z</time>
      </trkpt>
      <trkpt lat="45.08754" lon="4.27238">
        <ele>1019</ele>
        <time>2021-08-12T11:07:46.000Z</time>
      </trkpt>
      <trkpt lat="45.08747" lon="4.27254">
        <ele>1018.2</ele>
        <time>2021-08-12T11:07:48.000Z</time>
      </trkpt>
      <trkpt lat="45.08741" lon="4.27269">
        <ele>1017.6</ele>
        <time>2021-08-12T11:07:50.000Z</time>
      </trkpt>
      <trkpt lat="45.08734" lon="4.27287">
        <ele>1016.9</ele>
        <time>2021-08-12T11:07:52.000Z</time>
      </trkpt>
      <trkpt lat="45.08727" lon="4.27305">
        <ele>1016.7</ele>
        <time>2021-08-12T11:07:54.000Z</time>
      </trkpt>
      <trkpt lat="45.08719" lon="4.27325">
        <ele>1016.1</ele>
        <time>2021-08-12T11:07:56.000Z</time>
      </trkpt>
      <trkpt lat="45.08713" lon="4.27345">
        <ele>1015.8</ele>
        <time>2021-08-12T11:07:58.000Z</time>
      </trkpt>
      <trkpt lat="45.08705" lon="4.27365">
        <ele>1016.2</ele>
        <time>2021-08-12T11:08:00.000Z</time>
      </trkpt>
      <trkpt lat="45.08698" lon="4.27383">
        <ele>1016.6</ele>
        <time>2021-08-12T11:08:02.000Z</time>
      </trkpt>
      <trkpt lat="45.08689" lon="4.27406">
        <ele>1017.3</ele>
        <time>2021-08-12T11:08:04.000Z</time>
      </trkpt>
      <trkpt lat="45.08683" lon="4.27418">
        <ele>1018</ele>
        <time>2021-08-12T11:08:05.000Z</time>
      </trkpt>
      <trkpt lat="45.0868" lon="4.27431">
        <ele>1018.5</ele>
        <time>2021-08-12T11:08:06.000Z</time>
      </trkpt>
      <trkpt lat="45.08672" lon="4.27452">
        <ele>1019.9</ele>
        <time>2021-08-12T11:08:08.000Z</time>
      </trkpt>
      <trkpt lat="45.08665" lon="4.27472">
        <ele>1020.8</ele>
        <time>2021-08-12T11:08:10.000Z</time>
      </trkpt>
      <trkpt lat="45.0866" lon="4.27494">
        <ele>1020.6</ele>
        <time>2021-08-12T11:08:12.000Z</time>
      </trkpt>
      <trkpt lat="45.08653" lon="4.2751">
        <ele>1021.1</ele>
        <time>2021-08-12T11:08:14.000Z</time>
      </trkpt>
      <trkpt lat="45.0865" lon="4.27524">
        <ele>1021.6</ele>
        <time>2021-08-12T11:08:16.000Z</time>
      </trkpt>
      <trkpt lat="45.08644" lon="4.27539">
        <ele>1022.3</ele>
        <time>2021-08-12T11:08:18.000Z</time>
      </trkpt>
      <trkpt lat="45.0864" lon="4.27554">
        <ele>1022.7</ele>
        <time>2021-08-12T11:08:20.000Z</time>
      </trkpt>
      <trkpt lat="45.08631" lon="4.27569">
        <ele>1023.2</ele>
        <time>2021-08-12T11:08:22.000Z</time>
      </trkpt>
      <trkpt lat="45.08624" lon="4.27581">
        <ele>1023.5</ele>
        <time>2021-08-12T11:08:23.000Z</time>
      </trkpt>
      <trkpt lat="45.08617" lon="4.27592">
        <ele>1023.7</ele>
        <time>2021-08-12T11:08:24.000Z</time>
      </trkpt>
      <trkpt lat="45.08608" lon="4.27613">
        <ele>1024.1</ele>
        <time>2021-08-12T11:08:26.000Z</time>
      </trkpt>
      <trkpt lat="45.08598" lon="4.27636">
        <ele>1024.3</ele>
        <time>2021-08-12T11:08:28.000Z</time>
      </trkpt>
      <trkpt lat="45.0859" lon="4.2766">
        <ele>1024.2</ele>
        <time>2021-08-12T11:08:30.000Z</time>
      </trkpt>
      <trkpt lat="45.08586" lon="4.27674">
        <ele>1023.7</ele>
        <time>2021-08-12T11:08:31.000Z</time>
      </trkpt>
      <trkpt lat="45.08582" lon="4.27687">
        <ele>1022.6</ele>
        <time>2021-08-12T11:08:32.000Z</time>
      </trkpt>
      <trkpt lat="45.08578" lon="4.27699">
        <ele>1021.4</ele>
        <time>2021-08-12T11:08:33.000Z</time>
      </trkpt>
      <trkpt lat="45.08574" lon="4.27711">
        <ele>1020.2</ele>
        <time>2021-08-12T11:08:34.000Z</time>
      </trkpt>
      <trkpt lat="45.08562" lon="4.27758">
        <ele>1016.7</ele>
        <time>2021-08-12T11:08:38.000Z</time>
      </trkpt>
      <trkpt lat="45.08558" lon="4.27781">
        <ele>1015.5</ele>
        <time>2021-08-12T11:08:40.000Z</time>
      </trkpt>
      <trkpt lat="45.08555" lon="4.27802">
        <ele>1014.4</ele>
        <time>2021-08-12T11:08:42.000Z</time>
      </trkpt>
      <trkpt lat="45.08552" lon="4.27823">
        <ele>1013.3</ele>
        <time>2021-08-12T11:08:44.000Z</time>
      </trkpt>
      <trkpt lat="45.08545" lon="4.27843">
        <ele>1011.2</ele>
        <time>2021-08-12T11:08:46.000Z</time>
      </trkpt>
      <trkpt lat="45.08538" lon="4.27853">
        <ele>1009.4</ele>
        <time>2021-08-12T11:08:47.000Z</time>
      </trkpt>
      <trkpt lat="45.08523" lon="4.27868">
        <ele>1006.2</ele>
        <time>2021-08-12T11:08:49.000Z</time>
      </trkpt>
      <trkpt lat="45.08507" lon="4.27879">
        <ele>1003.6</ele>
        <time>2021-08-12T11:08:51.000Z</time>
      </trkpt>
      <trkpt lat="45.08492" lon="4.27888">
        <ele>1001.5</ele>
        <time>2021-08-12T11:08:53.000Z</time>
      </trkpt>
      <trkpt lat="45.08478" lon="4.279">
        <ele>999.2</ele>
        <time>2021-08-12T11:08:55.000Z</time>
      </trkpt>
      <trkpt lat="45.08463" lon="4.27915">
        <ele>997</ele>
        <time>2021-08-12T11:08:57.000Z</time>
      </trkpt>
      <trkpt lat="45.08455" lon="4.27922">
        <ele>995.3</ele>
        <time>2021-08-12T11:08:58.000Z</time>
      </trkpt>
      <trkpt lat="45.08441" lon="4.27937">
        <ele>991.8</ele>
        <time>2021-08-12T11:09:00.000Z</time>
      </trkpt>
      <trkpt lat="45.0843" lon="4.27956">
        <ele>987.8</ele>
        <time>2021-08-12T11:09:02.000Z</time>
      </trkpt>
      <trkpt lat="45.08425" lon="4.27967">
        <ele>985.8</ele>
        <time>2021-08-12T11:09:03.000Z</time>
      </trkpt>
      <trkpt lat="45.08421" lon="4.27979">
        <ele>983.7</ele>
        <time>2021-08-12T11:09:04.000Z</time>
      </trkpt>
      <trkpt lat="45.08417" lon="4.28003">
        <ele>979.7</ele>
        <time>2021-08-12T11:09:06.000Z</time>
      </trkpt>
      <trkpt lat="45.08416" lon="4.28016">
        <ele>977.9</ele>
        <time>2021-08-12T11:09:07.000Z</time>
      </trkpt>
      <trkpt lat="45.08415" lon="4.2804">
        <ele>974.9</ele>
        <time>2021-08-12T11:09:09.000Z</time>
      </trkpt>
      <trkpt lat="45.08413" lon="4.2806">
        <ele>972.4</ele>
        <time>2021-08-12T11:09:11.000Z</time>
      </trkpt>
      <trkpt lat="45.08408" lon="4.28073">
        <ele>970.9</ele>
        <time>2021-08-12T11:09:13.000Z</time>
      </trkpt>
      <trkpt lat="45.08396" lon="4.28078">
        <ele>971.1</ele>
        <time>2021-08-12T11:09:16.000Z</time>
      </trkpt>
      <trkpt lat="45.08386" lon="4.2807">
        <ele>972.7</ele>
        <time>2021-08-12T11:09:19.000Z</time>
      </trkpt>
      <trkpt lat="45.08385" lon="4.28068">
        <ele>972.9</ele>
        <time>2021-08-12T11:09:21.000Z</time>
      </trkpt>
      <trkpt lat="45.08385" lon="4.28067">
        <ele>973</ele>
        <time>2021-08-12T11:09:23.000Z</time>
      </trkpt>
      <trkpt lat="45.08386" lon="4.28068">
        <ele>972.9</ele>
        <time>2021-08-12T11:09:28.000Z</time>
      </trkpt>
      <trkpt lat="45.08386" lon="4.28069">
        <ele>972.9</ele>
        <time>2021-08-12T11:09:30.000Z</time>
      </trkpt>
      <trkpt lat="45.08386" lon="4.2807">
        <ele>972.6</ele>
        <time>2021-08-12T11:09:39.000Z</time>
      </trkpt>
      <trkpt lat="45.08386" lon="4.2807">
        <ele>972.6</ele>
        <time>2021-08-12T11:09:40.000Z</time>
      </trkpt>
      <trkpt lat="45.08386" lon="4.2807">
        <ele>972.6</ele>
        <time>2021-08-12T11:09:41.000Z</time>
      </trkpt>
      <trkpt lat="45.08386" lon="4.2807">
        <ele>972.7</ele>
        <time>2021-08-12T11:09:42.000Z</time>
      </trkpt>
      <trkpt lat="45.08378" lon="4.28061">
        <ele>974.1</ele>
        <time>2021-08-12T11:09:48.000Z</time>
      </trkpt>
      <trkpt lat="45.08376" lon="4.28056">
        <ele>974.6</ele>
        <time>2021-08-12T11:09:54.000Z</time>
      </trkpt>
      <trkpt lat="45.08376" lon="4.28056">
        <ele>974.6</ele>
        <time>2021-08-12T11:09:56.000Z</time>
      </trkpt>
      <trkpt lat="45.08376" lon="4.28056">
        <ele>974.7</ele>
        <time>2021-08-12T11:09:57.000Z</time>
      </trkpt>
      <trkpt lat="45.08376" lon="4.28056">
        <ele>974.7</ele>
        <time>2021-08-12T11:09:59.000Z</time>
      </trkpt>
      <trkpt lat="45.08377" lon="4.28056">
        <ele>974.5</ele>
        <time>2021-08-12T11:10:03.000Z</time>
      </trkpt>
      <trkpt lat="45.08377" lon="4.28056">
        <ele>974.6</ele>
        <time>2021-08-12T11:10:05.000Z</time>
      </trkpt>
      <trkpt lat="45.08378" lon="4.28054">
        <ele>974.8</ele>
        <time>2021-08-12T11:10:11.000Z</time>
      </trkpt>
      <trkpt lat="45.08378" lon="4.28054">
        <ele>974.8</ele>
        <time>2021-08-12T11:10:12.000Z</time>
      </trkpt>
      <trkpt lat="45.08378" lon="4.28054">
        <ele>974.7</ele>
        <time>2021-08-12T11:10:14.000Z</time>
      </trkpt>
      <trkpt lat="45.08378" lon="4.28054">
        <ele>974.7</ele>
        <time>2021-08-12T11:10:16.000Z</time>
      </trkpt>
      <trkpt lat="45.08378" lon="4.28054">
        <ele>974.7</ele>
        <time>2021-08-12T11:10:17.000Z</time>
      </trkpt>
      <trkpt lat="45.08378" lon="4.28055">
        <ele>974.6</ele>
        <time>2021-08-12T11:10:22.000Z</time>
      </trkpt>
      <trkpt lat="45.08378" lon="4.28055">
        <ele>974.6</ele>
        <time>2021-08-12T11:10:24.000Z</time>
      </trkpt>
      <trkpt lat="45.08378" lon="4.28055">
        <ele>974.6</ele>
        <time>2021-08-12T11:10:32.000Z</time>
      </trkpt>
      <trkpt lat="45.08378" lon="4.28055">
        <ele>974.6</ele>
        <time>2021-08-12T11:10:35.000Z</time>
      </trkpt>
      <trkpt lat="45.08378" lon="4.28055">
        <ele>974.6</ele>
        <time>2021-08-12T11:10:37.000Z</time>
      </trkpt>
      <trkpt lat="45.08378" lon="4.28056">
        <ele>974.6</ele>
        <time>2021-08-12T11:10:39.000Z</time>
      </trkpt>
      <trkpt lat="45.08378" lon="4.28056">
        <ele>974.5</ele>
        <time>2021-08-12T11:10:40.000Z</time>
      </trkpt>
      <trkpt lat="45.08378" lon="4.28056">
        <ele>974.5</ele>
        <time>2021-08-12T11:10:41.000Z</time>
      </trkpt>
      <trkpt lat="45.08378" lon="4.28056">
        <ele>974.5</ele>
        <time>2021-08-12T11:10:57.000Z</time>
      </trkpt>
      <trkpt lat="45.08369" lon="4.28048">
        <ele>975.7</ele>
        <time>2021-08-12T11:11:02.000Z</time>
      </trkpt>
      <trkpt lat="45.08363" lon="4.28036">
        <ele>977</ele>
        <time>2021-08-12T11:11:05.000Z</time>
      </trkpt>
      <trkpt lat="45.08357" lon="4.28022">
        <ele>978.3</ele>
        <time>2021-08-12T11:11:08.000Z</time>
      </trkpt>
      <trkpt lat="45.08351" lon="4.28007">
        <ele>979.5</ele>
        <time>2021-08-12T11:11:11.000Z</time>
      </trkpt>
      <trkpt lat="45.08347" lon="4.27994">
        <ele>980.6</ele>
        <time>2021-08-12T11:11:14.000Z</time>
      </trkpt>
      <trkpt lat="45.08347" lon="4.27997">
        <ele>980.4</ele>
        <time>2021-08-12T11:11:24.000Z</time>
      </trkpt>
      <trkpt lat="45.08346" lon="4.27996">
        <ele>980.4</ele>
        <time>2021-08-12T11:12:12.000Z</time>
      </trkpt>
      <trkpt lat="45.08341" lon="4.27984">
        <ele>981.5</ele>
        <time>2021-08-12T11:12:17.000Z</time>
      </trkpt>
      <trkpt lat="45.08336" lon="4.27972">
        <ele>982.5</ele>
        <time>2021-08-12T11:12:20.000Z</time>
      </trkpt>
      <trkpt lat="45.08332" lon="4.2796">
        <ele>983.2</ele>
        <time>2021-08-12T11:12:22.000Z</time>
      </trkpt>
      <trkpt lat="45.08327" lon="4.27948">
        <ele>983.7</ele>
        <time>2021-08-12T11:12:24.000Z</time>
      </trkpt>
      <trkpt lat="45.08322" lon="4.27936">
        <ele>984.1</ele>
        <time>2021-08-12T11:12:26.000Z</time>
      </trkpt>
      <trkpt lat="45.08317" lon="4.27924">
        <ele>984.4</ele>
        <time>2021-08-12T11:12:28.000Z</time>
      </trkpt>
      <trkpt lat="45.08312" lon="4.27911">
        <ele>984.3</ele>
        <time>2021-08-12T11:12:30.000Z</time>
      </trkpt>
      <trkpt lat="45.08307" lon="4.27898">
        <ele>984</ele>
        <time>2021-08-12T11:12:32.000Z</time>
      </trkpt>
      <trkpt lat="45.08302" lon="4.27883">
        <ele>983.7</ele>
        <time>2021-08-12T11:12:35.000Z</time>
      </trkpt>
      <trkpt lat="45.08292" lon="4.27885">
        <ele>982.4</ele>
        <time>2021-08-12T11:12:39.000Z</time>
      </trkpt>
      <trkpt lat="45.08288" lon="4.27897">
        <ele>981.6</ele>
        <time>2021-08-12T11:12:41.000Z</time>
      </trkpt>
      <trkpt lat="45.08283" lon="4.27908">
        <ele>980.6</ele>
        <time>2021-08-12T11:12:43.000Z</time>
      </trkpt>
      <trkpt lat="45.08278" lon="4.27921">
        <ele>979.5</ele>
        <time>2021-08-12T11:12:45.000Z</time>
      </trkpt>
      <trkpt lat="45.08273" lon="4.27934">
        <ele>978.5</ele>
        <time>2021-08-12T11:12:47.000Z</time>
      </trkpt>
      <trkpt lat="45.0827" lon="4.27947">
        <ele>977.8</ele>
        <time>2021-08-12T11:12:49.000Z</time>
      </trkpt>
      <trkpt lat="45.08268" lon="4.27961">
        <ele>977.1</ele>
        <time>2021-08-12T11:12:51.000Z</time>
      </trkpt>
      <trkpt lat="45.08261" lon="4.27973">
        <ele>976.2</ele>
        <time>2021-08-12T11:12:53.000Z</time>
      </trkpt>
      <trkpt lat="45.0825" lon="4.27984">
        <ele>975.2</ele>
        <time>2021-08-12T11:12:55.000Z</time>
      </trkpt>
      <trkpt lat="45.08239" lon="4.27992">
        <ele>973.9</ele>
        <time>2021-08-12T11:12:57.000Z</time>
      </trkpt>
      <trkpt lat="45.08228" lon="4.27999">
        <ele>972.6</ele>
        <time>2021-08-12T11:12:59.000Z</time>
      </trkpt>
      <trkpt lat="45.08216" lon="4.28015">
        <ele>971.3</ele>
        <time>2021-08-12T11:13:01.000Z</time>
      </trkpt>
      <trkpt lat="45.08203" lon="4.28032">
        <ele>970.2</ele>
        <time>2021-08-12T11:13:03.000Z</time>
      </trkpt>
      <trkpt lat="45.08196" lon="4.28041">
        <ele>969.8</ele>
        <time>2021-08-12T11:13:04.000Z</time>
      </trkpt>
      <trkpt lat="45.08185" lon="4.28058">
        <ele>969.3</ele>
        <time>2021-08-12T11:13:06.000Z</time>
      </trkpt>
      <trkpt lat="45.08178" lon="4.28078">
        <ele>969.4</ele>
        <time>2021-08-12T11:13:08.000Z</time>
      </trkpt>
      <trkpt lat="45.0817" lon="4.28099">
        <ele>969.9</ele>
        <time>2021-08-12T11:13:10.000Z</time>
      </trkpt>
      <trkpt lat="45.08161" lon="4.28117">
        <ele>969.9</ele>
        <time>2021-08-12T11:13:12.000Z</time>
      </trkpt>
      <trkpt lat="45.08152" lon="4.28133">
        <ele>969.8</ele>
        <time>2021-08-12T11:13:14.000Z</time>
      </trkpt>
      <trkpt lat="45.08143" lon="4.28147">
        <ele>969.5</ele>
        <time>2021-08-12T11:13:16.000Z</time>
      </trkpt>
      <trkpt lat="45.08134" lon="4.28156">
        <ele>969</ele>
        <time>2021-08-12T11:13:18.000Z</time>
      </trkpt>
      <trkpt lat="45.08124" lon="4.28162">
        <ele>968.2</ele>
        <time>2021-08-12T11:13:20.000Z</time>
      </trkpt>
      <trkpt lat="45.08113" lon="4.28163">
        <ele>967</ele>
        <time>2021-08-12T11:13:22.000Z</time>
      </trkpt>
      <trkpt lat="45.08102" lon="4.28162">
        <ele>965.8</ele>
        <time>2021-08-12T11:13:24.000Z</time>
      </trkpt>
      <trkpt lat="45.0809" lon="4.28164">
        <ele>964.5</ele>
        <time>2021-08-12T11:13:26.000Z</time>
      </trkpt>
      <trkpt lat="45.0808" lon="4.28168">
        <ele>963.6</ele>
        <time>2021-08-12T11:13:28.000Z</time>
      </trkpt>
      <trkpt lat="45.08067" lon="4.28169">
        <ele>962.2</ele>
        <time>2021-08-12T11:13:30.000Z</time>
      </trkpt>
      <trkpt lat="45.08054" lon="4.28169">
        <ele>960.6</ele>
        <time>2021-08-12T11:13:32.000Z</time>
      </trkpt>
      <trkpt lat="45.0804" lon="4.28171">
        <ele>959</ele>
        <time>2021-08-12T11:13:34.000Z</time>
      </trkpt>
      <trkpt lat="45.08026" lon="4.28176">
        <ele>957.7</ele>
        <time>2021-08-12T11:13:36.000Z</time>
      </trkpt>
      <trkpt lat="45.08007" lon="4.28185">
        <ele>956.1</ele>
        <time>2021-08-12T11:13:39.000Z</time>
      </trkpt>
      <trkpt lat="45.07996" lon="4.28189">
        <ele>955.1</ele>
        <time>2021-08-12T11:13:41.000Z</time>
      </trkpt>
      <trkpt lat="45.07985" lon="4.28194">
        <ele>954.3</ele>
        <time>2021-08-12T11:13:43.000Z</time>
      </trkpt>
      <trkpt lat="45.07973" lon="4.28196">
        <ele>953.1</ele>
        <time>2021-08-12T11:13:46.000Z</time>
      </trkpt>
      <trkpt lat="45.07968" lon="4.28207">
        <ele>953.6</ele>
        <time>2021-08-12T11:14:00.000Z</time>
      </trkpt>
      <trkpt lat="45.07959" lon="4.28216">
        <ele>953.4</ele>
        <time>2021-08-12T11:14:04.000Z</time>
      </trkpt>
      <trkpt lat="45.0795" lon="4.28219">
        <ele>952.9</ele>
        <time>2021-08-12T11:14:06.000Z</time>
      </trkpt>
      <trkpt lat="45.07941" lon="4.28228">
        <ele>952.9</ele>
        <time>2021-08-12T11:14:11.000Z</time>
      </trkpt>
      <trkpt lat="45.07929" lon="4.28236">
        <ele>952.6</ele>
        <time>2021-08-12T11:14:14.000Z</time>
      </trkpt>
      <trkpt lat="45.0792" lon="4.28241">
        <ele>952.3</ele>
        <time>2021-08-12T11:14:16.000Z</time>
      </trkpt>
      <trkpt lat="45.07909" lon="4.28245">
        <ele>951.4</ele>
        <time>2021-08-12T11:14:18.000Z</time>
      </trkpt>
      <trkpt lat="45.07898" lon="4.28249">
        <ele>950.4</ele>
        <time>2021-08-12T11:14:21.000Z</time>
      </trkpt>
      <trkpt lat="45.07887" lon="4.28257">
        <ele>949.7</ele>
        <time>2021-08-12T11:14:24.000Z</time>
      </trkpt>
      <trkpt lat="45.07875" lon="4.28264">
        <ele>948.7</ele>
        <time>2021-08-12T11:14:27.000Z</time>
      </trkpt>
      <trkpt lat="45.0786" lon="4.28272">
        <ele>947.6</ele>
        <time>2021-08-12T11:14:29.000Z</time>
      </trkpt>
      <trkpt lat="45.07848" lon="4.28279">
        <ele>946.7</ele>
        <time>2021-08-12T11:14:31.000Z</time>
      </trkpt>
      <trkpt lat="45.07839" lon="4.28289">
        <ele>946.4</ele>
        <time>2021-08-12T11:14:33.000Z</time>
      </trkpt>
      <trkpt lat="45.07829" lon="4.28299">
        <ele>945.7</ele>
        <time>2021-08-12T11:14:35.000Z</time>
      </trkpt>
      <trkpt lat="45.07821" lon="4.28308">
        <ele>944.9</ele>
        <time>2021-08-12T11:14:37.000Z</time>
      </trkpt>
      <trkpt lat="45.07811" lon="4.28319">
        <ele>943.8</ele>
        <time>2021-08-12T11:14:40.000Z</time>
      </trkpt>
      <trkpt lat="45.07803" lon="4.28329">
        <ele>943</ele>
        <time>2021-08-12T11:14:42.000Z</time>
      </trkpt>
      <trkpt lat="45.07792" lon="4.28339">
        <ele>941.3</ele>
        <time>2021-08-12T11:14:45.000Z</time>
      </trkpt>
      <trkpt lat="45.07782" lon="4.28349">
        <ele>939.4</ele>
        <time>2021-08-12T11:14:48.000Z</time>
      </trkpt>
      <trkpt lat="45.07776" lon="4.28363">
        <ele>938.3</ele>
        <time>2021-08-12T11:14:50.000Z</time>
      </trkpt>
      <trkpt lat="45.07769" lon="4.28376">
        <ele>936.8</ele>
        <time>2021-08-12T11:14:52.000Z</time>
      </trkpt>
      <trkpt lat="45.0776" lon="4.28389">
        <ele>934.7</ele>
        <time>2021-08-12T11:14:54.000Z</time>
      </trkpt>
      <trkpt lat="45.0775" lon="4.28398">
        <ele>932.1</ele>
        <time>2021-08-12T11:14:56.000Z</time>
      </trkpt>
      <trkpt lat="45.07737" lon="4.28405">
        <ele>928.2</ele>
        <time>2021-08-12T11:14:58.000Z</time>
      </trkpt>
      <trkpt lat="45.07725" lon="4.28417">
        <ele>924.9</ele>
        <time>2021-08-12T11:15:00.000Z</time>
      </trkpt>
      <trkpt lat="45.07717" lon="4.2843">
        <ele>920.6</ele>
        <time>2021-08-12T11:15:02.000Z</time>
      </trkpt>
      <trkpt lat="45.07709" lon="4.28439">
        <ele>917.2</ele>
        <time>2021-08-12T11:15:04.000Z</time>
      </trkpt>
      <trkpt lat="45.077" lon="4.28437">
        <ele>915.1</ele>
        <time>2021-08-12T11:15:07.000Z</time>
      </trkpt>
      <trkpt lat="45.07698" lon="4.28423">
        <ele>916.3</ele>
        <time>2021-08-12T11:15:10.000Z</time>
      </trkpt>
      <trkpt lat="45.07694" lon="4.28407">
        <ele>916</ele>
        <time>2021-08-12T11:15:13.000Z</time>
      </trkpt>
      <trkpt lat="45.07688" lon="4.28393">
        <ele>914</ele>
        <time>2021-08-12T11:15:16.000Z</time>
      </trkpt>
      <trkpt lat="45.07678" lon="4.2838">
        <ele>911.4</ele>
        <time>2021-08-12T11:15:18.000Z</time>
      </trkpt>
      <trkpt lat="45.07667" lon="4.28368">
        <ele>908.2</ele>
        <time>2021-08-12T11:15:20.000Z</time>
      </trkpt>
      <trkpt lat="45.07655" lon="4.28363">
        <ele>906.5</ele>
        <time>2021-08-12T11:15:22.000Z</time>
      </trkpt>
      <trkpt lat="45.07643" lon="4.28365">
        <ele>905</ele>
        <time>2021-08-12T11:15:24.000Z</time>
      </trkpt>
      <trkpt lat="45.07632" lon="4.28365">
        <ele>903.6</ele>
        <time>2021-08-12T11:15:26.000Z</time>
      </trkpt>
      <trkpt lat="45.0762" lon="4.28365">
        <ele>902</ele>
        <time>2021-08-12T11:15:28.000Z</time>
      </trkpt>
      <trkpt lat="45.07608" lon="4.28368">
        <ele>900.6</ele>
        <time>2021-08-12T11:15:30.000Z</time>
      </trkpt>
      <trkpt lat="45.07596" lon="4.28371">
        <ele>899.1</ele>
        <time>2021-08-12T11:15:32.000Z</time>
      </trkpt>
      <trkpt lat="45.07586" lon="4.28375">
        <ele>897.8</ele>
        <time>2021-08-12T11:15:34.000Z</time>
      </trkpt>
      <trkpt lat="45.07576" lon="4.28382">
        <ele>897.5</ele>
        <time>2021-08-12T11:15:36.000Z</time>
      </trkpt>
      <trkpt lat="45.07566" lon="4.28391">
        <ele>897.4</ele>
        <time>2021-08-12T11:15:38.000Z</time>
      </trkpt>
      <trkpt lat="45.07559" lon="4.28399">
        <ele>897.4</ele>
        <time>2021-08-12T11:15:40.000Z</time>
      </trkpt>
      <trkpt lat="45.07552" lon="4.28408">
        <ele>897.5</ele>
        <time>2021-08-12T11:15:42.000Z</time>
      </trkpt>
      <trkpt lat="45.07542" lon="4.28419">
        <ele>897.5</ele>
        <time>2021-08-12T11:15:45.000Z</time>
      </trkpt>
      <trkpt lat="45.07535" lon="4.2843">
        <ele>897.7</ele>
        <time>2021-08-12T11:15:48.000Z</time>
      </trkpt>
      <trkpt lat="45.0753" lon="4.2844">
        <ele>898</ele>
        <time>2021-08-12T11:15:51.000Z</time>
      </trkpt>
      <trkpt lat="45.07524" lon="4.28451">
        <ele>898.4</ele>
        <time>2021-08-12T11:15:55.000Z</time>
      </trkpt>
      <trkpt lat="45.07517" lon="4.2846">
        <ele>898.9</ele>
        <time>2021-08-12T11:15:59.000Z</time>
      </trkpt>
      <trkpt lat="45.07508" lon="4.28468">
        <ele>899.7</ele>
        <time>2021-08-12T11:16:03.000Z</time>
      </trkpt>
      <trkpt lat="45.075" lon="4.28473">
        <ele>900.4</ele>
        <time>2021-08-12T11:16:06.000Z</time>
      </trkpt>
      <trkpt lat="45.0749" lon="4.28478">
        <ele>900.7</ele>
        <time>2021-08-12T11:16:09.000Z</time>
      </trkpt>
      <trkpt lat="45.07479" lon="4.28487">
        <ele>901.1</ele>
        <time>2021-08-12T11:16:12.000Z</time>
      </trkpt>
      <trkpt lat="45.07472" lon="4.28495">
        <ele>901.4</ele>
        <time>2021-08-12T11:16:14.000Z</time>
      </trkpt>
      <trkpt lat="45.07464" lon="4.28508">
        <ele>901.7</ele>
        <time>2021-08-12T11:16:17.000Z</time>
      </trkpt>
      <trkpt lat="45.07458" lon="4.28519">
        <ele>901.7</ele>
        <time>2021-08-12T11:16:20.000Z</time>
      </trkpt>
      <trkpt lat="45.07461" lon="4.28533">
        <ele>902</ele>
        <time>2021-08-12T11:16:24.000Z</time>
      </trkpt>
      <trkpt lat="45.0747" lon="4.28542">
        <ele>902.5</ele>
        <time>2021-08-12T11:16:27.000Z</time>
      </trkpt>
      <trkpt lat="45.07479" lon="4.28549">
        <ele>903.2</ele>
        <time>2021-08-12T11:16:30.000Z</time>
      </trkpt>
      <trkpt lat="45.07489" lon="4.28555">
        <ele>904</ele>
        <time>2021-08-12T11:16:33.000Z</time>
      </trkpt>
      <trkpt lat="45.075" lon="4.28562">
        <ele>904.9</ele>
        <time>2021-08-12T11:16:36.000Z</time>
      </trkpt>
      <trkpt lat="45.07511" lon="4.28571">
        <ele>905</ele>
        <time>2021-08-12T11:16:39.000Z</time>
      </trkpt>
      <trkpt lat="45.07522" lon="4.28575">
        <ele>904.7</ele>
        <time>2021-08-12T11:16:42.000Z</time>
      </trkpt>
      <trkpt lat="45.07531" lon="4.28574">
        <ele>904.3</ele>
        <time>2021-08-12T11:16:45.000Z</time>
      </trkpt>
      <trkpt lat="45.0754" lon="4.28572">
        <ele>903.7</ele>
        <time>2021-08-12T11:16:48.000Z</time>
      </trkpt>
      <trkpt lat="45.07552" lon="4.28573">
        <ele>903.3</ele>
        <time>2021-08-12T11:16:51.000Z</time>
      </trkpt>
      <trkpt lat="45.07561" lon="4.28577">
        <ele>903.3</ele>
        <time>2021-08-12T11:16:54.000Z</time>
      </trkpt>
      <trkpt lat="45.07566" lon="4.28591">
        <ele>904.5</ele>
        <time>2021-08-12T11:16:59.000Z</time>
      </trkpt>
      <trkpt lat="45.07569" lon="4.28606">
        <ele>906.6</ele>
        <time>2021-08-12T11:17:04.000Z</time>
      </trkpt>
      <trkpt lat="45.07575" lon="4.28617">
        <ele>908.2</ele>
        <time>2021-08-12T11:17:08.000Z</time>
      </trkpt>
      <trkpt lat="45.07579" lon="4.2863">
        <ele>910.6</ele>
        <time>2021-08-12T11:17:13.000Z</time>
      </trkpt>
      <trkpt lat="45.07579" lon="4.28644">
        <ele>912.7</ele>
        <time>2021-08-12T11:17:18.000Z</time>
      </trkpt>
      <trkpt lat="45.07588" lon="4.28653">
        <ele>913.6</ele>
        <time>2021-08-12T11:17:23.000Z</time>
      </trkpt>
      <trkpt lat="45.07593" lon="4.28665">
        <ele>914.2</ele>
        <time>2021-08-12T11:17:27.000Z</time>
      </trkpt>
      <trkpt lat="45.07599" lon="4.28677">
        <ele>913.6</ele>
        <time>2021-08-12T11:17:32.000Z</time>
      </trkpt>
      <trkpt lat="45.07599" lon="4.28693">
        <ele>914.7</ele>
        <time>2021-08-12T11:17:36.000Z</time>
      </trkpt>
      <trkpt lat="45.07599" lon="4.28707">
        <ele>915.4</ele>
        <time>2021-08-12T11:17:40.000Z</time>
      </trkpt>
      <trkpt lat="45.07596" lon="4.28719">
        <ele>917.2</ele>
        <time>2021-08-12T11:17:45.000Z</time>
      </trkpt>
      <trkpt lat="45.0759" lon="4.28729">
        <ele>919.2</ele>
        <time>2021-08-12T11:17:49.000Z</time>
      </trkpt>
      <trkpt lat="45.07585" lon="4.28742">
        <ele>921.1</ele>
        <time>2021-08-12T11:17:53.000Z</time>
      </trkpt>
      <trkpt lat="45.07584" lon="4.28755">
        <ele>922</ele>
        <time>2021-08-12T11:17:57.000Z</time>
      </trkpt>
      <trkpt lat="45.07588" lon="4.28766">
        <ele>921.6</ele>
        <time>2021-08-12T11:18:01.000Z</time>
      </trkpt>
      <trkpt lat="45.07595" lon="4.28775">
        <ele>920.6</ele>
        <time>2021-08-12T11:18:05.000Z</time>
      </trkpt>
      <trkpt lat="45.07603" lon="4.28785">
        <ele>919.5</ele>
        <time>2021-08-12T11:18:10.000Z</time>
      </trkpt>
      <trkpt lat="45.07608" lon="4.28797">
        <ele>919.2</ele>
        <time>2021-08-12T11:18:15.000Z</time>
      </trkpt>
      <trkpt lat="45.07606" lon="4.28811">
        <ele>920.3</ele>
        <time>2021-08-12T11:18:20.000Z</time>
      </trkpt>
      <trkpt lat="45.07603" lon="4.28823">
        <ele>921.8</ele>
        <time>2021-08-12T11:18:25.000Z</time>
      </trkpt>
      <trkpt lat="45.07598" lon="4.28835">
        <ele>923.4</ele>
        <time>2021-08-12T11:18:31.000Z</time>
      </trkpt>
      <trkpt lat="45.07596" lon="4.2885">
        <ele>924.8</ele>
        <time>2021-08-12T11:18:35.000Z</time>
      </trkpt>
      <trkpt lat="45.07591" lon="4.28863">
        <ele>926.2</ele>
        <time>2021-08-12T11:18:40.000Z</time>
      </trkpt>
      <trkpt lat="45.07589" lon="4.28877">
        <ele>927.5</ele>
        <time>2021-08-12T11:18:46.000Z</time>
      </trkpt>
      <trkpt lat="45.07585" lon="4.28889">
        <ele>929</ele>
        <time>2021-08-12T11:18:50.000Z</time>
      </trkpt>
      <trkpt lat="45.07578" lon="4.28897">
        <ele>929.9</ele>
        <time>2021-08-12T11:18:55.000Z</time>
      </trkpt>
      <trkpt lat="45.07569" lon="4.28906">
        <ele>930.8</ele>
        <time>2021-08-12T11:19:00.000Z</time>
      </trkpt>
      <trkpt lat="45.07562" lon="4.28918">
        <ele>932.2</ele>
        <time>2021-08-12T11:19:04.000Z</time>
      </trkpt>
      <trkpt lat="45.07554" lon="4.28928">
        <ele>934.1</ele>
        <time>2021-08-12T11:19:09.000Z</time>
      </trkpt>
      <trkpt lat="45.07547" lon="4.28938">
        <ele>935.7</ele>
        <time>2021-08-12T11:19:14.000Z</time>
      </trkpt>
      <trkpt lat="45.0754" lon="4.28947">
        <ele>937.4</ele>
        <time>2021-08-12T11:19:18.000Z</time>
      </trkpt>
      <trkpt lat="45.07532" lon="4.28958">
        <ele>939.4</ele>
        <time>2021-08-12T11:19:22.000Z</time>
      </trkpt>
      <trkpt lat="45.07525" lon="4.28967">
        <ele>941.3</ele>
        <time>2021-08-12T11:19:25.000Z</time>
      </trkpt>
      <trkpt lat="45.07519" lon="4.28978">
        <ele>943.1</ele>
        <time>2021-08-12T11:19:28.000Z</time>
      </trkpt>
      <trkpt lat="45.07513" lon="4.28989">
        <ele>945.3</ele>
        <time>2021-08-12T11:19:31.000Z</time>
      </trkpt>
      <trkpt lat="45.07508" lon="4.29001">
        <ele>947.4</ele>
        <time>2021-08-12T11:19:34.000Z</time>
      </trkpt>
      <trkpt lat="45.07503" lon="4.29012">
        <ele>950</ele>
        <time>2021-08-12T11:19:37.000Z</time>
      </trkpt>
      <trkpt lat="45.07497" lon="4.29026">
        <ele>952</ele>
        <time>2021-08-12T11:19:41.000Z</time>
      </trkpt>
      <trkpt lat="45.07492" lon="4.29038">
        <ele>953.5</ele>
        <time>2021-08-12T11:19:45.000Z</time>
      </trkpt>
      <trkpt lat="45.07487" lon="4.2905">
        <ele>954.7</ele>
        <time>2021-08-12T11:19:49.000Z</time>
      </trkpt>
      <trkpt lat="45.07482" lon="4.29063">
        <ele>956.2</ele>
        <time>2021-08-12T11:19:53.000Z</time>
      </trkpt>
      <trkpt lat="45.07478" lon="4.29076">
        <ele>958</ele>
        <time>2021-08-12T11:19:57.000Z</time>
      </trkpt>
      <trkpt lat="45.07475" lon="4.29089">
        <ele>959.5</ele>
        <time>2021-08-12T11:20:01.000Z</time>
      </trkpt>
      <trkpt lat="45.07471" lon="4.29101">
        <ele>959.9</ele>
        <time>2021-08-12T11:20:05.000Z</time>
      </trkpt>
      <trkpt lat="45.07469" lon="4.29114">
        <ele>960.8</ele>
        <time>2021-08-12T11:20:09.000Z</time>
      </trkpt>
      <trkpt lat="45.07466" lon="4.29128">
        <ele>961.7</ele>
        <time>2021-08-12T11:20:13.000Z</time>
      </trkpt>
      <trkpt lat="45.07462" lon="4.29141">
        <ele>962.3</ele>
        <time>2021-08-12T11:20:17.000Z</time>
      </trkpt>
      <trkpt lat="45.07457" lon="4.29155">
        <ele>963.1</ele>
        <time>2021-08-12T11:20:22.000Z</time>
      </trkpt>
      <trkpt lat="45.07454" lon="4.29168">
        <ele>963.8</ele>
        <time>2021-08-12T11:20:26.000Z</time>
      </trkpt>
      <trkpt lat="45.07448" lon="4.2918">
        <ele>962.9</ele>
        <time>2021-08-12T11:20:31.000Z</time>
      </trkpt>
      <trkpt lat="45.07443" lon="4.29191">
        <ele>962.2</ele>
        <time>2021-08-12T11:20:35.000Z</time>
      </trkpt>
      <trkpt lat="45.07437" lon="4.29202">
        <ele>961.6</ele>
        <time>2021-08-12T11:20:39.000Z</time>
      </trkpt>
      <trkpt lat="45.07432" lon="4.29217">
        <ele>961.3</ele>
        <time>2021-08-12T11:20:43.000Z</time>
      </trkpt>
      <trkpt lat="45.07426" lon="4.29231">
        <ele>961</ele>
        <time>2021-08-12T11:20:47.000Z</time>
      </trkpt>
      <trkpt lat="45.0742" lon="4.29241">
        <ele>960.9</ele>
        <time>2021-08-12T11:20:50.000Z</time>
      </trkpt>
      <trkpt lat="45.07414" lon="4.29251">
        <ele>960.6</ele>
        <time>2021-08-12T11:20:53.000Z</time>
      </trkpt>
      <trkpt lat="45.07404" lon="4.2926">
        <ele>959.4</ele>
        <time>2021-08-12T11:20:57.000Z</time>
      </trkpt>
      <trkpt lat="45.07395" lon="4.29268">
        <ele>958.7</ele>
        <time>2021-08-12T11:21:01.000Z</time>
      </trkpt>
      <trkpt lat="45.07402" lon="4.29279">
        <ele>959.6</ele>
        <time>2021-08-12T11:21:12.000Z</time>
      </trkpt>
      <trkpt lat="45.07412" lon="4.29282">
        <ele>960.6</ele>
        <time>2021-08-12T11:21:17.000Z</time>
      </trkpt>
      <trkpt lat="45.07422" lon="4.29286">
        <ele>961.2</ele>
        <time>2021-08-12T11:21:22.000Z</time>
      </trkpt>
      <trkpt lat="45.07431" lon="4.29292">
        <ele>961.6</ele>
        <time>2021-08-12T11:21:28.000Z</time>
      </trkpt>
      <trkpt lat="45.0744" lon="4.29291">
        <ele>962</ele>
        <time>2021-08-12T11:21:32.000Z</time>
      </trkpt>
      <trkpt lat="45.07449" lon="4.29284">
        <ele>962.5</ele>
        <time>2021-08-12T11:21:37.000Z</time>
      </trkpt>
      <trkpt lat="45.07458" lon="4.29291">
        <ele>962.7</ele>
        <time>2021-08-12T11:21:43.000Z</time>
      </trkpt>
      <trkpt lat="45.07464" lon="4.29303">
        <ele>962.8</ele>
        <time>2021-08-12T11:21:48.000Z</time>
      </trkpt>
      <trkpt lat="45.07466" lon="4.29318">
        <ele>962.5</ele>
        <time>2021-08-12T11:21:52.000Z</time>
      </trkpt>
      <trkpt lat="45.07466" lon="4.29332">
        <ele>962.2</ele>
        <time>2021-08-12T11:21:56.000Z</time>
      </trkpt>
      <trkpt lat="45.07458" lon="4.29341">
        <ele>962</ele>
        <time>2021-08-12T11:22:01.000Z</time>
      </trkpt>
      <trkpt lat="45.07446" lon="4.29341">
        <ele>961.7</ele>
        <time>2021-08-12T11:22:04.000Z</time>
      </trkpt>
      <trkpt lat="45.07433" lon="4.2934">
        <ele>961.3</ele>
        <time>2021-08-12T11:22:07.000Z</time>
      </trkpt>
      <trkpt lat="45.0742" lon="4.29339">
        <ele>961</ele>
        <time>2021-08-12T11:22:10.000Z</time>
      </trkpt>
      <trkpt lat="45.07411" lon="4.29339">
        <ele>960.8</ele>
        <time>2021-08-12T11:22:12.000Z</time>
      </trkpt>
      <trkpt lat="45.07399" lon="4.29337">
        <ele>960.6</ele>
        <time>2021-08-12T11:22:15.000Z</time>
      </trkpt>
      <trkpt lat="45.0739" lon="4.29337">
        <ele>960.4</ele>
        <time>2021-08-12T11:22:18.000Z</time>
      </trkpt>
      <trkpt lat="45.07381" lon="4.2934">
        <ele>960.2</ele>
        <time>2021-08-12T11:22:22.000Z</time>
      </trkpt>
      <trkpt lat="45.07371" lon="4.29341">
        <ele>960</ele>
        <time>2021-08-12T11:22:25.000Z</time>
      </trkpt>
      <trkpt lat="45.07362" lon="4.29345">
        <ele>960</ele>
        <time>2021-08-12T11:22:28.000Z</time>
      </trkpt>
      <trkpt lat="45.07353" lon="4.29349">
        <ele>960</ele>
        <time>2021-08-12T11:22:31.000Z</time>
      </trkpt>
      <trkpt lat="45.07342" lon="4.29353">
        <ele>960</ele>
        <time>2021-08-12T11:22:35.000Z</time>
      </trkpt>
      <trkpt lat="45.07332" lon="4.29357">
        <ele>960.2</ele>
        <time>2021-08-12T11:22:38.000Z</time>
      </trkpt>
      <trkpt lat="45.07322" lon="4.29363">
        <ele>960.9</ele>
        <time>2021-08-12T11:22:42.000Z</time>
      </trkpt>
      <trkpt lat="45.07314" lon="4.2937">
        <ele>961.7</ele>
        <time>2021-08-12T11:22:45.000Z</time>
      </trkpt>
      <trkpt lat="45.07305" lon="4.29376">
        <ele>962.3</ele>
        <time>2021-08-12T11:22:48.000Z</time>
      </trkpt>
      <trkpt lat="45.07295" lon="4.29382">
        <ele>963.1</ele>
        <time>2021-08-12T11:22:52.000Z</time>
      </trkpt>
      <trkpt lat="45.07291" lon="4.29394">
        <ele>963.7</ele>
        <time>2021-08-12T11:22:56.000Z</time>
      </trkpt>
      <trkpt lat="45.07291" lon="4.29409">
        <ele>964.3</ele>
        <time>2021-08-12T11:23:01.000Z</time>
      </trkpt>
      <trkpt lat="45.07289" lon="4.29423">
        <ele>964.3</ele>
        <time>2021-08-12T11:23:05.000Z</time>
      </trkpt>
      <trkpt lat="45.07283" lon="4.29434">
        <ele>964.1</ele>
        <time>2021-08-12T11:23:10.000Z</time>
      </trkpt>
      <trkpt lat="45.07276" lon="4.29442">
        <ele>964</ele>
        <time>2021-08-12T11:23:14.000Z</time>
      </trkpt>
      <trkpt lat="45.07269" lon="4.29451">
        <ele>963.8</ele>
        <time>2021-08-12T11:23:18.000Z</time>
      </trkpt>
      <trkpt lat="45.07261" lon="4.29462">
        <ele>963.5</ele>
        <time>2021-08-12T11:23:22.000Z</time>
      </trkpt>
      <trkpt lat="45.07253" lon="4.29471">
        <ele>963.3</ele>
        <time>2021-08-12T11:23:26.000Z</time>
      </trkpt>
      <trkpt lat="45.07245" lon="4.29481">
        <ele>963.4</ele>
        <time>2021-08-12T11:23:30.000Z</time>
      </trkpt>
      <trkpt lat="45.07238" lon="4.29492">
        <ele>963.5</ele>
        <time>2021-08-12T11:23:37.000Z</time>
      </trkpt>
      <trkpt lat="45.0723" lon="4.29503">
        <ele>963.9</ele>
        <time>2021-08-12T11:23:41.000Z</time>
      </trkpt>
      <trkpt lat="45.07223" lon="4.29514">
        <ele>964.5</ele>
        <time>2021-08-12T11:23:46.000Z</time>
      </trkpt>
      <trkpt lat="45.07217" lon="4.29524">
        <ele>965</ele>
        <time>2021-08-12T11:23:50.000Z</time>
      </trkpt>
      <trkpt lat="45.07211" lon="4.29534">
        <ele>965.6</ele>
        <time>2021-08-12T11:23:54.000Z</time>
      </trkpt>
      <trkpt lat="45.07204" lon="4.29543">
        <ele>966.1</ele>
        <time>2021-08-12T11:23:59.000Z</time>
      </trkpt>
      <trkpt lat="45.07195" lon="4.29551">
        <ele>966.9</ele>
        <time>2021-08-12T11:24:05.000Z</time>
      </trkpt>
      <trkpt lat="45.07188" lon="4.29559">
        <ele>967.4</ele>
        <time>2021-08-12T11:24:12.000Z</time>
      </trkpt>
      <trkpt lat="45.07181" lon="4.29571">
        <ele>967.9</ele>
        <time>2021-08-12T11:24:18.000Z</time>
      </trkpt>
      <trkpt lat="45.07175" lon="4.29582">
        <ele>968.3</ele>
        <time>2021-08-12T11:24:25.000Z</time>
      </trkpt>
      <trkpt lat="45.07172" lon="4.29591">
        <ele>968.9</ele>
        <time>2021-08-12T11:24:39.000Z</time>
      </trkpt>
      <trkpt lat="45.07171" lon="4.29591">
        <ele>969</ele>
        <time>2021-08-12T11:24:42.000Z</time>
      </trkpt>
      <trkpt lat="45.07171" lon="4.29591">
        <ele>969.1</ele>
        <time>2021-08-12T11:24:45.000Z</time>
      </trkpt>
      <trkpt lat="45.07171" lon="4.29591">
        <ele>969.1</ele>
        <time>2021-08-12T11:24:46.000Z</time>
      </trkpt>
      <trkpt lat="45.07168" lon="4.29592">
        <ele>969.3</ele>
        <time>2021-08-12T11:24:53.000Z</time>
      </trkpt>
      <trkpt lat="45.07168" lon="4.29592">
        <ele>969.3</ele>
        <time>2021-08-12T11:24:54.000Z</time>
      </trkpt>
      <trkpt lat="45.07168" lon="4.29592">
        <ele>969.2</ele>
        <time>2021-08-12T11:24:57.000Z</time>
      </trkpt>
      <trkpt lat="45.07168" lon="4.29592">
        <ele>969.2</ele>
        <time>2021-08-12T11:24:58.000Z</time>
      </trkpt>
      <trkpt lat="45.07168" lon="4.29591">
        <ele>969.3</ele>
        <time>2021-08-12T11:25:04.000Z</time>
      </trkpt>
      <trkpt lat="45.07167" lon="4.29592">
        <ele>969.3</ele>
        <time>2021-08-12T11:25:27.000Z</time>
      </trkpt>
      <trkpt lat="45.07167" lon="4.29594">
        <ele>969.4</ele>
        <time>2021-08-12T11:25:34.000Z</time>
      </trkpt>
      <trkpt lat="45.07167" lon="4.29595">
        <ele>969.5</ele>
        <time>2021-08-12T11:26:01.000Z</time>
      </trkpt>
      <trkpt lat="45.07162" lon="4.29607">
        <ele>971.2</ele>
        <time>2021-08-12T11:26:10.000Z</time>
      </trkpt>
      <trkpt lat="45.07158" lon="4.2962">
        <ele>973</ele>
        <time>2021-08-12T11:26:21.000Z</time>
      </trkpt>
      <trkpt lat="45.07154" lon="4.29634">
        <ele>974.5</ele>
        <time>2021-08-12T11:26:27.000Z</time>
      </trkpt>
      <trkpt lat="45.07148" lon="4.29644">
        <ele>976.2</ele>
        <time>2021-08-12T11:26:34.000Z</time>
      </trkpt>
      <trkpt lat="45.07144" lon="4.29656">
        <ele>977.8</ele>
        <time>2021-08-12T11:26:41.000Z</time>
      </trkpt>
      <trkpt lat="45.07139" lon="4.29667">
        <ele>979.3</ele>
        <time>2021-08-12T11:26:46.000Z</time>
      </trkpt>
      <trkpt lat="45.07136" lon="4.2968">
        <ele>981.6</ele>
        <time>2021-08-12T11:26:55.000Z</time>
      </trkpt>
      <trkpt lat="45.07134" lon="4.29694">
        <ele>983.8</ele>
        <time>2021-08-12T11:27:01.000Z</time>
      </trkpt>
      <trkpt lat="45.07133" lon="4.29708">
        <ele>985.6</ele>
        <time>2021-08-12T11:27:08.000Z</time>
      </trkpt>
      <trkpt lat="45.07128" lon="4.2972">
        <ele>987.8</ele>
        <time>2021-08-12T11:27:15.000Z</time>
      </trkpt>
      <trkpt lat="45.07126" lon="4.29732">
        <ele>989.4</ele>
        <time>2021-08-12T11:27:21.000Z</time>
      </trkpt>
      <trkpt lat="45.07124" lon="4.29747">
        <ele>991.3</ele>
        <time>2021-08-12T11:27:26.000Z</time>
      </trkpt>
      <trkpt lat="45.07122" lon="4.2976">
        <ele>993.1</ele>
        <time>2021-08-12T11:27:30.000Z</time>
      </trkpt>
      <trkpt lat="45.07123" lon="4.29774">
        <ele>994.8</ele>
        <time>2021-08-12T11:27:34.000Z</time>
      </trkpt>
      <trkpt lat="45.0712" lon="4.29789">
        <ele>997</ele>
        <time>2021-08-12T11:27:39.000Z</time>
      </trkpt>
      <trkpt lat="45.07116" lon="4.29803">
        <ele>998.9</ele>
        <time>2021-08-12T11:27:45.000Z</time>
      </trkpt>
      <trkpt lat="45.07111" lon="4.29816">
        <ele>1000.4</ele>
        <time>2021-08-12T11:27:50.000Z</time>
      </trkpt>
      <trkpt lat="45.07107" lon="4.29828">
        <ele>1001.9</ele>
        <time>2021-08-12T11:27:55.000Z</time>
      </trkpt>
      <trkpt lat="45.07103" lon="4.29841">
        <ele>1003.4</ele>
        <time>2021-08-12T11:28:01.000Z</time>
      </trkpt>
      <trkpt lat="45.071" lon="4.29854">
        <ele>1005.3</ele>
        <time>2021-08-12T11:28:06.000Z</time>
      </trkpt>
      <trkpt lat="45.07097" lon="4.29867">
        <ele>1007.1</ele>
        <time>2021-08-12T11:28:11.000Z</time>
      </trkpt>
      <trkpt lat="45.07094" lon="4.2988">
        <ele>1009.1</ele>
        <time>2021-08-12T11:28:17.000Z</time>
      </trkpt>
      <trkpt lat="45.07093" lon="4.29892">
        <ele>1011</ele>
        <time>2021-08-12T11:28:22.000Z</time>
      </trkpt>
      <trkpt lat="45.07089" lon="4.29906">
        <ele>1013.1</ele>
        <time>2021-08-12T11:28:28.000Z</time>
      </trkpt>
      <trkpt lat="45.07082" lon="4.29917">
        <ele>1015</ele>
        <time>2021-08-12T11:28:34.000Z</time>
      </trkpt>
      <trkpt lat="45.07077" lon="4.29928">
        <ele>1015.1</ele>
        <time>2021-08-12T11:28:38.000Z</time>
      </trkpt>
      <trkpt lat="45.07073" lon="4.29941">
        <ele>1015.3</ele>
        <time>2021-08-12T11:28:43.000Z</time>
      </trkpt>
      <trkpt lat="45.07068" lon="4.29955">
        <ele>1015.7</ele>
        <time>2021-08-12T11:28:48.000Z</time>
      </trkpt>
      <trkpt lat="45.07067" lon="4.29967">
        <ele>1016</ele>
        <time>2021-08-12T11:28:52.000Z</time>
      </trkpt>
      <trkpt lat="45.07066" lon="4.29983">
        <ele>1016.4</ele>
        <time>2021-08-12T11:28:56.000Z</time>
      </trkpt>
      <trkpt lat="45.07066" lon="4.29999">
        <ele>1016.8</ele>
        <time>2021-08-12T11:29:00.000Z</time>
      </trkpt>
      <trkpt lat="45.07062" lon="4.30011">
        <ele>1015.6</ele>
        <time>2021-08-12T11:29:04.000Z</time>
      </trkpt>
      <trkpt lat="45.07058" lon="4.30026">
        <ele>1014.1</ele>
        <time>2021-08-12T11:29:08.000Z</time>
      </trkpt>
      <trkpt lat="45.07052" lon="4.3004">
        <ele>1012.8</ele>
        <time>2021-08-12T11:29:12.000Z</time>
      </trkpt>
      <trkpt lat="45.07047" lon="4.30053">
        <ele>1011.7</ele>
        <time>2021-08-12T11:29:16.000Z</time>
      </trkpt>
      <trkpt lat="45.07044" lon="4.30066">
        <ele>1010.7</ele>
        <time>2021-08-12T11:29:18.000Z</time>
      </trkpt>
      <trkpt lat="45.07039" lon="4.30079">
        <ele>1009.9</ele>
        <time>2021-08-12T11:29:21.000Z</time>
      </trkpt>
      <trkpt lat="45.07033" lon="4.3009">
        <ele>1009.8</ele>
        <time>2021-08-12T11:29:24.000Z</time>
      </trkpt>
      <trkpt lat="45.07027" lon="4.30102">
        <ele>1009.7</ele>
        <time>2021-08-12T11:29:28.000Z</time>
      </trkpt>
      <trkpt lat="45.07022" lon="4.30116">
        <ele>1009.2</ele>
        <time>2021-08-12T11:29:31.000Z</time>
      </trkpt>
      <trkpt lat="45.07017" lon="4.30128">
        <ele>1009.1</ele>
        <time>2021-08-12T11:29:34.000Z</time>
      </trkpt>
      <trkpt lat="45.07013" lon="4.30143">
        <ele>1008.7</ele>
        <time>2021-08-12T11:29:37.000Z</time>
      </trkpt>
      <trkpt lat="45.0701" lon="4.30156">
        <ele>1008.3</ele>
        <time>2021-08-12T11:29:40.000Z</time>
      </trkpt>
      <trkpt lat="45.07003" lon="4.30168">
        <ele>1008.5</ele>
        <time>2021-08-12T11:29:44.000Z</time>
      </trkpt>
      <trkpt lat="45.06996" lon="4.30176">
        <ele>1009.5</ele>
        <time>2021-08-12T11:29:46.000Z</time>
      </trkpt>
      <trkpt lat="45.06986" lon="4.30186">
        <ele>1010.3</ele>
        <time>2021-08-12T11:29:48.000Z</time>
      </trkpt>
      <trkpt lat="45.06975" lon="4.30196">
        <ele>1011.1</ele>
        <time>2021-08-12T11:29:51.000Z</time>
      </trkpt>
      <trkpt lat="45.06963" lon="4.3021">
        <ele>1011.7</ele>
        <time>2021-08-12T11:29:53.000Z</time>
      </trkpt>
      <trkpt lat="45.06955" lon="4.30218">
        <ele>1011.9</ele>
        <time>2021-08-12T11:29:55.000Z</time>
      </trkpt>
      <trkpt lat="45.06944" lon="4.30228">
        <ele>1012.1</ele>
        <time>2021-08-12T11:29:57.000Z</time>
      </trkpt>
      <trkpt lat="45.06934" lon="4.30234">
        <ele>1012.3</ele>
        <time>2021-08-12T11:29:59.000Z</time>
      </trkpt>
      <trkpt lat="45.06924" lon="4.30246">
        <ele>1012.1</ele>
        <time>2021-08-12T11:30:01.000Z</time>
      </trkpt>
      <trkpt lat="45.06915" lon="4.30248">
        <ele>1012.2</ele>
        <time>2021-08-12T11:30:04.000Z</time>
      </trkpt>
      <trkpt lat="45.06906" lon="4.30247">
        <ele>1012.8</ele>
        <time>2021-08-12T11:30:06.000Z</time>
      </trkpt>
      <trkpt lat="45.06893" lon="4.30245">
        <ele>1013.4</ele>
        <time>2021-08-12T11:30:09.000Z</time>
      </trkpt>
      <trkpt lat="45.06881" lon="4.30244">
        <ele>1014</ele>
        <time>2021-08-12T11:30:11.000Z</time>
      </trkpt>
      <trkpt lat="45.06871" lon="4.30242">
        <ele>1014.5</ele>
        <time>2021-08-12T11:30:13.000Z</time>
      </trkpt>
      <trkpt lat="45.06861" lon="4.30235">
        <ele>1015.3</ele>
        <time>2021-08-12T11:30:15.000Z</time>
      </trkpt>
      <trkpt lat="45.06849" lon="4.30229">
        <ele>1015.9</ele>
        <time>2021-08-12T11:30:17.000Z</time>
      </trkpt>
      <trkpt lat="45.06841" lon="4.30223">
        <ele>1016.4</ele>
        <time>2021-08-12T11:30:19.000Z</time>
      </trkpt>
      <trkpt lat="45.06828" lon="4.30222">
        <ele>1016.7</ele>
        <time>2021-08-12T11:30:21.000Z</time>
      </trkpt>
      <trkpt lat="45.06814" lon="4.30219">
        <ele>1016.7</ele>
        <time>2021-08-12T11:30:23.000Z</time>
      </trkpt>
      <trkpt lat="45.06803" lon="4.30214">
        <ele>1016.5</ele>
        <time>2021-08-12T11:30:25.000Z</time>
      </trkpt>
      <trkpt lat="45.06794" lon="4.30205">
        <ele>1016.2</ele>
        <time>2021-08-12T11:30:27.000Z</time>
      </trkpt>
      <trkpt lat="45.06784" lon="4.30198">
        <ele>1015.6</ele>
        <time>2021-08-12T11:30:29.000Z</time>
      </trkpt>
      <trkpt lat="45.06773" lon="4.30193">
        <ele>1015.1</ele>
        <time>2021-08-12T11:30:32.000Z</time>
      </trkpt>
      <trkpt lat="45.06764" lon="4.3019">
        <ele>1014.6</ele>
        <time>2021-08-12T11:30:35.000Z</time>
      </trkpt>
      <trkpt lat="45.06755" lon="4.30182">
        <ele>1013.5</ele>
        <time>2021-08-12T11:30:37.000Z</time>
      </trkpt>
      <trkpt lat="45.06743" lon="4.30177">
        <ele>1012.5</ele>
        <time>2021-08-12T11:30:40.000Z</time>
      </trkpt>
      <trkpt lat="45.0673" lon="4.30174">
        <ele>1011.7</ele>
        <time>2021-08-12T11:30:42.000Z</time>
      </trkpt>
      <trkpt lat="45.06718" lon="4.3017">
        <ele>1011</ele>
        <time>2021-08-12T11:30:44.000Z</time>
      </trkpt>
      <trkpt lat="45.06709" lon="4.30167">
        <ele>1010.5</ele>
        <time>2021-08-12T11:30:46.000Z</time>
      </trkpt>
      <trkpt lat="45.06697" lon="4.30164">
        <ele>1010.2</ele>
        <time>2021-08-12T11:30:49.000Z</time>
      </trkpt>
      <trkpt lat="45.06685" lon="4.3016">
        <ele>1010</ele>
        <time>2021-08-12T11:30:52.000Z</time>
      </trkpt>
      <trkpt lat="45.06674" lon="4.30153">
        <ele>1009.9</ele>
        <time>2021-08-12T11:30:54.000Z</time>
      </trkpt>
      <trkpt lat="45.06665" lon="4.30149">
        <ele>1009.9</ele>
        <time>2021-08-12T11:30:56.000Z</time>
      </trkpt>
      <trkpt lat="45.06653" lon="4.30144">
        <ele>1010.1</ele>
        <time>2021-08-12T11:30:59.000Z</time>
      </trkpt>
      <trkpt lat="45.06642" lon="4.30137">
        <ele>1010.4</ele>
        <time>2021-08-12T11:31:02.000Z</time>
      </trkpt>
      <trkpt lat="45.06631" lon="4.30131">
        <ele>1010.6</ele>
        <time>2021-08-12T11:31:05.000Z</time>
      </trkpt>
      <trkpt lat="45.06623" lon="4.30117">
        <ele>1011.6</ele>
        <time>2021-08-12T11:31:08.000Z</time>
      </trkpt>
      <trkpt lat="45.06616" lon="4.30105">
        <ele>1012.3</ele>
        <time>2021-08-12T11:31:10.000Z</time>
      </trkpt>
      <trkpt lat="45.06605" lon="4.30097">
        <ele>1012.9</ele>
        <time>2021-08-12T11:31:12.000Z</time>
      </trkpt>
      <trkpt lat="45.06595" lon="4.30086">
        <ele>1013.7</ele>
        <time>2021-08-12T11:31:14.000Z</time>
      </trkpt>
      <trkpt lat="45.06585" lon="4.30076">
        <ele>1014.1</ele>
        <time>2021-08-12T11:31:16.000Z</time>
      </trkpt>
      <trkpt lat="45.06574" lon="4.30069">
        <ele>1013.5</ele>
        <time>2021-08-12T11:31:18.000Z</time>
      </trkpt>
      <trkpt lat="45.06564" lon="4.30066">
        <ele>1012.8</ele>
        <time>2021-08-12T11:31:20.000Z</time>
      </trkpt>
      <trkpt lat="45.0655" lon="4.30063">
        <ele>1011.6</ele>
        <time>2021-08-12T11:31:23.000Z</time>
      </trkpt>
      <trkpt lat="45.0654" lon="4.30056">
        <ele>1010.9</ele>
        <time>2021-08-12T11:31:25.000Z</time>
      </trkpt>
      <trkpt lat="45.0653" lon="4.30044">
        <ele>1010</ele>
        <time>2021-08-12T11:31:27.000Z</time>
      </trkpt>
      <trkpt lat="45.06518" lon="4.30034">
        <ele>1008.9</ele>
        <time>2021-08-12T11:31:29.000Z</time>
      </trkpt>
      <trkpt lat="45.06506" lon="4.30022">
        <ele>1007.8</ele>
        <time>2021-08-12T11:31:31.000Z</time>
      </trkpt>
      <trkpt lat="45.06492" lon="4.30008">
        <ele>1005.8</ele>
        <time>2021-08-12T11:31:33.000Z</time>
      </trkpt>
      <trkpt lat="45.06483" lon="4.3">
        <ele>1004.4</ele>
        <time>2021-08-12T11:31:34.000Z</time>
      </trkpt>
      <trkpt lat="45.06475" lon="4.29993">
        <ele>1002.9</ele>
        <time>2021-08-12T11:31:35.000Z</time>
      </trkpt>
      <trkpt lat="45.06467" lon="4.29986">
        <ele>1001.5</ele>
        <time>2021-08-12T11:31:36.000Z</time>
      </trkpt>
      <trkpt lat="45.06458" lon="4.29979">
        <ele>999.7</ele>
        <time>2021-08-12T11:31:37.000Z</time>
      </trkpt>
      <trkpt lat="45.06448" lon="4.29973">
        <ele>998.1</ele>
        <time>2021-08-12T11:31:38.000Z</time>
      </trkpt>
      <trkpt lat="45.0644" lon="4.29967">
        <ele>996.6</ele>
        <time>2021-08-12T11:31:39.000Z</time>
      </trkpt>
      <trkpt lat="45.06425" lon="4.29958">
        <ele>993.8</ele>
        <time>2021-08-12T11:31:41.000Z</time>
      </trkpt>
      <trkpt lat="45.06413" lon="4.29948">
        <ele>991.8</ele>
        <time>2021-08-12T11:31:43.000Z</time>
      </trkpt>
      <trkpt lat="45.06402" lon="4.29942">
        <ele>990.6</ele>
        <time>2021-08-12T11:31:45.000Z</time>
      </trkpt>
      <trkpt lat="45.06393" lon="4.29935">
        <ele>989.6</ele>
        <time>2021-08-12T11:31:48.000Z</time>
      </trkpt>
      <trkpt lat="45.06384" lon="4.29927">
        <ele>988.8</ele>
        <time>2021-08-12T11:31:50.000Z</time>
      </trkpt>
      <trkpt lat="45.06375" lon="4.29922">
        <ele>988</ele>
        <time>2021-08-12T11:31:52.000Z</time>
      </trkpt>
      <trkpt lat="45.06367" lon="4.29915">
        <ele>987.2</ele>
        <time>2021-08-12T11:31:54.000Z</time>
      </trkpt>
      <trkpt lat="45.06359" lon="4.29902">
        <ele>985.7</ele>
        <time>2021-08-12T11:31:57.000Z</time>
      </trkpt>
      <trkpt lat="45.06356" lon="4.29886">
        <ele>983.9</ele>
        <time>2021-08-12T11:32:00.000Z</time>
      </trkpt>
      <trkpt lat="45.06351" lon="4.29872">
        <ele>982.3</ele>
        <time>2021-08-12T11:32:04.000Z</time>
      </trkpt>
      <trkpt lat="45.06351" lon="4.29858">
        <ele>981.1</ele>
        <time>2021-08-12T11:32:09.000Z</time>
      </trkpt>
      <trkpt lat="45.06353" lon="4.29841">
        <ele>979.9</ele>
        <time>2021-08-12T11:32:13.000Z</time>
      </trkpt>
      <trkpt lat="45.06354" lon="4.29828">
        <ele>978.7</ele>
        <time>2021-08-12T11:32:15.000Z</time>
      </trkpt>
      <trkpt lat="45.06355" lon="4.29815">
        <ele>977.3</ele>
        <time>2021-08-12T11:32:17.000Z</time>
      </trkpt>
      <trkpt lat="45.06355" lon="4.29798">
        <ele>975.6</ele>
        <time>2021-08-12T11:32:20.000Z</time>
      </trkpt>
      <trkpt lat="45.06347" lon="4.29804">
        <ele>975.1</ele>
        <time>2021-08-12T11:32:25.000Z</time>
      </trkpt>
      <trkpt lat="45.06342" lon="4.29821">
        <ele>976.5</ele>
        <time>2021-08-12T11:32:28.000Z</time>
      </trkpt>
      <trkpt lat="45.06339" lon="4.29833">
        <ele>977.4</ele>
        <time>2021-08-12T11:32:30.000Z</time>
      </trkpt>
      <trkpt lat="45.06336" lon="4.29847">
        <ele>978.5</ele>
        <time>2021-08-12T11:32:32.000Z</time>
      </trkpt>
      <trkpt lat="45.06333" lon="4.29861">
        <ele>979.6</ele>
        <time>2021-08-12T11:32:34.000Z</time>
      </trkpt>
      <trkpt lat="45.06329" lon="4.29876">
        <ele>980.2</ele>
        <time>2021-08-12T11:32:36.000Z</time>
      </trkpt>
      <trkpt lat="45.06324" lon="4.2989">
        <ele>980.6</ele>
        <time>2021-08-12T11:32:38.000Z</time>
      </trkpt>
      <trkpt lat="45.06318" lon="4.29903">
        <ele>980.6</ele>
        <time>2021-08-12T11:32:40.000Z</time>
      </trkpt>
      <trkpt lat="45.0631" lon="4.29912">
        <ele>979.8</ele>
        <time>2021-08-12T11:32:42.000Z</time>
      </trkpt>
      <trkpt lat="45.063" lon="4.2992">
        <ele>978.2</ele>
        <time>2021-08-12T11:32:44.000Z</time>
      </trkpt>
      <trkpt lat="45.06287" lon="4.29924">
        <ele>975.5</ele>
        <time>2021-08-12T11:32:46.000Z</time>
      </trkpt>
      <trkpt lat="45.06275" lon="4.29922">
        <ele>972.9</ele>
        <time>2021-08-12T11:32:48.000Z</time>
      </trkpt>
      <trkpt lat="45.06264" lon="4.29914">
        <ele>970.7</ele>
        <time>2021-08-12T11:32:50.000Z</time>
      </trkpt>
      <trkpt lat="45.06255" lon="4.29904">
        <ele>968.3</ele>
        <time>2021-08-12T11:32:52.000Z</time>
      </trkpt>
      <trkpt lat="45.06249" lon="4.2989">
        <ele>966.3</ele>
        <time>2021-08-12T11:32:54.000Z</time>
      </trkpt>
      <trkpt lat="45.06244" lon="4.29876">
        <ele>965.3</ele>
        <time>2021-08-12T11:32:56.000Z</time>
      </trkpt>
      <trkpt lat="45.0624" lon="4.29862">
        <ele>964.6</ele>
        <time>2021-08-12T11:32:58.000Z</time>
      </trkpt>
      <trkpt lat="45.06237" lon="4.29848">
        <ele>963.7</ele>
        <time>2021-08-12T11:33:00.000Z</time>
      </trkpt>
      <trkpt lat="45.06234" lon="4.29834">
        <ele>963</ele>
        <time>2021-08-12T11:33:02.000Z</time>
      </trkpt>
      <trkpt lat="45.06231" lon="4.29821">
        <ele>962</ele>
        <time>2021-08-12T11:33:04.000Z</time>
      </trkpt>
      <trkpt lat="45.06226" lon="4.29808">
        <ele>960.8</ele>
        <time>2021-08-12T11:33:06.000Z</time>
      </trkpt>
      <trkpt lat="45.06222" lon="4.29796">
        <ele>959.7</ele>
        <time>2021-08-12T11:33:08.000Z</time>
      </trkpt>
      <trkpt lat="45.06218" lon="4.29784">
        <ele>958.5</ele>
        <time>2021-08-12T11:33:10.000Z</time>
      </trkpt>
      <trkpt lat="45.06212" lon="4.29773">
        <ele>957.2</ele>
        <time>2021-08-12T11:33:12.000Z</time>
      </trkpt>
      <trkpt lat="45.06202" lon="4.29763">
        <ele>956</ele>
        <time>2021-08-12T11:33:14.000Z</time>
      </trkpt>
      <trkpt lat="45.06193" lon="4.29755">
        <ele>954.7</ele>
        <time>2021-08-12T11:33:16.000Z</time>
      </trkpt>
      <trkpt lat="45.06184" lon="4.29748">
        <ele>953.7</ele>
        <time>2021-08-12T11:33:19.000Z</time>
      </trkpt>
      <trkpt lat="45.0617" lon="4.29745">
        <ele>953</ele>
        <time>2021-08-12T11:33:22.000Z</time>
      </trkpt>
      <trkpt lat="45.06159" lon="4.29741">
        <ele>953.4</ele>
        <time>2021-08-12T11:33:24.000Z</time>
      </trkpt>
      <trkpt lat="45.06147" lon="4.29741">
        <ele>954.2</ele>
        <time>2021-08-12T11:33:26.000Z</time>
      </trkpt>
      <trkpt lat="45.06136" lon="4.29745">
        <ele>955.3</ele>
        <time>2021-08-12T11:33:28.000Z</time>
      </trkpt>
      <trkpt lat="45.06126" lon="4.29751">
        <ele>956.8</ele>
        <time>2021-08-12T11:33:30.000Z</time>
      </trkpt>
      <trkpt lat="45.06119" lon="4.2976">
        <ele>958.9</ele>
        <time>2021-08-12T11:33:32.000Z</time>
      </trkpt>
      <trkpt lat="45.06111" lon="4.29773">
        <ele>961.9</ele>
        <time>2021-08-12T11:33:34.000Z</time>
      </trkpt>
      <trkpt lat="45.06104" lon="4.29789">
        <ele>965.1</ele>
        <time>2021-08-12T11:33:36.000Z</time>
      </trkpt>
      <trkpt lat="45.06099" lon="4.29807">
        <ele>968.4</ele>
        <time>2021-08-12T11:33:38.000Z</time>
      </trkpt>
      <trkpt lat="45.06096" lon="4.29824">
        <ele>971.7</ele>
        <time>2021-08-12T11:33:40.000Z</time>
      </trkpt>
      <trkpt lat="45.06092" lon="4.29842">
        <ele>973.8</ele>
        <time>2021-08-12T11:33:42.000Z</time>
      </trkpt>
      <trkpt lat="45.06085" lon="4.2986">
        <ele>974.7</ele>
        <time>2021-08-12T11:33:44.000Z</time>
      </trkpt>
      <trkpt lat="45.06079" lon="4.29877">
        <ele>974.2</ele>
        <time>2021-08-12T11:33:46.000Z</time>
      </trkpt>
      <trkpt lat="45.06074" lon="4.29897">
        <ele>973.4</ele>
        <time>2021-08-12T11:33:48.000Z</time>
      </trkpt>
      <trkpt lat="45.06067" lon="4.29915">
        <ele>972.6</ele>
        <time>2021-08-12T11:33:50.000Z</time>
      </trkpt>
      <trkpt lat="45.0606" lon="4.29932">
        <ele>971.7</ele>
        <time>2021-08-12T11:33:52.000Z</time>
      </trkpt>
      <trkpt lat="45.06053" lon="4.29951">
        <ele>970.8</ele>
        <time>2021-08-12T11:33:54.000Z</time>
      </trkpt>
      <trkpt lat="45.06045" lon="4.29968">
        <ele>970</ele>
        <time>2021-08-12T11:33:56.000Z</time>
      </trkpt>
      <trkpt lat="45.06035" lon="4.29982">
        <ele>969.1</ele>
        <time>2021-08-12T11:33:58.000Z</time>
      </trkpt>
      <trkpt lat="45.06026" lon="4.29994">
        <ele>968.3</ele>
        <time>2021-08-12T11:34:00.000Z</time>
      </trkpt>
      <trkpt lat="45.06017" lon="4.30006">
        <ele>967.9</ele>
        <time>2021-08-12T11:34:02.000Z</time>
      </trkpt>
      <trkpt lat="45.06008" lon="4.30018">
        <ele>967.5</ele>
        <time>2021-08-12T11:34:04.000Z</time>
      </trkpt>
      <trkpt lat="45.05999" lon="4.3003">
        <ele>967.4</ele>
        <time>2021-08-12T11:34:06.000Z</time>
      </trkpt>
      <trkpt lat="45.05992" lon="4.30042">
        <ele>967</ele>
        <time>2021-08-12T11:34:08.000Z</time>
      </trkpt>
      <trkpt lat="45.05987" lon="4.30055">
        <ele>966.9</ele>
        <time>2021-08-12T11:34:10.000Z</time>
      </trkpt>
      <trkpt lat="45.05985" lon="4.3007">
        <ele>967.3</ele>
        <time>2021-08-12T11:34:12.000Z</time>
      </trkpt>
      <trkpt lat="45.05983" lon="4.30084">
        <ele>967.8</ele>
        <time>2021-08-12T11:34:14.000Z</time>
      </trkpt>
      <trkpt lat="45.05983" lon="4.30099">
        <ele>967.6</ele>
        <time>2021-08-12T11:34:16.000Z</time>
      </trkpt>
      <trkpt lat="45.05984" lon="4.30115">
        <ele>967.6</ele>
        <time>2021-08-12T11:34:18.000Z</time>
      </trkpt>
      <trkpt lat="45.05988" lon="4.30133">
        <ele>967.8</ele>
        <time>2021-08-12T11:34:20.000Z</time>
      </trkpt>
      <trkpt lat="45.05993" lon="4.30149">
        <ele>968.3</ele>
        <time>2021-08-12T11:34:22.000Z</time>
      </trkpt>
      <trkpt lat="45.05999" lon="4.30163">
        <ele>968.9</ele>
        <time>2021-08-12T11:34:24.000Z</time>
      </trkpt>
      <trkpt lat="45.06006" lon="4.30177">
        <ele>968.8</ele>
        <time>2021-08-12T11:34:26.000Z</time>
      </trkpt>
      <trkpt lat="45.06013" lon="4.30189">
        <ele>968.4</ele>
        <time>2021-08-12T11:34:28.000Z</time>
      </trkpt>
      <trkpt lat="45.06019" lon="4.302">
        <ele>968.3</ele>
        <time>2021-08-12T11:34:30.000Z</time>
      </trkpt>
      <trkpt lat="45.06027" lon="4.30214">
        <ele>968.2</ele>
        <time>2021-08-12T11:34:33.000Z</time>
      </trkpt>
      <trkpt lat="45.06033" lon="4.30229">
        <ele>968</ele>
        <time>2021-08-12T11:34:36.000Z</time>
      </trkpt>
      <trkpt lat="45.06032" lon="4.30243">
        <ele>967.4</ele>
        <time>2021-08-12T11:34:39.000Z</time>
      </trkpt>
      <trkpt lat="45.06023" lon="4.30253">
        <ele>966.2</ele>
        <time>2021-08-12T11:34:42.000Z</time>
      </trkpt>
      <trkpt lat="45.06011" lon="4.30257">
        <ele>964.9</ele>
        <time>2021-08-12T11:34:45.000Z</time>
      </trkpt>
      <trkpt lat="45.05999" lon="4.30262">
        <ele>963.5</ele>
        <time>2021-08-12T11:34:48.000Z</time>
      </trkpt>
      <trkpt lat="45.05989" lon="4.30272">
        <ele>962.1</ele>
        <time>2021-08-12T11:34:51.000Z</time>
      </trkpt>
      <trkpt lat="45.0598" lon="4.30282">
        <ele>960.7</ele>
        <time>2021-08-12T11:34:53.000Z</time>
      </trkpt>
      <trkpt lat="45.05975" lon="4.30296">
        <ele>959.3</ele>
        <time>2021-08-12T11:34:55.000Z</time>
      </trkpt>
      <trkpt lat="45.05979" lon="4.3031">
        <ele>959</ele>
        <time>2021-08-12T11:34:57.000Z</time>
      </trkpt>
      <trkpt lat="45.05988" lon="4.30325">
        <ele>959.6</ele>
        <time>2021-08-12T11:34:59.000Z</time>
      </trkpt>
      <trkpt lat="45.05998" lon="4.30337">
        <ele>960.8</ele>
        <time>2021-08-12T11:35:01.000Z</time>
      </trkpt>
      <trkpt lat="45.06009" lon="4.30348">
        <ele>962.5</ele>
        <time>2021-08-12T11:35:03.000Z</time>
      </trkpt>
      <trkpt lat="45.06019" lon="4.30358">
        <ele>964.2</ele>
        <time>2021-08-12T11:35:05.000Z</time>
      </trkpt>
      <trkpt lat="45.06022" lon="4.30373">
        <ele>965</ele>
        <time>2021-08-12T11:35:07.000Z</time>
      </trkpt>
      <trkpt lat="45.06021" lon="4.30396">
        <ele>965.3</ele>
        <time>2021-08-12T11:35:09.000Z</time>
      </trkpt>
      <trkpt lat="45.06023" lon="4.3042">
        <ele>966.1</ele>
        <time>2021-08-12T11:35:11.000Z</time>
      </trkpt>
      <trkpt lat="45.0602" lon="4.30442">
        <ele>967.4</ele>
        <time>2021-08-12T11:35:13.000Z</time>
      </trkpt>
      <trkpt lat="45.06014" lon="4.30464">
        <ele>967.9</ele>
        <time>2021-08-12T11:35:15.000Z</time>
      </trkpt>
      <trkpt lat="45.06006" lon="4.30484">
        <ele>967.8</ele>
        <time>2021-08-12T11:35:17.000Z</time>
      </trkpt>
      <trkpt lat="45.05996" lon="4.30504">
        <ele>967.2</ele>
        <time>2021-08-12T11:35:19.000Z</time>
      </trkpt>
      <trkpt lat="45.05985" lon="4.30519">
        <ele>964.7</ele>
        <time>2021-08-12T11:35:21.000Z</time>
      </trkpt>
      <trkpt lat="45.0597" lon="4.30525">
        <ele>961.3</ele>
        <time>2021-08-12T11:35:23.000Z</time>
      </trkpt>
      <trkpt lat="45.05956" lon="4.30518">
        <ele>956.8</ele>
        <time>2021-08-12T11:35:25.000Z</time>
      </trkpt>
      <trkpt lat="45.05945" lon="4.30502">
        <ele>952.3</ele>
        <time>2021-08-12T11:35:27.000Z</time>
      </trkpt>
      <trkpt lat="45.05932" lon="4.30494">
        <ele>947.9</ele>
        <time>2021-08-12T11:35:29.000Z</time>
      </trkpt>
      <trkpt lat="45.05919" lon="4.30494">
        <ele>944.1</ele>
        <time>2021-08-12T11:35:31.000Z</time>
      </trkpt>
      <trkpt lat="45.05909" lon="4.30492">
        <ele>942.6</ele>
        <time>2021-08-12T11:35:33.000Z</time>
      </trkpt>
      <trkpt lat="45.05906" lon="4.30478">
        <ele>941.6</ele>
        <time>2021-08-12T11:35:36.000Z</time>
      </trkpt>
      <trkpt lat="45.05908" lon="4.30462">
        <ele>940.7</ele>
        <time>2021-08-12T11:35:39.000Z</time>
      </trkpt>
      <trkpt lat="45.05909" lon="4.30447">
        <ele>939.8</ele>
        <time>2021-08-12T11:35:42.000Z</time>
      </trkpt>
      <trkpt lat="45.05911" lon="4.3043">
        <ele>938.7</ele>
        <time>2021-08-12T11:35:45.000Z</time>
      </trkpt>
      <trkpt lat="45.05912" lon="4.30417">
        <ele>937.9</ele>
        <time>2021-08-12T11:35:48.000Z</time>
      </trkpt>
      <trkpt lat="45.05921" lon="4.30424">
        <ele>939.7</ele>
        <time>2021-08-12T11:35:55.000Z</time>
      </trkpt>
      <trkpt lat="45.05924" lon="4.30424">
        <ele>940.5</ele>
        <time>2021-08-12T11:36:02.000Z</time>
      </trkpt>
      <trkpt lat="45.05924" lon="4.30424">
        <ele>940.5</ele>
        <time>2021-08-12T11:36:04.000Z</time>
      </trkpt>
      <trkpt lat="45.05924" lon="4.30423">
        <ele>940.4</ele>
        <time>2021-08-12T11:36:08.000Z</time>
      </trkpt>
      <trkpt lat="45.05924" lon="4.30423">
        <ele>940.4</ele>
        <time>2021-08-12T11:36:08.000Z</time>
      </trkpt>
    </trkseg>
  </trk>
</gpx>